<?xml version="1.0" encoding="UTF-8" standalone="no" ?>
<gpx xmlns="http://www.topografix.com/GPX/1/1" xmlns:xsi="http://www.w3.org/2001/XMLSchema-instance" xsi:schemaLocation="http://www.topografix.com/GPX/1/1 http://www.topografix.com/GPX/1/1/gpx.xsd" version="1.1" creator="VisuGPX - https://www.visugpx.com">
  <metadata>
    <name>Ce vélo est Mavic.</name>
  </metadata>
  <trk>
    <name><![CDATA[Ce vélo est Mavic.]]></name>
    <trkseg>
      <trkpt lat="49.44861" lon="1.09543">
        <ele>41.7</ele>
        <time>2021-03-21T14:42:38Z</time>
      </trkpt>
      <trkpt lat="49.44864" lon="1.09556">
        <ele>41.7</ele>
        <time>2021-03-21T14:42:39Z</time>
      </trkpt>
      <trkpt lat="49.44866" lon="1.09567">
        <ele>41.6</ele>
        <time>2021-03-21T14:42:40Z</time>
      </trkpt>
      <trkpt lat="49.44864" lon="1.09566">
        <ele>41.6</ele>
        <time>2021-03-21T14:42:42Z</time>
      </trkpt>
      <trkpt lat="49.44861" lon="1.09565">
        <ele>41.6</ele>
        <time>2021-03-21T14:42:43Z</time>
      </trkpt>
      <trkpt lat="49.44858" lon="1.09564">
        <ele>41.6</ele>
        <time>2021-03-21T14:42:45Z</time>
      </trkpt>
      <trkpt lat="49.44856" lon="1.09562">
        <ele>41.5</ele>
        <time>2021-03-21T14:42:46Z</time>
      </trkpt>
      <trkpt lat="49.44853" lon="1.09561">
        <ele>41.5</ele>
        <time>2021-03-21T14:42:48Z</time>
      </trkpt>
      <trkpt lat="49.44851" lon="1.0956">
        <ele>41.4</ele>
        <time>2021-03-21T14:42:49Z</time>
      </trkpt>
      <trkpt lat="49.44848" lon="1.09559">
        <ele>41.4</ele>
        <time>2021-03-21T14:42:50Z</time>
      </trkpt>
      <trkpt lat="49.4485" lon="1.09555">
        <ele>41.3</ele>
        <time>2021-03-21T14:42:52Z</time>
      </trkpt>
      <trkpt lat="49.44839" lon="1.09553">
        <ele>41.1</ele>
        <time>2021-03-21T14:42:54Z</time>
      </trkpt>
      <trkpt lat="49.4484" lon="1.09552">
        <ele>41.1</ele>
        <time>2021-03-21T14:42:56Z</time>
      </trkpt>
      <trkpt lat="49.4484" lon="1.09552">
        <ele>41.1</ele>
        <time>2021-03-21T14:42:57Z</time>
      </trkpt>
      <trkpt lat="49.44841" lon="1.09549">
        <ele>41</ele>
        <time>2021-03-21T14:42:59Z</time>
      </trkpt>
      <trkpt lat="49.44841" lon="1.09549">
        <ele>41</ele>
        <time>2021-03-21T14:43:01Z</time>
      </trkpt>
      <trkpt lat="49.44834" lon="1.09548">
        <ele>40.9</ele>
        <time>2021-03-21T14:43:03Z</time>
      </trkpt>
      <trkpt lat="49.44811" lon="1.09542">
        <ele>40.3</ele>
        <time>2021-03-21T14:43:05Z</time>
      </trkpt>
      <trkpt lat="49.44806" lon="1.0954">
        <ele>40.2</ele>
        <time>2021-03-21T14:43:06Z</time>
      </trkpt>
      <trkpt lat="49.44796" lon="1.09538">
        <ele>39.9</ele>
        <time>2021-03-21T14:43:08Z</time>
      </trkpt>
      <trkpt lat="49.44785" lon="1.09536">
        <ele>39.5</ele>
        <time>2021-03-21T14:43:10Z</time>
      </trkpt>
      <trkpt lat="49.44775" lon="1.09532">
        <ele>39.2</ele>
        <time>2021-03-21T14:43:12Z</time>
      </trkpt>
      <trkpt lat="49.44764" lon="1.09531">
        <ele>38.9</ele>
        <time>2021-03-21T14:43:14Z</time>
      </trkpt>
      <trkpt lat="49.44752" lon="1.09534">
        <ele>38.6</ele>
        <time>2021-03-21T14:43:16Z</time>
      </trkpt>
      <trkpt lat="49.44743" lon="1.09533">
        <ele>38.4</ele>
        <time>2021-03-21T14:43:18Z</time>
      </trkpt>
      <trkpt lat="49.44736" lon="1.09536">
        <ele>38.3</ele>
        <time>2021-03-21T14:43:20Z</time>
      </trkpt>
      <trkpt lat="49.44733" lon="1.09538">
        <ele>38.3</ele>
        <time>2021-03-21T14:43:21Z</time>
      </trkpt>
      <trkpt lat="49.44729" lon="1.09539">
        <ele>38.5</ele>
        <time>2021-03-21T14:43:22Z</time>
      </trkpt>
      <trkpt lat="49.44728" lon="1.09539">
        <ele>38.5</ele>
        <time>2021-03-21T14:43:23Z</time>
      </trkpt>
      <trkpt lat="49.44725" lon="1.09543">
        <ele>38.6</ele>
        <time>2021-03-21T14:43:25Z</time>
      </trkpt>
      <trkpt lat="49.44726" lon="1.09557">
        <ele>38.9</ele>
        <time>2021-03-21T14:43:27Z</time>
      </trkpt>
      <trkpt lat="49.44722" lon="1.09569">
        <ele>39.2</ele>
        <time>2021-03-21T14:43:29Z</time>
      </trkpt>
      <trkpt lat="49.44721" lon="1.09584">
        <ele>39.5</ele>
        <time>2021-03-21T14:43:31Z</time>
      </trkpt>
      <trkpt lat="49.44722" lon="1.09593">
        <ele>39.6</ele>
        <time>2021-03-21T14:43:32Z</time>
      </trkpt>
      <trkpt lat="49.44722" lon="1.09611">
        <ele>40</ele>
        <time>2021-03-21T14:43:34Z</time>
      </trkpt>
      <trkpt lat="49.44721" lon="1.09629">
        <ele>40.3</ele>
        <time>2021-03-21T14:43:36Z</time>
      </trkpt>
      <trkpt lat="49.44724" lon="1.0964">
        <ele>40.6</ele>
        <time>2021-03-21T14:43:37Z</time>
      </trkpt>
      <trkpt lat="49.44725" lon="1.09649">
        <ele>40.8</ele>
        <time>2021-03-21T14:43:38Z</time>
      </trkpt>
      <trkpt lat="49.44726" lon="1.09657">
        <ele>40.9</ele>
        <time>2021-03-21T14:43:39Z</time>
      </trkpt>
      <trkpt lat="49.44727" lon="1.09663">
        <ele>41.1</ele>
        <time>2021-03-21T14:43:40Z</time>
      </trkpt>
      <trkpt lat="49.44731" lon="1.09672">
        <ele>41.3</ele>
        <time>2021-03-21T14:43:42Z</time>
      </trkpt>
      <trkpt lat="49.44736" lon="1.09682">
        <ele>41.5</ele>
        <time>2021-03-21T14:43:44Z</time>
      </trkpt>
      <trkpt lat="49.44743" lon="1.09694">
        <ele>41.9</ele>
        <time>2021-03-21T14:43:46Z</time>
      </trkpt>
      <trkpt lat="49.44746" lon="1.097">
        <ele>42</ele>
        <time>2021-03-21T14:43:47Z</time>
      </trkpt>
      <trkpt lat="49.44752" lon="1.0971">
        <ele>42.3</ele>
        <time>2021-03-21T14:43:49Z</time>
      </trkpt>
      <trkpt lat="49.44754" lon="1.09717">
        <ele>42.5</ele>
        <time>2021-03-21T14:43:50Z</time>
      </trkpt>
      <trkpt lat="49.44758" lon="1.09725">
        <ele>42.7</ele>
        <time>2021-03-21T14:43:51Z</time>
      </trkpt>
      <trkpt lat="49.44763" lon="1.09735">
        <ele>43.1</ele>
        <time>2021-03-21T14:43:53Z</time>
      </trkpt>
      <trkpt lat="49.44769" lon="1.0975">
        <ele>43.5</ele>
        <time>2021-03-21T14:43:55Z</time>
      </trkpt>
      <trkpt lat="49.44772" lon="1.09757">
        <ele>43.7</ele>
        <time>2021-03-21T14:43:56Z</time>
      </trkpt>
      <trkpt lat="49.44778" lon="1.09772">
        <ele>44.1</ele>
        <time>2021-03-21T14:43:58Z</time>
      </trkpt>
      <trkpt lat="49.44784" lon="1.09789">
        <ele>44.5</ele>
        <time>2021-03-21T14:44:00Z</time>
      </trkpt>
      <trkpt lat="49.44788" lon="1.09803">
        <ele>44.8</ele>
        <time>2021-03-21T14:44:02Z</time>
      </trkpt>
      <trkpt lat="49.4479" lon="1.09812">
        <ele>44.9</ele>
        <time>2021-03-21T14:44:03Z</time>
      </trkpt>
      <trkpt lat="49.44795" lon="1.09824">
        <ele>45.2</ele>
        <time>2021-03-21T14:44:05Z</time>
      </trkpt>
      <trkpt lat="49.44801" lon="1.09835">
        <ele>45.4</ele>
        <time>2021-03-21T14:44:07Z</time>
      </trkpt>
      <trkpt lat="49.44807" lon="1.09849">
        <ele>45.7</ele>
        <time>2021-03-21T14:44:09Z</time>
      </trkpt>
      <trkpt lat="49.44814" lon="1.09867">
        <ele>46</ele>
        <time>2021-03-21T14:44:11Z</time>
      </trkpt>
      <trkpt lat="49.44817" lon="1.09872">
        <ele>46.1</ele>
        <time>2021-03-21T14:44:12Z</time>
      </trkpt>
      <trkpt lat="49.4482" lon="1.0989">
        <ele>46.3</ele>
        <time>2021-03-21T14:44:14Z</time>
      </trkpt>
      <trkpt lat="49.44825" lon="1.09905">
        <ele>46.6</ele>
        <time>2021-03-21T14:44:16Z</time>
      </trkpt>
      <trkpt lat="49.44827" lon="1.09912">
        <ele>46.7</ele>
        <time>2021-03-21T14:44:17Z</time>
      </trkpt>
      <trkpt lat="49.44832" lon="1.09923">
        <ele>47</ele>
        <time>2021-03-21T14:44:19Z</time>
      </trkpt>
      <trkpt lat="49.44836" lon="1.09932">
        <ele>47.2</ele>
        <time>2021-03-21T14:44:21Z</time>
      </trkpt>
      <trkpt lat="49.44841" lon="1.09943">
        <ele>47.5</ele>
        <time>2021-03-21T14:44:23Z</time>
      </trkpt>
      <trkpt lat="49.44844" lon="1.09951">
        <ele>47.7</ele>
        <time>2021-03-21T14:44:24Z</time>
      </trkpt>
      <trkpt lat="49.44848" lon="1.09969">
        <ele>48</ele>
        <time>2021-03-21T14:44:26Z</time>
      </trkpt>
      <trkpt lat="49.44846" lon="1.09993">
        <ele>48.2</ele>
        <time>2021-03-21T14:44:28Z</time>
      </trkpt>
      <trkpt lat="49.44843" lon="1.10009">
        <ele>48.4</ele>
        <time>2021-03-21T14:44:30Z</time>
      </trkpt>
      <trkpt lat="49.44842" lon="1.10017">
        <ele>48.5</ele>
        <time>2021-03-21T14:44:31Z</time>
      </trkpt>
      <trkpt lat="49.44841" lon="1.10026">
        <ele>48.6</ele>
        <time>2021-03-21T14:44:32Z</time>
      </trkpt>
      <trkpt lat="49.44837" lon="1.10033">
        <ele>48.8</ele>
        <time>2021-03-21T14:44:33Z</time>
      </trkpt>
      <trkpt lat="49.44833" lon="1.10047">
        <ele>48.8</ele>
        <time>2021-03-21T14:44:35Z</time>
      </trkpt>
      <trkpt lat="49.4483" lon="1.10057">
        <ele>48.8</ele>
        <time>2021-03-21T14:44:37Z</time>
      </trkpt>
      <trkpt lat="49.44828" lon="1.10066">
        <ele>48.8</ele>
        <time>2021-03-21T14:44:38Z</time>
      </trkpt>
      <trkpt lat="49.44826" lon="1.10073">
        <ele>48.9</ele>
        <time>2021-03-21T14:44:39Z</time>
      </trkpt>
      <trkpt lat="49.44823" lon="1.10082">
        <ele>48.9</ele>
        <time>2021-03-21T14:44:40Z</time>
      </trkpt>
      <trkpt lat="49.44817" lon="1.101">
        <ele>49</ele>
        <time>2021-03-21T14:44:42Z</time>
      </trkpt>
      <trkpt lat="49.44814" lon="1.10108">
        <ele>49.1</ele>
        <time>2021-03-21T14:44:43Z</time>
      </trkpt>
      <trkpt lat="49.44811" lon="1.10122">
        <ele>49.2</ele>
        <time>2021-03-21T14:44:45Z</time>
      </trkpt>
      <trkpt lat="49.44808" lon="1.10129">
        <ele>49.2</ele>
        <time>2021-03-21T14:44:46Z</time>
      </trkpt>
      <trkpt lat="49.44803" lon="1.10141">
        <ele>49.3</ele>
        <time>2021-03-21T14:44:48Z</time>
      </trkpt>
      <trkpt lat="49.44799" lon="1.10153">
        <ele>49.4</ele>
        <time>2021-03-21T14:44:50Z</time>
      </trkpt>
      <trkpt lat="49.44791" lon="1.10166">
        <ele>49.5</ele>
        <time>2021-03-21T14:44:52Z</time>
      </trkpt>
      <trkpt lat="49.44788" lon="1.10172">
        <ele>49.5</ele>
        <time>2021-03-21T14:44:53Z</time>
      </trkpt>
      <trkpt lat="49.44783" lon="1.10185">
        <ele>49.6</ele>
        <time>2021-03-21T14:44:55Z</time>
      </trkpt>
      <trkpt lat="49.44779" lon="1.10197">
        <ele>49.6</ele>
        <time>2021-03-21T14:44:57Z</time>
      </trkpt>
      <trkpt lat="49.44774" lon="1.10213">
        <ele>49.6</ele>
        <time>2021-03-21T14:44:59Z</time>
      </trkpt>
      <trkpt lat="49.44768" lon="1.10227">
        <ele>49.6</ele>
        <time>2021-03-21T14:45:01Z</time>
      </trkpt>
      <trkpt lat="49.44766" lon="1.10234">
        <ele>49.5</ele>
        <time>2021-03-21T14:45:02Z</time>
      </trkpt>
      <trkpt lat="49.44759" lon="1.1025">
        <ele>49.4</ele>
        <time>2021-03-21T14:45:04Z</time>
      </trkpt>
      <trkpt lat="49.44754" lon="1.10266">
        <ele>49.2</ele>
        <time>2021-03-21T14:45:06Z</time>
      </trkpt>
      <trkpt lat="49.4475" lon="1.10273">
        <ele>49.1</ele>
        <time>2021-03-21T14:45:07Z</time>
      </trkpt>
      <trkpt lat="49.44744" lon="1.10291">
        <ele>48.9</ele>
        <time>2021-03-21T14:45:09Z</time>
      </trkpt>
      <trkpt lat="49.44738" lon="1.10312">
        <ele>48.7</ele>
        <time>2021-03-21T14:45:11Z</time>
      </trkpt>
      <trkpt lat="49.44732" lon="1.10331">
        <ele>48.5</ele>
        <time>2021-03-21T14:45:13Z</time>
      </trkpt>
      <trkpt lat="49.44727" lon="1.10349">
        <ele>48.3</ele>
        <time>2021-03-21T14:45:15Z</time>
      </trkpt>
      <trkpt lat="49.44724" lon="1.10357">
        <ele>48.3</ele>
        <time>2021-03-21T14:45:16Z</time>
      </trkpt>
      <trkpt lat="49.44718" lon="1.10376">
        <ele>48.1</ele>
        <time>2021-03-21T14:45:18Z</time>
      </trkpt>
      <trkpt lat="49.44715" lon="1.10386">
        <ele>48</ele>
        <time>2021-03-21T14:45:19Z</time>
      </trkpt>
      <trkpt lat="49.44709" lon="1.10404">
        <ele>47.8</ele>
        <time>2021-03-21T14:45:21Z</time>
      </trkpt>
      <trkpt lat="49.44703" lon="1.10423">
        <ele>47.7</ele>
        <time>2021-03-21T14:45:23Z</time>
      </trkpt>
      <trkpt lat="49.44698" lon="1.1044">
        <ele>47.5</ele>
        <time>2021-03-21T14:45:25Z</time>
      </trkpt>
      <trkpt lat="49.44692" lon="1.10458">
        <ele>47.4</ele>
        <time>2021-03-21T14:45:27Z</time>
      </trkpt>
      <trkpt lat="49.44688" lon="1.10467">
        <ele>47.3</ele>
        <time>2021-03-21T14:45:28Z</time>
      </trkpt>
      <trkpt lat="49.44682" lon="1.10487">
        <ele>47.1</ele>
        <time>2021-03-21T14:45:30Z</time>
      </trkpt>
      <trkpt lat="49.44676" lon="1.10506">
        <ele>46.8</ele>
        <time>2021-03-21T14:45:32Z</time>
      </trkpt>
      <trkpt lat="49.44669" lon="1.10525">
        <ele>46.6</ele>
        <time>2021-03-21T14:45:34Z</time>
      </trkpt>
      <trkpt lat="49.44666" lon="1.10536">
        <ele>46.4</ele>
        <time>2021-03-21T14:45:35Z</time>
      </trkpt>
      <trkpt lat="49.44663" lon="1.10547">
        <ele>46.2</ele>
        <time>2021-03-21T14:45:36Z</time>
      </trkpt>
      <trkpt lat="49.44655" lon="1.10569">
        <ele>46</ele>
        <time>2021-03-21T14:45:38Z</time>
      </trkpt>
      <trkpt lat="49.44649" lon="1.10592">
        <ele>45.9</ele>
        <time>2021-03-21T14:45:40Z</time>
      </trkpt>
      <trkpt lat="49.44643" lon="1.10613">
        <ele>45.7</ele>
        <time>2021-03-21T14:45:42Z</time>
      </trkpt>
      <trkpt lat="49.44635" lon="1.10632">
        <ele>45.4</ele>
        <time>2021-03-21T14:45:44Z</time>
      </trkpt>
      <trkpt lat="49.44631" lon="1.10641">
        <ele>45.3</ele>
        <time>2021-03-21T14:45:45Z</time>
      </trkpt>
      <trkpt lat="49.44624" lon="1.1066">
        <ele>45</ele>
        <time>2021-03-21T14:45:47Z</time>
      </trkpt>
      <trkpt lat="49.44621" lon="1.1067">
        <ele>44.9</ele>
        <time>2021-03-21T14:45:48Z</time>
      </trkpt>
      <trkpt lat="49.44617" lon="1.10679">
        <ele>44.7</ele>
        <time>2021-03-21T14:45:49Z</time>
      </trkpt>
      <trkpt lat="49.44614" lon="1.1069">
        <ele>44.5</ele>
        <time>2021-03-21T14:45:50Z</time>
      </trkpt>
      <trkpt lat="49.44607" lon="1.10711">
        <ele>44.3</ele>
        <time>2021-03-21T14:45:52Z</time>
      </trkpt>
      <trkpt lat="49.44601" lon="1.10731">
        <ele>44.2</ele>
        <time>2021-03-21T14:45:54Z</time>
      </trkpt>
      <trkpt lat="49.44597" lon="1.10741">
        <ele>44</ele>
        <time>2021-03-21T14:45:55Z</time>
      </trkpt>
      <trkpt lat="49.4459" lon="1.1076">
        <ele>43.8</ele>
        <time>2021-03-21T14:45:57Z</time>
      </trkpt>
      <trkpt lat="49.44585" lon="1.1078">
        <ele>43.6</ele>
        <time>2021-03-21T14:45:59Z</time>
      </trkpt>
      <trkpt lat="49.44581" lon="1.10789">
        <ele>43.5</ele>
        <time>2021-03-21T14:46:00Z</time>
      </trkpt>
      <trkpt lat="49.44578" lon="1.10798">
        <ele>43.4</ele>
        <time>2021-03-21T14:46:01Z</time>
      </trkpt>
      <trkpt lat="49.44575" lon="1.10807">
        <ele>43.4</ele>
        <time>2021-03-21T14:46:02Z</time>
      </trkpt>
      <trkpt lat="49.44569" lon="1.10825">
        <ele>43.2</ele>
        <time>2021-03-21T14:46:04Z</time>
      </trkpt>
      <trkpt lat="49.44566" lon="1.10835">
        <ele>43.2</ele>
        <time>2021-03-21T14:46:05Z</time>
      </trkpt>
      <trkpt lat="49.44561" lon="1.10855">
        <ele>43</ele>
        <time>2021-03-21T14:46:07Z</time>
      </trkpt>
      <trkpt lat="49.44556" lon="1.10875">
        <ele>42.8</ele>
        <time>2021-03-21T14:46:09Z</time>
      </trkpt>
      <trkpt lat="49.4455" lon="1.10894">
        <ele>42.7</ele>
        <time>2021-03-21T14:46:11Z</time>
      </trkpt>
      <trkpt lat="49.44545" lon="1.10914">
        <ele>42.6</ele>
        <time>2021-03-21T14:46:13Z</time>
      </trkpt>
      <trkpt lat="49.44542" lon="1.10924">
        <ele>42.5</ele>
        <time>2021-03-21T14:46:14Z</time>
      </trkpt>
      <trkpt lat="49.44535" lon="1.10944">
        <ele>42.3</ele>
        <time>2021-03-21T14:46:16Z</time>
      </trkpt>
      <trkpt lat="49.44526" lon="1.10963">
        <ele>42.1</ele>
        <time>2021-03-21T14:46:18Z</time>
      </trkpt>
      <trkpt lat="49.4452" lon="1.10982">
        <ele>42</ele>
        <time>2021-03-21T14:46:20Z</time>
      </trkpt>
      <trkpt lat="49.44517" lon="1.10993">
        <ele>41.8</ele>
        <time>2021-03-21T14:46:21Z</time>
      </trkpt>
      <trkpt lat="49.4451" lon="1.11013">
        <ele>41.5</ele>
        <time>2021-03-21T14:46:23Z</time>
      </trkpt>
      <trkpt lat="49.44503" lon="1.11034">
        <ele>41.1</ele>
        <time>2021-03-21T14:46:25Z</time>
      </trkpt>
      <trkpt lat="49.44495" lon="1.11056">
        <ele>40.8</ele>
        <time>2021-03-21T14:46:27Z</time>
      </trkpt>
      <trkpt lat="49.44491" lon="1.11067">
        <ele>40.6</ele>
        <time>2021-03-21T14:46:28Z</time>
      </trkpt>
      <trkpt lat="49.44482" lon="1.11086">
        <ele>40.1</ele>
        <time>2021-03-21T14:46:30Z</time>
      </trkpt>
      <trkpt lat="49.44473" lon="1.11107">
        <ele>39.4</ele>
        <time>2021-03-21T14:46:32Z</time>
      </trkpt>
      <trkpt lat="49.44465" lon="1.11127">
        <ele>38.7</ele>
        <time>2021-03-21T14:46:34Z</time>
      </trkpt>
      <trkpt lat="49.4446" lon="1.11139">
        <ele>38.2</ele>
        <time>2021-03-21T14:46:35Z</time>
      </trkpt>
      <trkpt lat="49.44452" lon="1.11161">
        <ele>37.2</ele>
        <time>2021-03-21T14:46:37Z</time>
      </trkpt>
      <trkpt lat="49.44442" lon="1.11184">
        <ele>36.4</ele>
        <time>2021-03-21T14:46:39Z</time>
      </trkpt>
      <trkpt lat="49.44436" lon="1.11196">
        <ele>36.2</ele>
        <time>2021-03-21T14:46:40Z</time>
      </trkpt>
      <trkpt lat="49.44431" lon="1.11207">
        <ele>35.6</ele>
        <time>2021-03-21T14:46:41Z</time>
      </trkpt>
      <trkpt lat="49.4442" lon="1.11225">
        <ele>34.5</ele>
        <time>2021-03-21T14:46:43Z</time>
      </trkpt>
      <trkpt lat="49.44404" lon="1.11243">
        <ele>33.1</ele>
        <time>2021-03-21T14:46:45Z</time>
      </trkpt>
      <trkpt lat="49.44389" lon="1.11258">
        <ele>31.7</ele>
        <time>2021-03-21T14:46:47Z</time>
      </trkpt>
      <trkpt lat="49.44368" lon="1.11268">
        <ele>30.5</ele>
        <time>2021-03-21T14:46:49Z</time>
      </trkpt>
      <trkpt lat="49.44358" lon="1.11271">
        <ele>29.9</ele>
        <time>2021-03-21T14:46:50Z</time>
      </trkpt>
      <trkpt lat="49.44348" lon="1.11275">
        <ele>29.3</ele>
        <time>2021-03-21T14:46:51Z</time>
      </trkpt>
      <trkpt lat="49.44336" lon="1.11274">
        <ele>28.5</ele>
        <time>2021-03-21T14:46:52Z</time>
      </trkpt>
      <trkpt lat="49.44316" lon="1.11275">
        <ele>27.5</ele>
        <time>2021-03-21T14:46:54Z</time>
      </trkpt>
      <trkpt lat="49.44304" lon="1.11278">
        <ele>27.1</ele>
        <time>2021-03-21T14:46:56Z</time>
      </trkpt>
      <trkpt lat="49.44296" lon="1.11281">
        <ele>26.6</ele>
        <time>2021-03-21T14:46:57Z</time>
      </trkpt>
      <trkpt lat="49.44281" lon="1.1128">
        <ele>25.6</ele>
        <time>2021-03-21T14:46:59Z</time>
      </trkpt>
      <trkpt lat="49.44273" lon="1.11279">
        <ele>25.1</ele>
        <time>2021-03-21T14:47:00Z</time>
      </trkpt>
      <trkpt lat="49.44261" lon="1.11281">
        <ele>24.4</ele>
        <time>2021-03-21T14:47:02Z</time>
      </trkpt>
      <trkpt lat="49.44255" lon="1.11282">
        <ele>23.9</ele>
        <time>2021-03-21T14:47:03Z</time>
      </trkpt>
      <trkpt lat="49.44248" lon="1.11281">
        <ele>23.4</ele>
        <time>2021-03-21T14:47:04Z</time>
      </trkpt>
      <trkpt lat="49.44235" lon="1.11268">
        <ele>22.3</ele>
        <time>2021-03-21T14:47:06Z</time>
      </trkpt>
      <trkpt lat="49.44229" lon="1.11262">
        <ele>21.4</ele>
        <time>2021-03-21T14:47:07Z</time>
      </trkpt>
      <trkpt lat="49.44214" lon="1.11263">
        <ele>20.8</ele>
        <time>2021-03-21T14:47:09Z</time>
      </trkpt>
      <trkpt lat="49.44197" lon="1.11273">
        <ele>20.2</ele>
        <time>2021-03-21T14:47:11Z</time>
      </trkpt>
      <trkpt lat="49.44188" lon="1.11274">
        <ele>19.8</ele>
        <time>2021-03-21T14:47:12Z</time>
      </trkpt>
      <trkpt lat="49.44169" lon="1.11275">
        <ele>18.9</ele>
        <time>2021-03-21T14:47:14Z</time>
      </trkpt>
      <trkpt lat="49.44159" lon="1.11275">
        <ele>18.3</ele>
        <time>2021-03-21T14:47:15Z</time>
      </trkpt>
      <trkpt lat="49.4415" lon="1.11275">
        <ele>17.7</ele>
        <time>2021-03-21T14:47:16Z</time>
      </trkpt>
      <trkpt lat="49.44132" lon="1.11276">
        <ele>16.7</ele>
        <time>2021-03-21T14:47:18Z</time>
      </trkpt>
      <trkpt lat="49.44111" lon="1.11275">
        <ele>15.3</ele>
        <time>2021-03-21T14:47:20Z</time>
      </trkpt>
      <trkpt lat="49.44091" lon="1.11274">
        <ele>14.1</ele>
        <time>2021-03-21T14:47:22Z</time>
      </trkpt>
      <trkpt lat="49.44081" lon="1.11277">
        <ele>13.6</ele>
        <time>2021-03-21T14:47:23Z</time>
      </trkpt>
      <trkpt lat="49.44061" lon="1.11276">
        <ele>12.7</ele>
        <time>2021-03-21T14:47:25Z</time>
      </trkpt>
      <trkpt lat="49.44043" lon="1.1127">
        <ele>12.2</ele>
        <time>2021-03-21T14:47:27Z</time>
      </trkpt>
      <trkpt lat="49.44035" lon="1.11264">
        <ele>12.1</ele>
        <time>2021-03-21T14:47:28Z</time>
      </trkpt>
      <trkpt lat="49.44028" lon="1.11254">
        <ele>11.9</ele>
        <time>2021-03-21T14:47:29Z</time>
      </trkpt>
      <trkpt lat="49.44022" lon="1.11229">
        <ele>11.5</ele>
        <time>2021-03-21T14:47:31Z</time>
      </trkpt>
      <trkpt lat="49.44019" lon="1.1122">
        <ele>11.4</ele>
        <time>2021-03-21T14:47:32Z</time>
      </trkpt>
      <trkpt lat="49.44013" lon="1.11216">
        <ele>11.2</ele>
        <time>2021-03-21T14:47:33Z</time>
      </trkpt>
      <trkpt lat="49.44006" lon="1.1121">
        <ele>11</ele>
        <time>2021-03-21T14:47:34Z</time>
      </trkpt>
      <trkpt lat="49.43993" lon="1.11212">
        <ele>10.5</ele>
        <time>2021-03-21T14:47:36Z</time>
      </trkpt>
      <trkpt lat="49.4399" lon="1.11217">
        <ele>9.8</ele>
        <time>2021-03-21T14:47:37Z</time>
      </trkpt>
      <trkpt lat="49.4399" lon="1.11225">
        <ele>9.8</ele>
        <time>2021-03-21T14:47:38Z</time>
      </trkpt>
      <trkpt lat="49.43995" lon="1.11239">
        <ele>9.9</ele>
        <time>2021-03-21T14:47:40Z</time>
      </trkpt>
      <trkpt lat="49.43996" lon="1.1125">
        <ele>10</ele>
        <time>2021-03-21T14:47:41Z</time>
      </trkpt>
      <trkpt lat="49.43995" lon="1.11267">
        <ele>10.1</ele>
        <time>2021-03-21T14:47:43Z</time>
      </trkpt>
      <trkpt lat="49.43994" lon="1.11284">
        <ele>10.2</ele>
        <time>2021-03-21T14:47:45Z</time>
      </trkpt>
      <trkpt lat="49.43994" lon="1.11294">
        <ele>10.3</ele>
        <time>2021-03-21T14:47:46Z</time>
      </trkpt>
      <trkpt lat="49.43994" lon="1.11313">
        <ele>10.5</ele>
        <time>2021-03-21T14:47:48Z</time>
      </trkpt>
      <trkpt lat="49.43993" lon="1.11327">
        <ele>10.7</ele>
        <time>2021-03-21T14:47:50Z</time>
      </trkpt>
      <trkpt lat="49.43989" lon="1.1133">
        <ele>10.7</ele>
        <time>2021-03-21T14:47:51Z</time>
      </trkpt>
      <trkpt lat="49.43986" lon="1.11332">
        <ele>10.7</ele>
        <time>2021-03-21T14:47:52Z</time>
      </trkpt>
      <trkpt lat="49.43983" lon="1.11336">
        <ele>10.6</ele>
        <time>2021-03-21T14:47:53Z</time>
      </trkpt>
      <trkpt lat="49.43975" lon="1.11347">
        <ele>10.5</ele>
        <time>2021-03-21T14:47:55Z</time>
      </trkpt>
      <trkpt lat="49.43965" lon="1.11361">
        <ele>10.4</ele>
        <time>2021-03-21T14:47:57Z</time>
      </trkpt>
      <trkpt lat="49.43954" lon="1.11377">
        <ele>10.4</ele>
        <time>2021-03-21T14:47:59Z</time>
      </trkpt>
      <trkpt lat="49.4395" lon="1.11385">
        <ele>10.4</ele>
        <time>2021-03-21T14:48:00Z</time>
      </trkpt>
      <trkpt lat="49.43945" lon="1.11398">
        <ele>10.3</ele>
        <time>2021-03-21T14:48:02Z</time>
      </trkpt>
      <trkpt lat="49.43945" lon="1.11407">
        <ele>10.2</ele>
        <time>2021-03-21T14:48:03Z</time>
      </trkpt>
      <trkpt lat="49.43944" lon="1.11416">
        <ele>10.2</ele>
        <time>2021-03-21T14:48:04Z</time>
      </trkpt>
      <trkpt lat="49.4394" lon="1.11433">
        <ele>10.1</ele>
        <time>2021-03-21T14:48:06Z</time>
      </trkpt>
      <trkpt lat="49.43937" lon="1.11448">
        <ele>10</ele>
        <time>2021-03-21T14:48:08Z</time>
      </trkpt>
      <trkpt lat="49.43936" lon="1.11468">
        <ele>10</ele>
        <time>2021-03-21T14:48:10Z</time>
      </trkpt>
      <trkpt lat="49.43934" lon="1.11488">
        <ele>10</ele>
        <time>2021-03-21T14:48:12Z</time>
      </trkpt>
      <trkpt lat="49.43933" lon="1.11506">
        <ele>10</ele>
        <time>2021-03-21T14:48:14Z</time>
      </trkpt>
      <trkpt lat="49.43931" lon="1.11514">
        <ele>10.1</ele>
        <time>2021-03-21T14:48:15Z</time>
      </trkpt>
      <trkpt lat="49.43928" lon="1.11528">
        <ele>9.8</ele>
        <time>2021-03-21T14:48:17Z</time>
      </trkpt>
      <trkpt lat="49.43927" lon="1.11534">
        <ele>9.7</ele>
        <time>2021-03-21T14:48:18Z</time>
      </trkpt>
      <trkpt lat="49.43928" lon="1.11544">
        <ele>9.6</ele>
        <time>2021-03-21T14:48:20Z</time>
      </trkpt>
      <trkpt lat="49.4393" lon="1.1155">
        <ele>9.5</ele>
        <time>2021-03-21T14:48:21Z</time>
      </trkpt>
      <trkpt lat="49.43934" lon="1.11565">
        <ele>9.3</ele>
        <time>2021-03-21T14:48:23Z</time>
      </trkpt>
      <trkpt lat="49.43937" lon="1.11571">
        <ele>9.2</ele>
        <time>2021-03-21T14:48:24Z</time>
      </trkpt>
      <trkpt lat="49.43942" lon="1.11582">
        <ele>9.1</ele>
        <time>2021-03-21T14:48:26Z</time>
      </trkpt>
      <trkpt lat="49.43945" lon="1.11592">
        <ele>9.1</ele>
        <time>2021-03-21T14:48:28Z</time>
      </trkpt>
      <trkpt lat="49.43945" lon="1.11593">
        <ele>9.1</ele>
        <time>2021-03-21T14:48:30Z</time>
      </trkpt>
      <trkpt lat="49.43945" lon="1.11592">
        <ele>9.1</ele>
        <time>2021-03-21T14:48:32Z</time>
      </trkpt>
      <trkpt lat="49.43945" lon="1.11592">
        <ele>9.1</ele>
        <time>2021-03-21T14:48:33Z</time>
      </trkpt>
      <trkpt lat="49.43945" lon="1.11592">
        <ele>9.1</ele>
        <time>2021-03-21T14:48:35Z</time>
      </trkpt>
      <trkpt lat="49.43945" lon="1.116">
        <ele>9.1</ele>
        <time>2021-03-21T14:48:37Z</time>
      </trkpt>
      <trkpt lat="49.43945" lon="1.11605">
        <ele>9.1</ele>
        <time>2021-03-21T14:48:39Z</time>
      </trkpt>
      <trkpt lat="49.43946" lon="1.11602">
        <ele>9.1</ele>
        <time>2021-03-21T14:49:23Z</time>
      </trkpt>
      <trkpt lat="49.43947" lon="1.116">
        <ele>9.1</ele>
        <time>2021-03-21T14:49:24Z</time>
      </trkpt>
      <trkpt lat="49.43948" lon="1.11598">
        <ele>9.1</ele>
        <time>2021-03-21T14:49:25Z</time>
      </trkpt>
      <trkpt lat="49.43943" lon="1.11588">
        <ele>9</ele>
        <time>2021-03-21T14:49:27Z</time>
      </trkpt>
      <trkpt lat="49.43938" lon="1.11581">
        <ele>9.1</ele>
        <time>2021-03-21T14:49:28Z</time>
      </trkpt>
      <trkpt lat="49.43936" lon="1.11575">
        <ele>9.1</ele>
        <time>2021-03-21T14:49:29Z</time>
      </trkpt>
      <trkpt lat="49.43931" lon="1.1156">
        <ele>9.4</ele>
        <time>2021-03-21T14:49:31Z</time>
      </trkpt>
      <trkpt lat="49.43924" lon="1.1154">
        <ele>9.7</ele>
        <time>2021-03-21T14:49:33Z</time>
      </trkpt>
      <trkpt lat="49.43922" lon="1.11534">
        <ele>9.8</ele>
        <time>2021-03-21T14:49:34Z</time>
      </trkpt>
      <trkpt lat="49.43923" lon="1.11526">
        <ele>9.9</ele>
        <time>2021-03-21T14:49:35Z</time>
      </trkpt>
      <trkpt lat="49.43927" lon="1.11508">
        <ele>10.1</ele>
        <time>2021-03-21T14:49:37Z</time>
      </trkpt>
      <trkpt lat="49.43928" lon="1.11498">
        <ele>10</ele>
        <time>2021-03-21T14:49:38Z</time>
      </trkpt>
      <trkpt lat="49.43931" lon="1.11487">
        <ele>10</ele>
        <time>2021-03-21T14:49:39Z</time>
      </trkpt>
      <trkpt lat="49.43936" lon="1.11467">
        <ele>10</ele>
        <time>2021-03-21T14:49:41Z</time>
      </trkpt>
      <trkpt lat="49.43941" lon="1.11449">
        <ele>10</ele>
        <time>2021-03-21T14:49:43Z</time>
      </trkpt>
      <trkpt lat="49.43943" lon="1.1144">
        <ele>10.1</ele>
        <time>2021-03-21T14:49:44Z</time>
      </trkpt>
      <trkpt lat="49.43946" lon="1.1142">
        <ele>10.2</ele>
        <time>2021-03-21T14:49:46Z</time>
      </trkpt>
      <trkpt lat="49.43951" lon="1.11401">
        <ele>10.3</ele>
        <time>2021-03-21T14:49:48Z</time>
      </trkpt>
      <trkpt lat="49.43958" lon="1.11383">
        <ele>10.5</ele>
        <time>2021-03-21T14:49:50Z</time>
      </trkpt>
      <trkpt lat="49.4397" lon="1.11371">
        <ele>10.4</ele>
        <time>2021-03-21T14:49:52Z</time>
      </trkpt>
      <trkpt lat="49.43976" lon="1.11365">
        <ele>10.5</ele>
        <time>2021-03-21T14:49:53Z</time>
      </trkpt>
      <trkpt lat="49.43983" lon="1.11355">
        <ele>10.6</ele>
        <time>2021-03-21T14:49:55Z</time>
      </trkpt>
      <trkpt lat="49.43991" lon="1.11343">
        <ele>10.7</ele>
        <time>2021-03-21T14:49:57Z</time>
      </trkpt>
      <trkpt lat="49.43996" lon="1.11338">
        <ele>10.7</ele>
        <time>2021-03-21T14:49:58Z</time>
      </trkpt>
      <trkpt lat="49.44003" lon="1.11331">
        <ele>10.7</ele>
        <time>2021-03-21T14:50:00Z</time>
      </trkpt>
      <trkpt lat="49.44006" lon="1.11318">
        <ele>10.6</ele>
        <time>2021-03-21T14:50:02Z</time>
      </trkpt>
      <trkpt lat="49.44" lon="1.11308">
        <ele>10.4</ele>
        <time>2021-03-21T14:50:04Z</time>
      </trkpt>
      <trkpt lat="49.43997" lon="1.11294">
        <ele>10.3</ele>
        <time>2021-03-21T14:50:06Z</time>
      </trkpt>
      <trkpt lat="49.43997" lon="1.11273">
        <ele>10.1</ele>
        <time>2021-03-21T14:50:08Z</time>
      </trkpt>
      <trkpt lat="49.43997" lon="1.11261">
        <ele>10</ele>
        <time>2021-03-21T14:50:09Z</time>
      </trkpt>
      <trkpt lat="49.44" lon="1.11233">
        <ele>9.9</ele>
        <time>2021-03-21T14:50:11Z</time>
      </trkpt>
      <trkpt lat="49.43999" lon="1.11212">
        <ele>9.8</ele>
        <time>2021-03-21T14:50:13Z</time>
      </trkpt>
      <trkpt lat="49.43995" lon="1.11207">
        <ele>9.8</ele>
        <time>2021-03-21T14:50:14Z</time>
      </trkpt>
      <trkpt lat="49.43985" lon="1.11216">
        <ele>10.1</ele>
        <time>2021-03-21T14:50:16Z</time>
      </trkpt>
      <trkpt lat="49.43974" lon="1.11226">
        <ele>10</ele>
        <time>2021-03-21T14:50:18Z</time>
      </trkpt>
      <trkpt lat="49.43959" lon="1.11222">
        <ele>10.1</ele>
        <time>2021-03-21T14:50:20Z</time>
      </trkpt>
      <trkpt lat="49.43945" lon="1.11216">
        <ele>10.2</ele>
        <time>2021-03-21T14:50:22Z</time>
      </trkpt>
      <trkpt lat="49.43938" lon="1.11214">
        <ele>10.2</ele>
        <time>2021-03-21T14:50:23Z</time>
      </trkpt>
      <trkpt lat="49.43932" lon="1.11211">
        <ele>10.3</ele>
        <time>2021-03-21T14:50:24Z</time>
      </trkpt>
      <trkpt lat="49.4392" lon="1.11203">
        <ele>10.4</ele>
        <time>2021-03-21T14:50:26Z</time>
      </trkpt>
      <trkpt lat="49.43914" lon="1.112">
        <ele>10.5</ele>
        <time>2021-03-21T14:50:27Z</time>
      </trkpt>
      <trkpt lat="49.43904" lon="1.11193">
        <ele>10.5</ele>
        <time>2021-03-21T14:50:29Z</time>
      </trkpt>
      <trkpt lat="49.43899" lon="1.11189">
        <ele>10.6</ele>
        <time>2021-03-21T14:50:30Z</time>
      </trkpt>
      <trkpt lat="49.43889" lon="1.11181">
        <ele>10.7</ele>
        <time>2021-03-21T14:50:32Z</time>
      </trkpt>
      <trkpt lat="49.43884" lon="1.11177">
        <ele>10.7</ele>
        <time>2021-03-21T14:50:33Z</time>
      </trkpt>
      <trkpt lat="49.43873" lon="1.1117">
        <ele>10.7</ele>
        <time>2021-03-21T14:50:35Z</time>
      </trkpt>
      <trkpt lat="49.43863" lon="1.11162">
        <ele>10.8</ele>
        <time>2021-03-21T14:50:37Z</time>
      </trkpt>
      <trkpt lat="49.43858" lon="1.11158">
        <ele>10.8</ele>
        <time>2021-03-21T14:50:38Z</time>
      </trkpt>
      <trkpt lat="49.43851" lon="1.11144">
        <ele>10.8</ele>
        <time>2021-03-21T14:50:40Z</time>
      </trkpt>
      <trkpt lat="49.4385" lon="1.11136">
        <ele>10.8</ele>
        <time>2021-03-21T14:50:41Z</time>
      </trkpt>
      <trkpt lat="49.4385" lon="1.11119">
        <ele>10.8</ele>
        <time>2021-03-21T14:50:43Z</time>
      </trkpt>
      <trkpt lat="49.4385" lon="1.1111">
        <ele>10.8</ele>
        <time>2021-03-21T14:50:44Z</time>
      </trkpt>
      <trkpt lat="49.43848" lon="1.11093">
        <ele>10.7</ele>
        <time>2021-03-21T14:50:46Z</time>
      </trkpt>
      <trkpt lat="49.43847" lon="1.11087">
        <ele>10.7</ele>
        <time>2021-03-21T14:50:47Z</time>
      </trkpt>
      <trkpt lat="49.43845" lon="1.11081">
        <ele>10.7</ele>
        <time>2021-03-21T14:50:49Z</time>
      </trkpt>
      <trkpt lat="49.43843" lon="1.11078">
        <ele>10.7</ele>
        <time>2021-03-21T14:50:50Z</time>
      </trkpt>
      <trkpt lat="49.43842" lon="1.11073">
        <ele>10.7</ele>
        <time>2021-03-21T14:50:52Z</time>
      </trkpt>
      <trkpt lat="49.43841" lon="1.11071">
        <ele>10.7</ele>
        <time>2021-03-21T14:50:53Z</time>
      </trkpt>
      <trkpt lat="49.4384" lon="1.11071">
        <ele>10.7</ele>
        <time>2021-03-21T14:50:55Z</time>
      </trkpt>
      <trkpt lat="49.4384" lon="1.11071">
        <ele>10.7</ele>
        <time>2021-03-21T14:50:56Z</time>
      </trkpt>
      <trkpt lat="49.4384" lon="1.11071">
        <ele>10.7</ele>
        <time>2021-03-21T14:50:57Z</time>
      </trkpt>
      <trkpt lat="49.43837" lon="1.11066">
        <ele>10.6</ele>
        <time>2021-03-21T14:50:59Z</time>
      </trkpt>
      <trkpt lat="49.43833" lon="1.11064">
        <ele>10.6</ele>
        <time>2021-03-21T14:51:01Z</time>
      </trkpt>
      <trkpt lat="49.43831" lon="1.11063">
        <ele>10.5</ele>
        <time>2021-03-21T14:51:02Z</time>
      </trkpt>
      <trkpt lat="49.43828" lon="1.11062">
        <ele>10.5</ele>
        <time>2021-03-21T14:51:03Z</time>
      </trkpt>
      <trkpt lat="49.43827" lon="1.11062">
        <ele>10.5</ele>
        <time>2021-03-21T14:51:04Z</time>
      </trkpt>
      <trkpt lat="49.43823" lon="1.11061">
        <ele>10.4</ele>
        <time>2021-03-21T14:51:06Z</time>
      </trkpt>
      <trkpt lat="49.4382" lon="1.1106">
        <ele>10.4</ele>
        <time>2021-03-21T14:51:08Z</time>
      </trkpt>
      <trkpt lat="49.43818" lon="1.1106">
        <ele>10.4</ele>
        <time>2021-03-21T14:51:09Z</time>
      </trkpt>
      <trkpt lat="49.43816" lon="1.11053">
        <ele>10.3</ele>
        <time>2021-03-21T14:51:11Z</time>
      </trkpt>
      <trkpt lat="49.43812" lon="1.11042">
        <ele>10.2</ele>
        <time>2021-03-21T14:51:13Z</time>
      </trkpt>
      <trkpt lat="49.4381" lon="1.11038">
        <ele>10.2</ele>
        <time>2021-03-21T14:51:14Z</time>
      </trkpt>
      <trkpt lat="49.43807" lon="1.11035">
        <ele>10.1</ele>
        <time>2021-03-21T14:51:15Z</time>
      </trkpt>
      <trkpt lat="49.43806" lon="1.11034">
        <ele>10.1</ele>
        <time>2021-03-21T14:51:16Z</time>
      </trkpt>
      <trkpt lat="49.43805" lon="1.11031">
        <ele>10.1</ele>
        <time>2021-03-21T14:51:17Z</time>
      </trkpt>
      <trkpt lat="49.43803" lon="1.11029">
        <ele>10</ele>
        <time>2021-03-21T14:51:19Z</time>
      </trkpt>
      <trkpt lat="49.43801" lon="1.11028">
        <ele>10</ele>
        <time>2021-03-21T14:51:20Z</time>
      </trkpt>
      <trkpt lat="49.43795" lon="1.11025">
        <ele>9.9</ele>
        <time>2021-03-21T14:51:22Z</time>
      </trkpt>
      <trkpt lat="49.43792" lon="1.11022">
        <ele>9.9</ele>
        <time>2021-03-21T14:51:23Z</time>
      </trkpt>
      <trkpt lat="49.43789" lon="1.11013">
        <ele>9.9</ele>
        <time>2021-03-21T14:51:25Z</time>
      </trkpt>
      <trkpt lat="49.43787" lon="1.11009">
        <ele>9.9</ele>
        <time>2021-03-21T14:51:26Z</time>
      </trkpt>
      <trkpt lat="49.43781" lon="1.10997">
        <ele>10.1</ele>
        <time>2021-03-21T14:51:28Z</time>
      </trkpt>
      <trkpt lat="49.43777" lon="1.1099">
        <ele>10.1</ele>
        <time>2021-03-21T14:51:29Z</time>
      </trkpt>
      <trkpt lat="49.43774" lon="1.10984">
        <ele>10.2</ele>
        <time>2021-03-21T14:51:30Z</time>
      </trkpt>
      <trkpt lat="49.43773" lon="1.10978">
        <ele>10.2</ele>
        <time>2021-03-21T14:51:31Z</time>
      </trkpt>
      <trkpt lat="49.43764" lon="1.10966">
        <ele>10.3</ele>
        <time>2021-03-21T14:51:33Z</time>
      </trkpt>
      <trkpt lat="49.43754" lon="1.10951">
        <ele>10.2</ele>
        <time>2021-03-21T14:51:35Z</time>
      </trkpt>
      <trkpt lat="49.4375" lon="1.10944">
        <ele>10.1</ele>
        <time>2021-03-21T14:51:36Z</time>
      </trkpt>
      <trkpt lat="49.4374" lon="1.10929">
        <ele>10</ele>
        <time>2021-03-21T14:51:38Z</time>
      </trkpt>
      <trkpt lat="49.43732" lon="1.10912">
        <ele>9.9</ele>
        <time>2021-03-21T14:51:40Z</time>
      </trkpt>
      <trkpt lat="49.43731" lon="1.109">
        <ele>9.9</ele>
        <time>2021-03-21T14:51:41Z</time>
      </trkpt>
      <trkpt lat="49.43726" lon="1.10882">
        <ele>9.9</ele>
        <time>2021-03-21T14:51:43Z</time>
      </trkpt>
      <trkpt lat="49.43724" lon="1.10873">
        <ele>9.8</ele>
        <time>2021-03-21T14:51:44Z</time>
      </trkpt>
      <trkpt lat="49.43719" lon="1.10853">
        <ele>9.7</ele>
        <time>2021-03-21T14:51:46Z</time>
      </trkpt>
      <trkpt lat="49.43717" lon="1.10845">
        <ele>9.6</ele>
        <time>2021-03-21T14:51:47Z</time>
      </trkpt>
      <trkpt lat="49.4371" lon="1.10834">
        <ele>9.5</ele>
        <time>2021-03-21T14:51:49Z</time>
      </trkpt>
      <trkpt lat="49.43704" lon="1.10838">
        <ele>9.5</ele>
        <time>2021-03-21T14:51:51Z</time>
      </trkpt>
      <trkpt lat="49.43703" lon="1.10843">
        <ele>9.6</ele>
        <time>2021-03-21T14:51:52Z</time>
      </trkpt>
      <trkpt lat="49.43696" lon="1.1086">
        <ele>9.7</ele>
        <time>2021-03-21T14:51:54Z</time>
      </trkpt>
      <trkpt lat="49.43689" lon="1.1087">
        <ele>9.8</ele>
        <time>2021-03-21T14:51:56Z</time>
      </trkpt>
      <trkpt lat="49.43688" lon="1.10876">
        <ele>9.8</ele>
        <time>2021-03-21T14:51:57Z</time>
      </trkpt>
      <trkpt lat="49.43689" lon="1.1088">
        <ele>9.8</ele>
        <time>2021-03-21T14:51:58Z</time>
      </trkpt>
      <trkpt lat="49.43688" lon="1.1089">
        <ele>10</ele>
        <time>2021-03-21T14:52:00Z</time>
      </trkpt>
      <trkpt lat="49.43688" lon="1.10896">
        <ele>10.3</ele>
        <time>2021-03-21T14:52:01Z</time>
      </trkpt>
      <trkpt lat="49.43687" lon="1.10923">
        <ele>11.5</ele>
        <time>2021-03-21T14:52:05Z</time>
      </trkpt>
      <trkpt lat="49.43685" lon="1.10929">
        <ele>11.8</ele>
        <time>2021-03-21T14:52:07Z</time>
      </trkpt>
      <trkpt lat="49.43685" lon="1.10939">
        <ele>12.4</ele>
        <time>2021-03-21T14:52:09Z</time>
      </trkpt>
      <trkpt lat="49.43666" lon="1.10954">
        <ele>13.8</ele>
        <time>2021-03-21T14:52:11Z</time>
      </trkpt>
      <trkpt lat="49.43665" lon="1.1096">
        <ele>14.1</ele>
        <time>2021-03-21T14:52:12Z</time>
      </trkpt>
      <trkpt lat="49.43663" lon="1.10967">
        <ele>14.5</ele>
        <time>2021-03-21T14:52:14Z</time>
      </trkpt>
      <trkpt lat="49.43662" lon="1.10971">
        <ele>14.8</ele>
        <time>2021-03-21T14:52:15Z</time>
      </trkpt>
      <trkpt lat="49.43663" lon="1.10981">
        <ele>15.4</ele>
        <time>2021-03-21T14:52:17Z</time>
      </trkpt>
      <trkpt lat="49.43662" lon="1.10985">
        <ele>15.6</ele>
        <time>2021-03-21T14:52:18Z</time>
      </trkpt>
      <trkpt lat="49.43662" lon="1.10993">
        <ele>16.1</ele>
        <time>2021-03-21T14:52:20Z</time>
      </trkpt>
      <trkpt lat="49.43661" lon="1.10999">
        <ele>16.5</ele>
        <time>2021-03-21T14:52:21Z</time>
      </trkpt>
      <trkpt lat="49.43661" lon="1.11003">
        <ele>16.7</ele>
        <time>2021-03-21T14:52:22Z</time>
      </trkpt>
      <trkpt lat="49.43661" lon="1.11009">
        <ele>17.1</ele>
        <time>2021-03-21T14:52:24Z</time>
      </trkpt>
      <trkpt lat="49.43663" lon="1.11018">
        <ele>17.6</ele>
        <time>2021-03-21T14:52:26Z</time>
      </trkpt>
      <trkpt lat="49.43663" lon="1.11025">
        <ele>18</ele>
        <time>2021-03-21T14:52:28Z</time>
      </trkpt>
      <trkpt lat="49.43661" lon="1.11032">
        <ele>18.5</ele>
        <time>2021-03-21T14:52:30Z</time>
      </trkpt>
      <trkpt lat="49.43662" lon="1.11037">
        <ele>18.7</ele>
        <time>2021-03-21T14:52:31Z</time>
      </trkpt>
      <trkpt lat="49.43662" lon="1.11042">
        <ele>19</ele>
        <time>2021-03-21T14:52:32Z</time>
      </trkpt>
      <trkpt lat="49.43661" lon="1.11048">
        <ele>19.4</ele>
        <time>2021-03-21T14:52:34Z</time>
      </trkpt>
      <trkpt lat="49.43661" lon="1.11055">
        <ele>19.8</ele>
        <time>2021-03-21T14:52:36Z</time>
      </trkpt>
      <trkpt lat="49.43661" lon="1.11062">
        <ele>20.2</ele>
        <time>2021-03-21T14:52:38Z</time>
      </trkpt>
      <trkpt lat="49.43661" lon="1.11066">
        <ele>20.4</ele>
        <time>2021-03-21T14:52:39Z</time>
      </trkpt>
      <trkpt lat="49.43661" lon="1.11071">
        <ele>20.7</ele>
        <time>2021-03-21T14:52:41Z</time>
      </trkpt>
      <trkpt lat="49.43661" lon="1.11075">
        <ele>21</ele>
        <time>2021-03-21T14:52:43Z</time>
      </trkpt>
      <trkpt lat="49.43661" lon="1.11083">
        <ele>21.6</ele>
        <time>2021-03-21T14:52:45Z</time>
      </trkpt>
      <trkpt lat="49.4366" lon="1.11087">
        <ele>21.8</ele>
        <time>2021-03-21T14:52:46Z</time>
      </trkpt>
      <trkpt lat="49.43659" lon="1.11093">
        <ele>22.2</ele>
        <time>2021-03-21T14:52:48Z</time>
      </trkpt>
      <trkpt lat="49.43658" lon="1.11096">
        <ele>22.5</ele>
        <time>2021-03-21T14:52:49Z</time>
      </trkpt>
      <trkpt lat="49.43658" lon="1.11105">
        <ele>23.1</ele>
        <time>2021-03-21T14:52:51Z</time>
      </trkpt>
      <trkpt lat="49.43656" lon="1.11114">
        <ele>23.7</ele>
        <time>2021-03-21T14:52:53Z</time>
      </trkpt>
      <trkpt lat="49.43655" lon="1.11123">
        <ele>24.3</ele>
        <time>2021-03-21T14:52:55Z</time>
      </trkpt>
      <trkpt lat="49.43655" lon="1.11127">
        <ele>24.6</ele>
        <time>2021-03-21T14:52:56Z</time>
      </trkpt>
      <trkpt lat="49.43654" lon="1.11134">
        <ele>25.1</ele>
        <time>2021-03-21T14:52:58Z</time>
      </trkpt>
      <trkpt lat="49.43653" lon="1.11141">
        <ele>25.6</ele>
        <time>2021-03-21T14:53:00Z</time>
      </trkpt>
      <trkpt lat="49.43653" lon="1.11146">
        <ele>25.9</ele>
        <time>2021-03-21T14:53:01Z</time>
      </trkpt>
      <trkpt lat="49.43653" lon="1.11148">
        <ele>26</ele>
        <time>2021-03-21T14:53:02Z</time>
      </trkpt>
      <trkpt lat="49.43651" lon="1.11156">
        <ele>26.6</ele>
        <time>2021-03-21T14:53:04Z</time>
      </trkpt>
      <trkpt lat="49.43649" lon="1.11165">
        <ele>27.2</ele>
        <time>2021-03-21T14:53:06Z</time>
      </trkpt>
      <trkpt lat="49.43647" lon="1.11172">
        <ele>27.7</ele>
        <time>2021-03-21T14:53:08Z</time>
      </trkpt>
      <trkpt lat="49.43644" lon="1.11178">
        <ele>28.2</ele>
        <time>2021-03-21T14:53:10Z</time>
      </trkpt>
      <trkpt lat="49.43641" lon="1.11184">
        <ele>28.8</ele>
        <time>2021-03-21T14:53:12Z</time>
      </trkpt>
      <trkpt lat="49.43639" lon="1.11188">
        <ele>29.1</ele>
        <time>2021-03-21T14:53:13Z</time>
      </trkpt>
      <trkpt lat="49.43638" lon="1.11189">
        <ele>29.2</ele>
        <time>2021-03-21T14:53:14Z</time>
      </trkpt>
      <trkpt lat="49.43634" lon="1.11194">
        <ele>29.6</ele>
        <time>2021-03-21T14:53:16Z</time>
      </trkpt>
      <trkpt lat="49.43631" lon="1.11199">
        <ele>30</ele>
        <time>2021-03-21T14:53:18Z</time>
      </trkpt>
      <trkpt lat="49.43629" lon="1.11204">
        <ele>30.4</ele>
        <time>2021-03-21T14:53:20Z</time>
      </trkpt>
      <trkpt lat="49.43628" lon="1.11207">
        <ele>30.6</ele>
        <time>2021-03-21T14:53:21Z</time>
      </trkpt>
      <trkpt lat="49.43625" lon="1.11216">
        <ele>31.2</ele>
        <time>2021-03-21T14:53:23Z</time>
      </trkpt>
      <trkpt lat="49.43623" lon="1.11222">
        <ele>31.4</ele>
        <time>2021-03-21T14:53:25Z</time>
      </trkpt>
      <trkpt lat="49.43621" lon="1.11226">
        <ele>31.5</ele>
        <time>2021-03-21T14:53:27Z</time>
      </trkpt>
      <trkpt lat="49.4362" lon="1.11234">
        <ele>31.8</ele>
        <time>2021-03-21T14:53:29Z</time>
      </trkpt>
      <trkpt lat="49.43618" lon="1.1124">
        <ele>31.9</ele>
        <time>2021-03-21T14:53:31Z</time>
      </trkpt>
      <trkpt lat="49.43618" lon="1.11243">
        <ele>32</ele>
        <time>2021-03-21T14:53:32Z</time>
      </trkpt>
      <trkpt lat="49.43616" lon="1.1125">
        <ele>32.3</ele>
        <time>2021-03-21T14:53:34Z</time>
      </trkpt>
      <trkpt lat="49.43615" lon="1.11255">
        <ele>32.4</ele>
        <time>2021-03-21T14:53:36Z</time>
      </trkpt>
      <trkpt lat="49.43615" lon="1.11258">
        <ele>32.5</ele>
        <time>2021-03-21T14:53:37Z</time>
      </trkpt>
      <trkpt lat="49.43614" lon="1.11266">
        <ele>32.7</ele>
        <time>2021-03-21T14:53:39Z</time>
      </trkpt>
      <trkpt lat="49.43613" lon="1.11272">
        <ele>32.8</ele>
        <time>2021-03-21T14:53:41Z</time>
      </trkpt>
      <trkpt lat="49.43613" lon="1.11277">
        <ele>33</ele>
        <time>2021-03-21T14:53:43Z</time>
      </trkpt>
      <trkpt lat="49.43611" lon="1.1128">
        <ele>33.1</ele>
        <time>2021-03-21T14:53:44Z</time>
      </trkpt>
      <trkpt lat="49.43611" lon="1.11286">
        <ele>33.2</ele>
        <time>2021-03-21T14:53:46Z</time>
      </trkpt>
      <trkpt lat="49.4361" lon="1.11291">
        <ele>33.3</ele>
        <time>2021-03-21T14:53:47Z</time>
      </trkpt>
      <trkpt lat="49.4361" lon="1.11293">
        <ele>33.4</ele>
        <time>2021-03-21T14:53:48Z</time>
      </trkpt>
      <trkpt lat="49.43609" lon="1.11299">
        <ele>33.5</ele>
        <time>2021-03-21T14:53:50Z</time>
      </trkpt>
      <trkpt lat="49.43609" lon="1.11306">
        <ele>33.7</ele>
        <time>2021-03-21T14:53:52Z</time>
      </trkpt>
      <trkpt lat="49.43608" lon="1.11311">
        <ele>33.8</ele>
        <time>2021-03-21T14:53:53Z</time>
      </trkpt>
      <trkpt lat="49.43606" lon="1.11319">
        <ele>34</ele>
        <time>2021-03-21T14:53:55Z</time>
      </trkpt>
      <trkpt lat="49.43604" lon="1.11329">
        <ele>34.2</ele>
        <time>2021-03-21T14:53:57Z</time>
      </trkpt>
      <trkpt lat="49.43603" lon="1.11338">
        <ele>34.5</ele>
        <time>2021-03-21T14:53:59Z</time>
      </trkpt>
      <trkpt lat="49.43602" lon="1.11345">
        <ele>34.7</ele>
        <time>2021-03-21T14:54:01Z</time>
      </trkpt>
      <trkpt lat="49.43601" lon="1.11351">
        <ele>34.8</ele>
        <time>2021-03-21T14:54:02Z</time>
      </trkpt>
      <trkpt lat="49.43601" lon="1.11352">
        <ele>34.9</ele>
        <time>2021-03-21T14:54:03Z</time>
      </trkpt>
      <trkpt lat="49.43599" lon="1.11361">
        <ele>35.1</ele>
        <time>2021-03-21T14:54:05Z</time>
      </trkpt>
      <trkpt lat="49.43598" lon="1.11367">
        <ele>35.3</ele>
        <time>2021-03-21T14:54:06Z</time>
      </trkpt>
      <trkpt lat="49.43595" lon="1.11379">
        <ele>35.7</ele>
        <time>2021-03-21T14:54:08Z</time>
      </trkpt>
      <trkpt lat="49.43594" lon="1.11386">
        <ele>35.9</ele>
        <time>2021-03-21T14:54:09Z</time>
      </trkpt>
      <trkpt lat="49.43591" lon="1.11397">
        <ele>36.2</ele>
        <time>2021-03-21T14:54:11Z</time>
      </trkpt>
      <trkpt lat="49.43589" lon="1.11409">
        <ele>36.6</ele>
        <time>2021-03-21T14:54:13Z</time>
      </trkpt>
      <trkpt lat="49.43588" lon="1.11416">
        <ele>36.8</ele>
        <time>2021-03-21T14:54:14Z</time>
      </trkpt>
      <trkpt lat="49.43585" lon="1.11427">
        <ele>37.1</ele>
        <time>2021-03-21T14:54:15Z</time>
      </trkpt>
      <trkpt lat="49.43585" lon="1.11433">
        <ele>37.2</ele>
        <time>2021-03-21T14:54:16Z</time>
      </trkpt>
      <trkpt lat="49.43585" lon="1.11438">
        <ele>37.4</ele>
        <time>2021-03-21T14:54:17Z</time>
      </trkpt>
      <trkpt lat="49.43583" lon="1.11446">
        <ele>37.6</ele>
        <time>2021-03-21T14:54:19Z</time>
      </trkpt>
      <trkpt lat="49.43582" lon="1.1145">
        <ele>37.7</ele>
        <time>2021-03-21T14:54:21Z</time>
      </trkpt>
      <trkpt lat="49.43582" lon="1.11452">
        <ele>37.7</ele>
        <time>2021-03-21T14:54:22Z</time>
      </trkpt>
      <trkpt lat="49.4358" lon="1.11456">
        <ele>37.8</ele>
        <time>2021-03-21T14:54:24Z</time>
      </trkpt>
      <trkpt lat="49.43579" lon="1.11458">
        <ele>37.9</ele>
        <time>2021-03-21T14:54:25Z</time>
      </trkpt>
      <trkpt lat="49.43575" lon="1.11468">
        <ele>38.3</ele>
        <time>2021-03-21T14:54:27Z</time>
      </trkpt>
      <trkpt lat="49.43572" lon="1.11476">
        <ele>38.7</ele>
        <time>2021-03-21T14:54:29Z</time>
      </trkpt>
      <trkpt lat="49.43568" lon="1.11485">
        <ele>39</ele>
        <time>2021-03-21T14:54:31Z</time>
      </trkpt>
      <trkpt lat="49.43564" lon="1.11497">
        <ele>39.5</ele>
        <time>2021-03-21T14:54:33Z</time>
      </trkpt>
      <trkpt lat="49.43562" lon="1.11503">
        <ele>39.7</ele>
        <time>2021-03-21T14:54:34Z</time>
      </trkpt>
      <trkpt lat="49.43558" lon="1.11512">
        <ele>40</ele>
        <time>2021-03-21T14:54:36Z</time>
      </trkpt>
      <trkpt lat="49.43556" lon="1.11522">
        <ele>40.4</ele>
        <time>2021-03-21T14:54:38Z</time>
      </trkpt>
      <trkpt lat="49.43555" lon="1.11525">
        <ele>40.5</ele>
        <time>2021-03-21T14:54:39Z</time>
      </trkpt>
      <trkpt lat="49.43552" lon="1.11534">
        <ele>40.8</ele>
        <time>2021-03-21T14:54:41Z</time>
      </trkpt>
      <trkpt lat="49.43547" lon="1.11545">
        <ele>41.2</ele>
        <time>2021-03-21T14:54:43Z</time>
      </trkpt>
      <trkpt lat="49.43544" lon="1.1155">
        <ele>41.6</ele>
        <time>2021-03-21T14:54:45Z</time>
      </trkpt>
      <trkpt lat="49.43542" lon="1.11552">
        <ele>42</ele>
        <time>2021-03-21T14:54:47Z</time>
      </trkpt>
      <trkpt lat="49.43541" lon="1.11551">
        <ele>42.1</ele>
        <time>2021-03-21T14:54:48Z</time>
      </trkpt>
      <trkpt lat="49.4354" lon="1.1155">
        <ele>42.7</ele>
        <time>2021-03-21T14:54:50Z</time>
      </trkpt>
      <trkpt lat="49.43539" lon="1.11549">
        <ele>43</ele>
        <time>2021-03-21T14:54:51Z</time>
      </trkpt>
      <trkpt lat="49.43537" lon="1.11545">
        <ele>43.8</ele>
        <time>2021-03-21T14:54:53Z</time>
      </trkpt>
      <trkpt lat="49.43535" lon="1.11539">
        <ele>44.1</ele>
        <time>2021-03-21T14:54:55Z</time>
      </trkpt>
      <trkpt lat="49.43533" lon="1.11528">
        <ele>45.2</ele>
        <time>2021-03-21T14:54:57Z</time>
      </trkpt>
      <trkpt lat="49.43531" lon="1.11512">
        <ele>45.9</ele>
        <time>2021-03-21T14:54:59Z</time>
      </trkpt>
      <trkpt lat="49.4353" lon="1.11496">
        <ele>46.6</ele>
        <time>2021-03-21T14:55:01Z</time>
      </trkpt>
      <trkpt lat="49.4353" lon="1.11488">
        <ele>46.9</ele>
        <time>2021-03-21T14:55:02Z</time>
      </trkpt>
      <trkpt lat="49.43531" lon="1.11476">
        <ele>47.5</ele>
        <time>2021-03-21T14:55:04Z</time>
      </trkpt>
      <trkpt lat="49.43531" lon="1.11471">
        <ele>47.7</ele>
        <time>2021-03-21T14:55:05Z</time>
      </trkpt>
      <trkpt lat="49.43531" lon="1.1146">
        <ele>48.2</ele>
        <time>2021-03-21T14:55:06Z</time>
      </trkpt>
      <trkpt lat="49.43531" lon="1.11443">
        <ele>49</ele>
        <time>2021-03-21T14:55:08Z</time>
      </trkpt>
      <trkpt lat="49.43531" lon="1.11435">
        <ele>49.3</ele>
        <time>2021-03-21T14:55:09Z</time>
      </trkpt>
      <trkpt lat="49.43531" lon="1.11424">
        <ele>49.8</ele>
        <time>2021-03-21T14:55:11Z</time>
      </trkpt>
      <trkpt lat="49.43531" lon="1.11418">
        <ele>50.1</ele>
        <time>2021-03-21T14:55:12Z</time>
      </trkpt>
      <trkpt lat="49.43531" lon="1.11412">
        <ele>50.3</ele>
        <time>2021-03-21T14:55:13Z</time>
      </trkpt>
      <trkpt lat="49.43532" lon="1.11404">
        <ele>50.7</ele>
        <time>2021-03-21T14:55:15Z</time>
      </trkpt>
      <trkpt lat="49.43532" lon="1.11396">
        <ele>51.1</ele>
        <time>2021-03-21T14:55:16Z</time>
      </trkpt>
      <trkpt lat="49.43532" lon="1.11387">
        <ele>51.6</ele>
        <time>2021-03-21T14:55:18Z</time>
      </trkpt>
      <trkpt lat="49.4353" lon="1.11377">
        <ele>52.1</ele>
        <time>2021-03-21T14:55:20Z</time>
      </trkpt>
      <trkpt lat="49.43529" lon="1.11373">
        <ele>52.4</ele>
        <time>2021-03-21T14:55:22Z</time>
      </trkpt>
      <trkpt lat="49.43527" lon="1.11369">
        <ele>52.7</ele>
        <time>2021-03-21T14:55:24Z</time>
      </trkpt>
      <trkpt lat="49.43525" lon="1.11366">
        <ele>52.9</ele>
        <time>2021-03-21T14:55:25Z</time>
      </trkpt>
      <trkpt lat="49.43522" lon="1.11361">
        <ele>53.2</ele>
        <time>2021-03-21T14:55:27Z</time>
      </trkpt>
      <trkpt lat="49.43523" lon="1.11364">
        <ele>53.4</ele>
        <time>2021-03-21T14:55:28Z</time>
      </trkpt>
      <trkpt lat="49.43524" lon="1.11366">
        <ele>53.5</ele>
        <time>2021-03-21T14:55:29Z</time>
      </trkpt>
      <trkpt lat="49.43525" lon="1.11369">
        <ele>53.7</ele>
        <time>2021-03-21T14:55:31Z</time>
      </trkpt>
      <trkpt lat="49.43525" lon="1.11371">
        <ele>53.8</ele>
        <time>2021-03-21T14:55:32Z</time>
      </trkpt>
      <trkpt lat="49.43526" lon="1.11373">
        <ele>54</ele>
        <time>2021-03-21T14:55:34Z</time>
      </trkpt>
      <trkpt lat="49.43527" lon="1.11375">
        <ele>54.1</ele>
        <time>2021-03-21T14:55:36Z</time>
      </trkpt>
      <trkpt lat="49.43528" lon="1.11378">
        <ele>54.3</ele>
        <time>2021-03-21T14:55:45Z</time>
      </trkpt>
      <trkpt lat="49.43529" lon="1.1138">
        <ele>54.4</ele>
        <time>2021-03-21T14:55:46Z</time>
      </trkpt>
      <trkpt lat="49.4353" lon="1.11377">
        <ele>54.6</ele>
        <time>2021-03-21T14:55:48Z</time>
      </trkpt>
      <trkpt lat="49.4353" lon="1.11375">
        <ele>54.7</ele>
        <time>2021-03-21T14:55:49Z</time>
      </trkpt>
      <trkpt lat="49.43528" lon="1.11373">
        <ele>55</ele>
        <time>2021-03-21T14:55:51Z</time>
      </trkpt>
      <trkpt lat="49.43525" lon="1.11372">
        <ele>55.3</ele>
        <time>2021-03-21T14:55:53Z</time>
      </trkpt>
      <trkpt lat="49.43522" lon="1.11372">
        <ele>55.6</ele>
        <time>2021-03-21T14:55:54Z</time>
      </trkpt>
      <trkpt lat="49.43516" lon="1.11369">
        <ele>56.2</ele>
        <time>2021-03-21T14:55:56Z</time>
      </trkpt>
      <trkpt lat="49.43514" lon="1.1137">
        <ele>56.4</ele>
        <time>2021-03-21T14:55:58Z</time>
      </trkpt>
      <trkpt lat="49.43513" lon="1.1137">
        <ele>56.5</ele>
        <time>2021-03-21T14:55:59Z</time>
      </trkpt>
      <trkpt lat="49.43511" lon="1.11373">
        <ele>56.8</ele>
        <time>2021-03-21T14:56:01Z</time>
      </trkpt>
      <trkpt lat="49.4351" lon="1.11375">
        <ele>57</ele>
        <time>2021-03-21T14:56:02Z</time>
      </trkpt>
      <trkpt lat="49.43508" lon="1.11379">
        <ele>57.3</ele>
        <time>2021-03-21T14:56:04Z</time>
      </trkpt>
      <trkpt lat="49.43506" lon="1.11385">
        <ele>57.8</ele>
        <time>2021-03-21T14:56:06Z</time>
      </trkpt>
      <trkpt lat="49.43505" lon="1.11388">
        <ele>58</ele>
        <time>2021-03-21T14:56:07Z</time>
      </trkpt>
      <trkpt lat="49.43504" lon="1.11393">
        <ele>58.3</ele>
        <time>2021-03-21T14:56:09Z</time>
      </trkpt>
      <trkpt lat="49.43502" lon="1.114">
        <ele>58.8</ele>
        <time>2021-03-21T14:56:11Z</time>
      </trkpt>
      <trkpt lat="49.435" lon="1.11407">
        <ele>59.4</ele>
        <time>2021-03-21T14:56:13Z</time>
      </trkpt>
      <trkpt lat="49.43498" lon="1.11415">
        <ele>59.9</ele>
        <time>2021-03-21T14:56:15Z</time>
      </trkpt>
      <trkpt lat="49.43496" lon="1.11418">
        <ele>60.1</ele>
        <time>2021-03-21T14:56:16Z</time>
      </trkpt>
      <trkpt lat="49.43496" lon="1.1142">
        <ele>60.3</ele>
        <time>2021-03-21T14:56:17Z</time>
      </trkpt>
      <trkpt lat="49.43494" lon="1.11426">
        <ele>61</ele>
        <time>2021-03-21T14:56:19Z</time>
      </trkpt>
      <trkpt lat="49.43491" lon="1.11434">
        <ele>61.9</ele>
        <time>2021-03-21T14:56:21Z</time>
      </trkpt>
      <trkpt lat="49.4349" lon="1.11436">
        <ele>62.2</ele>
        <time>2021-03-21T14:56:22Z</time>
      </trkpt>
      <trkpt lat="49.43487" lon="1.11441">
        <ele>62.7</ele>
        <time>2021-03-21T14:56:24Z</time>
      </trkpt>
      <trkpt lat="49.43485" lon="1.11447">
        <ele>63.3</ele>
        <time>2021-03-21T14:56:26Z</time>
      </trkpt>
      <trkpt lat="49.43482" lon="1.11452">
        <ele>63.9</ele>
        <time>2021-03-21T14:56:28Z</time>
      </trkpt>
      <trkpt lat="49.4348" lon="1.11455">
        <ele>64.1</ele>
        <time>2021-03-21T14:56:29Z</time>
      </trkpt>
      <trkpt lat="49.43478" lon="1.11459">
        <ele>64.6</ele>
        <time>2021-03-21T14:56:31Z</time>
      </trkpt>
      <trkpt lat="49.43476" lon="1.11461">
        <ele>64.8</ele>
        <time>2021-03-21T14:56:32Z</time>
      </trkpt>
      <trkpt lat="49.43473" lon="1.11465">
        <ele>65.3</ele>
        <time>2021-03-21T14:56:34Z</time>
      </trkpt>
      <trkpt lat="49.43471" lon="1.11468">
        <ele>65.6</ele>
        <time>2021-03-21T14:56:35Z</time>
      </trkpt>
      <trkpt lat="49.43468" lon="1.11473">
        <ele>65.9</ele>
        <time>2021-03-21T14:56:37Z</time>
      </trkpt>
      <trkpt lat="49.43465" lon="1.11478">
        <ele>66.4</ele>
        <time>2021-03-21T14:56:39Z</time>
      </trkpt>
      <trkpt lat="49.43461" lon="1.11483">
        <ele>66.8</ele>
        <time>2021-03-21T14:56:41Z</time>
      </trkpt>
      <trkpt lat="49.43458" lon="1.11487">
        <ele>67.2</ele>
        <time>2021-03-21T14:56:43Z</time>
      </trkpt>
      <trkpt lat="49.43454" lon="1.11492">
        <ele>67.6</ele>
        <time>2021-03-21T14:56:45Z</time>
      </trkpt>
      <trkpt lat="49.43451" lon="1.11496">
        <ele>67.9</ele>
        <time>2021-03-21T14:56:47Z</time>
      </trkpt>
      <trkpt lat="49.43449" lon="1.11498">
        <ele>68</ele>
        <time>2021-03-21T14:56:48Z</time>
      </trkpt>
      <trkpt lat="49.43446" lon="1.11502">
        <ele>68.3</ele>
        <time>2021-03-21T14:56:50Z</time>
      </trkpt>
      <trkpt lat="49.43443" lon="1.11509">
        <ele>68.6</ele>
        <time>2021-03-21T14:56:52Z</time>
      </trkpt>
      <trkpt lat="49.43441" lon="1.11516">
        <ele>68.8</ele>
        <time>2021-03-21T14:56:54Z</time>
      </trkpt>
      <trkpt lat="49.4344" lon="1.11519">
        <ele>68.9</ele>
        <time>2021-03-21T14:56:55Z</time>
      </trkpt>
      <trkpt lat="49.43438" lon="1.11527">
        <ele>69.2</ele>
        <time>2021-03-21T14:56:57Z</time>
      </trkpt>
      <trkpt lat="49.43437" lon="1.11532">
        <ele>69.3</ele>
        <time>2021-03-21T14:56:58Z</time>
      </trkpt>
      <trkpt lat="49.43437" lon="1.11533">
        <ele>69.4</ele>
        <time>2021-03-21T14:56:59Z</time>
      </trkpt>
      <trkpt lat="49.43436" lon="1.11536">
        <ele>69.4</ele>
        <time>2021-03-21T14:57:00Z</time>
      </trkpt>
      <trkpt lat="49.43435" lon="1.11545">
        <ele>69.7</ele>
        <time>2021-03-21T14:57:02Z</time>
      </trkpt>
      <trkpt lat="49.43434" lon="1.1155">
        <ele>69.8</ele>
        <time>2021-03-21T14:57:03Z</time>
      </trkpt>
      <trkpt lat="49.43434" lon="1.11559">
        <ele>70</ele>
        <time>2021-03-21T14:57:05Z</time>
      </trkpt>
      <trkpt lat="49.43433" lon="1.11565">
        <ele>70.3</ele>
        <time>2021-03-21T14:57:06Z</time>
      </trkpt>
      <trkpt lat="49.43433" lon="1.11573">
        <ele>70.5</ele>
        <time>2021-03-21T14:57:08Z</time>
      </trkpt>
      <trkpt lat="49.43432" lon="1.11585">
        <ele>70.9</ele>
        <time>2021-03-21T14:57:09Z</time>
      </trkpt>
      <trkpt lat="49.43432" lon="1.11594">
        <ele>71.3</ele>
        <time>2021-03-21T14:57:10Z</time>
      </trkpt>
      <trkpt lat="49.43431" lon="1.11609">
        <ele>71.9</ele>
        <time>2021-03-21T14:57:12Z</time>
      </trkpt>
      <trkpt lat="49.43431" lon="1.11618">
        <ele>72.2</ele>
        <time>2021-03-21T14:57:14Z</time>
      </trkpt>
      <trkpt lat="49.4343" lon="1.11629">
        <ele>72.7</ele>
        <time>2021-03-21T14:57:16Z</time>
      </trkpt>
      <trkpt lat="49.43429" lon="1.11634">
        <ele>72.8</ele>
        <time>2021-03-21T14:57:17Z</time>
      </trkpt>
      <trkpt lat="49.43428" lon="1.11645">
        <ele>73.3</ele>
        <time>2021-03-21T14:57:19Z</time>
      </trkpt>
      <trkpt lat="49.43427" lon="1.11649">
        <ele>73.5</ele>
        <time>2021-03-21T14:57:20Z</time>
      </trkpt>
      <trkpt lat="49.43426" lon="1.11659">
        <ele>74</ele>
        <time>2021-03-21T14:57:22Z</time>
      </trkpt>
      <trkpt lat="49.43426" lon="1.11669">
        <ele>74.5</ele>
        <time>2021-03-21T14:57:24Z</time>
      </trkpt>
      <trkpt lat="49.43425" lon="1.11673">
        <ele>74.7</ele>
        <time>2021-03-21T14:57:25Z</time>
      </trkpt>
      <trkpt lat="49.43425" lon="1.11678">
        <ele>74.9</ele>
        <time>2021-03-21T14:57:26Z</time>
      </trkpt>
      <trkpt lat="49.43424" lon="1.11682">
        <ele>75.1</ele>
        <time>2021-03-21T14:57:27Z</time>
      </trkpt>
      <trkpt lat="49.43423" lon="1.11692">
        <ele>75.5</ele>
        <time>2021-03-21T14:57:29Z</time>
      </trkpt>
      <trkpt lat="49.43422" lon="1.11698">
        <ele>75.7</ele>
        <time>2021-03-21T14:57:31Z</time>
      </trkpt>
      <trkpt lat="49.43422" lon="1.11698">
        <ele>75.7</ele>
        <time>2021-03-21T14:57:33Z</time>
      </trkpt>
      <trkpt lat="49.43422" lon="1.11698">
        <ele>75.7</ele>
        <time>2021-03-21T14:57:35Z</time>
      </trkpt>
      <trkpt lat="49.43422" lon="1.11698">
        <ele>75.7</ele>
        <time>2021-03-21T14:57:37Z</time>
      </trkpt>
      <trkpt lat="49.43421" lon="1.11713">
        <ele>76</ele>
        <time>2021-03-21T14:57:39Z</time>
      </trkpt>
      <trkpt lat="49.43418" lon="1.1174">
        <ele>76.3</ele>
        <time>2021-03-21T14:57:43Z</time>
      </trkpt>
      <trkpt lat="49.43418" lon="1.11743">
        <ele>76.3</ele>
        <time>2021-03-21T14:57:44Z</time>
      </trkpt>
      <trkpt lat="49.43417" lon="1.11751">
        <ele>76.3</ele>
        <time>2021-03-21T14:57:46Z</time>
      </trkpt>
      <trkpt lat="49.43417" lon="1.11757">
        <ele>76.3</ele>
        <time>2021-03-21T14:57:47Z</time>
      </trkpt>
      <trkpt lat="49.43416" lon="1.11764">
        <ele>75.8</ele>
        <time>2021-03-21T14:57:48Z</time>
      </trkpt>
      <trkpt lat="49.43413" lon="1.11799">
        <ele>72.1</ele>
        <time>2021-03-21T14:57:50Z</time>
      </trkpt>
      <trkpt lat="49.4341" lon="1.11826">
        <ele>68.9</ele>
        <time>2021-03-21T14:57:52Z</time>
      </trkpt>
      <trkpt lat="49.43409" lon="1.1184">
        <ele>67.6</ele>
        <time>2021-03-21T14:57:53Z</time>
      </trkpt>
      <trkpt lat="49.43406" lon="1.1187">
        <ele>65.2</ele>
        <time>2021-03-21T14:57:55Z</time>
      </trkpt>
      <trkpt lat="49.43405" lon="1.11884">
        <ele>63.5</ele>
        <time>2021-03-21T14:57:56Z</time>
      </trkpt>
      <trkpt lat="49.43404" lon="1.11897">
        <ele>61.3</ele>
        <time>2021-03-21T14:57:57Z</time>
      </trkpt>
      <trkpt lat="49.43404" lon="1.1191">
        <ele>61.4</ele>
        <time>2021-03-21T14:57:58Z</time>
      </trkpt>
      <trkpt lat="49.43401" lon="1.1193">
        <ele>63.2</ele>
        <time>2021-03-21T14:58:00Z</time>
      </trkpt>
      <trkpt lat="49.43398" lon="1.11946">
        <ele>64.5</ele>
        <time>2021-03-21T14:58:02Z</time>
      </trkpt>
      <trkpt lat="49.43397" lon="1.11953">
        <ele>65</ele>
        <time>2021-03-21T14:58:03Z</time>
      </trkpt>
      <trkpt lat="49.43396" lon="1.11965">
        <ele>65.7</ele>
        <time>2021-03-21T14:58:05Z</time>
      </trkpt>
      <trkpt lat="49.43395" lon="1.11971">
        <ele>65.9</ele>
        <time>2021-03-21T14:58:06Z</time>
      </trkpt>
      <trkpt lat="49.43393" lon="1.11984">
        <ele>66.2</ele>
        <time>2021-03-21T14:58:08Z</time>
      </trkpt>
      <trkpt lat="49.43391" lon="1.11997">
        <ele>66.2</ele>
        <time>2021-03-21T14:58:10Z</time>
      </trkpt>
      <trkpt lat="49.43391" lon="1.12005">
        <ele>66.1</ele>
        <time>2021-03-21T14:58:11Z</time>
      </trkpt>
      <trkpt lat="49.4339" lon="1.12014">
        <ele>65.9</ele>
        <time>2021-03-21T14:58:12Z</time>
      </trkpt>
      <trkpt lat="49.43388" lon="1.12032">
        <ele>65.6</ele>
        <time>2021-03-21T14:58:14Z</time>
      </trkpt>
      <trkpt lat="49.43386" lon="1.12042">
        <ele>65.5</ele>
        <time>2021-03-21T14:58:15Z</time>
      </trkpt>
      <trkpt lat="49.43385" lon="1.12064">
        <ele>64.9</ele>
        <time>2021-03-21T14:58:17Z</time>
      </trkpt>
      <trkpt lat="49.43384" lon="1.12076">
        <ele>64.6</ele>
        <time>2021-03-21T14:58:18Z</time>
      </trkpt>
      <trkpt lat="49.43381" lon="1.12098">
        <ele>63.9</ele>
        <time>2021-03-21T14:58:20Z</time>
      </trkpt>
      <trkpt lat="49.43381" lon="1.1211">
        <ele>63.6</ele>
        <time>2021-03-21T14:58:21Z</time>
      </trkpt>
      <trkpt lat="49.43378" lon="1.12132">
        <ele>62.9</ele>
        <time>2021-03-21T14:58:23Z</time>
      </trkpt>
      <trkpt lat="49.43377" lon="1.12144">
        <ele>62.5</ele>
        <time>2021-03-21T14:58:24Z</time>
      </trkpt>
      <trkpt lat="49.43375" lon="1.12167">
        <ele>61.7</ele>
        <time>2021-03-21T14:58:26Z</time>
      </trkpt>
      <trkpt lat="49.43374" lon="1.12179">
        <ele>61.3</ele>
        <time>2021-03-21T14:58:27Z</time>
      </trkpt>
      <trkpt lat="49.43373" lon="1.12191">
        <ele>61</ele>
        <time>2021-03-21T14:58:28Z</time>
      </trkpt>
      <trkpt lat="49.43373" lon="1.12203">
        <ele>60.8</ele>
        <time>2021-03-21T14:58:29Z</time>
      </trkpt>
      <trkpt lat="49.43377" lon="1.12227">
        <ele>61.2</ele>
        <time>2021-03-21T14:58:31Z</time>
      </trkpt>
      <trkpt lat="49.43379" lon="1.12247">
        <ele>61.9</ele>
        <time>2021-03-21T14:58:33Z</time>
      </trkpt>
      <trkpt lat="49.43379" lon="1.12256">
        <ele>62.2</ele>
        <time>2021-03-21T14:58:34Z</time>
      </trkpt>
      <trkpt lat="49.43379" lon="1.12272">
        <ele>62.7</ele>
        <time>2021-03-21T14:58:36Z</time>
      </trkpt>
      <trkpt lat="49.4338" lon="1.12288">
        <ele>63.2</ele>
        <time>2021-03-21T14:58:38Z</time>
      </trkpt>
      <trkpt lat="49.4338" lon="1.12304">
        <ele>63.8</ele>
        <time>2021-03-21T14:58:40Z</time>
      </trkpt>
      <trkpt lat="49.43378" lon="1.12319">
        <ele>64.3</ele>
        <time>2021-03-21T14:58:42Z</time>
      </trkpt>
      <trkpt lat="49.43377" lon="1.12327">
        <ele>64.5</ele>
        <time>2021-03-21T14:58:43Z</time>
      </trkpt>
      <trkpt lat="49.43374" lon="1.12341">
        <ele>65</ele>
        <time>2021-03-21T14:58:45Z</time>
      </trkpt>
      <trkpt lat="49.43373" lon="1.12348">
        <ele>65.2</ele>
        <time>2021-03-21T14:58:46Z</time>
      </trkpt>
      <trkpt lat="49.43369" lon="1.1236">
        <ele>65.6</ele>
        <time>2021-03-21T14:58:48Z</time>
      </trkpt>
      <trkpt lat="49.43366" lon="1.12366">
        <ele>65.8</ele>
        <time>2021-03-21T14:58:49Z</time>
      </trkpt>
      <trkpt lat="49.43364" lon="1.12371">
        <ele>66</ele>
        <time>2021-03-21T14:58:50Z</time>
      </trkpt>
      <trkpt lat="49.43359" lon="1.12381">
        <ele>66.4</ele>
        <time>2021-03-21T14:58:52Z</time>
      </trkpt>
      <trkpt lat="49.43356" lon="1.12387">
        <ele>66.6</ele>
        <time>2021-03-21T14:58:53Z</time>
      </trkpt>
      <trkpt lat="49.43354" lon="1.12392">
        <ele>66.8</ele>
        <time>2021-03-21T14:58:54Z</time>
      </trkpt>
      <trkpt lat="49.43352" lon="1.12397">
        <ele>66.9</ele>
        <time>2021-03-21T14:58:55Z</time>
      </trkpt>
      <trkpt lat="49.43349" lon="1.1241">
        <ele>67.3</ele>
        <time>2021-03-21T14:58:57Z</time>
      </trkpt>
      <trkpt lat="49.43347" lon="1.12417">
        <ele>67.5</ele>
        <time>2021-03-21T14:58:58Z</time>
      </trkpt>
      <trkpt lat="49.43346" lon="1.12431">
        <ele>67.8</ele>
        <time>2021-03-21T14:59:00Z</time>
      </trkpt>
      <trkpt lat="49.43345" lon="1.12445">
        <ele>68.1</ele>
        <time>2021-03-21T14:59:02Z</time>
      </trkpt>
      <trkpt lat="49.43344" lon="1.12452">
        <ele>68.2</ele>
        <time>2021-03-21T14:59:03Z</time>
      </trkpt>
      <trkpt lat="49.43344" lon="1.12467">
        <ele>68.5</ele>
        <time>2021-03-21T14:59:05Z</time>
      </trkpt>
      <trkpt lat="49.43343" lon="1.1248">
        <ele>68.7</ele>
        <time>2021-03-21T14:59:07Z</time>
      </trkpt>
      <trkpt lat="49.43342" lon="1.12487">
        <ele>68.9</ele>
        <time>2021-03-21T14:59:08Z</time>
      </trkpt>
      <trkpt lat="49.43339" lon="1.12499">
        <ele>69.1</ele>
        <time>2021-03-21T14:59:10Z</time>
      </trkpt>
      <trkpt lat="49.43333" lon="1.12504">
        <ele>69.4</ele>
        <time>2021-03-21T14:59:12Z</time>
      </trkpt>
      <trkpt lat="49.43328" lon="1.1251">
        <ele>69.6</ele>
        <time>2021-03-21T14:59:14Z</time>
      </trkpt>
      <trkpt lat="49.43325" lon="1.12517">
        <ele>69.6</ele>
        <time>2021-03-21T14:59:16Z</time>
      </trkpt>
      <trkpt lat="49.43323" lon="1.12522">
        <ele>69.5</ele>
        <time>2021-03-21T14:59:17Z</time>
      </trkpt>
      <trkpt lat="49.43322" lon="1.12525">
        <ele>69.3</ele>
        <time>2021-03-21T14:59:18Z</time>
      </trkpt>
      <trkpt lat="49.43322" lon="1.12531">
        <ele>68.9</ele>
        <time>2021-03-21T14:59:20Z</time>
      </trkpt>
      <trkpt lat="49.43322" lon="1.12536">
        <ele>68.7</ele>
        <time>2021-03-21T14:59:21Z</time>
      </trkpt>
      <trkpt lat="49.43323" lon="1.12541">
        <ele>68.3</ele>
        <time>2021-03-21T14:59:23Z</time>
      </trkpt>
      <trkpt lat="49.43324" lon="1.12548">
        <ele>67.9</ele>
        <time>2021-03-21T14:59:25Z</time>
      </trkpt>
      <trkpt lat="49.43325" lon="1.12552">
        <ele>67.7</ele>
        <time>2021-03-21T14:59:26Z</time>
      </trkpt>
      <trkpt lat="49.43328" lon="1.12562">
        <ele>67.1</ele>
        <time>2021-03-21T14:59:28Z</time>
      </trkpt>
      <trkpt lat="49.43329" lon="1.12565">
        <ele>66.8</ele>
        <time>2021-03-21T14:59:29Z</time>
      </trkpt>
      <trkpt lat="49.43331" lon="1.12574">
        <ele>66.3</ele>
        <time>2021-03-21T14:59:31Z</time>
      </trkpt>
      <trkpt lat="49.43332" lon="1.12578">
        <ele>66</ele>
        <time>2021-03-21T14:59:32Z</time>
      </trkpt>
      <trkpt lat="49.43332" lon="1.12578">
        <ele>66</ele>
        <time>2021-03-21T14:59:34Z</time>
      </trkpt>
      <trkpt lat="49.43332" lon="1.12578">
        <ele>66</ele>
        <time>2021-03-21T14:59:35Z</time>
      </trkpt>
      <trkpt lat="49.43337" lon="1.12597">
        <ele>65.1</ele>
        <time>2021-03-21T14:59:37Z</time>
      </trkpt>
      <trkpt lat="49.43346" lon="1.12627">
        <ele>63.8</ele>
        <time>2021-03-21T14:59:39Z</time>
      </trkpt>
      <trkpt lat="49.43354" lon="1.12649">
        <ele>62.8</ele>
        <time>2021-03-21T14:59:41Z</time>
      </trkpt>
      <trkpt lat="49.43363" lon="1.12668">
        <ele>61.7</ele>
        <time>2021-03-21T14:59:43Z</time>
      </trkpt>
      <trkpt lat="49.43367" lon="1.12677">
        <ele>61.3</ele>
        <time>2021-03-21T14:59:44Z</time>
      </trkpt>
      <trkpt lat="49.43377" lon="1.12691">
        <ele>60.4</ele>
        <time>2021-03-21T14:59:46Z</time>
      </trkpt>
      <trkpt lat="49.4339" lon="1.12703">
        <ele>59.5</ele>
        <time>2021-03-21T14:59:48Z</time>
      </trkpt>
      <trkpt lat="49.43403" lon="1.12714">
        <ele>58.5</ele>
        <time>2021-03-21T14:59:50Z</time>
      </trkpt>
      <trkpt lat="49.43414" lon="1.12728">
        <ele>57.5</ele>
        <time>2021-03-21T14:59:52Z</time>
      </trkpt>
      <trkpt lat="49.43425" lon="1.12745">
        <ele>56.5</ele>
        <time>2021-03-21T14:59:54Z</time>
      </trkpt>
      <trkpt lat="49.4343" lon="1.12768">
        <ele>55.4</ele>
        <time>2021-03-21T14:59:56Z</time>
      </trkpt>
      <trkpt lat="49.4343" lon="1.1278">
        <ele>55.1</ele>
        <time>2021-03-21T14:59:57Z</time>
      </trkpt>
      <trkpt lat="49.43426" lon="1.12804">
        <ele>54.5</ele>
        <time>2021-03-21T14:59:59Z</time>
      </trkpt>
      <trkpt lat="49.43418" lon="1.12824">
        <ele>55.4</ele>
        <time>2021-03-21T15:00:01Z</time>
      </trkpt>
      <trkpt lat="49.43413" lon="1.12832">
        <ele>55.9</ele>
        <time>2021-03-21T15:00:02Z</time>
      </trkpt>
      <trkpt lat="49.43409" lon="1.1284">
        <ele>56.4</ele>
        <time>2021-03-21T15:00:03Z</time>
      </trkpt>
      <trkpt lat="49.43404" lon="1.12857">
        <ele>57.4</ele>
        <time>2021-03-21T15:00:05Z</time>
      </trkpt>
      <trkpt lat="49.434" lon="1.12874">
        <ele>58.3</ele>
        <time>2021-03-21T15:00:07Z</time>
      </trkpt>
      <trkpt lat="49.43398" lon="1.12881">
        <ele>58.8</ele>
        <time>2021-03-21T15:00:08Z</time>
      </trkpt>
      <trkpt lat="49.43395" lon="1.12895">
        <ele>59.7</ele>
        <time>2021-03-21T15:00:10Z</time>
      </trkpt>
      <trkpt lat="49.43394" lon="1.12901">
        <ele>60.1</ele>
        <time>2021-03-21T15:00:11Z</time>
      </trkpt>
      <trkpt lat="49.43393" lon="1.12911">
        <ele>60.7</ele>
        <time>2021-03-21T15:00:13Z</time>
      </trkpt>
      <trkpt lat="49.43392" lon="1.12914">
        <ele>61</ele>
        <time>2021-03-21T15:00:14Z</time>
      </trkpt>
      <trkpt lat="49.4339" lon="1.1292">
        <ele>61.6</ele>
        <time>2021-03-21T15:00:16Z</time>
      </trkpt>
      <trkpt lat="49.43387" lon="1.12922">
        <ele>61.9</ele>
        <time>2021-03-21T15:00:17Z</time>
      </trkpt>
      <trkpt lat="49.43384" lon="1.12926">
        <ele>62.5</ele>
        <time>2021-03-21T15:00:19Z</time>
      </trkpt>
      <trkpt lat="49.43382" lon="1.12929">
        <ele>63</ele>
        <time>2021-03-21T15:00:21Z</time>
      </trkpt>
      <trkpt lat="49.4338" lon="1.12931">
        <ele>63.4</ele>
        <time>2021-03-21T15:00:22Z</time>
      </trkpt>
      <trkpt lat="49.43378" lon="1.12936">
        <ele>64</ele>
        <time>2021-03-21T15:00:24Z</time>
      </trkpt>
      <trkpt lat="49.43376" lon="1.12941">
        <ele>64.7</ele>
        <time>2021-03-21T15:00:26Z</time>
      </trkpt>
      <trkpt lat="49.43375" lon="1.12944">
        <ele>65.2</ele>
        <time>2021-03-21T15:00:27Z</time>
      </trkpt>
      <trkpt lat="49.43373" lon="1.12949">
        <ele>65.9</ele>
        <time>2021-03-21T15:00:29Z</time>
      </trkpt>
      <trkpt lat="49.43371" lon="1.12954">
        <ele>66.7</ele>
        <time>2021-03-21T15:00:31Z</time>
      </trkpt>
      <trkpt lat="49.4337" lon="1.12956">
        <ele>67.1</ele>
        <time>2021-03-21T15:00:32Z</time>
      </trkpt>
      <trkpt lat="49.43368" lon="1.1296">
        <ele>67.7</ele>
        <time>2021-03-21T15:00:34Z</time>
      </trkpt>
      <trkpt lat="49.43368" lon="1.12963">
        <ele>68.2</ele>
        <time>2021-03-21T15:00:35Z</time>
      </trkpt>
      <trkpt lat="49.43365" lon="1.12968">
        <ele>69</ele>
        <time>2021-03-21T15:00:37Z</time>
      </trkpt>
      <trkpt lat="49.43364" lon="1.12969">
        <ele>69.2</ele>
        <time>2021-03-21T15:00:38Z</time>
      </trkpt>
      <trkpt lat="49.43363" lon="1.12969">
        <ele>69.6</ele>
        <time>2021-03-21T15:00:39Z</time>
      </trkpt>
      <trkpt lat="49.4336" lon="1.12971">
        <ele>70.2</ele>
        <time>2021-03-21T15:00:41Z</time>
      </trkpt>
      <trkpt lat="49.43357" lon="1.12974">
        <ele>70.7</ele>
        <time>2021-03-21T15:00:42Z</time>
      </trkpt>
      <trkpt lat="49.43355" lon="1.12978">
        <ele>71.3</ele>
        <time>2021-03-21T15:00:44Z</time>
      </trkpt>
      <trkpt lat="49.43353" lon="1.12981">
        <ele>71.7</ele>
        <time>2021-03-21T15:00:45Z</time>
      </trkpt>
      <trkpt lat="49.4335" lon="1.12985">
        <ele>72.4</ele>
        <time>2021-03-21T15:00:47Z</time>
      </trkpt>
      <trkpt lat="49.43347" lon="1.12988">
        <ele>72.9</ele>
        <time>2021-03-21T15:00:48Z</time>
      </trkpt>
      <trkpt lat="49.43346" lon="1.12989">
        <ele>73.1</ele>
        <time>2021-03-21T15:00:49Z</time>
      </trkpt>
      <trkpt lat="49.43343" lon="1.12993">
        <ele>73.8</ele>
        <time>2021-03-21T15:00:51Z</time>
      </trkpt>
      <trkpt lat="49.43342" lon="1.12993">
        <ele>73.9</ele>
        <time>2021-03-21T15:00:53Z</time>
      </trkpt>
      <trkpt lat="49.43341" lon="1.12993">
        <ele>74.1</ele>
        <time>2021-03-21T15:00:54Z</time>
      </trkpt>
      <trkpt lat="49.4334" lon="1.12994">
        <ele>74.2</ele>
        <time>2021-03-21T15:00:56Z</time>
      </trkpt>
      <trkpt lat="49.43339" lon="1.12994">
        <ele>74.4</ele>
        <time>2021-03-21T15:00:58Z</time>
      </trkpt>
      <trkpt lat="49.43338" lon="1.12994">
        <ele>74.5</ele>
        <time>2021-03-21T15:00:59Z</time>
      </trkpt>
      <trkpt lat="49.43335" lon="1.12995">
        <ele>75.2</ele>
        <time>2021-03-21T15:01:00Z</time>
      </trkpt>
      <trkpt lat="49.43331" lon="1.12997">
        <ele>76</ele>
        <time>2021-03-21T15:01:02Z</time>
      </trkpt>
      <trkpt lat="49.43326" lon="1.12998">
        <ele>76.9</ele>
        <time>2021-03-21T15:01:04Z</time>
      </trkpt>
      <trkpt lat="49.43325" lon="1.12998">
        <ele>77.2</ele>
        <time>2021-03-21T15:01:05Z</time>
      </trkpt>
      <trkpt lat="49.43324" lon="1.12998">
        <ele>77.5</ele>
        <time>2021-03-21T15:01:06Z</time>
      </trkpt>
      <trkpt lat="49.4332" lon="1.12999">
        <ele>78.1</ele>
        <time>2021-03-21T15:01:08Z</time>
      </trkpt>
      <trkpt lat="49.43318" lon="1.13">
        <ele>78.6</ele>
        <time>2021-03-21T15:01:10Z</time>
      </trkpt>
      <trkpt lat="49.43316" lon="1.13">
        <ele>78.9</ele>
        <time>2021-03-21T15:01:12Z</time>
      </trkpt>
      <trkpt lat="49.43314" lon="1.13">
        <ele>79.2</ele>
        <time>2021-03-21T15:01:13Z</time>
      </trkpt>
      <trkpt lat="49.4331" lon="1.13002">
        <ele>80</ele>
        <time>2021-03-21T15:01:15Z</time>
      </trkpt>
      <trkpt lat="49.43305" lon="1.13003">
        <ele>80.6</ele>
        <time>2021-03-21T15:01:17Z</time>
      </trkpt>
      <trkpt lat="49.43303" lon="1.13003">
        <ele>80.9</ele>
        <time>2021-03-21T15:01:18Z</time>
      </trkpt>
      <trkpt lat="49.433" lon="1.13003">
        <ele>81.3</ele>
        <time>2021-03-21T15:01:20Z</time>
      </trkpt>
      <trkpt lat="49.43298" lon="1.13003">
        <ele>81.4</ele>
        <time>2021-03-21T15:01:21Z</time>
      </trkpt>
      <trkpt lat="49.43296" lon="1.13004">
        <ele>81.7</ele>
        <time>2021-03-21T15:01:23Z</time>
      </trkpt>
      <trkpt lat="49.43293" lon="1.13003">
        <ele>82</ele>
        <time>2021-03-21T15:01:25Z</time>
      </trkpt>
      <trkpt lat="49.4329" lon="1.13002">
        <ele>82.3</ele>
        <time>2021-03-21T15:01:27Z</time>
      </trkpt>
      <trkpt lat="49.43286" lon="1.13002">
        <ele>82.6</ele>
        <time>2021-03-21T15:01:29Z</time>
      </trkpt>
      <trkpt lat="49.43282" lon="1.13003">
        <ele>83</ele>
        <time>2021-03-21T15:01:31Z</time>
      </trkpt>
      <trkpt lat="49.43279" lon="1.13004">
        <ele>83.3</ele>
        <time>2021-03-21T15:01:33Z</time>
      </trkpt>
      <trkpt lat="49.43278" lon="1.13004">
        <ele>83.4</ele>
        <time>2021-03-21T15:01:34Z</time>
      </trkpt>
      <trkpt lat="49.43275" lon="1.13006">
        <ele>83.6</ele>
        <time>2021-03-21T15:01:36Z</time>
      </trkpt>
      <trkpt lat="49.43274" lon="1.13007">
        <ele>83.7</ele>
        <time>2021-03-21T15:01:37Z</time>
      </trkpt>
      <trkpt lat="49.43273" lon="1.13008">
        <ele>83.9</ele>
        <time>2021-03-21T15:01:38Z</time>
      </trkpt>
      <trkpt lat="49.4327" lon="1.13009">
        <ele>84.1</ele>
        <time>2021-03-21T15:01:40Z</time>
      </trkpt>
      <trkpt lat="49.43269" lon="1.1301">
        <ele>84.3</ele>
        <time>2021-03-21T15:01:41Z</time>
      </trkpt>
      <trkpt lat="49.43265" lon="1.1301">
        <ele>84.7</ele>
        <time>2021-03-21T15:01:43Z</time>
      </trkpt>
      <trkpt lat="49.43262" lon="1.1301">
        <ele>85.1</ele>
        <time>2021-03-21T15:01:45Z</time>
      </trkpt>
      <trkpt lat="49.4326" lon="1.1301">
        <ele>85.3</ele>
        <time>2021-03-21T15:01:46Z</time>
      </trkpt>
      <trkpt lat="49.43256" lon="1.13011">
        <ele>85.7</ele>
        <time>2021-03-21T15:01:48Z</time>
      </trkpt>
      <trkpt lat="49.43254" lon="1.13012">
        <ele>86</ele>
        <time>2021-03-21T15:01:49Z</time>
      </trkpt>
      <trkpt lat="49.43251" lon="1.13012">
        <ele>86.4</ele>
        <time>2021-03-21T15:01:51Z</time>
      </trkpt>
      <trkpt lat="49.43246" lon="1.13013">
        <ele>86.9</ele>
        <time>2021-03-21T15:01:53Z</time>
      </trkpt>
      <trkpt lat="49.43243" lon="1.13014">
        <ele>87.4</ele>
        <time>2021-03-21T15:01:55Z</time>
      </trkpt>
      <trkpt lat="49.4324" lon="1.13015">
        <ele>87.7</ele>
        <time>2021-03-21T15:01:56Z</time>
      </trkpt>
      <trkpt lat="49.43239" lon="1.13015">
        <ele>87.8</ele>
        <time>2021-03-21T15:01:57Z</time>
      </trkpt>
      <trkpt lat="49.43236" lon="1.13016">
        <ele>88.1</ele>
        <time>2021-03-21T15:01:59Z</time>
      </trkpt>
      <trkpt lat="49.43234" lon="1.13016">
        <ele>88.3</ele>
        <time>2021-03-21T15:02:00Z</time>
      </trkpt>
      <trkpt lat="49.43229" lon="1.13017">
        <ele>88.8</ele>
        <time>2021-03-21T15:02:02Z</time>
      </trkpt>
      <trkpt lat="49.43225" lon="1.13018">
        <ele>89.3</ele>
        <time>2021-03-21T15:02:04Z</time>
      </trkpt>
      <trkpt lat="49.43221" lon="1.13018">
        <ele>89.8</ele>
        <time>2021-03-21T15:02:06Z</time>
      </trkpt>
      <trkpt lat="49.43217" lon="1.13019">
        <ele>90.1</ele>
        <time>2021-03-21T15:02:07Z</time>
      </trkpt>
      <trkpt lat="49.43216" lon="1.13019">
        <ele>90.2</ele>
        <time>2021-03-21T15:02:08Z</time>
      </trkpt>
      <trkpt lat="49.43212" lon="1.13019">
        <ele>90.8</ele>
        <time>2021-03-21T15:02:10Z</time>
      </trkpt>
      <trkpt lat="49.4321" lon="1.13019">
        <ele>91</ele>
        <time>2021-03-21T15:02:11Z</time>
      </trkpt>
      <trkpt lat="49.43207" lon="1.13018">
        <ele>91.4</ele>
        <time>2021-03-21T15:02:13Z</time>
      </trkpt>
      <trkpt lat="49.43203" lon="1.13019">
        <ele>91.9</ele>
        <time>2021-03-21T15:02:15Z</time>
      </trkpt>
      <trkpt lat="49.43199" lon="1.1302">
        <ele>92.4</ele>
        <time>2021-03-21T15:02:17Z</time>
      </trkpt>
      <trkpt lat="49.43196" lon="1.13021">
        <ele>92.8</ele>
        <time>2021-03-21T15:02:19Z</time>
      </trkpt>
      <trkpt lat="49.43193" lon="1.13021">
        <ele>93.2</ele>
        <time>2021-03-21T15:02:21Z</time>
      </trkpt>
      <trkpt lat="49.43189" lon="1.13022">
        <ele>93.6</ele>
        <time>2021-03-21T15:02:23Z</time>
      </trkpt>
      <trkpt lat="49.43186" lon="1.13021">
        <ele>94</ele>
        <time>2021-03-21T15:02:25Z</time>
      </trkpt>
      <trkpt lat="49.43184" lon="1.1302">
        <ele>94.2</ele>
        <time>2021-03-21T15:02:26Z</time>
      </trkpt>
      <trkpt lat="49.43183" lon="1.1302">
        <ele>94.4</ele>
        <time>2021-03-21T15:02:27Z</time>
      </trkpt>
      <trkpt lat="49.43179" lon="1.13019">
        <ele>94.8</ele>
        <time>2021-03-21T15:02:29Z</time>
      </trkpt>
      <trkpt lat="49.43178" lon="1.13019">
        <ele>95</ele>
        <time>2021-03-21T15:02:30Z</time>
      </trkpt>
      <trkpt lat="49.43174" lon="1.13018">
        <ele>95.5</ele>
        <time>2021-03-21T15:02:32Z</time>
      </trkpt>
      <trkpt lat="49.43172" lon="1.13018">
        <ele>95.8</ele>
        <time>2021-03-21T15:02:33Z</time>
      </trkpt>
      <trkpt lat="49.43167" lon="1.13018">
        <ele>96.2</ele>
        <time>2021-03-21T15:02:35Z</time>
      </trkpt>
      <trkpt lat="49.43164" lon="1.13018">
        <ele>96.6</ele>
        <time>2021-03-21T15:02:37Z</time>
      </trkpt>
      <trkpt lat="49.4316" lon="1.13019">
        <ele>97</ele>
        <time>2021-03-21T15:02:39Z</time>
      </trkpt>
      <trkpt lat="49.43157" lon="1.13019">
        <ele>97.3</ele>
        <time>2021-03-21T15:02:41Z</time>
      </trkpt>
      <trkpt lat="49.43156" lon="1.13019">
        <ele>97.5</ele>
        <time>2021-03-21T15:02:42Z</time>
      </trkpt>
      <trkpt lat="49.43151" lon="1.1302">
        <ele>97.9</ele>
        <time>2021-03-21T15:02:44Z</time>
      </trkpt>
      <trkpt lat="49.43147" lon="1.1302">
        <ele>98.4</ele>
        <time>2021-03-21T15:02:46Z</time>
      </trkpt>
      <trkpt lat="49.43144" lon="1.13021">
        <ele>98.7</ele>
        <time>2021-03-21T15:02:47Z</time>
      </trkpt>
      <trkpt lat="49.43143" lon="1.13021">
        <ele>98.8</ele>
        <time>2021-03-21T15:02:48Z</time>
      </trkpt>
      <trkpt lat="49.43141" lon="1.13023">
        <ele>99</ele>
        <time>2021-03-21T15:02:49Z</time>
      </trkpt>
      <trkpt lat="49.43138" lon="1.13021">
        <ele>99.3</ele>
        <time>2021-03-21T15:02:51Z</time>
      </trkpt>
      <trkpt lat="49.43137" lon="1.1302">
        <ele>99.4</ele>
        <time>2021-03-21T15:02:52Z</time>
      </trkpt>
      <trkpt lat="49.43133" lon="1.1302">
        <ele>99.9</ele>
        <time>2021-03-21T15:02:54Z</time>
      </trkpt>
      <trkpt lat="49.43127" lon="1.13019">
        <ele>100.5</ele>
        <time>2021-03-21T15:02:56Z</time>
      </trkpt>
      <trkpt lat="49.43124" lon="1.13018">
        <ele>100.7</ele>
        <time>2021-03-21T15:02:57Z</time>
      </trkpt>
      <trkpt lat="49.43122" lon="1.13017">
        <ele>101</ele>
        <time>2021-03-21T15:02:58Z</time>
      </trkpt>
      <trkpt lat="49.43119" lon="1.13017">
        <ele>101.2</ele>
        <time>2021-03-21T15:03:00Z</time>
      </trkpt>
      <trkpt lat="49.43119" lon="1.13017">
        <ele>101.3</ele>
        <time>2021-03-21T15:03:02Z</time>
      </trkpt>
      <trkpt lat="49.43117" lon="1.13018">
        <ele>101.4</ele>
        <time>2021-03-21T15:03:03Z</time>
      </trkpt>
      <trkpt lat="49.43116" lon="1.13018">
        <ele>101.5</ele>
        <time>2021-03-21T15:03:04Z</time>
      </trkpt>
      <trkpt lat="49.43113" lon="1.13018">
        <ele>101.8</ele>
        <time>2021-03-21T15:03:06Z</time>
      </trkpt>
      <trkpt lat="49.4311" lon="1.13018">
        <ele>102.1</ele>
        <time>2021-03-21T15:03:08Z</time>
      </trkpt>
      <trkpt lat="49.43107" lon="1.13018">
        <ele>102.5</ele>
        <time>2021-03-21T15:03:10Z</time>
      </trkpt>
      <trkpt lat="49.43103" lon="1.13018">
        <ele>102.9</ele>
        <time>2021-03-21T15:03:11Z</time>
      </trkpt>
      <trkpt lat="49.43102" lon="1.13018">
        <ele>103</ele>
        <time>2021-03-21T15:03:12Z</time>
      </trkpt>
      <trkpt lat="49.43097" lon="1.13018">
        <ele>103.5</ele>
        <time>2021-03-21T15:03:14Z</time>
      </trkpt>
      <trkpt lat="49.43094" lon="1.13018">
        <ele>103.9</ele>
        <time>2021-03-21T15:03:15Z</time>
      </trkpt>
      <trkpt lat="49.43093" lon="1.13018">
        <ele>104</ele>
        <time>2021-03-21T15:03:16Z</time>
      </trkpt>
      <trkpt lat="49.43091" lon="1.13018">
        <ele>104.1</ele>
        <time>2021-03-21T15:03:17Z</time>
      </trkpt>
      <trkpt lat="49.43088" lon="1.13018">
        <ele>104.5</ele>
        <time>2021-03-21T15:03:19Z</time>
      </trkpt>
      <trkpt lat="49.43086" lon="1.13018">
        <ele>104.7</ele>
        <time>2021-03-21T15:03:20Z</time>
      </trkpt>
      <trkpt lat="49.43082" lon="1.13016">
        <ele>105.3</ele>
        <time>2021-03-21T15:03:22Z</time>
      </trkpt>
      <trkpt lat="49.43079" lon="1.13015">
        <ele>105.6</ele>
        <time>2021-03-21T15:03:23Z</time>
      </trkpt>
      <trkpt lat="49.43075" lon="1.13015">
        <ele>106.1</ele>
        <time>2021-03-21T15:03:25Z</time>
      </trkpt>
      <trkpt lat="49.43073" lon="1.13014">
        <ele>106.4</ele>
        <time>2021-03-21T15:03:26Z</time>
      </trkpt>
      <trkpt lat="49.43068" lon="1.13012">
        <ele>107</ele>
        <time>2021-03-21T15:03:28Z</time>
      </trkpt>
      <trkpt lat="49.43067" lon="1.13012">
        <ele>107.2</ele>
        <time>2021-03-21T15:03:29Z</time>
      </trkpt>
      <trkpt lat="49.43064" lon="1.13012">
        <ele>107.6</ele>
        <time>2021-03-21T15:03:31Z</time>
      </trkpt>
      <trkpt lat="49.43061" lon="1.13011">
        <ele>107.9</ele>
        <time>2021-03-21T15:03:32Z</time>
      </trkpt>
      <trkpt lat="49.4306" lon="1.13011">
        <ele>108</ele>
        <time>2021-03-21T15:03:33Z</time>
      </trkpt>
      <trkpt lat="49.43056" lon="1.1301">
        <ele>108.5</ele>
        <time>2021-03-21T15:03:35Z</time>
      </trkpt>
      <trkpt lat="49.43053" lon="1.1301">
        <ele>108.9</ele>
        <time>2021-03-21T15:03:37Z</time>
      </trkpt>
      <trkpt lat="49.43049" lon="1.1301">
        <ele>109.4</ele>
        <time>2021-03-21T15:03:39Z</time>
      </trkpt>
      <trkpt lat="49.43047" lon="1.1301">
        <ele>109.6</ele>
        <time>2021-03-21T15:03:40Z</time>
      </trkpt>
      <trkpt lat="49.43046" lon="1.13009">
        <ele>109.8</ele>
        <time>2021-03-21T15:03:41Z</time>
      </trkpt>
      <trkpt lat="49.43042" lon="1.13008">
        <ele>110.3</ele>
        <time>2021-03-21T15:03:43Z</time>
      </trkpt>
      <trkpt lat="49.43039" lon="1.13007">
        <ele>110.8</ele>
        <time>2021-03-21T15:03:45Z</time>
      </trkpt>
      <trkpt lat="49.43036" lon="1.13001">
        <ele>111.5</ele>
        <time>2021-03-21T15:03:47Z</time>
      </trkpt>
      <trkpt lat="49.43035" lon="1.12994">
        <ele>112.2</ele>
        <time>2021-03-21T15:03:49Z</time>
      </trkpt>
      <trkpt lat="49.43034" lon="1.12989">
        <ele>112.7</ele>
        <time>2021-03-21T15:03:51Z</time>
      </trkpt>
      <trkpt lat="49.43033" lon="1.12988">
        <ele>112.9</ele>
        <time>2021-03-21T15:03:52Z</time>
      </trkpt>
      <trkpt lat="49.43029" lon="1.12989">
        <ele>113.4</ele>
        <time>2021-03-21T15:03:54Z</time>
      </trkpt>
      <trkpt lat="49.43026" lon="1.12989">
        <ele>114.1</ele>
        <time>2021-03-21T15:03:56Z</time>
      </trkpt>
      <trkpt lat="49.43025" lon="1.12989">
        <ele>114.3</ele>
        <time>2021-03-21T15:03:57Z</time>
      </trkpt>
      <trkpt lat="49.43023" lon="1.12988">
        <ele>114.5</ele>
        <time>2021-03-21T15:03:58Z</time>
      </trkpt>
      <trkpt lat="49.4302" lon="1.12987">
        <ele>115</ele>
        <time>2021-03-21T15:04:00Z</time>
      </trkpt>
      <trkpt lat="49.43019" lon="1.12986">
        <ele>115.1</ele>
        <time>2021-03-21T15:04:01Z</time>
      </trkpt>
      <trkpt lat="49.43018" lon="1.12986">
        <ele>115.3</ele>
        <time>2021-03-21T15:04:02Z</time>
      </trkpt>
      <trkpt lat="49.43015" lon="1.12986">
        <ele>115.6</ele>
        <time>2021-03-21T15:04:04Z</time>
      </trkpt>
      <trkpt lat="49.43013" lon="1.12986">
        <ele>115.9</ele>
        <time>2021-03-21T15:04:06Z</time>
      </trkpt>
      <trkpt lat="49.43012" lon="1.12986">
        <ele>116</ele>
        <time>2021-03-21T15:04:07Z</time>
      </trkpt>
      <trkpt lat="49.4301" lon="1.12986">
        <ele>116.2</ele>
        <time>2021-03-21T15:04:08Z</time>
      </trkpt>
      <trkpt lat="49.4301" lon="1.12987">
        <ele>116.3</ele>
        <time>2021-03-21T15:04:09Z</time>
      </trkpt>
      <trkpt lat="49.43007" lon="1.12987">
        <ele>116.5</ele>
        <time>2021-03-21T15:04:11Z</time>
      </trkpt>
      <trkpt lat="49.43004" lon="1.12986">
        <ele>116.9</ele>
        <time>2021-03-21T15:04:13Z</time>
      </trkpt>
      <trkpt lat="49.43003" lon="1.12986">
        <ele>117.1</ele>
        <time>2021-03-21T15:04:14Z</time>
      </trkpt>
      <trkpt lat="49.43" lon="1.12987">
        <ele>117.4</ele>
        <time>2021-03-21T15:04:16Z</time>
      </trkpt>
      <trkpt lat="49.42996" lon="1.12988">
        <ele>118</ele>
        <time>2021-03-21T15:04:18Z</time>
      </trkpt>
      <trkpt lat="49.42994" lon="1.12987">
        <ele>118.3</ele>
        <time>2021-03-21T15:04:19Z</time>
      </trkpt>
      <trkpt lat="49.4299" lon="1.12985">
        <ele>119</ele>
        <time>2021-03-21T15:04:21Z</time>
      </trkpt>
      <trkpt lat="49.42986" lon="1.12981">
        <ele>119.8</ele>
        <time>2021-03-21T15:04:23Z</time>
      </trkpt>
      <trkpt lat="49.42983" lon="1.12978">
        <ele>120.6</ele>
        <time>2021-03-21T15:04:25Z</time>
      </trkpt>
      <trkpt lat="49.4298" lon="1.12975">
        <ele>121.4</ele>
        <time>2021-03-21T15:04:27Z</time>
      </trkpt>
      <trkpt lat="49.42979" lon="1.12972">
        <ele>121.9</ele>
        <time>2021-03-21T15:04:28Z</time>
      </trkpt>
      <trkpt lat="49.42977" lon="1.1297">
        <ele>122.3</ele>
        <time>2021-03-21T15:04:30Z</time>
      </trkpt>
      <trkpt lat="49.42977" lon="1.12969">
        <ele>122.5</ele>
        <time>2021-03-21T15:04:31Z</time>
      </trkpt>
      <trkpt lat="49.42977" lon="1.12969">
        <ele>122.6</ele>
        <time>2021-03-21T15:04:32Z</time>
      </trkpt>
      <trkpt lat="49.42977" lon="1.12968">
        <ele>122.7</ele>
        <time>2021-03-21T15:04:34Z</time>
      </trkpt>
      <trkpt lat="49.42977" lon="1.12967">
        <ele>122.8</ele>
        <time>2021-03-21T15:04:36Z</time>
      </trkpt>
      <trkpt lat="49.42977" lon="1.12967">
        <ele>122.9</ele>
        <time>2021-03-21T15:04:37Z</time>
      </trkpt>
      <trkpt lat="49.42978" lon="1.12966">
        <ele>123.1</ele>
        <time>2021-03-21T15:04:38Z</time>
      </trkpt>
      <trkpt lat="49.42978" lon="1.12965">
        <ele>123.4</ele>
        <time>2021-03-21T15:04:40Z</time>
      </trkpt>
      <trkpt lat="49.42978" lon="1.12963">
        <ele>123.7</ele>
        <time>2021-03-21T15:04:42Z</time>
      </trkpt>
      <trkpt lat="49.42978" lon="1.12962">
        <ele>123.8</ele>
        <time>2021-03-21T15:04:43Z</time>
      </trkpt>
      <trkpt lat="49.42977" lon="1.12961">
        <ele>124.1</ele>
        <time>2021-03-21T15:04:45Z</time>
      </trkpt>
      <trkpt lat="49.42977" lon="1.1296">
        <ele>124.2</ele>
        <time>2021-03-21T15:04:46Z</time>
      </trkpt>
      <trkpt lat="49.42977" lon="1.1296">
        <ele>124.3</ele>
        <time>2021-03-21T15:04:47Z</time>
      </trkpt>
      <trkpt lat="49.42976" lon="1.1296">
        <ele>124.6</ele>
        <time>2021-03-21T15:04:49Z</time>
      </trkpt>
      <trkpt lat="49.42975" lon="1.1296">
        <ele>124.8</ele>
        <time>2021-03-21T15:04:50Z</time>
      </trkpt>
      <trkpt lat="49.42974" lon="1.12961">
        <ele>124.9</ele>
        <time>2021-03-21T15:04:51Z</time>
      </trkpt>
      <trkpt lat="49.42973" lon="1.12962">
        <ele>125.4</ele>
        <time>2021-03-21T15:04:53Z</time>
      </trkpt>
      <trkpt lat="49.42972" lon="1.12962">
        <ele>125.8</ele>
        <time>2021-03-21T15:04:55Z</time>
      </trkpt>
      <trkpt lat="49.42971" lon="1.12962">
        <ele>125.9</ele>
        <time>2021-03-21T15:04:56Z</time>
      </trkpt>
      <trkpt lat="49.42971" lon="1.12962">
        <ele>126.1</ele>
        <time>2021-03-21T15:04:58Z</time>
      </trkpt>
      <trkpt lat="49.4297" lon="1.12962">
        <ele>126.4</ele>
        <time>2021-03-21T15:05:00Z</time>
      </trkpt>
      <trkpt lat="49.42968" lon="1.12962">
        <ele>126.9</ele>
        <time>2021-03-21T15:05:02Z</time>
      </trkpt>
      <trkpt lat="49.42967" lon="1.12962">
        <ele>127.2</ele>
        <time>2021-03-21T15:05:03Z</time>
      </trkpt>
      <trkpt lat="49.42966" lon="1.12962">
        <ele>127.5</ele>
        <time>2021-03-21T15:05:04Z</time>
      </trkpt>
      <trkpt lat="49.42965" lon="1.12963">
        <ele>127.8</ele>
        <time>2021-03-21T15:05:06Z</time>
      </trkpt>
      <trkpt lat="49.42964" lon="1.12963">
        <ele>128</ele>
        <time>2021-03-21T15:05:08Z</time>
      </trkpt>
      <trkpt lat="49.42964" lon="1.12963">
        <ele>128.1</ele>
        <time>2021-03-21T15:05:09Z</time>
      </trkpt>
      <trkpt lat="49.42963" lon="1.12965">
        <ele>128.4</ele>
        <time>2021-03-21T15:05:11Z</time>
      </trkpt>
      <trkpt lat="49.42963" lon="1.12966">
        <ele>128.9</ele>
        <time>2021-03-21T15:05:13Z</time>
      </trkpt>
      <trkpt lat="49.42962" lon="1.1297">
        <ele>129.6</ele>
        <time>2021-03-21T15:05:15Z</time>
      </trkpt>
      <trkpt lat="49.42961" lon="1.12972">
        <ele>130</ele>
        <time>2021-03-21T15:05:16Z</time>
      </trkpt>
      <trkpt lat="49.4296" lon="1.12974">
        <ele>130.6</ele>
        <time>2021-03-21T15:05:18Z</time>
      </trkpt>
      <trkpt lat="49.42959" lon="1.12976">
        <ele>131.1</ele>
        <time>2021-03-21T15:05:20Z</time>
      </trkpt>
      <trkpt lat="49.42958" lon="1.12977">
        <ele>131.4</ele>
        <time>2021-03-21T15:05:21Z</time>
      </trkpt>
      <trkpt lat="49.42957" lon="1.12979">
        <ele>131.8</ele>
        <time>2021-03-21T15:05:23Z</time>
      </trkpt>
      <trkpt lat="49.42957" lon="1.1298">
        <ele>132.1</ele>
        <time>2021-03-21T15:05:25Z</time>
      </trkpt>
      <trkpt lat="49.42956" lon="1.12981">
        <ele>132.4</ele>
        <time>2021-03-21T15:05:27Z</time>
      </trkpt>
      <trkpt lat="49.42955" lon="1.12982">
        <ele>132.6</ele>
        <time>2021-03-21T15:05:28Z</time>
      </trkpt>
      <trkpt lat="49.42954" lon="1.12984">
        <ele>133.1</ele>
        <time>2021-03-21T15:05:30Z</time>
      </trkpt>
      <trkpt lat="49.42953" lon="1.12988">
        <ele>133.8</ele>
        <time>2021-03-21T15:05:32Z</time>
      </trkpt>
      <trkpt lat="49.42952" lon="1.12989">
        <ele>134.1</ele>
        <time>2021-03-21T15:05:33Z</time>
      </trkpt>
      <trkpt lat="49.42952" lon="1.12991">
        <ele>134.4</ele>
        <time>2021-03-21T15:05:34Z</time>
      </trkpt>
      <trkpt lat="49.42951" lon="1.12993">
        <ele>134.9</ele>
        <time>2021-03-21T15:05:36Z</time>
      </trkpt>
      <trkpt lat="49.42949" lon="1.12996">
        <ele>135.2</ele>
        <time>2021-03-21T15:05:38Z</time>
      </trkpt>
      <trkpt lat="49.42948" lon="1.12999">
        <ele>135</ele>
        <time>2021-03-21T15:05:40Z</time>
      </trkpt>
      <trkpt lat="49.42947" lon="1.13">
        <ele>134.9</ele>
        <time>2021-03-21T15:05:41Z</time>
      </trkpt>
      <trkpt lat="49.42945" lon="1.13003">
        <ele>134.8</ele>
        <time>2021-03-21T15:05:43Z</time>
      </trkpt>
      <trkpt lat="49.42945" lon="1.13004">
        <ele>134.7</ele>
        <time>2021-03-21T15:05:44Z</time>
      </trkpt>
      <trkpt lat="49.42944" lon="1.13005">
        <ele>134.7</ele>
        <time>2021-03-21T15:05:45Z</time>
      </trkpt>
      <trkpt lat="49.42944" lon="1.13006">
        <ele>134.6</ele>
        <time>2021-03-21T15:05:46Z</time>
      </trkpt>
      <trkpt lat="49.42943" lon="1.13008">
        <ele>134.5</ele>
        <time>2021-03-21T15:05:48Z</time>
      </trkpt>
      <trkpt lat="49.42942" lon="1.13009">
        <ele>134.5</ele>
        <time>2021-03-21T15:05:49Z</time>
      </trkpt>
      <trkpt lat="49.42942" lon="1.1301">
        <ele>134.4</ele>
        <time>2021-03-21T15:05:51Z</time>
      </trkpt>
      <trkpt lat="49.42941" lon="1.13011">
        <ele>134.3</ele>
        <time>2021-03-21T15:05:53Z</time>
      </trkpt>
      <trkpt lat="49.4294" lon="1.13013">
        <ele>134.3</ele>
        <time>2021-03-21T15:05:55Z</time>
      </trkpt>
      <trkpt lat="49.42941" lon="1.13012">
        <ele>134.2</ele>
        <time>2021-03-21T15:05:57Z</time>
      </trkpt>
      <trkpt lat="49.42941" lon="1.13011">
        <ele>134.2</ele>
        <time>2021-03-21T15:05:59Z</time>
      </trkpt>
      <trkpt lat="49.42941" lon="1.13012">
        <ele>134.2</ele>
        <time>2021-03-21T15:06:00Z</time>
      </trkpt>
      <trkpt lat="49.4294" lon="1.13012">
        <ele>134.2</ele>
        <time>2021-03-21T15:06:01Z</time>
      </trkpt>
      <trkpt lat="49.4294" lon="1.13012">
        <ele>134.1</ele>
        <time>2021-03-21T15:06:03Z</time>
      </trkpt>
      <trkpt lat="49.4294" lon="1.13011">
        <ele>134.1</ele>
        <time>2021-03-21T15:06:04Z</time>
      </trkpt>
      <trkpt lat="49.4294" lon="1.1301">
        <ele>134.1</ele>
        <time>2021-03-21T15:06:06Z</time>
      </trkpt>
      <trkpt lat="49.4294" lon="1.1301">
        <ele>134.1</ele>
        <time>2021-03-21T15:06:07Z</time>
      </trkpt>
      <trkpt lat="49.4294" lon="1.13009">
        <ele>134</ele>
        <time>2021-03-21T15:06:08Z</time>
      </trkpt>
      <trkpt lat="49.42941" lon="1.13008">
        <ele>133.9</ele>
        <time>2021-03-21T15:06:10Z</time>
      </trkpt>
      <trkpt lat="49.42943" lon="1.13013">
        <ele>133.7</ele>
        <time>2021-03-21T15:06:12Z</time>
      </trkpt>
      <trkpt lat="49.42945" lon="1.13015">
        <ele>133.5</ele>
        <time>2021-03-21T15:06:13Z</time>
      </trkpt>
      <trkpt lat="49.42949" lon="1.13021">
        <ele>133.1</ele>
        <time>2021-03-21T15:06:15Z</time>
      </trkpt>
      <trkpt lat="49.42954" lon="1.13026">
        <ele>132.7</ele>
        <time>2021-03-21T15:06:17Z</time>
      </trkpt>
      <trkpt lat="49.42957" lon="1.1303">
        <ele>132.3</ele>
        <time>2021-03-21T15:06:18Z</time>
      </trkpt>
      <trkpt lat="49.42958" lon="1.13032">
        <ele>132.2</ele>
        <time>2021-03-21T15:06:19Z</time>
      </trkpt>
      <trkpt lat="49.42959" lon="1.13038">
        <ele>131.9</ele>
        <time>2021-03-21T15:06:20Z</time>
      </trkpt>
      <trkpt lat="49.42961" lon="1.1305">
        <ele>131.3</ele>
        <time>2021-03-21T15:06:22Z</time>
      </trkpt>
      <trkpt lat="49.42962" lon="1.13055">
        <ele>131</ele>
        <time>2021-03-21T15:06:23Z</time>
      </trkpt>
      <trkpt lat="49.42962" lon="1.13056">
        <ele>130.9</ele>
        <time>2021-03-21T15:06:24Z</time>
      </trkpt>
      <trkpt lat="49.42963" lon="1.13058">
        <ele>130.8</ele>
        <time>2021-03-21T15:06:25Z</time>
      </trkpt>
      <trkpt lat="49.42964" lon="1.13059">
        <ele>130.7</ele>
        <time>2021-03-21T15:06:27Z</time>
      </trkpt>
      <trkpt lat="49.42964" lon="1.13059">
        <ele>130.7</ele>
        <time>2021-03-21T15:06:28Z</time>
      </trkpt>
      <trkpt lat="49.42965" lon="1.1306">
        <ele>130.7</ele>
        <time>2021-03-21T15:06:30Z</time>
      </trkpt>
      <trkpt lat="49.42965" lon="1.13061">
        <ele>130.6</ele>
        <time>2021-03-21T15:06:31Z</time>
      </trkpt>
      <trkpt lat="49.42965" lon="1.13061">
        <ele>130.6</ele>
        <time>2021-03-21T15:06:32Z</time>
      </trkpt>
      <trkpt lat="49.42967" lon="1.13064">
        <ele>130.4</ele>
        <time>2021-03-21T15:06:34Z</time>
      </trkpt>
      <trkpt lat="49.42967" lon="1.13068">
        <ele>130.2</ele>
        <time>2021-03-21T15:06:35Z</time>
      </trkpt>
      <trkpt lat="49.42967" lon="1.13069">
        <ele>130.1</ele>
        <time>2021-03-21T15:06:36Z</time>
      </trkpt>
      <trkpt lat="49.42966" lon="1.13073">
        <ele>130</ele>
        <time>2021-03-21T15:06:37Z</time>
      </trkpt>
      <trkpt lat="49.42968" lon="1.13079">
        <ele>129.6</ele>
        <time>2021-03-21T15:06:39Z</time>
      </trkpt>
      <trkpt lat="49.4297" lon="1.13085">
        <ele>129.1</ele>
        <time>2021-03-21T15:06:40Z</time>
      </trkpt>
      <trkpt lat="49.42972" lon="1.13091">
        <ele>128.7</ele>
        <time>2021-03-21T15:06:41Z</time>
      </trkpt>
      <trkpt lat="49.42974" lon="1.13096">
        <ele>128.3</ele>
        <time>2021-03-21T15:06:42Z</time>
      </trkpt>
      <trkpt lat="49.42976" lon="1.13104">
        <ele>127.7</ele>
        <time>2021-03-21T15:06:44Z</time>
      </trkpt>
      <trkpt lat="49.42977" lon="1.13107">
        <ele>127.5</ele>
        <time>2021-03-21T15:06:45Z</time>
      </trkpt>
      <trkpt lat="49.42978" lon="1.1311">
        <ele>127.3</ele>
        <time>2021-03-21T15:06:47Z</time>
      </trkpt>
      <trkpt lat="49.42978" lon="1.13112">
        <ele>127.2</ele>
        <time>2021-03-21T15:06:49Z</time>
      </trkpt>
      <trkpt lat="49.42978" lon="1.13112">
        <ele>127.2</ele>
        <time>2021-03-21T15:06:50Z</time>
      </trkpt>
      <trkpt lat="49.42978" lon="1.13114">
        <ele>127.1</ele>
        <time>2021-03-21T15:06:52Z</time>
      </trkpt>
      <trkpt lat="49.42978" lon="1.13115">
        <ele>127.1</ele>
        <time>2021-03-21T15:06:53Z</time>
      </trkpt>
      <trkpt lat="49.42978" lon="1.13117">
        <ele>127.1</ele>
        <time>2021-03-21T15:06:55Z</time>
      </trkpt>
      <trkpt lat="49.42979" lon="1.13118">
        <ele>127.1</ele>
        <time>2021-03-21T15:06:56Z</time>
      </trkpt>
      <trkpt lat="49.4298" lon="1.13119">
        <ele>127</ele>
        <time>2021-03-21T15:06:58Z</time>
      </trkpt>
      <trkpt lat="49.4298" lon="1.13119">
        <ele>127</ele>
        <time>2021-03-21T15:06:59Z</time>
      </trkpt>
      <trkpt lat="49.42981" lon="1.1312">
        <ele>127</ele>
        <time>2021-03-21T15:07:00Z</time>
      </trkpt>
      <trkpt lat="49.42982" lon="1.13125">
        <ele>127</ele>
        <time>2021-03-21T15:07:02Z</time>
      </trkpt>
      <trkpt lat="49.42982" lon="1.13131">
        <ele>127.2</ele>
        <time>2021-03-21T15:07:04Z</time>
      </trkpt>
      <trkpt lat="49.42981" lon="1.13137">
        <ele>127.6</ele>
        <time>2021-03-21T15:07:06Z</time>
      </trkpt>
      <trkpt lat="49.4298" lon="1.13142">
        <ele>127.9</ele>
        <time>2021-03-21T15:07:08Z</time>
      </trkpt>
      <trkpt lat="49.42978" lon="1.13147">
        <ele>128.4</ele>
        <time>2021-03-21T15:07:09Z</time>
      </trkpt>
      <trkpt lat="49.42976" lon="1.13154">
        <ele>129.1</ele>
        <time>2021-03-21T15:07:11Z</time>
      </trkpt>
      <trkpt lat="49.42975" lon="1.13156">
        <ele>129.3</ele>
        <time>2021-03-21T15:07:12Z</time>
      </trkpt>
      <trkpt lat="49.42974" lon="1.1316">
        <ele>129.8</ele>
        <time>2021-03-21T15:07:14Z</time>
      </trkpt>
      <trkpt lat="49.42973" lon="1.13163">
        <ele>130</ele>
        <time>2021-03-21T15:07:16Z</time>
      </trkpt>
      <trkpt lat="49.42973" lon="1.13164">
        <ele>130.2</ele>
        <time>2021-03-21T15:07:17Z</time>
      </trkpt>
      <trkpt lat="49.42972" lon="1.13166">
        <ele>130.3</ele>
        <time>2021-03-21T15:07:18Z</time>
      </trkpt>
      <trkpt lat="49.42972" lon="1.13168">
        <ele>130.5</ele>
        <time>2021-03-21T15:07:19Z</time>
      </trkpt>
      <trkpt lat="49.42972" lon="1.1317">
        <ele>130.6</ele>
        <time>2021-03-21T15:07:21Z</time>
      </trkpt>
      <trkpt lat="49.42972" lon="1.13172">
        <ele>130.8</ele>
        <time>2021-03-21T15:07:22Z</time>
      </trkpt>
      <trkpt lat="49.42972" lon="1.13174">
        <ele>130.9</ele>
        <time>2021-03-21T15:07:24Z</time>
      </trkpt>
      <trkpt lat="49.42972" lon="1.13174">
        <ele>131</ele>
        <time>2021-03-21T15:07:25Z</time>
      </trkpt>
      <trkpt lat="49.42973" lon="1.13174">
        <ele>131</ele>
        <time>2021-03-21T15:07:26Z</time>
      </trkpt>
      <trkpt lat="49.42973" lon="1.13175">
        <ele>131.1</ele>
        <time>2021-03-21T15:07:28Z</time>
      </trkpt>
      <trkpt lat="49.42973" lon="1.13175">
        <ele>131.1</ele>
        <time>2021-03-21T15:07:30Z</time>
      </trkpt>
      <trkpt lat="49.42973" lon="1.13176">
        <ele>131.1</ele>
        <time>2021-03-21T15:07:32Z</time>
      </trkpt>
      <trkpt lat="49.42973" lon="1.13178">
        <ele>131.2</ele>
        <time>2021-03-21T15:07:33Z</time>
      </trkpt>
      <trkpt lat="49.42972" lon="1.13181">
        <ele>131.4</ele>
        <time>2021-03-21T15:07:35Z</time>
      </trkpt>
      <trkpt lat="49.42973" lon="1.13189">
        <ele>131.8</ele>
        <time>2021-03-21T15:07:37Z</time>
      </trkpt>
      <trkpt lat="49.42973" lon="1.13197">
        <ele>132</ele>
        <time>2021-03-21T15:07:39Z</time>
      </trkpt>
      <trkpt lat="49.42973" lon="1.13198">
        <ele>132</ele>
        <time>2021-03-21T15:07:40Z</time>
      </trkpt>
      <trkpt lat="49.42973" lon="1.13199">
        <ele>132</ele>
        <time>2021-03-21T15:07:41Z</time>
      </trkpt>
      <trkpt lat="49.42974" lon="1.13198">
        <ele>132</ele>
        <time>2021-03-21T15:07:43Z</time>
      </trkpt>
      <trkpt lat="49.42974" lon="1.13198">
        <ele>132</ele>
        <time>2021-03-21T15:07:44Z</time>
      </trkpt>
      <trkpt lat="49.42974" lon="1.13198">
        <ele>132</ele>
        <time>2021-03-21T15:07:45Z</time>
      </trkpt>
      <trkpt lat="49.42974" lon="1.13198">
        <ele>132</ele>
        <time>2021-03-21T15:07:47Z</time>
      </trkpt>
      <trkpt lat="49.42974" lon="1.13198">
        <ele>132</ele>
        <time>2021-03-21T15:07:48Z</time>
      </trkpt>
      <trkpt lat="49.42974" lon="1.13198">
        <ele>132</ele>
        <time>2021-03-21T15:07:50Z</time>
      </trkpt>
      <trkpt lat="49.42974" lon="1.13198">
        <ele>132</ele>
        <time>2021-03-21T15:07:52Z</time>
      </trkpt>
      <trkpt lat="49.42979" lon="1.13228">
        <ele>131.7</ele>
        <time>2021-03-21T15:08:02Z</time>
      </trkpt>
      <trkpt lat="49.42981" lon="1.13233">
        <ele>131.5</ele>
        <time>2021-03-21T15:08:03Z</time>
      </trkpt>
      <trkpt lat="49.42984" lon="1.13237">
        <ele>131.4</ele>
        <time>2021-03-21T15:08:05Z</time>
      </trkpt>
      <trkpt lat="49.42985" lon="1.13238">
        <ele>131.4</ele>
        <time>2021-03-21T15:08:07Z</time>
      </trkpt>
      <trkpt lat="49.42986" lon="1.13239">
        <ele>131.3</ele>
        <time>2021-03-21T15:08:08Z</time>
      </trkpt>
      <trkpt lat="49.42989" lon="1.1324">
        <ele>131.3</ele>
        <time>2021-03-21T15:08:10Z</time>
      </trkpt>
      <trkpt lat="49.42989" lon="1.1324">
        <ele>131.3</ele>
        <time>2021-03-21T15:08:11Z</time>
      </trkpt>
      <trkpt lat="49.4299" lon="1.13241">
        <ele>131.2</ele>
        <time>2021-03-21T15:08:12Z</time>
      </trkpt>
      <trkpt lat="49.42991" lon="1.13242">
        <ele>131.2</ele>
        <time>2021-03-21T15:08:13Z</time>
      </trkpt>
      <trkpt lat="49.42992" lon="1.13244">
        <ele>131.2</ele>
        <time>2021-03-21T15:08:14Z</time>
      </trkpt>
      <trkpt lat="49.42994" lon="1.1325">
        <ele>131.2</ele>
        <time>2021-03-21T15:08:16Z</time>
      </trkpt>
      <trkpt lat="49.42995" lon="1.13252">
        <ele>131.2</ele>
        <time>2021-03-21T15:08:18Z</time>
      </trkpt>
      <trkpt lat="49.42995" lon="1.13253">
        <ele>131.3</ele>
        <time>2021-03-21T15:08:20Z</time>
      </trkpt>
      <trkpt lat="49.42996" lon="1.13255">
        <ele>131.3</ele>
        <time>2021-03-21T15:08:21Z</time>
      </trkpt>
      <trkpt lat="49.42996" lon="1.13257">
        <ele>131.3</ele>
        <time>2021-03-21T15:08:22Z</time>
      </trkpt>
      <trkpt lat="49.42997" lon="1.13259">
        <ele>131.3</ele>
        <time>2021-03-21T15:08:23Z</time>
      </trkpt>
      <trkpt lat="49.42996" lon="1.13263">
        <ele>131.5</ele>
        <time>2021-03-21T15:08:25Z</time>
      </trkpt>
      <trkpt lat="49.42995" lon="1.13266">
        <ele>131.6</ele>
        <time>2021-03-21T15:08:27Z</time>
      </trkpt>
      <trkpt lat="49.42994" lon="1.13268">
        <ele>131.7</ele>
        <time>2021-03-21T15:08:28Z</time>
      </trkpt>
      <trkpt lat="49.42992" lon="1.13274">
        <ele>132</ele>
        <time>2021-03-21T15:08:30Z</time>
      </trkpt>
      <trkpt lat="49.4299" lon="1.13278">
        <ele>132.3</ele>
        <time>2021-03-21T15:08:31Z</time>
      </trkpt>
      <trkpt lat="49.42988" lon="1.13283">
        <ele>132.6</ele>
        <time>2021-03-21T15:08:32Z</time>
      </trkpt>
      <trkpt lat="49.42987" lon="1.13288">
        <ele>132.9</ele>
        <time>2021-03-21T15:08:33Z</time>
      </trkpt>
      <trkpt lat="49.42985" lon="1.13295">
        <ele>133.3</ele>
        <time>2021-03-21T15:08:35Z</time>
      </trkpt>
      <trkpt lat="49.42985" lon="1.13297">
        <ele>133.5</ele>
        <time>2021-03-21T15:08:36Z</time>
      </trkpt>
      <trkpt lat="49.42986" lon="1.13303">
        <ele>133.7</ele>
        <time>2021-03-21T15:08:38Z</time>
      </trkpt>
      <trkpt lat="49.42987" lon="1.13305">
        <ele>133.8</ele>
        <time>2021-03-21T15:08:39Z</time>
      </trkpt>
      <trkpt lat="49.42989" lon="1.13307">
        <ele>133.9</ele>
        <time>2021-03-21T15:08:40Z</time>
      </trkpt>
      <trkpt lat="49.42991" lon="1.13309">
        <ele>134.1</ele>
        <time>2021-03-21T15:08:42Z</time>
      </trkpt>
      <trkpt lat="49.42994" lon="1.13313">
        <ele>134.1</ele>
        <time>2021-03-21T15:08:44Z</time>
      </trkpt>
      <trkpt lat="49.42996" lon="1.13316">
        <ele>134.1</ele>
        <time>2021-03-21T15:08:45Z</time>
      </trkpt>
      <trkpt lat="49.42999" lon="1.13323">
        <ele>134</ele>
        <time>2021-03-21T15:08:47Z</time>
      </trkpt>
      <trkpt lat="49.43" lon="1.13327">
        <ele>133.9</ele>
        <time>2021-03-21T15:08:48Z</time>
      </trkpt>
      <trkpt lat="49.43004" lon="1.13333">
        <ele>133.9</ele>
        <time>2021-03-21T15:08:50Z</time>
      </trkpt>
      <trkpt lat="49.43005" lon="1.13336">
        <ele>133.8</ele>
        <time>2021-03-21T15:08:51Z</time>
      </trkpt>
      <trkpt lat="49.43008" lon="1.13342">
        <ele>133.8</ele>
        <time>2021-03-21T15:08:53Z</time>
      </trkpt>
      <trkpt lat="49.43012" lon="1.13351">
        <ele>133.6</ele>
        <time>2021-03-21T15:08:55Z</time>
      </trkpt>
      <trkpt lat="49.43014" lon="1.13354">
        <ele>133.4</ele>
        <time>2021-03-21T15:08:56Z</time>
      </trkpt>
      <trkpt lat="49.43016" lon="1.13358">
        <ele>133.3</ele>
        <time>2021-03-21T15:08:57Z</time>
      </trkpt>
      <trkpt lat="49.43018" lon="1.13362">
        <ele>133.1</ele>
        <time>2021-03-21T15:08:58Z</time>
      </trkpt>
      <trkpt lat="49.4302" lon="1.13366">
        <ele>132.9</ele>
        <time>2021-03-21T15:08:59Z</time>
      </trkpt>
      <trkpt lat="49.43024" lon="1.13372">
        <ele>132.6</ele>
        <time>2021-03-21T15:09:01Z</time>
      </trkpt>
      <trkpt lat="49.43032" lon="1.13389">
        <ele>131.9</ele>
        <time>2021-03-21T15:09:03Z</time>
      </trkpt>
      <trkpt lat="49.43042" lon="1.13413">
        <ele>131.7</ele>
        <time>2021-03-21T15:09:05Z</time>
      </trkpt>
      <trkpt lat="49.43046" lon="1.1342">
        <ele>131.7</ele>
        <time>2021-03-21T15:09:07Z</time>
      </trkpt>
      <trkpt lat="49.43049" lon="1.13422">
        <ele>131.7</ele>
        <time>2021-03-21T15:09:08Z</time>
      </trkpt>
      <trkpt lat="49.43055" lon="1.13428">
        <ele>131.5</ele>
        <time>2021-03-21T15:09:10Z</time>
      </trkpt>
      <trkpt lat="49.43059" lon="1.1343">
        <ele>131.4</ele>
        <time>2021-03-21T15:09:11Z</time>
      </trkpt>
      <trkpt lat="49.43062" lon="1.1343">
        <ele>131.3</ele>
        <time>2021-03-21T15:09:12Z</time>
      </trkpt>
      <trkpt lat="49.43066" lon="1.13432">
        <ele>131</ele>
        <time>2021-03-21T15:09:14Z</time>
      </trkpt>
      <trkpt lat="49.43069" lon="1.13438">
        <ele>130.8</ele>
        <time>2021-03-21T15:09:15Z</time>
      </trkpt>
      <trkpt lat="49.43073" lon="1.13446">
        <ele>130.4</ele>
        <time>2021-03-21T15:09:17Z</time>
      </trkpt>
      <trkpt lat="49.43078" lon="1.13457">
        <ele>130</ele>
        <time>2021-03-21T15:09:19Z</time>
      </trkpt>
      <trkpt lat="49.43081" lon="1.13462">
        <ele>129.8</ele>
        <time>2021-03-21T15:09:20Z</time>
      </trkpt>
      <trkpt lat="49.43088" lon="1.13473">
        <ele>129.6</ele>
        <time>2021-03-21T15:09:22Z</time>
      </trkpt>
      <trkpt lat="49.43093" lon="1.13484">
        <ele>129.6</ele>
        <time>2021-03-21T15:09:24Z</time>
      </trkpt>
      <trkpt lat="49.43095" lon="1.1349">
        <ele>129.7</ele>
        <time>2021-03-21T15:09:25Z</time>
      </trkpt>
      <trkpt lat="49.43099" lon="1.135">
        <ele>129.9</ele>
        <time>2021-03-21T15:09:27Z</time>
      </trkpt>
      <trkpt lat="49.43102" lon="1.13507">
        <ele>130</ele>
        <time>2021-03-21T15:09:29Z</time>
      </trkpt>
      <trkpt lat="49.43103" lon="1.13513">
        <ele>130.1</ele>
        <time>2021-03-21T15:09:30Z</time>
      </trkpt>
      <trkpt lat="49.43103" lon="1.13515">
        <ele>130.1</ele>
        <time>2021-03-21T15:09:31Z</time>
      </trkpt>
      <trkpt lat="49.43103" lon="1.1352">
        <ele>130.1</ele>
        <time>2021-03-21T15:09:32Z</time>
      </trkpt>
      <trkpt lat="49.43103" lon="1.13522">
        <ele>130.1</ele>
        <time>2021-03-21T15:09:33Z</time>
      </trkpt>
      <trkpt lat="49.43104" lon="1.13526">
        <ele>130.1</ele>
        <time>2021-03-21T15:09:35Z</time>
      </trkpt>
      <trkpt lat="49.43104" lon="1.13529">
        <ele>130.1</ele>
        <time>2021-03-21T15:09:36Z</time>
      </trkpt>
      <trkpt lat="49.43104" lon="1.13531">
        <ele>130.1</ele>
        <time>2021-03-21T15:09:37Z</time>
      </trkpt>
      <trkpt lat="49.43106" lon="1.13536">
        <ele>130.1</ele>
        <time>2021-03-21T15:09:39Z</time>
      </trkpt>
      <trkpt lat="49.43106" lon="1.13537">
        <ele>130.1</ele>
        <time>2021-03-21T15:09:40Z</time>
      </trkpt>
      <trkpt lat="49.43108" lon="1.13541">
        <ele>130</ele>
        <time>2021-03-21T15:09:42Z</time>
      </trkpt>
      <trkpt lat="49.43109" lon="1.13544">
        <ele>130</ele>
        <time>2021-03-21T15:09:43Z</time>
      </trkpt>
      <trkpt lat="49.4311" lon="1.13548">
        <ele>129.9</ele>
        <time>2021-03-21T15:09:45Z</time>
      </trkpt>
      <trkpt lat="49.4311" lon="1.13549">
        <ele>129.9</ele>
        <time>2021-03-21T15:09:46Z</time>
      </trkpt>
      <trkpt lat="49.43113" lon="1.13553">
        <ele>129.8</ele>
        <time>2021-03-21T15:09:48Z</time>
      </trkpt>
      <trkpt lat="49.43113" lon="1.13553">
        <ele>129.7</ele>
        <time>2021-03-21T15:09:49Z</time>
      </trkpt>
      <trkpt lat="49.43115" lon="1.13556">
        <ele>129.7</ele>
        <time>2021-03-21T15:09:51Z</time>
      </trkpt>
      <trkpt lat="49.43119" lon="1.13563">
        <ele>129.5</ele>
        <time>2021-03-21T15:09:53Z</time>
      </trkpt>
      <trkpt lat="49.43119" lon="1.13564">
        <ele>129.5</ele>
        <time>2021-03-21T15:09:54Z</time>
      </trkpt>
      <trkpt lat="49.43121" lon="1.1357">
        <ele>129.4</ele>
        <time>2021-03-21T15:09:56Z</time>
      </trkpt>
      <trkpt lat="49.43123" lon="1.13583">
        <ele>129.4</ele>
        <time>2021-03-21T15:09:58Z</time>
      </trkpt>
      <trkpt lat="49.43122" lon="1.13588">
        <ele>129.6</ele>
        <time>2021-03-21T15:09:59Z</time>
      </trkpt>
      <trkpt lat="49.43118" lon="1.13595">
        <ele>130</ele>
        <time>2021-03-21T15:10:01Z</time>
      </trkpt>
      <trkpt lat="49.43116" lon="1.13599">
        <ele>130.2</ele>
        <time>2021-03-21T15:10:02Z</time>
      </trkpt>
      <trkpt lat="49.43114" lon="1.13606">
        <ele>130.7</ele>
        <time>2021-03-21T15:10:04Z</time>
      </trkpt>
      <trkpt lat="49.43112" lon="1.1361">
        <ele>130.9</ele>
        <time>2021-03-21T15:10:05Z</time>
      </trkpt>
      <trkpt lat="49.43112" lon="1.13616">
        <ele>131.2</ele>
        <time>2021-03-21T15:10:06Z</time>
      </trkpt>
      <trkpt lat="49.43112" lon="1.13627">
        <ele>131.8</ele>
        <time>2021-03-21T15:10:08Z</time>
      </trkpt>
      <trkpt lat="49.43112" lon="1.13632">
        <ele>132.1</ele>
        <time>2021-03-21T15:10:09Z</time>
      </trkpt>
      <trkpt lat="49.43111" lon="1.13636">
        <ele>132.3</ele>
        <time>2021-03-21T15:10:10Z</time>
      </trkpt>
      <trkpt lat="49.43111" lon="1.1364">
        <ele>132.5</ele>
        <time>2021-03-21T15:10:11Z</time>
      </trkpt>
      <trkpt lat="49.43111" lon="1.13647">
        <ele>132.8</ele>
        <time>2021-03-21T15:10:13Z</time>
      </trkpt>
      <trkpt lat="49.4311" lon="1.13651">
        <ele>133</ele>
        <time>2021-03-21T15:10:14Z</time>
      </trkpt>
      <trkpt lat="49.4311" lon="1.1366">
        <ele>133.5</ele>
        <time>2021-03-21T15:10:16Z</time>
      </trkpt>
      <trkpt lat="49.43109" lon="1.13664">
        <ele>133.6</ele>
        <time>2021-03-21T15:10:17Z</time>
      </trkpt>
      <trkpt lat="49.43109" lon="1.13668">
        <ele>133.8</ele>
        <time>2021-03-21T15:10:18Z</time>
      </trkpt>
      <trkpt lat="49.43108" lon="1.13672">
        <ele>134</ele>
        <time>2021-03-21T15:10:20Z</time>
      </trkpt>
      <trkpt lat="49.43107" lon="1.13673">
        <ele>134.1</ele>
        <time>2021-03-21T15:10:21Z</time>
      </trkpt>
      <trkpt lat="49.43106" lon="1.13679">
        <ele>134.4</ele>
        <time>2021-03-21T15:10:23Z</time>
      </trkpt>
      <trkpt lat="49.43106" lon="1.13679">
        <ele>134.4</ele>
        <time>2021-03-21T15:10:25Z</time>
      </trkpt>
      <trkpt lat="49.43105" lon="1.13677">
        <ele>134.5</ele>
        <time>2021-03-21T15:10:27Z</time>
      </trkpt>
      <trkpt lat="49.43105" lon="1.13674">
        <ele>134.6</ele>
        <time>2021-03-21T15:10:28Z</time>
      </trkpt>
      <trkpt lat="49.43105" lon="1.13678">
        <ele>134.8</ele>
        <time>2021-03-21T15:10:30Z</time>
      </trkpt>
      <trkpt lat="49.43106" lon="1.13684">
        <ele>135</ele>
        <time>2021-03-21T15:10:32Z</time>
      </trkpt>
      <trkpt lat="49.43106" lon="1.13689">
        <ele>135.2</ele>
        <time>2021-03-21T15:10:33Z</time>
      </trkpt>
      <trkpt lat="49.43107" lon="1.13695">
        <ele>135.4</ele>
        <time>2021-03-21T15:10:35Z</time>
      </trkpt>
      <trkpt lat="49.43108" lon="1.13701">
        <ele>135.6</ele>
        <time>2021-03-21T15:10:36Z</time>
      </trkpt>
      <trkpt lat="49.43109" lon="1.13706">
        <ele>135.7</ele>
        <time>2021-03-21T15:10:38Z</time>
      </trkpt>
      <trkpt lat="49.4311" lon="1.13712">
        <ele>135.9</ele>
        <time>2021-03-21T15:10:40Z</time>
      </trkpt>
      <trkpt lat="49.43111" lon="1.13717">
        <ele>136</ele>
        <time>2021-03-21T15:10:51Z</time>
      </trkpt>
      <trkpt lat="49.43111" lon="1.13723">
        <ele>136.1</ele>
        <time>2021-03-21T15:10:52Z</time>
      </trkpt>
      <trkpt lat="49.43117" lon="1.13751">
        <ele>136.3</ele>
        <time>2021-03-21T15:10:54Z</time>
      </trkpt>
      <trkpt lat="49.43115" lon="1.13753">
        <ele>136.3</ele>
        <time>2021-03-21T15:10:55Z</time>
      </trkpt>
      <trkpt lat="49.43113" lon="1.13754">
        <ele>136.2</ele>
        <time>2021-03-21T15:10:57Z</time>
      </trkpt>
      <trkpt lat="49.43112" lon="1.13755">
        <ele>136.2</ele>
        <time>2021-03-21T15:10:59Z</time>
      </trkpt>
      <trkpt lat="49.4311" lon="1.13755">
        <ele>136.2</ele>
        <time>2021-03-21T15:11:01Z</time>
      </trkpt>
      <trkpt lat="49.43108" lon="1.13756">
        <ele>136.2</ele>
        <time>2021-03-21T15:11:03Z</time>
      </trkpt>
      <trkpt lat="49.43106" lon="1.13757">
        <ele>136.1</ele>
        <time>2021-03-21T15:11:05Z</time>
      </trkpt>
      <trkpt lat="49.43104" lon="1.13758">
        <ele>136.1</ele>
        <time>2021-03-21T15:11:14Z</time>
      </trkpt>
      <trkpt lat="49.43103" lon="1.13758">
        <ele>136.1</ele>
        <time>2021-03-21T15:11:16Z</time>
      </trkpt>
      <trkpt lat="49.43101" lon="1.13759">
        <ele>136.1</ele>
        <time>2021-03-21T15:11:18Z</time>
      </trkpt>
      <trkpt lat="49.43099" lon="1.1376">
        <ele>136</ele>
        <time>2021-03-21T15:11:19Z</time>
      </trkpt>
      <trkpt lat="49.43097" lon="1.13762">
        <ele>136</ele>
        <time>2021-03-21T15:11:20Z</time>
      </trkpt>
      <trkpt lat="49.43095" lon="1.13763">
        <ele>136</ele>
        <time>2021-03-21T15:11:22Z</time>
      </trkpt>
      <trkpt lat="49.43095" lon="1.13763">
        <ele>136</ele>
        <time>2021-03-21T15:11:24Z</time>
      </trkpt>
      <trkpt lat="49.43094" lon="1.13763">
        <ele>135.9</ele>
        <time>2021-03-21T15:11:26Z</time>
      </trkpt>
      <trkpt lat="49.43093" lon="1.13763">
        <ele>135.9</ele>
        <time>2021-03-21T15:11:27Z</time>
      </trkpt>
      <trkpt lat="49.43092" lon="1.13764">
        <ele>135.9</ele>
        <time>2021-03-21T15:11:28Z</time>
      </trkpt>
      <trkpt lat="49.4309" lon="1.13765">
        <ele>135.9</ele>
        <time>2021-03-21T15:11:30Z</time>
      </trkpt>
      <trkpt lat="49.43087" lon="1.13766">
        <ele>135.8</ele>
        <time>2021-03-21T15:11:32Z</time>
      </trkpt>
      <trkpt lat="49.43086" lon="1.13768">
        <ele>135.8</ele>
        <time>2021-03-21T15:11:33Z</time>
      </trkpt>
      <trkpt lat="49.43086" lon="1.13769">
        <ele>135.8</ele>
        <time>2021-03-21T15:11:35Z</time>
      </trkpt>
      <trkpt lat="49.43086" lon="1.13769">
        <ele>135.8</ele>
        <time>2021-03-21T15:11:36Z</time>
      </trkpt>
      <trkpt lat="49.43086" lon="1.13769">
        <ele>135.8</ele>
        <time>2021-03-21T15:11:38Z</time>
      </trkpt>
      <trkpt lat="49.43086" lon="1.13776">
        <ele>135.7</ele>
        <time>2021-03-21T15:11:40Z</time>
      </trkpt>
      <trkpt lat="49.43087" lon="1.13781">
        <ele>135.6</ele>
        <time>2021-03-21T15:11:41Z</time>
      </trkpt>
      <trkpt lat="49.43089" lon="1.1379">
        <ele>135.4</ele>
        <time>2021-03-21T15:11:43Z</time>
      </trkpt>
      <trkpt lat="49.43089" lon="1.1379">
        <ele>135.4</ele>
        <time>2021-03-21T15:11:43Z</time>
      </trkpt>
      <trkpt lat="49.43092" lon="1.138">
        <ele>135.4</ele>
        <time>2021-03-21T15:11:45Z</time>
      </trkpt>
      <trkpt lat="49.43093" lon="1.13805">
        <ele>135.4</ele>
        <time>2021-03-21T15:11:46Z</time>
      </trkpt>
      <trkpt lat="49.43095" lon="1.13815">
        <ele>135.3</ele>
        <time>2021-03-21T15:11:48Z</time>
      </trkpt>
      <trkpt lat="49.43094" lon="1.13824">
        <ele>135.3</ele>
        <time>2021-03-21T15:11:50Z</time>
      </trkpt>
      <trkpt lat="49.43093" lon="1.13831">
        <ele>135.3</ele>
        <time>2021-03-21T15:11:52Z</time>
      </trkpt>
      <trkpt lat="49.43092" lon="1.13834">
        <ele>135.3</ele>
        <time>2021-03-21T15:11:53Z</time>
      </trkpt>
      <trkpt lat="49.43092" lon="1.13836">
        <ele>135.4</ele>
        <time>2021-03-21T15:11:54Z</time>
      </trkpt>
      <trkpt lat="49.43091" lon="1.13844">
        <ele>135.4</ele>
        <time>2021-03-21T15:11:56Z</time>
      </trkpt>
      <trkpt lat="49.43091" lon="1.13852">
        <ele>135.5</ele>
        <time>2021-03-21T15:11:58Z</time>
      </trkpt>
      <trkpt lat="49.4309" lon="1.13859">
        <ele>135.5</ele>
        <time>2021-03-21T15:12:00Z</time>
      </trkpt>
      <trkpt lat="49.43089" lon="1.13863">
        <ele>135.6</ele>
        <time>2021-03-21T15:12:01Z</time>
      </trkpt>
      <trkpt lat="49.43089" lon="1.1387">
        <ele>135.6</ele>
        <time>2021-03-21T15:12:03Z</time>
      </trkpt>
      <trkpt lat="49.4309" lon="1.13875">
        <ele>135.6</ele>
        <time>2021-03-21T15:12:04Z</time>
      </trkpt>
      <trkpt lat="49.4309" lon="1.13876">
        <ele>135.6</ele>
        <time>2021-03-21T15:12:05Z</time>
      </trkpt>
      <trkpt lat="49.43091" lon="1.13882">
        <ele>135.6</ele>
        <time>2021-03-21T15:12:07Z</time>
      </trkpt>
      <trkpt lat="49.43092" lon="1.13885">
        <ele>135.6</ele>
        <time>2021-03-21T15:12:08Z</time>
      </trkpt>
      <trkpt lat="49.43094" lon="1.1389">
        <ele>135.6</ele>
        <time>2021-03-21T15:12:10Z</time>
      </trkpt>
      <trkpt lat="49.43095" lon="1.13895">
        <ele>135.6</ele>
        <time>2021-03-21T15:12:12Z</time>
      </trkpt>
      <trkpt lat="49.43096" lon="1.13896">
        <ele>135.6</ele>
        <time>2021-03-21T15:12:13Z</time>
      </trkpt>
      <trkpt lat="49.43097" lon="1.13896">
        <ele>135.6</ele>
        <time>2021-03-21T15:12:14Z</time>
      </trkpt>
      <trkpt lat="49.431" lon="1.13896">
        <ele>135.5</ele>
        <time>2021-03-21T15:12:16Z</time>
      </trkpt>
      <trkpt lat="49.43103" lon="1.13901">
        <ele>135.5</ele>
        <time>2021-03-21T15:12:18Z</time>
      </trkpt>
      <trkpt lat="49.43104" lon="1.13904">
        <ele>135.5</ele>
        <time>2021-03-21T15:12:20Z</time>
      </trkpt>
      <trkpt lat="49.43105" lon="1.13906">
        <ele>135.5</ele>
        <time>2021-03-21T15:12:21Z</time>
      </trkpt>
      <trkpt lat="49.43105" lon="1.13912">
        <ele>135.4</ele>
        <time>2021-03-21T15:12:22Z</time>
      </trkpt>
      <trkpt lat="49.43105" lon="1.13919">
        <ele>135.4</ele>
        <time>2021-03-21T15:12:24Z</time>
      </trkpt>
      <trkpt lat="49.43105" lon="1.13924">
        <ele>135.4</ele>
        <time>2021-03-21T15:12:25Z</time>
      </trkpt>
      <trkpt lat="49.43105" lon="1.13929">
        <ele>135.3</ele>
        <time>2021-03-21T15:12:26Z</time>
      </trkpt>
      <trkpt lat="49.43105" lon="1.1393">
        <ele>135.3</ele>
        <time>2021-03-21T15:12:27Z</time>
      </trkpt>
      <trkpt lat="49.43104" lon="1.13937">
        <ele>135.3</ele>
        <time>2021-03-21T15:12:29Z</time>
      </trkpt>
      <trkpt lat="49.43103" lon="1.13945">
        <ele>135.3</ele>
        <time>2021-03-21T15:12:31Z</time>
      </trkpt>
      <trkpt lat="49.43102" lon="1.13949">
        <ele>135.2</ele>
        <time>2021-03-21T15:12:33Z</time>
      </trkpt>
      <trkpt lat="49.431" lon="1.13953">
        <ele>135.2</ele>
        <time>2021-03-21T15:12:35Z</time>
      </trkpt>
      <trkpt lat="49.43099" lon="1.13956">
        <ele>135.2</ele>
        <time>2021-03-21T15:12:36Z</time>
      </trkpt>
      <trkpt lat="49.43098" lon="1.13958">
        <ele>135.2</ele>
        <time>2021-03-21T15:12:38Z</time>
      </trkpt>
      <trkpt lat="49.43096" lon="1.13962">
        <ele>135.1</ele>
        <time>2021-03-21T15:12:39Z</time>
      </trkpt>
      <trkpt lat="49.43096" lon="1.13968">
        <ele>135.1</ele>
        <time>2021-03-21T15:12:40Z</time>
      </trkpt>
      <trkpt lat="49.43095" lon="1.13974">
        <ele>135</ele>
        <time>2021-03-21T15:12:41Z</time>
      </trkpt>
      <trkpt lat="49.43095" lon="1.13977">
        <ele>135</ele>
        <time>2021-03-21T15:12:42Z</time>
      </trkpt>
      <trkpt lat="49.43094" lon="1.13986">
        <ele>134.9</ele>
        <time>2021-03-21T15:12:44Z</time>
      </trkpt>
      <trkpt lat="49.43094" lon="1.13994">
        <ele>134.9</ele>
        <time>2021-03-21T15:12:45Z</time>
      </trkpt>
      <trkpt lat="49.43095" lon="1.14002">
        <ele>134.8</ele>
        <time>2021-03-21T15:12:47Z</time>
      </trkpt>
      <trkpt lat="49.43094" lon="1.14006">
        <ele>134.8</ele>
        <time>2021-03-21T15:12:48Z</time>
      </trkpt>
      <trkpt lat="49.43095" lon="1.14015">
        <ele>134.7</ele>
        <time>2021-03-21T15:12:50Z</time>
      </trkpt>
      <trkpt lat="49.43094" lon="1.14024">
        <ele>134.6</ele>
        <time>2021-03-21T15:12:52Z</time>
      </trkpt>
      <trkpt lat="49.43093" lon="1.14032">
        <ele>134.6</ele>
        <time>2021-03-21T15:12:54Z</time>
      </trkpt>
      <trkpt lat="49.43091" lon="1.14039">
        <ele>134.5</ele>
        <time>2021-03-21T15:12:56Z</time>
      </trkpt>
      <trkpt lat="49.4309" lon="1.14043">
        <ele>134.5</ele>
        <time>2021-03-21T15:12:57Z</time>
      </trkpt>
      <trkpt lat="49.43088" lon="1.14048">
        <ele>134.4</ele>
        <time>2021-03-21T15:12:58Z</time>
      </trkpt>
      <trkpt lat="49.43087" lon="1.14052">
        <ele>134.4</ele>
        <time>2021-03-21T15:12:59Z</time>
      </trkpt>
      <trkpt lat="49.4308" lon="1.14067">
        <ele>134.3</ele>
        <time>2021-03-21T15:13:01Z</time>
      </trkpt>
      <trkpt lat="49.43074" lon="1.14077">
        <ele>134.2</ele>
        <time>2021-03-21T15:13:03Z</time>
      </trkpt>
      <trkpt lat="49.43071" lon="1.14081">
        <ele>134.2</ele>
        <time>2021-03-21T15:13:04Z</time>
      </trkpt>
      <trkpt lat="49.43066" lon="1.14086">
        <ele>134.2</ele>
        <time>2021-03-21T15:13:05Z</time>
      </trkpt>
      <trkpt lat="49.43062" lon="1.14088">
        <ele>134.2</ele>
        <time>2021-03-21T15:13:07Z</time>
      </trkpt>
      <trkpt lat="49.43061" lon="1.14088">
        <ele>134.2</ele>
        <time>2021-03-21T15:13:08Z</time>
      </trkpt>
      <trkpt lat="49.43059" lon="1.14087">
        <ele>134.2</ele>
        <time>2021-03-21T15:13:09Z</time>
      </trkpt>
      <trkpt lat="49.43056" lon="1.14084">
        <ele>134.2</ele>
        <time>2021-03-21T15:13:11Z</time>
      </trkpt>
      <trkpt lat="49.43052" lon="1.14081">
        <ele>134.3</ele>
        <time>2021-03-21T15:13:12Z</time>
      </trkpt>
      <trkpt lat="49.43046" lon="1.14076">
        <ele>134.3</ele>
        <time>2021-03-21T15:13:14Z</time>
      </trkpt>
      <trkpt lat="49.43043" lon="1.14075">
        <ele>134.3</ele>
        <time>2021-03-21T15:13:15Z</time>
      </trkpt>
      <trkpt lat="49.43036" lon="1.14072">
        <ele>134.3</ele>
        <time>2021-03-21T15:13:17Z</time>
      </trkpt>
      <trkpt lat="49.43029" lon="1.1407">
        <ele>134.4</ele>
        <time>2021-03-21T15:13:19Z</time>
      </trkpt>
      <trkpt lat="49.43024" lon="1.14071">
        <ele>134.4</ele>
        <time>2021-03-21T15:13:21Z</time>
      </trkpt>
      <trkpt lat="49.43021" lon="1.14072">
        <ele>134.4</ele>
        <time>2021-03-21T15:13:22Z</time>
      </trkpt>
      <trkpt lat="49.43016" lon="1.14072">
        <ele>134.4</ele>
        <time>2021-03-21T15:13:24Z</time>
      </trkpt>
      <trkpt lat="49.43011" lon="1.14078">
        <ele>134.4</ele>
        <time>2021-03-21T15:13:26Z</time>
      </trkpt>
      <trkpt lat="49.43007" lon="1.1408">
        <ele>134.4</ele>
        <time>2021-03-21T15:13:27Z</time>
      </trkpt>
      <trkpt lat="49.43003" lon="1.14088">
        <ele>134.4</ele>
        <time>2021-03-21T15:13:29Z</time>
      </trkpt>
      <trkpt lat="49.42993" lon="1.14093">
        <ele>134.4</ele>
        <time>2021-03-21T15:13:31Z</time>
      </trkpt>
      <trkpt lat="49.42989" lon="1.14095">
        <ele>134.4</ele>
        <time>2021-03-21T15:13:32Z</time>
      </trkpt>
      <trkpt lat="49.42984" lon="1.14097">
        <ele>134.4</ele>
        <time>2021-03-21T15:13:33Z</time>
      </trkpt>
      <trkpt lat="49.42981" lon="1.14099">
        <ele>134.4</ele>
        <time>2021-03-21T15:13:34Z</time>
      </trkpt>
      <trkpt lat="49.42974" lon="1.14103">
        <ele>134.4</ele>
        <time>2021-03-21T15:13:36Z</time>
      </trkpt>
      <trkpt lat="49.42968" lon="1.14108">
        <ele>134.4</ele>
        <time>2021-03-21T15:13:38Z</time>
      </trkpt>
      <trkpt lat="49.42964" lon="1.14111">
        <ele>134.4</ele>
        <time>2021-03-21T15:13:39Z</time>
      </trkpt>
      <trkpt lat="49.42957" lon="1.14113">
        <ele>134.4</ele>
        <time>2021-03-21T15:13:41Z</time>
      </trkpt>
      <trkpt lat="49.42954" lon="1.14114">
        <ele>134.4</ele>
        <time>2021-03-21T15:13:42Z</time>
      </trkpt>
      <trkpt lat="49.42946" lon="1.14114">
        <ele>134.5</ele>
        <time>2021-03-21T15:13:44Z</time>
      </trkpt>
      <trkpt lat="49.42941" lon="1.14113">
        <ele>134.6</ele>
        <time>2021-03-21T15:13:45Z</time>
      </trkpt>
      <trkpt lat="49.42927" lon="1.14113">
        <ele>134.9</ele>
        <time>2021-03-21T15:13:47Z</time>
      </trkpt>
      <trkpt lat="49.42918" lon="1.14107">
        <ele>135.2</ele>
        <time>2021-03-21T15:13:49Z</time>
      </trkpt>
      <trkpt lat="49.42911" lon="1.14101">
        <ele>135.4</ele>
        <time>2021-03-21T15:13:51Z</time>
      </trkpt>
      <trkpt lat="49.42908" lon="1.14098">
        <ele>135.5</ele>
        <time>2021-03-21T15:13:52Z</time>
      </trkpt>
      <trkpt lat="49.42902" lon="1.1409">
        <ele>135.7</ele>
        <time>2021-03-21T15:13:54Z</time>
      </trkpt>
      <trkpt lat="49.42901" lon="1.14087">
        <ele>135.7</ele>
        <time>2021-03-21T15:13:55Z</time>
      </trkpt>
      <trkpt lat="49.42899" lon="1.14083">
        <ele>135.8</ele>
        <time>2021-03-21T15:13:56Z</time>
      </trkpt>
      <trkpt lat="49.42895" lon="1.14075">
        <ele>136</ele>
        <time>2021-03-21T15:13:58Z</time>
      </trkpt>
      <trkpt lat="49.42893" lon="1.14072">
        <ele>136.1</ele>
        <time>2021-03-21T15:14:00Z</time>
      </trkpt>
      <trkpt lat="49.42892" lon="1.14071">
        <ele>136.2</ele>
        <time>2021-03-21T15:14:01Z</time>
      </trkpt>
      <trkpt lat="49.42888" lon="1.14063">
        <ele>136.4</ele>
        <time>2021-03-21T15:14:03Z</time>
      </trkpt>
      <trkpt lat="49.42887" lon="1.14059">
        <ele>136.4</ele>
        <time>2021-03-21T15:14:04Z</time>
      </trkpt>
      <trkpt lat="49.42885" lon="1.14052">
        <ele>136.5</ele>
        <time>2021-03-21T15:14:06Z</time>
      </trkpt>
      <trkpt lat="49.4288" lon="1.1404">
        <ele>136.7</ele>
        <time>2021-03-21T15:14:08Z</time>
      </trkpt>
      <trkpt lat="49.42878" lon="1.14033">
        <ele>136.8</ele>
        <time>2021-03-21T15:14:09Z</time>
      </trkpt>
      <trkpt lat="49.42873" lon="1.14021">
        <ele>136.9</ele>
        <time>2021-03-21T15:14:11Z</time>
      </trkpt>
      <trkpt lat="49.42867" lon="1.14009">
        <ele>137.1</ele>
        <time>2021-03-21T15:14:13Z</time>
      </trkpt>
      <trkpt lat="49.42864" lon="1.14002">
        <ele>137.2</ele>
        <time>2021-03-21T15:14:14Z</time>
      </trkpt>
      <trkpt lat="49.42857" lon="1.1399">
        <ele>137.3</ele>
        <time>2021-03-21T15:14:16Z</time>
      </trkpt>
      <trkpt lat="49.42853" lon="1.13982">
        <ele>137.4</ele>
        <time>2021-03-21T15:14:18Z</time>
      </trkpt>
      <trkpt lat="49.42846" lon="1.13968">
        <ele>137.4</ele>
        <time>2021-03-21T15:14:19Z</time>
      </trkpt>
      <trkpt lat="49.4284" lon="1.13957">
        <ele>137.4</ele>
        <time>2021-03-21T15:14:21Z</time>
      </trkpt>
      <trkpt lat="49.42835" lon="1.13945">
        <ele>137.3</ele>
        <time>2021-03-21T15:14:23Z</time>
      </trkpt>
      <trkpt lat="49.42829" lon="1.13934">
        <ele>137.2</ele>
        <time>2021-03-21T15:14:25Z</time>
      </trkpt>
      <trkpt lat="49.42826" lon="1.1393">
        <ele>137.2</ele>
        <time>2021-03-21T15:14:26Z</time>
      </trkpt>
      <trkpt lat="49.42823" lon="1.13926">
        <ele>137.1</ele>
        <time>2021-03-21T15:14:27Z</time>
      </trkpt>
      <trkpt lat="49.42816" lon="1.13919">
        <ele>137.1</ele>
        <time>2021-03-21T15:14:29Z</time>
      </trkpt>
      <trkpt lat="49.42813" lon="1.13913">
        <ele>137</ele>
        <time>2021-03-21T15:14:30Z</time>
      </trkpt>
      <trkpt lat="49.42806" lon="1.13901">
        <ele>136.9</ele>
        <time>2021-03-21T15:14:32Z</time>
      </trkpt>
      <trkpt lat="49.42802" lon="1.13896">
        <ele>136.9</ele>
        <time>2021-03-21T15:14:33Z</time>
      </trkpt>
      <trkpt lat="49.42794" lon="1.13886">
        <ele>136.9</ele>
        <time>2021-03-21T15:14:35Z</time>
      </trkpt>
      <trkpt lat="49.42785" lon="1.13877">
        <ele>137</ele>
        <time>2021-03-21T15:14:37Z</time>
      </trkpt>
      <trkpt lat="49.42775" lon="1.13871">
        <ele>137.1</ele>
        <time>2021-03-21T15:14:39Z</time>
      </trkpt>
      <trkpt lat="49.42771" lon="1.13868">
        <ele>137.2</ele>
        <time>2021-03-21T15:14:40Z</time>
      </trkpt>
      <trkpt lat="49.42762" lon="1.13863">
        <ele>137.3</ele>
        <time>2021-03-21T15:14:42Z</time>
      </trkpt>
      <trkpt lat="49.42757" lon="1.13862">
        <ele>137.4</ele>
        <time>2021-03-21T15:14:43Z</time>
      </trkpt>
      <trkpt lat="49.42749" lon="1.13857">
        <ele>137.7</ele>
        <time>2021-03-21T15:14:45Z</time>
      </trkpt>
      <trkpt lat="49.42745" lon="1.13854">
        <ele>137.8</ele>
        <time>2021-03-21T15:14:46Z</time>
      </trkpt>
      <trkpt lat="49.4274" lon="1.1385">
        <ele>138</ele>
        <time>2021-03-21T15:14:47Z</time>
      </trkpt>
      <trkpt lat="49.42732" lon="1.13844">
        <ele>138.4</ele>
        <time>2021-03-21T15:14:49Z</time>
      </trkpt>
      <trkpt lat="49.42729" lon="1.13841">
        <ele>138.5</ele>
        <time>2021-03-21T15:14:50Z</time>
      </trkpt>
      <trkpt lat="49.42727" lon="1.13839">
        <ele>138.6</ele>
        <time>2021-03-21T15:14:51Z</time>
      </trkpt>
      <trkpt lat="49.4272" lon="1.13833">
        <ele>139</ele>
        <time>2021-03-21T15:14:53Z</time>
      </trkpt>
      <trkpt lat="49.42715" lon="1.13828">
        <ele>139.2</ele>
        <time>2021-03-21T15:14:54Z</time>
      </trkpt>
      <trkpt lat="49.42708" lon="1.13821">
        <ele>139.5</ele>
        <time>2021-03-21T15:14:56Z</time>
      </trkpt>
      <trkpt lat="49.42705" lon="1.13817">
        <ele>139.6</ele>
        <time>2021-03-21T15:14:57Z</time>
      </trkpt>
      <trkpt lat="49.42697" lon="1.13811">
        <ele>140</ele>
        <time>2021-03-21T15:14:59Z</time>
      </trkpt>
      <trkpt lat="49.42694" lon="1.13809">
        <ele>140.1</ele>
        <time>2021-03-21T15:15:00Z</time>
      </trkpt>
      <trkpt lat="49.42684" lon="1.13801">
        <ele>140.5</ele>
        <time>2021-03-21T15:15:02Z</time>
      </trkpt>
      <trkpt lat="49.42674" lon="1.13796">
        <ele>141</ele>
        <time>2021-03-21T15:15:04Z</time>
      </trkpt>
      <trkpt lat="49.4267" lon="1.13792">
        <ele>141.2</ele>
        <time>2021-03-21T15:15:05Z</time>
      </trkpt>
      <trkpt lat="49.42665" lon="1.13787">
        <ele>141.6</ele>
        <time>2021-03-21T15:15:07Z</time>
      </trkpt>
      <trkpt lat="49.42661" lon="1.13784">
        <ele>141.8</ele>
        <time>2021-03-21T15:15:08Z</time>
      </trkpt>
      <trkpt lat="49.42656" lon="1.13779">
        <ele>142.1</ele>
        <time>2021-03-21T15:15:10Z</time>
      </trkpt>
      <trkpt lat="49.42651" lon="1.1378">
        <ele>142.4</ele>
        <time>2021-03-21T15:15:12Z</time>
      </trkpt>
      <trkpt lat="49.42648" lon="1.13783">
        <ele>142.6</ele>
        <time>2021-03-21T15:15:13Z</time>
      </trkpt>
      <trkpt lat="49.42646" lon="1.13784">
        <ele>142.5</ele>
        <time>2021-03-21T15:15:14Z</time>
      </trkpt>
      <trkpt lat="49.42644" lon="1.13786">
        <ele>142.5</ele>
        <time>2021-03-21T15:15:16Z</time>
      </trkpt>
      <trkpt lat="49.42642" lon="1.13788">
        <ele>142.5</ele>
        <time>2021-03-21T15:15:17Z</time>
      </trkpt>
      <trkpt lat="49.4264" lon="1.13789">
        <ele>142.4</ele>
        <time>2021-03-21T15:15:18Z</time>
      </trkpt>
      <trkpt lat="49.42631" lon="1.13796">
        <ele>142.3</ele>
        <time>2021-03-21T15:15:19Z</time>
      </trkpt>
      <trkpt lat="49.42624" lon="1.138">
        <ele>142.2</ele>
        <time>2021-03-21T15:15:20Z</time>
      </trkpt>
      <trkpt lat="49.42611" lon="1.13809">
        <ele>142</ele>
        <time>2021-03-21T15:15:22Z</time>
      </trkpt>
      <trkpt lat="49.42607" lon="1.13811">
        <ele>142</ele>
        <time>2021-03-21T15:15:23Z</time>
      </trkpt>
      <trkpt lat="49.42599" lon="1.13816">
        <ele>141.9</ele>
        <time>2021-03-21T15:15:25Z</time>
      </trkpt>
      <trkpt lat="49.4259" lon="1.13822">
        <ele>141.8</ele>
        <time>2021-03-21T15:15:27Z</time>
      </trkpt>
      <trkpt lat="49.42586" lon="1.13825">
        <ele>141.8</ele>
        <time>2021-03-21T15:15:28Z</time>
      </trkpt>
      <trkpt lat="49.42585" lon="1.13827">
        <ele>141.7</ele>
        <time>2021-03-21T15:15:29Z</time>
      </trkpt>
      <trkpt lat="49.4258" lon="1.1384">
        <ele>141.4</ele>
        <time>2021-03-21T15:15:31Z</time>
      </trkpt>
      <trkpt lat="49.42579" lon="1.13847">
        <ele>141.3</ele>
        <time>2021-03-21T15:15:32Z</time>
      </trkpt>
      <trkpt lat="49.42578" lon="1.13854">
        <ele>141.1</ele>
        <time>2021-03-21T15:15:33Z</time>
      </trkpt>
      <trkpt lat="49.42581" lon="1.13867">
        <ele>140.8</ele>
        <time>2021-03-21T15:15:35Z</time>
      </trkpt>
      <trkpt lat="49.42585" lon="1.13873">
        <ele>140.6</ele>
        <time>2021-03-21T15:15:36Z</time>
      </trkpt>
      <trkpt lat="49.42589" lon="1.13882">
        <ele>140.3</ele>
        <time>2021-03-21T15:15:38Z</time>
      </trkpt>
      <trkpt lat="49.42593" lon="1.13889">
        <ele>140.1</ele>
        <time>2021-03-21T15:15:40Z</time>
      </trkpt>
      <trkpt lat="49.42598" lon="1.13897">
        <ele>139.8</ele>
        <time>2021-03-21T15:15:42Z</time>
      </trkpt>
      <trkpt lat="49.42603" lon="1.13905">
        <ele>139.6</ele>
        <time>2021-03-21T15:15:44Z</time>
      </trkpt>
      <trkpt lat="49.42607" lon="1.13912">
        <ele>139.3</ele>
        <time>2021-03-21T15:15:46Z</time>
      </trkpt>
      <trkpt lat="49.42613" lon="1.13919">
        <ele>139</ele>
        <time>2021-03-21T15:15:48Z</time>
      </trkpt>
      <trkpt lat="49.42615" lon="1.13922">
        <ele>138.9</ele>
        <time>2021-03-21T15:15:49Z</time>
      </trkpt>
      <trkpt lat="49.42617" lon="1.13926">
        <ele>139</ele>
        <time>2021-03-21T15:15:51Z</time>
      </trkpt>
      <trkpt lat="49.42618" lon="1.13924">
        <ele>139.1</ele>
        <time>2021-03-21T15:15:52Z</time>
      </trkpt>
      <trkpt lat="49.42613" lon="1.13919">
        <ele>139.3</ele>
        <time>2021-03-21T15:15:54Z</time>
      </trkpt>
      <trkpt lat="49.4261" lon="1.13916">
        <ele>139.4</ele>
        <time>2021-03-21T15:15:55Z</time>
      </trkpt>
      <trkpt lat="49.42605" lon="1.1391">
        <ele>139.6</ele>
        <time>2021-03-21T15:15:57Z</time>
      </trkpt>
      <trkpt lat="49.42602" lon="1.13903">
        <ele>139.8</ele>
        <time>2021-03-21T15:15:58Z</time>
      </trkpt>
      <trkpt lat="49.42597" lon="1.13892">
        <ele>140.1</ele>
        <time>2021-03-21T15:16:00Z</time>
      </trkpt>
      <trkpt lat="49.42592" lon="1.13881">
        <ele>140.3</ele>
        <time>2021-03-21T15:16:02Z</time>
      </trkpt>
      <trkpt lat="49.42586" lon="1.1387">
        <ele>140.7</ele>
        <time>2021-03-21T15:16:04Z</time>
      </trkpt>
      <trkpt lat="49.42584" lon="1.13865">
        <ele>140.8</ele>
        <time>2021-03-21T15:16:05Z</time>
      </trkpt>
      <trkpt lat="49.42582" lon="1.1386">
        <ele>140.9</ele>
        <time>2021-03-21T15:16:06Z</time>
      </trkpt>
      <trkpt lat="49.42577" lon="1.13856">
        <ele>141.2</ele>
        <time>2021-03-21T15:16:08Z</time>
      </trkpt>
      <trkpt lat="49.42573" lon="1.13861">
        <ele>141.2</ele>
        <time>2021-03-21T15:16:10Z</time>
      </trkpt>
      <trkpt lat="49.42571" lon="1.13867">
        <ele>141.2</ele>
        <time>2021-03-21T15:16:12Z</time>
      </trkpt>
      <trkpt lat="49.42571" lon="1.13869">
        <ele>141.2</ele>
        <time>2021-03-21T15:16:13Z</time>
      </trkpt>
      <trkpt lat="49.42572" lon="1.1388">
        <ele>141.2</ele>
        <time>2021-03-21T15:16:15Z</time>
      </trkpt>
      <trkpt lat="49.42574" lon="1.13884">
        <ele>141.2</ele>
        <time>2021-03-21T15:16:16Z</time>
      </trkpt>
      <trkpt lat="49.42576" lon="1.13889">
        <ele>141.2</ele>
        <time>2021-03-21T15:16:17Z</time>
      </trkpt>
      <trkpt lat="49.42581" lon="1.13898">
        <ele>141.2</ele>
        <time>2021-03-21T15:16:19Z</time>
      </trkpt>
      <trkpt lat="49.42586" lon="1.13908">
        <ele>141.2</ele>
        <time>2021-03-21T15:16:21Z</time>
      </trkpt>
      <trkpt lat="49.42588" lon="1.13915">
        <ele>141.2</ele>
        <time>2021-03-21T15:16:22Z</time>
      </trkpt>
      <trkpt lat="49.42591" lon="1.13925">
        <ele>141.2</ele>
        <time>2021-03-21T15:16:24Z</time>
      </trkpt>
      <trkpt lat="49.42593" lon="1.13932">
        <ele>141.2</ele>
        <time>2021-03-21T15:16:25Z</time>
      </trkpt>
      <trkpt lat="49.42595" lon="1.13939">
        <ele>141.2</ele>
        <time>2021-03-21T15:16:26Z</time>
      </trkpt>
      <trkpt lat="49.42595" lon="1.13946">
        <ele>141.2</ele>
        <time>2021-03-21T15:16:27Z</time>
      </trkpt>
      <trkpt lat="49.42596" lon="1.13949">
        <ele>141.2</ele>
        <time>2021-03-21T15:16:29Z</time>
      </trkpt>
      <trkpt lat="49.42596" lon="1.13951">
        <ele>141.2</ele>
        <time>2021-03-21T15:16:30Z</time>
      </trkpt>
      <trkpt lat="49.42596" lon="1.13953">
        <ele>141.2</ele>
        <time>2021-03-21T15:16:31Z</time>
      </trkpt>
      <trkpt lat="49.42596" lon="1.13954">
        <ele>141.1</ele>
        <time>2021-03-21T15:16:33Z</time>
      </trkpt>
      <trkpt lat="49.42597" lon="1.13956">
        <ele>141.1</ele>
        <time>2021-03-21T15:16:34Z</time>
      </trkpt>
      <trkpt lat="49.42597" lon="1.13958">
        <ele>141.1</ele>
        <time>2021-03-21T15:16:35Z</time>
      </trkpt>
      <trkpt lat="49.426" lon="1.13973">
        <ele>141</ele>
        <time>2021-03-21T15:16:37Z</time>
      </trkpt>
      <trkpt lat="49.42602" lon="1.13983">
        <ele>140.9</ele>
        <time>2021-03-21T15:16:39Z</time>
      </trkpt>
      <trkpt lat="49.42604" lon="1.13992">
        <ele>140.8</ele>
        <time>2021-03-21T15:16:41Z</time>
      </trkpt>
      <trkpt lat="49.42606" lon="1.14001">
        <ele>140.7</ele>
        <time>2021-03-21T15:16:43Z</time>
      </trkpt>
      <trkpt lat="49.42609" lon="1.14012">
        <ele>140.6</ele>
        <time>2021-03-21T15:16:45Z</time>
      </trkpt>
      <trkpt lat="49.4261" lon="1.14017">
        <ele>140.5</ele>
        <time>2021-03-21T15:16:46Z</time>
      </trkpt>
      <trkpt lat="49.42611" lon="1.14023">
        <ele>140.5</ele>
        <time>2021-03-21T15:16:47Z</time>
      </trkpt>
      <trkpt lat="49.42616" lon="1.14047">
        <ele>140.4</ele>
        <time>2021-03-21T15:16:49Z</time>
      </trkpt>
      <trkpt lat="49.42617" lon="1.14062">
        <ele>140.4</ele>
        <time>2021-03-21T15:16:51Z</time>
      </trkpt>
      <trkpt lat="49.42618" lon="1.14078">
        <ele>140.3</ele>
        <time>2021-03-21T15:16:53Z</time>
      </trkpt>
      <trkpt lat="49.42619" lon="1.14084">
        <ele>140.2</ele>
        <time>2021-03-21T15:16:54Z</time>
      </trkpt>
      <trkpt lat="49.42621" lon="1.14096">
        <ele>140.1</ele>
        <time>2021-03-21T15:16:56Z</time>
      </trkpt>
      <trkpt lat="49.42623" lon="1.14112">
        <ele>139.9</ele>
        <time>2021-03-21T15:16:58Z</time>
      </trkpt>
      <trkpt lat="49.42624" lon="1.14122">
        <ele>139.8</ele>
        <time>2021-03-21T15:16:59Z</time>
      </trkpt>
      <trkpt lat="49.42626" lon="1.14131">
        <ele>139.8</ele>
        <time>2021-03-21T15:17:00Z</time>
      </trkpt>
      <trkpt lat="49.4263" lon="1.14148">
        <ele>139.7</ele>
        <time>2021-03-21T15:17:02Z</time>
      </trkpt>
      <trkpt lat="49.42631" lon="1.14163">
        <ele>139.7</ele>
        <time>2021-03-21T15:17:04Z</time>
      </trkpt>
      <trkpt lat="49.42634" lon="1.14176">
        <ele>139.7</ele>
        <time>2021-03-21T15:17:06Z</time>
      </trkpt>
      <trkpt lat="49.42636" lon="1.1419">
        <ele>139.6</ele>
        <time>2021-03-21T15:17:08Z</time>
      </trkpt>
      <trkpt lat="49.42637" lon="1.14194">
        <ele>139.6</ele>
        <time>2021-03-21T15:17:09Z</time>
      </trkpt>
      <trkpt lat="49.42638" lon="1.14201">
        <ele>139.6</ele>
        <time>2021-03-21T15:17:11Z</time>
      </trkpt>
      <trkpt lat="49.42639" lon="1.14206">
        <ele>139.6</ele>
        <time>2021-03-21T15:17:13Z</time>
      </trkpt>
      <trkpt lat="49.4264" lon="1.14209">
        <ele>139.6</ele>
        <time>2021-03-21T15:17:14Z</time>
      </trkpt>
      <trkpt lat="49.42642" lon="1.14217">
        <ele>139.6</ele>
        <time>2021-03-21T15:17:16Z</time>
      </trkpt>
      <trkpt lat="49.42643" lon="1.14221">
        <ele>139.6</ele>
        <time>2021-03-21T15:17:17Z</time>
      </trkpt>
      <trkpt lat="49.42643" lon="1.14225">
        <ele>139.6</ele>
        <time>2021-03-21T15:17:19Z</time>
      </trkpt>
      <trkpt lat="49.42644" lon="1.14232">
        <ele>139.6</ele>
        <time>2021-03-21T15:17:20Z</time>
      </trkpt>
      <trkpt lat="49.42646" lon="1.14238">
        <ele>139.5</ele>
        <time>2021-03-21T15:17:21Z</time>
      </trkpt>
      <trkpt lat="49.42648" lon="1.14252">
        <ele>139.5</ele>
        <time>2021-03-21T15:17:23Z</time>
      </trkpt>
      <trkpt lat="49.42649" lon="1.14264">
        <ele>139.6</ele>
        <time>2021-03-21T15:17:25Z</time>
      </trkpt>
      <trkpt lat="49.42652" lon="1.14277">
        <ele>139.6</ele>
        <time>2021-03-21T15:17:27Z</time>
      </trkpt>
      <trkpt lat="49.42653" lon="1.14282">
        <ele>139.6</ele>
        <time>2021-03-21T15:17:28Z</time>
      </trkpt>
      <trkpt lat="49.42654" lon="1.14288">
        <ele>139.6</ele>
        <time>2021-03-21T15:17:29Z</time>
      </trkpt>
      <trkpt lat="49.42656" lon="1.143">
        <ele>139.7</ele>
        <time>2021-03-21T15:17:31Z</time>
      </trkpt>
      <trkpt lat="49.42658" lon="1.14313">
        <ele>139.7</ele>
        <time>2021-03-21T15:17:33Z</time>
      </trkpt>
      <trkpt lat="49.42659" lon="1.1432">
        <ele>139.7</ele>
        <time>2021-03-21T15:17:34Z</time>
      </trkpt>
      <trkpt lat="49.42661" lon="1.14332">
        <ele>139.7</ele>
        <time>2021-03-21T15:17:36Z</time>
      </trkpt>
      <trkpt lat="49.42663" lon="1.14346">
        <ele>139.6</ele>
        <time>2021-03-21T15:17:38Z</time>
      </trkpt>
      <trkpt lat="49.42665" lon="1.14357">
        <ele>139.6</ele>
        <time>2021-03-21T15:17:40Z</time>
      </trkpt>
      <trkpt lat="49.42666" lon="1.14364">
        <ele>139.6</ele>
        <time>2021-03-21T15:17:41Z</time>
      </trkpt>
      <trkpt lat="49.42671" lon="1.14378">
        <ele>139.5</ele>
        <time>2021-03-21T15:17:43Z</time>
      </trkpt>
      <trkpt lat="49.42674" lon="1.14391">
        <ele>139.4</ele>
        <time>2021-03-21T15:17:45Z</time>
      </trkpt>
      <trkpt lat="49.42677" lon="1.1441">
        <ele>139.2</ele>
        <time>2021-03-21T15:17:47Z</time>
      </trkpt>
      <trkpt lat="49.4268" lon="1.14426">
        <ele>139.1</ele>
        <time>2021-03-21T15:17:49Z</time>
      </trkpt>
      <trkpt lat="49.42682" lon="1.14433">
        <ele>139</ele>
        <time>2021-03-21T15:17:50Z</time>
      </trkpt>
      <trkpt lat="49.42685" lon="1.14449">
        <ele>138.9</ele>
        <time>2021-03-21T15:17:52Z</time>
      </trkpt>
      <trkpt lat="49.42686" lon="1.14457">
        <ele>138.8</ele>
        <time>2021-03-21T15:17:53Z</time>
      </trkpt>
      <trkpt lat="49.42688" lon="1.14466">
        <ele>138.7</ele>
        <time>2021-03-21T15:17:54Z</time>
      </trkpt>
      <trkpt lat="49.4269" lon="1.14475">
        <ele>138.6</ele>
        <time>2021-03-21T15:17:55Z</time>
      </trkpt>
      <trkpt lat="49.42693" lon="1.14493">
        <ele>138.4</ele>
        <time>2021-03-21T15:17:57Z</time>
      </trkpt>
      <trkpt lat="49.42697" lon="1.1451">
        <ele>138.2</ele>
        <time>2021-03-21T15:17:59Z</time>
      </trkpt>
      <trkpt lat="49.42699" lon="1.14518">
        <ele>138.2</ele>
        <time>2021-03-21T15:18:00Z</time>
      </trkpt>
      <trkpt lat="49.42701" lon="1.14534">
        <ele>138.1</ele>
        <time>2021-03-21T15:18:02Z</time>
      </trkpt>
      <trkpt lat="49.42702" lon="1.14541">
        <ele>138.1</ele>
        <time>2021-03-21T15:18:03Z</time>
      </trkpt>
      <trkpt lat="49.42703" lon="1.14548">
        <ele>138.1</ele>
        <time>2021-03-21T15:18:04Z</time>
      </trkpt>
      <trkpt lat="49.42704" lon="1.14555">
        <ele>138</ele>
        <time>2021-03-21T15:18:05Z</time>
      </trkpt>
      <trkpt lat="49.42706" lon="1.14568">
        <ele>138</ele>
        <time>2021-03-21T15:18:07Z</time>
      </trkpt>
      <trkpt lat="49.42709" lon="1.1458">
        <ele>138</ele>
        <time>2021-03-21T15:18:09Z</time>
      </trkpt>
      <trkpt lat="49.4271" lon="1.14587">
        <ele>138</ele>
        <time>2021-03-21T15:18:11Z</time>
      </trkpt>
      <trkpt lat="49.42712" lon="1.14598">
        <ele>137.9</ele>
        <time>2021-03-21T15:18:12Z</time>
      </trkpt>
      <trkpt lat="49.42717" lon="1.14601">
        <ele>137.9</ele>
        <time>2021-03-21T15:18:14Z</time>
      </trkpt>
      <trkpt lat="49.4272" lon="1.14602">
        <ele>137.9</ele>
        <time>2021-03-21T15:18:15Z</time>
      </trkpt>
      <trkpt lat="49.42726" lon="1.14604">
        <ele>137.9</ele>
        <time>2021-03-21T15:18:17Z</time>
      </trkpt>
      <trkpt lat="49.42735" lon="1.14604">
        <ele>137.8</ele>
        <time>2021-03-21T15:18:19Z</time>
      </trkpt>
      <trkpt lat="49.4274" lon="1.14608">
        <ele>137.8</ele>
        <time>2021-03-21T15:18:21Z</time>
      </trkpt>
      <trkpt lat="49.42744" lon="1.14618">
        <ele>137.7</ele>
        <time>2021-03-21T15:18:22Z</time>
      </trkpt>
      <trkpt lat="49.42745" lon="1.14625">
        <ele>137.7</ele>
        <time>2021-03-21T15:18:23Z</time>
      </trkpt>
      <trkpt lat="49.42749" lon="1.14643">
        <ele>137.5</ele>
        <time>2021-03-21T15:18:25Z</time>
      </trkpt>
      <trkpt lat="49.42752" lon="1.1466">
        <ele>137.3</ele>
        <time>2021-03-21T15:18:27Z</time>
      </trkpt>
      <trkpt lat="49.42753" lon="1.14676">
        <ele>137.1</ele>
        <time>2021-03-21T15:18:29Z</time>
      </trkpt>
      <trkpt lat="49.42755" lon="1.1469">
        <ele>136.9</ele>
        <time>2021-03-21T15:18:31Z</time>
      </trkpt>
      <trkpt lat="49.42756" lon="1.14705">
        <ele>136.6</ele>
        <time>2021-03-21T15:18:33Z</time>
      </trkpt>
      <trkpt lat="49.42757" lon="1.14721">
        <ele>136.3</ele>
        <time>2021-03-21T15:18:35Z</time>
      </trkpt>
      <trkpt lat="49.42759" lon="1.14737">
        <ele>135.8</ele>
        <time>2021-03-21T15:18:37Z</time>
      </trkpt>
      <trkpt lat="49.42761" lon="1.14749">
        <ele>135.5</ele>
        <time>2021-03-21T15:18:39Z</time>
      </trkpt>
      <trkpt lat="49.42767" lon="1.14761">
        <ele>135.1</ele>
        <time>2021-03-21T15:18:41Z</time>
      </trkpt>
      <trkpt lat="49.42772" lon="1.14765">
        <ele>134.5</ele>
        <time>2021-03-21T15:18:42Z</time>
      </trkpt>
      <trkpt lat="49.42776" lon="1.14768">
        <ele>133.9</ele>
        <time>2021-03-21T15:18:43Z</time>
      </trkpt>
      <trkpt lat="49.42779" lon="1.14773">
        <ele>133</ele>
        <time>2021-03-21T15:18:44Z</time>
      </trkpt>
      <trkpt lat="49.42784" lon="1.14787">
        <ele>131.6</ele>
        <time>2021-03-21T15:18:46Z</time>
      </trkpt>
      <trkpt lat="49.4279" lon="1.14797">
        <ele>130.4</ele>
        <time>2021-03-21T15:18:48Z</time>
      </trkpt>
      <trkpt lat="49.42793" lon="1.14802">
        <ele>129.7</ele>
        <time>2021-03-21T15:18:50Z</time>
      </trkpt>
      <trkpt lat="49.42795" lon="1.14807">
        <ele>129</ele>
        <time>2021-03-21T15:18:52Z</time>
      </trkpt>
      <trkpt lat="49.42798" lon="1.1481">
        <ele>128.3</ele>
        <time>2021-03-21T15:18:54Z</time>
      </trkpt>
      <trkpt lat="49.42798" lon="1.14812">
        <ele>127.9</ele>
        <time>2021-03-21T15:18:55Z</time>
      </trkpt>
      <trkpt lat="49.42798" lon="1.14813">
        <ele>127.6</ele>
        <time>2021-03-21T15:18:56Z</time>
      </trkpt>
      <trkpt lat="49.42797" lon="1.14812">
        <ele>127.5</ele>
        <time>2021-03-21T15:18:57Z</time>
      </trkpt>
      <trkpt lat="49.42795" lon="1.1481">
        <ele>127.4</ele>
        <time>2021-03-21T15:18:58Z</time>
      </trkpt>
      <trkpt lat="49.42795" lon="1.14809">
        <ele>127.1</ele>
        <time>2021-03-21T15:19:00Z</time>
      </trkpt>
      <trkpt lat="49.42795" lon="1.14809">
        <ele>126.9</ele>
        <time>2021-03-21T15:19:01Z</time>
      </trkpt>
      <trkpt lat="49.42795" lon="1.14807">
        <ele>126.6</ele>
        <time>2021-03-21T15:19:03Z</time>
      </trkpt>
      <trkpt lat="49.42795" lon="1.14806">
        <ele>126.5</ele>
        <time>2021-03-21T15:19:04Z</time>
      </trkpt>
      <trkpt lat="49.42796" lon="1.14806">
        <ele>126.2</ele>
        <time>2021-03-21T15:19:06Z</time>
      </trkpt>
      <trkpt lat="49.42796" lon="1.14805">
        <ele>126</ele>
        <time>2021-03-21T15:19:08Z</time>
      </trkpt>
      <trkpt lat="49.42797" lon="1.14805">
        <ele>125.7</ele>
        <time>2021-03-21T15:19:10Z</time>
      </trkpt>
      <trkpt lat="49.42797" lon="1.14805">
        <ele>125.4</ele>
        <time>2021-03-21T15:19:12Z</time>
      </trkpt>
      <trkpt lat="49.42832" lon="1.14842">
        <ele>121.7</ele>
        <time>2021-03-21T15:19:46Z</time>
      </trkpt>
      <trkpt lat="49.42837" lon="1.14843">
        <ele>120.5</ele>
        <time>2021-03-21T15:19:48Z</time>
      </trkpt>
      <trkpt lat="49.42843" lon="1.14849">
        <ele>119.2</ele>
        <time>2021-03-21T15:19:50Z</time>
      </trkpt>
      <trkpt lat="49.42849" lon="1.14855">
        <ele>118</ele>
        <time>2021-03-21T15:19:51Z</time>
      </trkpt>
      <trkpt lat="49.42856" lon="1.14861">
        <ele>116.7</ele>
        <time>2021-03-21T15:19:53Z</time>
      </trkpt>
      <trkpt lat="49.42863" lon="1.14868">
        <ele>114.3</ele>
        <time>2021-03-21T15:19:54Z</time>
      </trkpt>
      <trkpt lat="49.42877" lon="1.1488">
        <ele>110.1</ele>
        <time>2021-03-21T15:19:56Z</time>
      </trkpt>
      <trkpt lat="49.42885" lon="1.14885">
        <ele>107</ele>
        <time>2021-03-21T15:19:57Z</time>
      </trkpt>
      <trkpt lat="49.42894" lon="1.14892">
        <ele>103.5</ele>
        <time>2021-03-21T15:19:59Z</time>
      </trkpt>
      <trkpt lat="49.42899" lon="1.14901">
        <ele>101</ele>
        <time>2021-03-21T15:20:01Z</time>
      </trkpt>
      <trkpt lat="49.42902" lon="1.14905">
        <ele>99.6</ele>
        <time>2021-03-21T15:20:02Z</time>
      </trkpt>
      <trkpt lat="49.42905" lon="1.14908">
        <ele>98.1</ele>
        <time>2021-03-21T15:20:03Z</time>
      </trkpt>
      <trkpt lat="49.42908" lon="1.14912">
        <ele>96.7</ele>
        <time>2021-03-21T15:20:04Z</time>
      </trkpt>
      <trkpt lat="49.42914" lon="1.14921">
        <ele>93.9</ele>
        <time>2021-03-21T15:20:06Z</time>
      </trkpt>
      <trkpt lat="49.42916" lon="1.14926">
        <ele>93.8</ele>
        <time>2021-03-21T15:20:07Z</time>
      </trkpt>
      <trkpt lat="49.42919" lon="1.14935">
        <ele>93.6</ele>
        <time>2021-03-21T15:20:09Z</time>
      </trkpt>
      <trkpt lat="49.42928" lon="1.14986">
        <ele>92</ele>
        <time>2021-03-21T15:20:11Z</time>
      </trkpt>
      <trkpt lat="49.4293" lon="1.15003">
        <ele>91.4</ele>
        <time>2021-03-21T15:20:12Z</time>
      </trkpt>
      <trkpt lat="49.4293" lon="1.15016">
        <ele>90.9</ele>
        <time>2021-03-21T15:20:13Z</time>
      </trkpt>
      <trkpt lat="49.42931" lon="1.15037">
        <ele>90.1</ele>
        <time>2021-03-21T15:20:15Z</time>
      </trkpt>
      <trkpt lat="49.42931" lon="1.15046">
        <ele>89.8</ele>
        <time>2021-03-21T15:20:16Z</time>
      </trkpt>
      <trkpt lat="49.42931" lon="1.15064">
        <ele>89.2</ele>
        <time>2021-03-21T15:20:18Z</time>
      </trkpt>
      <trkpt lat="49.4293" lon="1.15073">
        <ele>88.8</ele>
        <time>2021-03-21T15:20:19Z</time>
      </trkpt>
      <trkpt lat="49.4293" lon="1.15091">
        <ele>88.2</ele>
        <time>2021-03-21T15:20:21Z</time>
      </trkpt>
      <trkpt lat="49.42929" lon="1.15106">
        <ele>87.6</ele>
        <time>2021-03-21T15:20:23Z</time>
      </trkpt>
      <trkpt lat="49.42928" lon="1.15115">
        <ele>87.3</ele>
        <time>2021-03-21T15:20:24Z</time>
      </trkpt>
      <trkpt lat="49.42926" lon="1.1513">
        <ele>86.7</ele>
        <time>2021-03-21T15:20:26Z</time>
      </trkpt>
      <trkpt lat="49.42926" lon="1.15134">
        <ele>86.6</ele>
        <time>2021-03-21T15:20:27Z</time>
      </trkpt>
      <trkpt lat="49.42927" lon="1.15141">
        <ele>86.3</ele>
        <time>2021-03-21T15:20:29Z</time>
      </trkpt>
      <trkpt lat="49.42928" lon="1.15145">
        <ele>86.1</ele>
        <time>2021-03-21T15:20:30Z</time>
      </trkpt>
      <trkpt lat="49.42931" lon="1.15149">
        <ele>85.8</ele>
        <time>2021-03-21T15:20:32Z</time>
      </trkpt>
      <trkpt lat="49.42935" lon="1.15154">
        <ele>85.5</ele>
        <time>2021-03-21T15:20:34Z</time>
      </trkpt>
      <trkpt lat="49.42939" lon="1.15168">
        <ele>84.8</ele>
        <time>2021-03-21T15:20:36Z</time>
      </trkpt>
      <trkpt lat="49.4294" lon="1.15186">
        <ele>84.1</ele>
        <time>2021-03-21T15:20:38Z</time>
      </trkpt>
      <trkpt lat="49.42938" lon="1.15205">
        <ele>83.4</ele>
        <time>2021-03-21T15:20:40Z</time>
      </trkpt>
      <trkpt lat="49.42936" lon="1.15216">
        <ele>83</ele>
        <time>2021-03-21T15:20:41Z</time>
      </trkpt>
      <trkpt lat="49.42934" lon="1.15226">
        <ele>82.6</ele>
        <time>2021-03-21T15:20:42Z</time>
      </trkpt>
      <trkpt lat="49.42931" lon="1.15246">
        <ele>81.9</ele>
        <time>2021-03-21T15:20:44Z</time>
      </trkpt>
      <trkpt lat="49.42928" lon="1.15266">
        <ele>81.1</ele>
        <time>2021-03-21T15:20:46Z</time>
      </trkpt>
      <trkpt lat="49.42926" lon="1.15277">
        <ele>80.8</ele>
        <time>2021-03-21T15:20:47Z</time>
      </trkpt>
      <trkpt lat="49.42921" lon="1.15298">
        <ele>79.9</ele>
        <time>2021-03-21T15:20:49Z</time>
      </trkpt>
      <trkpt lat="49.42919" lon="1.1531">
        <ele>79.5</ele>
        <time>2021-03-21T15:20:50Z</time>
      </trkpt>
      <trkpt lat="49.42915" lon="1.15329">
        <ele>79</ele>
        <time>2021-03-21T15:20:52Z</time>
      </trkpt>
      <trkpt lat="49.42914" lon="1.15338">
        <ele>78.8</ele>
        <time>2021-03-21T15:20:53Z</time>
      </trkpt>
      <trkpt lat="49.42916" lon="1.15353">
        <ele>78.5</ele>
        <time>2021-03-21T15:20:55Z</time>
      </trkpt>
      <trkpt lat="49.4292" lon="1.15366">
        <ele>78.1</ele>
        <time>2021-03-21T15:20:57Z</time>
      </trkpt>
      <trkpt lat="49.42928" lon="1.15377">
        <ele>77.7</ele>
        <time>2021-03-21T15:20:59Z</time>
      </trkpt>
      <trkpt lat="49.42932" lon="1.15381">
        <ele>77.7</ele>
        <time>2021-03-21T15:21:00Z</time>
      </trkpt>
      <trkpt lat="49.42933" lon="1.15382">
        <ele>77.7</ele>
        <time>2021-03-21T15:21:02Z</time>
      </trkpt>
      <trkpt lat="49.42935" lon="1.15384">
        <ele>77.7</ele>
        <time>2021-03-21T15:21:04Z</time>
      </trkpt>
      <trkpt lat="49.42938" lon="1.15388">
        <ele>77.6</ele>
        <time>2021-03-21T15:21:06Z</time>
      </trkpt>
      <trkpt lat="49.42939" lon="1.15392">
        <ele>77.8</ele>
        <time>2021-03-21T15:21:07Z</time>
      </trkpt>
      <trkpt lat="49.42939" lon="1.15398">
        <ele>77.9</ele>
        <time>2021-03-21T15:21:09Z</time>
      </trkpt>
      <trkpt lat="49.42936" lon="1.15404">
        <ele>78.1</ele>
        <time>2021-03-21T15:21:11Z</time>
      </trkpt>
      <trkpt lat="49.42934" lon="1.15408">
        <ele>78.2</ele>
        <time>2021-03-21T15:21:12Z</time>
      </trkpt>
      <trkpt lat="49.42933" lon="1.15412">
        <ele>78.2</ele>
        <time>2021-03-21T15:21:13Z</time>
      </trkpt>
      <trkpt lat="49.42932" lon="1.15416">
        <ele>78.3</ele>
        <time>2021-03-21T15:21:14Z</time>
      </trkpt>
      <trkpt lat="49.42931" lon="1.15419">
        <ele>78.4</ele>
        <time>2021-03-21T15:21:16Z</time>
      </trkpt>
      <trkpt lat="49.42931" lon="1.15419">
        <ele>78.4</ele>
        <time>2021-03-21T15:21:18Z</time>
      </trkpt>
      <trkpt lat="49.4293" lon="1.15424">
        <ele>78.5</ele>
        <time>2021-03-21T15:21:19Z</time>
      </trkpt>
      <trkpt lat="49.42928" lon="1.15432">
        <ele>78.6</ele>
        <time>2021-03-21T15:21:21Z</time>
      </trkpt>
      <trkpt lat="49.42927" lon="1.15437">
        <ele>78.7</ele>
        <time>2021-03-21T15:21:22Z</time>
      </trkpt>
      <trkpt lat="49.42926" lon="1.15441">
        <ele>78.8</ele>
        <time>2021-03-21T15:21:23Z</time>
      </trkpt>
      <trkpt lat="49.42924" lon="1.15449">
        <ele>79</ele>
        <time>2021-03-21T15:21:25Z</time>
      </trkpt>
      <trkpt lat="49.42921" lon="1.15459">
        <ele>79.4</ele>
        <time>2021-03-21T15:21:27Z</time>
      </trkpt>
      <trkpt lat="49.42919" lon="1.15466">
        <ele>79.6</ele>
        <time>2021-03-21T15:21:28Z</time>
      </trkpt>
      <trkpt lat="49.42915" lon="1.15479">
        <ele>80.1</ele>
        <time>2021-03-21T15:21:30Z</time>
      </trkpt>
      <trkpt lat="49.42913" lon="1.15485">
        <ele>80.3</ele>
        <time>2021-03-21T15:21:31Z</time>
      </trkpt>
      <trkpt lat="49.4291" lon="1.15494">
        <ele>80.6</ele>
        <time>2021-03-21T15:21:33Z</time>
      </trkpt>
      <trkpt lat="49.42908" lon="1.15504">
        <ele>80.9</ele>
        <time>2021-03-21T15:21:35Z</time>
      </trkpt>
      <trkpt lat="49.42907" lon="1.15509">
        <ele>81.1</ele>
        <time>2021-03-21T15:21:36Z</time>
      </trkpt>
      <trkpt lat="49.42904" lon="1.15519">
        <ele>81.3</ele>
        <time>2021-03-21T15:21:38Z</time>
      </trkpt>
      <trkpt lat="49.42902" lon="1.15528">
        <ele>81.6</ele>
        <time>2021-03-21T15:21:40Z</time>
      </trkpt>
      <trkpt lat="49.42901" lon="1.15532">
        <ele>81.7</ele>
        <time>2021-03-21T15:21:41Z</time>
      </trkpt>
      <trkpt lat="49.42898" lon="1.1554">
        <ele>81.9</ele>
        <time>2021-03-21T15:21:43Z</time>
      </trkpt>
      <trkpt lat="49.42897" lon="1.15545">
        <ele>82.1</ele>
        <time>2021-03-21T15:21:44Z</time>
      </trkpt>
      <trkpt lat="49.42893" lon="1.1556">
        <ele>82.5</ele>
        <time>2021-03-21T15:21:46Z</time>
      </trkpt>
      <trkpt lat="49.42891" lon="1.15568">
        <ele>82.7</ele>
        <time>2021-03-21T15:21:47Z</time>
      </trkpt>
      <trkpt lat="49.42889" lon="1.15576">
        <ele>82.8</ele>
        <time>2021-03-21T15:21:48Z</time>
      </trkpt>
      <trkpt lat="49.42886" lon="1.15587">
        <ele>83.1</ele>
        <time>2021-03-21T15:21:50Z</time>
      </trkpt>
      <trkpt lat="49.42884" lon="1.15596">
        <ele>83.3</ele>
        <time>2021-03-21T15:21:52Z</time>
      </trkpt>
      <trkpt lat="49.42883" lon="1.156">
        <ele>83.4</ele>
        <time>2021-03-21T15:21:53Z</time>
      </trkpt>
      <trkpt lat="49.42881" lon="1.15609">
        <ele>83.7</ele>
        <time>2021-03-21T15:21:55Z</time>
      </trkpt>
      <trkpt lat="49.4288" lon="1.15617">
        <ele>83.9</ele>
        <time>2021-03-21T15:21:57Z</time>
      </trkpt>
      <trkpt lat="49.42879" lon="1.15622">
        <ele>84</ele>
        <time>2021-03-21T15:21:58Z</time>
      </trkpt>
      <trkpt lat="49.42879" lon="1.15624">
        <ele>84.1</ele>
        <time>2021-03-21T15:21:59Z</time>
      </trkpt>
      <trkpt lat="49.42877" lon="1.15632">
        <ele>84.4</ele>
        <time>2021-03-21T15:22:01Z</time>
      </trkpt>
      <trkpt lat="49.42876" lon="1.15636">
        <ele>84.5</ele>
        <time>2021-03-21T15:22:02Z</time>
      </trkpt>
      <trkpt lat="49.42874" lon="1.15644">
        <ele>84.8</ele>
        <time>2021-03-21T15:22:04Z</time>
      </trkpt>
      <trkpt lat="49.42873" lon="1.15648">
        <ele>84.9</ele>
        <time>2021-03-21T15:22:05Z</time>
      </trkpt>
      <trkpt lat="49.42868" lon="1.15661">
        <ele>85.4</ele>
        <time>2021-03-21T15:22:07Z</time>
      </trkpt>
      <trkpt lat="49.42866" lon="1.15668">
        <ele>85.6</ele>
        <time>2021-03-21T15:22:08Z</time>
      </trkpt>
      <trkpt lat="49.42864" lon="1.15675">
        <ele>85.8</ele>
        <time>2021-03-21T15:22:09Z</time>
      </trkpt>
      <trkpt lat="49.42863" lon="1.1568">
        <ele>86</ele>
        <time>2021-03-21T15:22:10Z</time>
      </trkpt>
      <trkpt lat="49.4286" lon="1.15691">
        <ele>86.4</ele>
        <time>2021-03-21T15:22:12Z</time>
      </trkpt>
      <trkpt lat="49.42858" lon="1.15698">
        <ele>86.6</ele>
        <time>2021-03-21T15:22:14Z</time>
      </trkpt>
      <trkpt lat="49.42856" lon="1.15705">
        <ele>86.9</ele>
        <time>2021-03-21T15:22:16Z</time>
      </trkpt>
      <trkpt lat="49.42854" lon="1.1571">
        <ele>87.1</ele>
        <time>2021-03-21T15:22:17Z</time>
      </trkpt>
      <trkpt lat="49.42854" lon="1.15712">
        <ele>87.1</ele>
        <time>2021-03-21T15:22:18Z</time>
      </trkpt>
      <trkpt lat="49.42851" lon="1.1572">
        <ele>87.4</ele>
        <time>2021-03-21T15:22:20Z</time>
      </trkpt>
      <trkpt lat="49.42848" lon="1.15728">
        <ele>87.7</ele>
        <time>2021-03-21T15:22:22Z</time>
      </trkpt>
      <trkpt lat="49.42846" lon="1.15736">
        <ele>87.9</ele>
        <time>2021-03-21T15:22:24Z</time>
      </trkpt>
      <trkpt lat="49.42844" lon="1.15741">
        <ele>88.1</ele>
        <time>2021-03-21T15:22:25Z</time>
      </trkpt>
      <trkpt lat="49.4284" lon="1.15753">
        <ele>88.6</ele>
        <time>2021-03-21T15:22:27Z</time>
      </trkpt>
      <trkpt lat="49.42838" lon="1.15758">
        <ele>88.7</ele>
        <time>2021-03-21T15:22:28Z</time>
      </trkpt>
      <trkpt lat="49.42836" lon="1.15762">
        <ele>88.9</ele>
        <time>2021-03-21T15:22:29Z</time>
      </trkpt>
      <trkpt lat="49.42835" lon="1.15767">
        <ele>89.1</ele>
        <time>2021-03-21T15:22:30Z</time>
      </trkpt>
      <trkpt lat="49.42833" lon="1.15774">
        <ele>89.4</ele>
        <time>2021-03-21T15:22:31Z</time>
      </trkpt>
      <trkpt lat="49.42831" lon="1.15781">
        <ele>89.7</ele>
        <time>2021-03-21T15:22:33Z</time>
      </trkpt>
      <trkpt lat="49.4283" lon="1.15785">
        <ele>89.9</ele>
        <time>2021-03-21T15:22:34Z</time>
      </trkpt>
      <trkpt lat="49.42827" lon="1.15794">
        <ele>90.3</ele>
        <time>2021-03-21T15:22:36Z</time>
      </trkpt>
      <trkpt lat="49.42826" lon="1.15797">
        <ele>90.4</ele>
        <time>2021-03-21T15:22:37Z</time>
      </trkpt>
      <trkpt lat="49.42824" lon="1.15804">
        <ele>90.7</ele>
        <time>2021-03-21T15:22:39Z</time>
      </trkpt>
      <trkpt lat="49.42821" lon="1.15812">
        <ele>91.1</ele>
        <time>2021-03-21T15:22:41Z</time>
      </trkpt>
      <trkpt lat="49.42819" lon="1.15819">
        <ele>91.4</ele>
        <time>2021-03-21T15:22:43Z</time>
      </trkpt>
      <trkpt lat="49.42816" lon="1.15827">
        <ele>91.7</ele>
        <time>2021-03-21T15:22:45Z</time>
      </trkpt>
      <trkpt lat="49.42814" lon="1.15832">
        <ele>92</ele>
        <time>2021-03-21T15:22:46Z</time>
      </trkpt>
      <trkpt lat="49.42812" lon="1.15837">
        <ele>92.2</ele>
        <time>2021-03-21T15:22:48Z</time>
      </trkpt>
      <trkpt lat="49.42811" lon="1.15841">
        <ele>92.4</ele>
        <time>2021-03-21T15:22:49Z</time>
      </trkpt>
      <trkpt lat="49.42807" lon="1.15848">
        <ele>92.8</ele>
        <time>2021-03-21T15:22:51Z</time>
      </trkpt>
      <trkpt lat="49.42805" lon="1.15854">
        <ele>93</ele>
        <time>2021-03-21T15:22:53Z</time>
      </trkpt>
      <trkpt lat="49.42804" lon="1.15857">
        <ele>93.2</ele>
        <time>2021-03-21T15:22:54Z</time>
      </trkpt>
      <trkpt lat="49.42802" lon="1.15862">
        <ele>93.5</ele>
        <time>2021-03-21T15:22:56Z</time>
      </trkpt>
      <trkpt lat="49.42798" lon="1.15869">
        <ele>93.9</ele>
        <time>2021-03-21T15:22:58Z</time>
      </trkpt>
      <trkpt lat="49.42794" lon="1.15876">
        <ele>94.3</ele>
        <time>2021-03-21T15:23:00Z</time>
      </trkpt>
      <trkpt lat="49.42792" lon="1.1588">
        <ele>94.6</ele>
        <time>2021-03-21T15:23:01Z</time>
      </trkpt>
      <trkpt lat="49.42788" lon="1.15887">
        <ele>95</ele>
        <time>2021-03-21T15:23:03Z</time>
      </trkpt>
      <trkpt lat="49.42785" lon="1.15891">
        <ele>95.3</ele>
        <time>2021-03-21T15:23:05Z</time>
      </trkpt>
      <trkpt lat="49.42781" lon="1.15898">
        <ele>95.8</ele>
        <time>2021-03-21T15:23:07Z</time>
      </trkpt>
      <trkpt lat="49.42776" lon="1.15906">
        <ele>96.2</ele>
        <time>2021-03-21T15:23:09Z</time>
      </trkpt>
      <trkpt lat="49.42774" lon="1.1591">
        <ele>96.4</ele>
        <time>2021-03-21T15:23:10Z</time>
      </trkpt>
      <trkpt lat="49.42769" lon="1.15917">
        <ele>96.8</ele>
        <time>2021-03-21T15:23:12Z</time>
      </trkpt>
      <trkpt lat="49.42768" lon="1.15919">
        <ele>96.9</ele>
        <time>2021-03-21T15:23:13Z</time>
      </trkpt>
      <trkpt lat="49.42766" lon="1.15922">
        <ele>97</ele>
        <time>2021-03-21T15:23:15Z</time>
      </trkpt>
      <trkpt lat="49.42763" lon="1.15926">
        <ele>97.1</ele>
        <time>2021-03-21T15:23:17Z</time>
      </trkpt>
      <trkpt lat="49.42762" lon="1.15928">
        <ele>97.2</ele>
        <time>2021-03-21T15:23:19Z</time>
      </trkpt>
      <trkpt lat="49.42761" lon="1.1593">
        <ele>97.2</ele>
        <time>2021-03-21T15:23:20Z</time>
      </trkpt>
      <trkpt lat="49.42759" lon="1.15934">
        <ele>97.2</ele>
        <time>2021-03-21T15:23:22Z</time>
      </trkpt>
      <trkpt lat="49.42758" lon="1.15936">
        <ele>97.2</ele>
        <time>2021-03-21T15:23:23Z</time>
      </trkpt>
      <trkpt lat="49.42756" lon="1.15938">
        <ele>97.1</ele>
        <time>2021-03-21T15:23:25Z</time>
      </trkpt>
      <trkpt lat="49.42756" lon="1.15938">
        <ele>97.1</ele>
        <time>2021-03-21T15:23:27Z</time>
      </trkpt>
      <trkpt lat="49.42756" lon="1.15938">
        <ele>97.1</ele>
        <time>2021-03-21T15:23:29Z</time>
      </trkpt>
      <trkpt lat="49.42756" lon="1.15938">
        <ele>97.1</ele>
        <time>2021-03-21T15:23:30Z</time>
      </trkpt>
      <trkpt lat="49.42756" lon="1.15938">
        <ele>97.1</ele>
        <time>2021-03-21T15:23:31Z</time>
      </trkpt>
      <trkpt lat="49.42754" lon="1.15942">
        <ele>96.9</ele>
        <time>2021-03-21T15:23:33Z</time>
      </trkpt>
      <trkpt lat="49.42753" lon="1.15943">
        <ele>96.9</ele>
        <time>2021-03-21T15:23:34Z</time>
      </trkpt>
      <trkpt lat="49.42753" lon="1.15943">
        <ele>96.9</ele>
        <time>2021-03-21T15:23:35Z</time>
      </trkpt>
      <trkpt lat="49.42753" lon="1.15944">
        <ele>96.8</ele>
        <time>2021-03-21T15:23:36Z</time>
      </trkpt>
      <trkpt lat="49.42754" lon="1.15946">
        <ele>96.6</ele>
        <time>2021-03-21T15:23:38Z</time>
      </trkpt>
      <trkpt lat="49.42756" lon="1.15946">
        <ele>96.5</ele>
        <time>2021-03-21T15:23:39Z</time>
      </trkpt>
      <trkpt lat="49.4276" lon="1.15945">
        <ele>95.8</ele>
        <time>2021-03-21T15:23:41Z</time>
      </trkpt>
      <trkpt lat="49.42761" lon="1.15944">
        <ele>95.7</ele>
        <time>2021-03-21T15:23:43Z</time>
      </trkpt>
      <trkpt lat="49.42761" lon="1.15943">
        <ele>95.6</ele>
        <time>2021-03-21T15:23:44Z</time>
      </trkpt>
      <trkpt lat="49.42762" lon="1.15943">
        <ele>95.4</ele>
        <time>2021-03-21T15:23:46Z</time>
      </trkpt>
      <trkpt lat="49.42763" lon="1.15942">
        <ele>95.2</ele>
        <time>2021-03-21T15:23:48Z</time>
      </trkpt>
      <trkpt lat="49.42764" lon="1.15941">
        <ele>95.1</ele>
        <time>2021-03-21T15:23:49Z</time>
      </trkpt>
      <trkpt lat="49.42764" lon="1.15941">
        <ele>94.9</ele>
        <time>2021-03-21T15:23:50Z</time>
      </trkpt>
      <trkpt lat="49.42765" lon="1.1594">
        <ele>94.7</ele>
        <time>2021-03-21T15:23:51Z</time>
      </trkpt>
      <trkpt lat="49.42766" lon="1.1594">
        <ele>94.5</ele>
        <time>2021-03-21T15:23:52Z</time>
      </trkpt>
      <trkpt lat="49.42767" lon="1.15939">
        <ele>94.3</ele>
        <time>2021-03-21T15:23:54Z</time>
      </trkpt>
      <trkpt lat="49.42767" lon="1.15938">
        <ele>94.1</ele>
        <time>2021-03-21T15:23:55Z</time>
      </trkpt>
      <trkpt lat="49.42768" lon="1.15938">
        <ele>93.9</ele>
        <time>2021-03-21T15:23:57Z</time>
      </trkpt>
      <trkpt lat="49.42769" lon="1.15937">
        <ele>93.8</ele>
        <time>2021-03-21T15:23:58Z</time>
      </trkpt>
      <trkpt lat="49.4277" lon="1.15936">
        <ele>93.5</ele>
        <time>2021-03-21T15:24:00Z</time>
      </trkpt>
      <trkpt lat="49.4277" lon="1.15936">
        <ele>93.3</ele>
        <time>2021-03-21T15:24:02Z</time>
      </trkpt>
      <trkpt lat="49.42771" lon="1.15935">
        <ele>93.1</ele>
        <time>2021-03-21T15:24:04Z</time>
      </trkpt>
      <trkpt lat="49.42772" lon="1.15934">
        <ele>92.9</ele>
        <time>2021-03-21T15:24:05Z</time>
      </trkpt>
      <trkpt lat="49.42772" lon="1.15934">
        <ele>92.7</ele>
        <time>2021-03-21T15:24:06Z</time>
      </trkpt>
      <trkpt lat="49.42776" lon="1.15931">
        <ele>91.8</ele>
        <time>2021-03-21T15:24:08Z</time>
      </trkpt>
      <trkpt lat="49.42778" lon="1.15931">
        <ele>91.2</ele>
        <time>2021-03-21T15:24:09Z</time>
      </trkpt>
      <trkpt lat="49.4278" lon="1.15933">
        <ele>90.5</ele>
        <time>2021-03-21T15:24:11Z</time>
      </trkpt>
      <trkpt lat="49.4278" lon="1.15937">
        <ele>89.8</ele>
        <time>2021-03-21T15:24:13Z</time>
      </trkpt>
      <trkpt lat="49.42781" lon="1.15939">
        <ele>89.6</ele>
        <time>2021-03-21T15:24:14Z</time>
      </trkpt>
      <trkpt lat="49.42781" lon="1.15938">
        <ele>89.4</ele>
        <time>2021-03-21T15:24:15Z</time>
      </trkpt>
      <trkpt lat="49.42781" lon="1.15939">
        <ele>89.2</ele>
        <time>2021-03-21T15:24:16Z</time>
      </trkpt>
      <trkpt lat="49.42781" lon="1.15943">
        <ele>88.7</ele>
        <time>2021-03-21T15:24:18Z</time>
      </trkpt>
      <trkpt lat="49.42781" lon="1.15944">
        <ele>88.5</ele>
        <time>2021-03-21T15:24:19Z</time>
      </trkpt>
      <trkpt lat="49.42778" lon="1.15949">
        <ele>87.5</ele>
        <time>2021-03-21T15:24:21Z</time>
      </trkpt>
      <trkpt lat="49.42777" lon="1.15958">
        <ele>86.7</ele>
        <time>2021-03-21T15:24:22Z</time>
      </trkpt>
      <trkpt lat="49.42771" lon="1.16054">
        <ele>85.6</ele>
        <time>2021-03-21T15:24:24Z</time>
      </trkpt>
      <trkpt lat="49.42771" lon="1.16061">
        <ele>85.6</ele>
        <time>2021-03-21T15:24:25Z</time>
      </trkpt>
      <trkpt lat="49.42769" lon="1.16082">
        <ele>85.8</ele>
        <time>2021-03-21T15:24:27Z</time>
      </trkpt>
      <trkpt lat="49.42768" lon="1.16099">
        <ele>86.1</ele>
        <time>2021-03-21T15:24:29Z</time>
      </trkpt>
      <trkpt lat="49.42767" lon="1.16115">
        <ele>86.5</ele>
        <time>2021-03-21T15:24:31Z</time>
      </trkpt>
      <trkpt lat="49.42767" lon="1.16123">
        <ele>86.6</ele>
        <time>2021-03-21T15:24:32Z</time>
      </trkpt>
      <trkpt lat="49.42765" lon="1.16136">
        <ele>86.6</ele>
        <time>2021-03-21T15:24:34Z</time>
      </trkpt>
      <trkpt lat="49.42763" lon="1.16151">
        <ele>86.4</ele>
        <time>2021-03-21T15:24:36Z</time>
      </trkpt>
      <trkpt lat="49.42763" lon="1.16159">
        <ele>86.2</ele>
        <time>2021-03-21T15:24:37Z</time>
      </trkpt>
      <trkpt lat="49.42761" lon="1.16177">
        <ele>85.6</ele>
        <time>2021-03-21T15:24:39Z</time>
      </trkpt>
      <trkpt lat="49.4276" lon="1.16189">
        <ele>85.3</ele>
        <time>2021-03-21T15:24:40Z</time>
      </trkpt>
      <trkpt lat="49.4276" lon="1.162">
        <ele>85</ele>
        <time>2021-03-21T15:24:41Z</time>
      </trkpt>
      <trkpt lat="49.4276" lon="1.1621">
        <ele>84.8</ele>
        <time>2021-03-21T15:24:42Z</time>
      </trkpt>
      <trkpt lat="49.42759" lon="1.16231">
        <ele>84.4</ele>
        <time>2021-03-21T15:24:44Z</time>
      </trkpt>
      <trkpt lat="49.42759" lon="1.1625">
        <ele>84.4</ele>
        <time>2021-03-21T15:24:46Z</time>
      </trkpt>
      <trkpt lat="49.42759" lon="1.16259">
        <ele>84.5</ele>
        <time>2021-03-21T15:24:47Z</time>
      </trkpt>
      <trkpt lat="49.42758" lon="1.16277">
        <ele>85</ele>
        <time>2021-03-21T15:24:49Z</time>
      </trkpt>
      <trkpt lat="49.42757" lon="1.16292">
        <ele>85.5</ele>
        <time>2021-03-21T15:24:51Z</time>
      </trkpt>
      <trkpt lat="49.42757" lon="1.163">
        <ele>85.8</ele>
        <time>2021-03-21T15:24:52Z</time>
      </trkpt>
      <trkpt lat="49.42754" lon="1.16313">
        <ele>86.2</ele>
        <time>2021-03-21T15:24:54Z</time>
      </trkpt>
      <trkpt lat="49.42753" lon="1.16323">
        <ele>86.2</ele>
        <time>2021-03-21T15:24:56Z</time>
      </trkpt>
      <trkpt lat="49.42751" lon="1.16334">
        <ele>86</ele>
        <time>2021-03-21T15:24:58Z</time>
      </trkpt>
      <trkpt lat="49.42751" lon="1.16345">
        <ele>85.5</ele>
        <time>2021-03-21T15:25:00Z</time>
      </trkpt>
      <trkpt lat="49.4275" lon="1.16351">
        <ele>85</ele>
        <time>2021-03-21T15:25:01Z</time>
      </trkpt>
      <trkpt lat="49.42752" lon="1.16368">
        <ele>83.3</ele>
        <time>2021-03-21T15:25:03Z</time>
      </trkpt>
      <trkpt lat="49.42753" lon="1.16385">
        <ele>81.1</ele>
        <time>2021-03-21T15:25:05Z</time>
      </trkpt>
      <trkpt lat="49.42759" lon="1.16401">
        <ele>78.8</ele>
        <time>2021-03-21T15:25:07Z</time>
      </trkpt>
      <trkpt lat="49.42766" lon="1.16413">
        <ele>76.9</ele>
        <time>2021-03-21T15:25:09Z</time>
      </trkpt>
      <trkpt lat="49.42772" lon="1.16426">
        <ele>75.1</ele>
        <time>2021-03-21T15:25:10Z</time>
      </trkpt>
      <trkpt lat="49.42778" lon="1.16439">
        <ele>73.4</ele>
        <time>2021-03-21T15:25:12Z</time>
      </trkpt>
      <trkpt lat="49.42782" lon="1.16448">
        <ele>72.1</ele>
        <time>2021-03-21T15:25:13Z</time>
      </trkpt>
      <trkpt lat="49.42786" lon="1.16465">
        <ele>70.1</ele>
        <time>2021-03-21T15:25:15Z</time>
      </trkpt>
      <trkpt lat="49.42788" lon="1.16485">
        <ele>68</ele>
        <time>2021-03-21T15:25:17Z</time>
      </trkpt>
      <trkpt lat="49.42791" lon="1.16505">
        <ele>66.2</ele>
        <time>2021-03-21T15:25:19Z</time>
      </trkpt>
      <trkpt lat="49.42793" lon="1.16515">
        <ele>65.3</ele>
        <time>2021-03-21T15:25:20Z</time>
      </trkpt>
      <trkpt lat="49.42796" lon="1.16527">
        <ele>64.3</ele>
        <time>2021-03-21T15:25:21Z</time>
      </trkpt>
      <trkpt lat="49.42799" lon="1.16539">
        <ele>63.3</ele>
        <time>2021-03-21T15:25:22Z</time>
      </trkpt>
      <trkpt lat="49.42806" lon="1.16562">
        <ele>61.6</ele>
        <time>2021-03-21T15:25:24Z</time>
      </trkpt>
      <trkpt lat="49.42808" lon="1.1657">
        <ele>61</ele>
        <time>2021-03-21T15:25:25Z</time>
      </trkpt>
      <trkpt lat="49.42811" lon="1.16578">
        <ele>60.5</ele>
        <time>2021-03-21T15:25:27Z</time>
      </trkpt>
      <trkpt lat="49.42813" lon="1.16587">
        <ele>60</ele>
        <time>2021-03-21T15:25:29Z</time>
      </trkpt>
      <trkpt lat="49.42815" lon="1.16592">
        <ele>59.7</ele>
        <time>2021-03-21T15:25:30Z</time>
      </trkpt>
      <trkpt lat="49.42815" lon="1.16602">
        <ele>59.1</ele>
        <time>2021-03-21T15:25:32Z</time>
      </trkpt>
      <trkpt lat="49.4281" lon="1.16604">
        <ele>58.1</ele>
        <time>2021-03-21T15:25:34Z</time>
      </trkpt>
      <trkpt lat="49.42803" lon="1.16602">
        <ele>57.6</ele>
        <time>2021-03-21T15:25:36Z</time>
      </trkpt>
      <trkpt lat="49.42797" lon="1.16601">
        <ele>57</ele>
        <time>2021-03-21T15:25:37Z</time>
      </trkpt>
      <trkpt lat="49.4278" lon="1.16599">
        <ele>55</ele>
        <time>2021-03-21T15:25:39Z</time>
      </trkpt>
      <trkpt lat="49.42766" lon="1.16595">
        <ele>53.7</ele>
        <time>2021-03-21T15:25:41Z</time>
      </trkpt>
      <trkpt lat="49.42759" lon="1.16594">
        <ele>53.3</ele>
        <time>2021-03-21T15:25:42Z</time>
      </trkpt>
      <trkpt lat="49.42749" lon="1.1659">
        <ele>53</ele>
        <time>2021-03-21T15:25:44Z</time>
      </trkpt>
      <trkpt lat="49.42744" lon="1.16587">
        <ele>53</ele>
        <time>2021-03-21T15:25:45Z</time>
      </trkpt>
      <trkpt lat="49.42736" lon="1.16579">
        <ele>53</ele>
        <time>2021-03-21T15:25:47Z</time>
      </trkpt>
      <trkpt lat="49.42732" lon="1.16572">
        <ele>53</ele>
        <time>2021-03-21T15:25:49Z</time>
      </trkpt>
      <trkpt lat="49.42729" lon="1.16568">
        <ele>53</ele>
        <time>2021-03-21T15:25:50Z</time>
      </trkpt>
      <trkpt lat="49.42728" lon="1.16567">
        <ele>53</ele>
        <time>2021-03-21T15:25:51Z</time>
      </trkpt>
      <trkpt lat="49.42726" lon="1.16564">
        <ele>53</ele>
        <time>2021-03-21T15:25:52Z</time>
      </trkpt>
      <trkpt lat="49.42723" lon="1.16558">
        <ele>53</ele>
        <time>2021-03-21T15:25:54Z</time>
      </trkpt>
      <trkpt lat="49.42719" lon="1.16552">
        <ele>53</ele>
        <time>2021-03-21T15:25:56Z</time>
      </trkpt>
      <trkpt lat="49.42717" lon="1.16547">
        <ele>53</ele>
        <time>2021-03-21T15:25:58Z</time>
      </trkpt>
      <trkpt lat="49.42717" lon="1.16548">
        <ele>53</ele>
        <time>2021-03-21T15:26:00Z</time>
      </trkpt>
      <trkpt lat="49.42724" lon="1.16557">
        <ele>53</ele>
        <time>2021-03-21T15:26:02Z</time>
      </trkpt>
      <trkpt lat="49.4273" lon="1.16567">
        <ele>53</ele>
        <time>2021-03-21T15:26:04Z</time>
      </trkpt>
      <trkpt lat="49.42734" lon="1.16573">
        <ele>53</ele>
        <time>2021-03-21T15:26:06Z</time>
      </trkpt>
      <trkpt lat="49.42741" lon="1.16581">
        <ele>53</ele>
        <time>2021-03-21T15:26:07Z</time>
      </trkpt>
      <trkpt lat="49.42745" lon="1.16585">
        <ele>53</ele>
        <time>2021-03-21T15:26:08Z</time>
      </trkpt>
      <trkpt lat="49.42755" lon="1.16593">
        <ele>53.1</ele>
        <time>2021-03-21T15:26:10Z</time>
      </trkpt>
      <trkpt lat="49.42765" lon="1.16598">
        <ele>53.7</ele>
        <time>2021-03-21T15:26:12Z</time>
      </trkpt>
      <trkpt lat="49.42774" lon="1.16598">
        <ele>54.3</ele>
        <time>2021-03-21T15:26:14Z</time>
      </trkpt>
      <trkpt lat="49.42778" lon="1.16598">
        <ele>54.7</ele>
        <time>2021-03-21T15:26:15Z</time>
      </trkpt>
      <trkpt lat="49.42787" lon="1.16599">
        <ele>55.6</ele>
        <time>2021-03-21T15:26:17Z</time>
      </trkpt>
      <trkpt lat="49.42797" lon="1.16599">
        <ele>56.8</ele>
        <time>2021-03-21T15:26:19Z</time>
      </trkpt>
      <trkpt lat="49.42801" lon="1.16598">
        <ele>57.3</ele>
        <time>2021-03-21T15:26:20Z</time>
      </trkpt>
      <trkpt lat="49.4281" lon="1.16599">
        <ele>58.1</ele>
        <time>2021-03-21T15:26:22Z</time>
      </trkpt>
      <trkpt lat="49.42819" lon="1.16607">
        <ele>58.4</ele>
        <time>2021-03-21T15:26:24Z</time>
      </trkpt>
      <trkpt lat="49.42822" lon="1.16611">
        <ele>58.3</ele>
        <time>2021-03-21T15:26:25Z</time>
      </trkpt>
      <trkpt lat="49.42825" lon="1.16615">
        <ele>58.2</ele>
        <time>2021-03-21T15:26:26Z</time>
      </trkpt>
      <trkpt lat="49.42832" lon="1.16625">
        <ele>57.8</ele>
        <time>2021-03-21T15:26:28Z</time>
      </trkpt>
      <trkpt lat="49.42835" lon="1.1663">
        <ele>57.6</ele>
        <time>2021-03-21T15:26:29Z</time>
      </trkpt>
      <trkpt lat="49.42843" lon="1.16643">
        <ele>56.4</ele>
        <time>2021-03-21T15:26:31Z</time>
      </trkpt>
      <trkpt lat="49.42848" lon="1.16651">
        <ele>55.6</ele>
        <time>2021-03-21T15:26:32Z</time>
      </trkpt>
      <trkpt lat="49.42858" lon="1.16665">
        <ele>54.2</ele>
        <time>2021-03-21T15:26:34Z</time>
      </trkpt>
      <trkpt lat="49.42861" lon="1.16671">
        <ele>53.7</ele>
        <time>2021-03-21T15:26:35Z</time>
      </trkpt>
      <trkpt lat="49.42866" lon="1.16673">
        <ele>53.3</ele>
        <time>2021-03-21T15:26:36Z</time>
      </trkpt>
      <trkpt lat="49.42876" lon="1.16683">
        <ele>51.3</ele>
        <time>2021-03-21T15:26:38Z</time>
      </trkpt>
      <trkpt lat="49.42878" lon="1.1669">
        <ele>50.9</ele>
        <time>2021-03-21T15:26:39Z</time>
      </trkpt>
      <trkpt lat="49.42878" lon="1.16698">
        <ele>50.5</ele>
        <time>2021-03-21T15:26:40Z</time>
      </trkpt>
      <trkpt lat="49.4288" lon="1.16717">
        <ele>49.5</ele>
        <time>2021-03-21T15:26:42Z</time>
      </trkpt>
      <trkpt lat="49.42879" lon="1.16728">
        <ele>49</ele>
        <time>2021-03-21T15:26:43Z</time>
      </trkpt>
      <trkpt lat="49.42879" lon="1.16739">
        <ele>48.4</ele>
        <time>2021-03-21T15:26:44Z</time>
      </trkpt>
      <trkpt lat="49.42878" lon="1.16761">
        <ele>47.3</ele>
        <time>2021-03-21T15:26:46Z</time>
      </trkpt>
      <trkpt lat="49.42876" lon="1.16786">
        <ele>46.3</ele>
        <time>2021-03-21T15:26:48Z</time>
      </trkpt>
      <trkpt lat="49.42872" lon="1.16812">
        <ele>45.6</ele>
        <time>2021-03-21T15:26:50Z</time>
      </trkpt>
      <trkpt lat="49.42868" lon="1.16822">
        <ele>45.5</ele>
        <time>2021-03-21T15:26:51Z</time>
      </trkpt>
      <trkpt lat="49.42864" lon="1.16832">
        <ele>45.4</ele>
        <time>2021-03-21T15:26:52Z</time>
      </trkpt>
      <trkpt lat="49.42861" lon="1.16841">
        <ele>45.3</ele>
        <time>2021-03-21T15:26:53Z</time>
      </trkpt>
      <trkpt lat="49.42857" lon="1.16855">
        <ele>45.4</ele>
        <time>2021-03-21T15:26:55Z</time>
      </trkpt>
      <trkpt lat="49.42855" lon="1.16861">
        <ele>45.4</ele>
        <time>2021-03-21T15:26:56Z</time>
      </trkpt>
      <trkpt lat="49.42852" lon="1.16866">
        <ele>45.4</ele>
        <time>2021-03-21T15:26:57Z</time>
      </trkpt>
      <trkpt lat="49.42846" lon="1.16878">
        <ele>45.5</ele>
        <time>2021-03-21T15:26:59Z</time>
      </trkpt>
      <trkpt lat="49.42841" lon="1.16891">
        <ele>45.6</ele>
        <time>2021-03-21T15:27:01Z</time>
      </trkpt>
      <trkpt lat="49.42839" lon="1.16896">
        <ele>45.6</ele>
        <time>2021-03-21T15:27:02Z</time>
      </trkpt>
      <trkpt lat="49.42837" lon="1.169">
        <ele>45.7</ele>
        <time>2021-03-21T15:27:03Z</time>
      </trkpt>
      <trkpt lat="49.42835" lon="1.16904">
        <ele>45.7</ele>
        <time>2021-03-21T15:27:04Z</time>
      </trkpt>
      <trkpt lat="49.42831" lon="1.16912">
        <ele>45.9</ele>
        <time>2021-03-21T15:27:06Z</time>
      </trkpt>
      <trkpt lat="49.42828" lon="1.16919">
        <ele>46</ele>
        <time>2021-03-21T15:27:08Z</time>
      </trkpt>
      <trkpt lat="49.42827" lon="1.1692">
        <ele>46</ele>
        <time>2021-03-21T15:27:09Z</time>
      </trkpt>
      <trkpt lat="49.42827" lon="1.16921">
        <ele>46</ele>
        <time>2021-03-21T15:27:11Z</time>
      </trkpt>
      <trkpt lat="49.42827" lon="1.16921">
        <ele>46</ele>
        <time>2021-03-21T15:27:13Z</time>
      </trkpt>
      <trkpt lat="49.42827" lon="1.16921">
        <ele>46</ele>
        <time>2021-03-21T15:27:14Z</time>
      </trkpt>
      <trkpt lat="49.42827" lon="1.16921">
        <ele>46</ele>
        <time>2021-03-21T15:27:16Z</time>
      </trkpt>
      <trkpt lat="49.42827" lon="1.16921">
        <ele>46</ele>
        <time>2021-03-21T15:27:18Z</time>
      </trkpt>
      <trkpt lat="49.42827" lon="1.16921">
        <ele>46</ele>
        <time>2021-03-21T15:27:20Z</time>
      </trkpt>
      <trkpt lat="49.42821" lon="1.16918">
        <ele>46.3</ele>
        <time>2021-03-21T15:27:30Z</time>
      </trkpt>
      <trkpt lat="49.42819" lon="1.16917">
        <ele>46.5</ele>
        <time>2021-03-21T15:27:31Z</time>
      </trkpt>
      <trkpt lat="49.42815" lon="1.16913">
        <ele>46.9</ele>
        <time>2021-03-21T15:27:33Z</time>
      </trkpt>
      <trkpt lat="49.42813" lon="1.16911">
        <ele>47</ele>
        <time>2021-03-21T15:27:34Z</time>
      </trkpt>
      <trkpt lat="49.4281" lon="1.16907">
        <ele>47.3</ele>
        <time>2021-03-21T15:27:36Z</time>
      </trkpt>
      <trkpt lat="49.42806" lon="1.16903">
        <ele>47.6</ele>
        <time>2021-03-21T15:27:38Z</time>
      </trkpt>
      <trkpt lat="49.42802" lon="1.169">
        <ele>47.9</ele>
        <time>2021-03-21T15:27:40Z</time>
      </trkpt>
      <trkpt lat="49.42801" lon="1.16899">
        <ele>48.1</ele>
        <time>2021-03-21T15:27:41Z</time>
      </trkpt>
      <trkpt lat="49.42797" lon="1.16897">
        <ele>48.3</ele>
        <time>2021-03-21T15:27:43Z</time>
      </trkpt>
      <trkpt lat="49.42795" lon="1.16893">
        <ele>48.6</ele>
        <time>2021-03-21T15:27:45Z</time>
      </trkpt>
      <trkpt lat="49.4279" lon="1.16889">
        <ele>49.1</ele>
        <time>2021-03-21T15:27:47Z</time>
      </trkpt>
      <trkpt lat="49.42789" lon="1.16887">
        <ele>49.3</ele>
        <time>2021-03-21T15:27:48Z</time>
      </trkpt>
      <trkpt lat="49.42788" lon="1.16885">
        <ele>49.4</ele>
        <time>2021-03-21T15:27:49Z</time>
      </trkpt>
      <trkpt lat="49.42785" lon="1.16881">
        <ele>49.9</ele>
        <time>2021-03-21T15:27:51Z</time>
      </trkpt>
      <trkpt lat="49.42781" lon="1.16876">
        <ele>50.4</ele>
        <time>2021-03-21T15:27:53Z</time>
      </trkpt>
      <trkpt lat="49.4278" lon="1.16875">
        <ele>50.7</ele>
        <time>2021-03-21T15:27:54Z</time>
      </trkpt>
      <trkpt lat="49.42777" lon="1.16874">
        <ele>51</ele>
        <time>2021-03-21T15:27:56Z</time>
      </trkpt>
      <trkpt lat="49.42774" lon="1.16872">
        <ele>51.4</ele>
        <time>2021-03-21T15:27:58Z</time>
      </trkpt>
      <trkpt lat="49.42773" lon="1.1687">
        <ele>51.6</ele>
        <time>2021-03-21T15:27:59Z</time>
      </trkpt>
      <trkpt lat="49.42771" lon="1.16869">
        <ele>51.8</ele>
        <time>2021-03-21T15:28:01Z</time>
      </trkpt>
      <trkpt lat="49.4277" lon="1.16868">
        <ele>52</ele>
        <time>2021-03-21T15:28:02Z</time>
      </trkpt>
      <trkpt lat="49.42768" lon="1.16866">
        <ele>52.2</ele>
        <time>2021-03-21T15:28:03Z</time>
      </trkpt>
      <trkpt lat="49.42767" lon="1.16865">
        <ele>52.5</ele>
        <time>2021-03-21T15:28:04Z</time>
      </trkpt>
      <trkpt lat="49.42766" lon="1.16864">
        <ele>52.7</ele>
        <time>2021-03-21T15:28:17Z</time>
      </trkpt>
      <trkpt lat="49.42764" lon="1.16862">
        <ele>52.9</ele>
        <time>2021-03-21T15:28:18Z</time>
      </trkpt>
      <trkpt lat="49.42762" lon="1.16861">
        <ele>53.2</ele>
        <time>2021-03-21T15:28:19Z</time>
      </trkpt>
      <trkpt lat="49.42756" lon="1.16858">
        <ele>54</ele>
        <time>2021-03-21T15:28:21Z</time>
      </trkpt>
      <trkpt lat="49.42753" lon="1.16857">
        <ele>54.4</ele>
        <time>2021-03-21T15:28:22Z</time>
      </trkpt>
      <trkpt lat="49.42748" lon="1.16854">
        <ele>55.1</ele>
        <time>2021-03-21T15:28:24Z</time>
      </trkpt>
      <trkpt lat="49.42744" lon="1.16852">
        <ele>55.6</ele>
        <time>2021-03-21T15:28:26Z</time>
      </trkpt>
      <trkpt lat="49.42742" lon="1.16851">
        <ele>55.8</ele>
        <time>2021-03-21T15:28:27Z</time>
      </trkpt>
      <trkpt lat="49.42738" lon="1.16849">
        <ele>56.4</ele>
        <time>2021-03-21T15:28:29Z</time>
      </trkpt>
      <trkpt lat="49.42735" lon="1.16846">
        <ele>56.9</ele>
        <time>2021-03-21T15:28:30Z</time>
      </trkpt>
      <trkpt lat="49.42733" lon="1.16844">
        <ele>57.2</ele>
        <time>2021-03-21T15:28:31Z</time>
      </trkpt>
      <trkpt lat="49.42728" lon="1.16842">
        <ele>58</ele>
        <time>2021-03-21T15:28:33Z</time>
      </trkpt>
      <trkpt lat="49.42726" lon="1.16841">
        <ele>58.2</ele>
        <time>2021-03-21T15:28:34Z</time>
      </trkpt>
      <trkpt lat="49.42724" lon="1.1684">
        <ele>58.5</ele>
        <time>2021-03-21T15:28:35Z</time>
      </trkpt>
      <trkpt lat="49.42721" lon="1.1684">
        <ele>59</ele>
        <time>2021-03-21T15:28:37Z</time>
      </trkpt>
      <trkpt lat="49.42718" lon="1.1684">
        <ele>59.4</ele>
        <time>2021-03-21T15:28:39Z</time>
      </trkpt>
      <trkpt lat="49.42716" lon="1.1684">
        <ele>59.6</ele>
        <time>2021-03-21T15:28:40Z</time>
      </trkpt>
      <trkpt lat="49.42715" lon="1.1684">
        <ele>59.8</ele>
        <time>2021-03-21T15:28:41Z</time>
      </trkpt>
      <trkpt lat="49.42712" lon="1.16842">
        <ele>60.3</ele>
        <time>2021-03-21T15:28:43Z</time>
      </trkpt>
      <trkpt lat="49.42711" lon="1.16843">
        <ele>60.4</ele>
        <time>2021-03-21T15:28:44Z</time>
      </trkpt>
      <trkpt lat="49.42708" lon="1.16846">
        <ele>60.9</ele>
        <time>2021-03-21T15:28:46Z</time>
      </trkpt>
      <trkpt lat="49.42705" lon="1.1685">
        <ele>61.4</ele>
        <time>2021-03-21T15:28:48Z</time>
      </trkpt>
      <trkpt lat="49.42702" lon="1.16853">
        <ele>61.8</ele>
        <time>2021-03-21T15:28:50Z</time>
      </trkpt>
      <trkpt lat="49.42701" lon="1.16854">
        <ele>62</ele>
        <time>2021-03-21T15:28:51Z</time>
      </trkpt>
      <trkpt lat="49.42698" lon="1.16857">
        <ele>62.3</ele>
        <time>2021-03-21T15:28:53Z</time>
      </trkpt>
      <trkpt lat="49.42695" lon="1.16858">
        <ele>62.7</ele>
        <time>2021-03-21T15:28:54Z</time>
      </trkpt>
      <trkpt lat="49.42694" lon="1.16859">
        <ele>62.8</ele>
        <time>2021-03-21T15:28:55Z</time>
      </trkpt>
      <trkpt lat="49.4269" lon="1.1686">
        <ele>63.4</ele>
        <time>2021-03-21T15:28:57Z</time>
      </trkpt>
      <trkpt lat="49.42687" lon="1.16863">
        <ele>63.8</ele>
        <time>2021-03-21T15:28:59Z</time>
      </trkpt>
      <trkpt lat="49.42686" lon="1.16864">
        <ele>64</ele>
        <time>2021-03-21T15:29:00Z</time>
      </trkpt>
      <trkpt lat="49.42683" lon="1.16867">
        <ele>64.4</ele>
        <time>2021-03-21T15:29:02Z</time>
      </trkpt>
      <trkpt lat="49.42679" lon="1.16868">
        <ele>64.9</ele>
        <time>2021-03-21T15:29:04Z</time>
      </trkpt>
      <trkpt lat="49.42676" lon="1.16871">
        <ele>65.4</ele>
        <time>2021-03-21T15:29:06Z</time>
      </trkpt>
      <trkpt lat="49.42673" lon="1.16874">
        <ele>66</ele>
        <time>2021-03-21T15:29:08Z</time>
      </trkpt>
      <trkpt lat="49.4267" lon="1.16873">
        <ele>66.6</ele>
        <time>2021-03-21T15:29:10Z</time>
      </trkpt>
      <trkpt lat="49.42668" lon="1.16873">
        <ele>66.9</ele>
        <time>2021-03-21T15:29:11Z</time>
      </trkpt>
      <trkpt lat="49.42665" lon="1.16873">
        <ele>67.4</ele>
        <time>2021-03-21T15:29:13Z</time>
      </trkpt>
      <trkpt lat="49.42663" lon="1.16871">
        <ele>67.8</ele>
        <time>2021-03-21T15:29:15Z</time>
      </trkpt>
      <trkpt lat="49.42662" lon="1.16871">
        <ele>67.9</ele>
        <time>2021-03-21T15:29:16Z</time>
      </trkpt>
      <trkpt lat="49.42661" lon="1.1687">
        <ele>68.2</ele>
        <time>2021-03-21T15:29:18Z</time>
      </trkpt>
      <trkpt lat="49.4266" lon="1.1687">
        <ele>68.3</ele>
        <time>2021-03-21T15:29:19Z</time>
      </trkpt>
      <trkpt lat="49.42658" lon="1.16869">
        <ele>68.7</ele>
        <time>2021-03-21T15:29:21Z</time>
      </trkpt>
      <trkpt lat="49.42656" lon="1.16869">
        <ele>69</ele>
        <time>2021-03-21T15:29:23Z</time>
      </trkpt>
      <trkpt lat="49.42655" lon="1.16868">
        <ele>69.3</ele>
        <time>2021-03-21T15:29:25Z</time>
      </trkpt>
      <trkpt lat="49.42654" lon="1.16868">
        <ele>69.4</ele>
        <time>2021-03-21T15:29:26Z</time>
      </trkpt>
      <trkpt lat="49.42653" lon="1.16867">
        <ele>69.7</ele>
        <time>2021-03-21T15:29:28Z</time>
      </trkpt>
      <trkpt lat="49.42652" lon="1.16867">
        <ele>69.8</ele>
        <time>2021-03-21T15:29:29Z</time>
      </trkpt>
      <trkpt lat="49.42651" lon="1.16867">
        <ele>70</ele>
        <time>2021-03-21T15:29:30Z</time>
      </trkpt>
      <trkpt lat="49.42651" lon="1.16866">
        <ele>70.1</ele>
        <time>2021-03-21T15:29:31Z</time>
      </trkpt>
      <trkpt lat="49.4265" lon="1.16866">
        <ele>70.3</ele>
        <time>2021-03-21T15:29:32Z</time>
      </trkpt>
      <trkpt lat="49.42648" lon="1.16864">
        <ele>70.6</ele>
        <time>2021-03-21T15:29:34Z</time>
      </trkpt>
      <trkpt lat="49.42647" lon="1.16863">
        <ele>70.8</ele>
        <time>2021-03-21T15:29:36Z</time>
      </trkpt>
      <trkpt lat="49.42645" lon="1.16864">
        <ele>71.1</ele>
        <time>2021-03-21T15:29:37Z</time>
      </trkpt>
      <trkpt lat="49.42644" lon="1.16864">
        <ele>71.3</ele>
        <time>2021-03-21T15:29:39Z</time>
      </trkpt>
      <trkpt lat="49.42645" lon="1.16865">
        <ele>71.4</ele>
        <time>2021-03-21T15:29:41Z</time>
      </trkpt>
      <trkpt lat="49.42645" lon="1.16865">
        <ele>71.5</ele>
        <time>2021-03-21T15:29:42Z</time>
      </trkpt>
      <trkpt lat="49.42645" lon="1.16865">
        <ele>71.5</ele>
        <time>2021-03-21T15:29:43Z</time>
      </trkpt>
      <trkpt lat="49.42645" lon="1.16865">
        <ele>71.6</ele>
        <time>2021-03-21T15:29:45Z</time>
      </trkpt>
      <trkpt lat="49.42643" lon="1.16863">
        <ele>71.9</ele>
        <time>2021-03-21T15:29:47Z</time>
      </trkpt>
      <trkpt lat="49.42642" lon="1.16862">
        <ele>72.1</ele>
        <time>2021-03-21T15:29:48Z</time>
      </trkpt>
      <trkpt lat="49.42641" lon="1.16862">
        <ele>72.3</ele>
        <time>2021-03-21T15:29:49Z</time>
      </trkpt>
      <trkpt lat="49.42639" lon="1.16862">
        <ele>72.6</ele>
        <time>2021-03-21T15:29:51Z</time>
      </trkpt>
      <trkpt lat="49.42639" lon="1.16862">
        <ele>72.7</ele>
        <time>2021-03-21T15:29:52Z</time>
      </trkpt>
      <trkpt lat="49.42637" lon="1.16862">
        <ele>72.9</ele>
        <time>2021-03-21T15:29:54Z</time>
      </trkpt>
      <trkpt lat="49.42637" lon="1.16861">
        <ele>73</ele>
        <time>2021-03-21T15:29:55Z</time>
      </trkpt>
      <trkpt lat="49.42636" lon="1.16861">
        <ele>73.2</ele>
        <time>2021-03-21T15:29:57Z</time>
      </trkpt>
      <trkpt lat="49.42635" lon="1.16861">
        <ele>73.3</ele>
        <time>2021-03-21T15:29:58Z</time>
      </trkpt>
      <trkpt lat="49.42634" lon="1.16862">
        <ele>73.5</ele>
        <time>2021-03-21T15:30:00Z</time>
      </trkpt>
      <trkpt lat="49.42632" lon="1.16862">
        <ele>73.7</ele>
        <time>2021-03-21T15:30:02Z</time>
      </trkpt>
      <trkpt lat="49.42632" lon="1.16862">
        <ele>73.8</ele>
        <time>2021-03-21T15:30:03Z</time>
      </trkpt>
      <trkpt lat="49.4263" lon="1.16861">
        <ele>74.1</ele>
        <time>2021-03-21T15:30:05Z</time>
      </trkpt>
      <trkpt lat="49.42628" lon="1.1686">
        <ele>74.4</ele>
        <time>2021-03-21T15:30:07Z</time>
      </trkpt>
      <trkpt lat="49.42627" lon="1.16859">
        <ele>74.6</ele>
        <time>2021-03-21T15:30:08Z</time>
      </trkpt>
      <trkpt lat="49.42626" lon="1.16859">
        <ele>74.8</ele>
        <time>2021-03-21T15:30:09Z</time>
      </trkpt>
      <trkpt lat="49.42626" lon="1.16858">
        <ele>74.9</ele>
        <time>2021-03-21T15:30:10Z</time>
      </trkpt>
      <trkpt lat="49.42623" lon="1.16856">
        <ele>75.3</ele>
        <time>2021-03-21T15:30:12Z</time>
      </trkpt>
      <trkpt lat="49.42622" lon="1.16856">
        <ele>75.5</ele>
        <time>2021-03-21T15:30:13Z</time>
      </trkpt>
      <trkpt lat="49.42618" lon="1.16853">
        <ele>76.2</ele>
        <time>2021-03-21T15:30:15Z</time>
      </trkpt>
      <trkpt lat="49.42616" lon="1.16851">
        <ele>76.7</ele>
        <time>2021-03-21T15:30:17Z</time>
      </trkpt>
      <trkpt lat="49.42613" lon="1.1685">
        <ele>77.1</ele>
        <time>2021-03-21T15:30:19Z</time>
      </trkpt>
      <trkpt lat="49.42612" lon="1.1685">
        <ele>77.4</ele>
        <time>2021-03-21T15:30:21Z</time>
      </trkpt>
      <trkpt lat="49.4261" lon="1.16849">
        <ele>77.7</ele>
        <time>2021-03-21T15:30:23Z</time>
      </trkpt>
      <trkpt lat="49.42609" lon="1.16849">
        <ele>77.9</ele>
        <time>2021-03-21T15:30:24Z</time>
      </trkpt>
      <trkpt lat="49.42608" lon="1.16849">
        <ele>78</ele>
        <time>2021-03-21T15:30:26Z</time>
      </trkpt>
      <trkpt lat="49.42608" lon="1.16849">
        <ele>78.1</ele>
        <time>2021-03-21T15:30:27Z</time>
      </trkpt>
      <trkpt lat="49.42607" lon="1.16848">
        <ele>78.3</ele>
        <time>2021-03-21T15:30:29Z</time>
      </trkpt>
      <trkpt lat="49.42606" lon="1.16848">
        <ele>78.5</ele>
        <time>2021-03-21T15:30:30Z</time>
      </trkpt>
      <trkpt lat="49.42603" lon="1.16848">
        <ele>79</ele>
        <time>2021-03-21T15:30:32Z</time>
      </trkpt>
      <trkpt lat="49.42602" lon="1.16848">
        <ele>79.1</ele>
        <time>2021-03-21T15:30:33Z</time>
      </trkpt>
      <trkpt lat="49.42601" lon="1.16847">
        <ele>79.3</ele>
        <time>2021-03-21T15:30:34Z</time>
      </trkpt>
      <trkpt lat="49.42598" lon="1.16847">
        <ele>79.9</ele>
        <time>2021-03-21T15:30:36Z</time>
      </trkpt>
      <trkpt lat="49.42593" lon="1.16847">
        <ele>80.6</ele>
        <time>2021-03-21T15:30:38Z</time>
      </trkpt>
      <trkpt lat="49.42589" lon="1.16846">
        <ele>81.3</ele>
        <time>2021-03-21T15:30:40Z</time>
      </trkpt>
      <trkpt lat="49.42587" lon="1.16845">
        <ele>81.6</ele>
        <time>2021-03-21T15:30:41Z</time>
      </trkpt>
      <trkpt lat="49.42585" lon="1.16845">
        <ele>81.9</ele>
        <time>2021-03-21T15:30:43Z</time>
      </trkpt>
      <trkpt lat="49.42584" lon="1.16845">
        <ele>82.1</ele>
        <time>2021-03-21T15:30:44Z</time>
      </trkpt>
      <trkpt lat="49.42584" lon="1.16842">
        <ele>82.3</ele>
        <time>2021-03-21T15:30:46Z</time>
      </trkpt>
      <trkpt lat="49.42584" lon="1.1684">
        <ele>82.6</ele>
        <time>2021-03-21T15:30:48Z</time>
      </trkpt>
      <trkpt lat="49.42584" lon="1.16838">
        <ele>82.8</ele>
        <time>2021-03-21T15:30:50Z</time>
      </trkpt>
      <trkpt lat="49.42583" lon="1.16836">
        <ele>83.1</ele>
        <time>2021-03-21T15:30:52Z</time>
      </trkpt>
      <trkpt lat="49.42582" lon="1.16834">
        <ele>83.3</ele>
        <time>2021-03-21T15:30:53Z</time>
      </trkpt>
      <trkpt lat="49.42581" lon="1.16833">
        <ele>83.6</ele>
        <time>2021-03-21T15:30:55Z</time>
      </trkpt>
      <trkpt lat="49.42579" lon="1.16831">
        <ele>83.9</ele>
        <time>2021-03-21T15:30:57Z</time>
      </trkpt>
      <trkpt lat="49.42578" lon="1.16831">
        <ele>84</ele>
        <time>2021-03-21T15:30:58Z</time>
      </trkpt>
      <trkpt lat="49.42577" lon="1.16831">
        <ele>84.2</ele>
        <time>2021-03-21T15:31:00Z</time>
      </trkpt>
      <trkpt lat="49.42575" lon="1.16831">
        <ele>84.4</ele>
        <time>2021-03-21T15:31:02Z</time>
      </trkpt>
      <trkpt lat="49.42574" lon="1.1683">
        <ele>84.6</ele>
        <time>2021-03-21T15:31:04Z</time>
      </trkpt>
      <trkpt lat="49.42572" lon="1.1683">
        <ele>84.9</ele>
        <time>2021-03-21T15:31:06Z</time>
      </trkpt>
      <trkpt lat="49.42571" lon="1.16829">
        <ele>85.1</ele>
        <time>2021-03-21T15:31:08Z</time>
      </trkpt>
      <trkpt lat="49.42571" lon="1.16829">
        <ele>85.1</ele>
        <time>2021-03-21T15:31:09Z</time>
      </trkpt>
      <trkpt lat="49.42571" lon="1.16829">
        <ele>85.1</ele>
        <time>2021-03-21T15:31:11Z</time>
      </trkpt>
      <trkpt lat="49.42571" lon="1.16829">
        <ele>85.2</ele>
        <time>2021-03-21T15:31:12Z</time>
      </trkpt>
      <trkpt lat="49.42571" lon="1.16829">
        <ele>85.2</ele>
        <time>2021-03-21T15:31:13Z</time>
      </trkpt>
      <trkpt lat="49.42571" lon="1.16829">
        <ele>85.2</ele>
        <time>2021-03-21T15:31:15Z</time>
      </trkpt>
      <trkpt lat="49.42571" lon="1.16829">
        <ele>85.2</ele>
        <time>2021-03-21T15:31:16Z</time>
      </trkpt>
      <trkpt lat="49.42571" lon="1.16829">
        <ele>85.2</ele>
        <time>2021-03-21T15:31:18Z</time>
      </trkpt>
      <trkpt lat="49.42571" lon="1.16828">
        <ele>85.3</ele>
        <time>2021-03-21T15:31:20Z</time>
      </trkpt>
      <trkpt lat="49.42568" lon="1.16827">
        <ele>85.6</ele>
        <time>2021-03-21T15:31:25Z</time>
      </trkpt>
      <trkpt lat="49.42567" lon="1.16829">
        <ele>85.8</ele>
        <time>2021-03-21T15:31:27Z</time>
      </trkpt>
      <trkpt lat="49.42566" lon="1.16829">
        <ele>85.9</ele>
        <time>2021-03-21T15:31:28Z</time>
      </trkpt>
      <trkpt lat="49.42565" lon="1.16829">
        <ele>86.1</ele>
        <time>2021-03-21T15:31:30Z</time>
      </trkpt>
      <trkpt lat="49.42563" lon="1.16828">
        <ele>86.3</ele>
        <time>2021-03-21T15:31:32Z</time>
      </trkpt>
      <trkpt lat="49.42562" lon="1.16827">
        <ele>86.4</ele>
        <time>2021-03-21T15:31:33Z</time>
      </trkpt>
      <trkpt lat="49.42561" lon="1.16826">
        <ele>86.6</ele>
        <time>2021-03-21T15:31:34Z</time>
      </trkpt>
      <trkpt lat="49.42559" lon="1.16823">
        <ele>87</ele>
        <time>2021-03-21T15:31:36Z</time>
      </trkpt>
      <trkpt lat="49.42558" lon="1.1682">
        <ele>87.2</ele>
        <time>2021-03-21T15:31:37Z</time>
      </trkpt>
      <trkpt lat="49.42557" lon="1.16812">
        <ele>87.8</ele>
        <time>2021-03-21T15:31:39Z</time>
      </trkpt>
      <trkpt lat="49.42554" lon="1.16807">
        <ele>88.3</ele>
        <time>2021-03-21T15:31:41Z</time>
      </trkpt>
      <trkpt lat="49.42551" lon="1.16802">
        <ele>88.8</ele>
        <time>2021-03-21T15:31:43Z</time>
      </trkpt>
      <trkpt lat="49.42547" lon="1.16798">
        <ele>89.4</ele>
        <time>2021-03-21T15:31:45Z</time>
      </trkpt>
      <trkpt lat="49.42544" lon="1.16795">
        <ele>89.9</ele>
        <time>2021-03-21T15:31:46Z</time>
      </trkpt>
      <trkpt lat="49.42543" lon="1.16794">
        <ele>90.1</ele>
        <time>2021-03-21T15:31:47Z</time>
      </trkpt>
      <trkpt lat="49.4254" lon="1.16791">
        <ele>90.7</ele>
        <time>2021-03-21T15:31:49Z</time>
      </trkpt>
      <trkpt lat="49.42537" lon="1.16788">
        <ele>91.2</ele>
        <time>2021-03-21T15:31:50Z</time>
      </trkpt>
      <trkpt lat="49.42536" lon="1.16787">
        <ele>91.4</ele>
        <time>2021-03-21T15:31:51Z</time>
      </trkpt>
      <trkpt lat="49.42533" lon="1.16784">
        <ele>92</ele>
        <time>2021-03-21T15:31:53Z</time>
      </trkpt>
      <trkpt lat="49.42532" lon="1.16783">
        <ele>92.3</ele>
        <time>2021-03-21T15:31:54Z</time>
      </trkpt>
      <trkpt lat="49.42528" lon="1.16781">
        <ele>93</ele>
        <time>2021-03-21T15:31:56Z</time>
      </trkpt>
      <trkpt lat="49.42525" lon="1.16782">
        <ele>93.5</ele>
        <time>2021-03-21T15:31:58Z</time>
      </trkpt>
      <trkpt lat="49.42524" lon="1.16784">
        <ele>93.8</ele>
        <time>2021-03-21T15:31:59Z</time>
      </trkpt>
      <trkpt lat="49.42523" lon="1.16786">
        <ele>94.2</ele>
        <time>2021-03-21T15:32:01Z</time>
      </trkpt>
      <trkpt lat="49.42521" lon="1.16788">
        <ele>94.6</ele>
        <time>2021-03-21T15:32:02Z</time>
      </trkpt>
      <trkpt lat="49.4252" lon="1.16789">
        <ele>94.7</ele>
        <time>2021-03-21T15:32:03Z</time>
      </trkpt>
      <trkpt lat="49.4252" lon="1.1679">
        <ele>94.9</ele>
        <time>2021-03-21T15:32:04Z</time>
      </trkpt>
      <trkpt lat="49.42517" lon="1.16792">
        <ele>95.4</ele>
        <time>2021-03-21T15:32:06Z</time>
      </trkpt>
      <trkpt lat="49.42516" lon="1.16793">
        <ele>95.6</ele>
        <time>2021-03-21T15:32:07Z</time>
      </trkpt>
      <trkpt lat="49.42514" lon="1.16794">
        <ele>96</ele>
        <time>2021-03-21T15:32:09Z</time>
      </trkpt>
      <trkpt lat="49.42513" lon="1.16795">
        <ele>96.2</ele>
        <time>2021-03-21T15:32:10Z</time>
      </trkpt>
      <trkpt lat="49.42512" lon="1.16796">
        <ele>96.4</ele>
        <time>2021-03-21T15:32:11Z</time>
      </trkpt>
      <trkpt lat="49.4251" lon="1.16797">
        <ele>96.7</ele>
        <time>2021-03-21T15:32:13Z</time>
      </trkpt>
      <trkpt lat="49.42508" lon="1.16799">
        <ele>97</ele>
        <time>2021-03-21T15:32:14Z</time>
      </trkpt>
      <trkpt lat="49.42507" lon="1.16799">
        <ele>97.2</ele>
        <time>2021-03-21T15:32:16Z</time>
      </trkpt>
      <trkpt lat="49.42506" lon="1.168">
        <ele>97.4</ele>
        <time>2021-03-21T15:32:17Z</time>
      </trkpt>
      <trkpt lat="49.42504" lon="1.16802">
        <ele>97.7</ele>
        <time>2021-03-21T15:32:19Z</time>
      </trkpt>
      <trkpt lat="49.42503" lon="1.16802">
        <ele>97.9</ele>
        <time>2021-03-21T15:32:20Z</time>
      </trkpt>
      <trkpt lat="49.42502" lon="1.16803">
        <ele>98</ele>
        <time>2021-03-21T15:32:22Z</time>
      </trkpt>
      <trkpt lat="49.42501" lon="1.16804">
        <ele>98.2</ele>
        <time>2021-03-21T15:32:24Z</time>
      </trkpt>
      <trkpt lat="49.425" lon="1.16804">
        <ele>98.3</ele>
        <time>2021-03-21T15:32:25Z</time>
      </trkpt>
      <trkpt lat="49.42499" lon="1.16804">
        <ele>98.5</ele>
        <time>2021-03-21T15:32:26Z</time>
      </trkpt>
      <trkpt lat="49.42497" lon="1.16804">
        <ele>98.7</ele>
        <time>2021-03-21T15:32:28Z</time>
      </trkpt>
      <trkpt lat="49.42496" lon="1.16804">
        <ele>99</ele>
        <time>2021-03-21T15:32:30Z</time>
      </trkpt>
      <trkpt lat="49.42495" lon="1.16805">
        <ele>99.1</ele>
        <time>2021-03-21T15:32:31Z</time>
      </trkpt>
      <trkpt lat="49.42492" lon="1.16805">
        <ele>99.4</ele>
        <time>2021-03-21T15:32:33Z</time>
      </trkpt>
      <trkpt lat="49.42491" lon="1.16804">
        <ele>99.6</ele>
        <time>2021-03-21T15:32:34Z</time>
      </trkpt>
      <trkpt lat="49.4249" lon="1.16804">
        <ele>99.7</ele>
        <time>2021-03-21T15:32:36Z</time>
      </trkpt>
      <trkpt lat="49.42489" lon="1.16804">
        <ele>99.8</ele>
        <time>2021-03-21T15:32:37Z</time>
      </trkpt>
      <trkpt lat="49.42488" lon="1.16803">
        <ele>100</ele>
        <time>2021-03-21T15:32:39Z</time>
      </trkpt>
      <trkpt lat="49.42487" lon="1.16802">
        <ele>100.1</ele>
        <time>2021-03-21T15:32:40Z</time>
      </trkpt>
      <trkpt lat="49.42485" lon="1.168">
        <ele>100.4</ele>
        <time>2021-03-21T15:32:42Z</time>
      </trkpt>
      <trkpt lat="49.42483" lon="1.16798">
        <ele>100.8</ele>
        <time>2021-03-21T15:32:44Z</time>
      </trkpt>
      <trkpt lat="49.4248" lon="1.16796">
        <ele>101.2</ele>
        <time>2021-03-21T15:32:46Z</time>
      </trkpt>
      <trkpt lat="49.42478" lon="1.16794">
        <ele>101.5</ele>
        <time>2021-03-21T15:32:47Z</time>
      </trkpt>
      <trkpt lat="49.42476" lon="1.16793">
        <ele>101.8</ele>
        <time>2021-03-21T15:32:49Z</time>
      </trkpt>
      <trkpt lat="49.42474" lon="1.16792">
        <ele>102</ele>
        <time>2021-03-21T15:32:51Z</time>
      </trkpt>
      <trkpt lat="49.42472" lon="1.16791">
        <ele>102.4</ele>
        <time>2021-03-21T15:32:53Z</time>
      </trkpt>
      <trkpt lat="49.42471" lon="1.1679">
        <ele>102.5</ele>
        <time>2021-03-21T15:32:54Z</time>
      </trkpt>
      <trkpt lat="49.4247" lon="1.16789">
        <ele>102.7</ele>
        <time>2021-03-21T15:32:55Z</time>
      </trkpt>
      <trkpt lat="49.42468" lon="1.16788">
        <ele>103</ele>
        <time>2021-03-21T15:32:57Z</time>
      </trkpt>
      <trkpt lat="49.42467" lon="1.16788">
        <ele>103.1</ele>
        <time>2021-03-21T15:32:58Z</time>
      </trkpt>
      <trkpt lat="49.42466" lon="1.16788">
        <ele>103.3</ele>
        <time>2021-03-21T15:33:00Z</time>
      </trkpt>
      <trkpt lat="49.42466" lon="1.16788">
        <ele>103.3</ele>
        <time>2021-03-21T15:33:01Z</time>
      </trkpt>
      <trkpt lat="49.42465" lon="1.16788">
        <ele>103.4</ele>
        <time>2021-03-21T15:33:02Z</time>
      </trkpt>
      <trkpt lat="49.42463" lon="1.16788">
        <ele>103.6</ele>
        <time>2021-03-21T15:33:04Z</time>
      </trkpt>
      <trkpt lat="49.42462" lon="1.16788">
        <ele>103.9</ele>
        <time>2021-03-21T15:33:06Z</time>
      </trkpt>
      <trkpt lat="49.4246" lon="1.16787">
        <ele>104.1</ele>
        <time>2021-03-21T15:33:08Z</time>
      </trkpt>
      <trkpt lat="49.42459" lon="1.16786">
        <ele>104.3</ele>
        <time>2021-03-21T15:33:10Z</time>
      </trkpt>
      <trkpt lat="49.42457" lon="1.16785">
        <ele>104.7</ele>
        <time>2021-03-21T15:33:12Z</time>
      </trkpt>
      <trkpt lat="49.42454" lon="1.16785">
        <ele>105.1</ele>
        <time>2021-03-21T15:33:14Z</time>
      </trkpt>
      <trkpt lat="49.42451" lon="1.16785">
        <ele>105.6</ele>
        <time>2021-03-21T15:33:16Z</time>
      </trkpt>
      <trkpt lat="49.42449" lon="1.16786">
        <ele>105.8</ele>
        <time>2021-03-21T15:33:17Z</time>
      </trkpt>
      <trkpt lat="49.42446" lon="1.16787">
        <ele>106.2</ele>
        <time>2021-03-21T15:33:19Z</time>
      </trkpt>
      <trkpt lat="49.42442" lon="1.16787">
        <ele>106.9</ele>
        <time>2021-03-21T15:33:21Z</time>
      </trkpt>
      <trkpt lat="49.42438" lon="1.16788">
        <ele>107.5</ele>
        <time>2021-03-21T15:33:23Z</time>
      </trkpt>
      <trkpt lat="49.42437" lon="1.16789">
        <ele>107.7</ele>
        <time>2021-03-21T15:33:24Z</time>
      </trkpt>
      <trkpt lat="49.42435" lon="1.16788">
        <ele>108</ele>
        <time>2021-03-21T15:33:25Z</time>
      </trkpt>
      <trkpt lat="49.42433" lon="1.16788">
        <ele>108.4</ele>
        <time>2021-03-21T15:33:27Z</time>
      </trkpt>
      <trkpt lat="49.4243" lon="1.16788">
        <ele>108.8</ele>
        <time>2021-03-21T15:33:29Z</time>
      </trkpt>
      <trkpt lat="49.42429" lon="1.16788">
        <ele>109</ele>
        <time>2021-03-21T15:33:30Z</time>
      </trkpt>
      <trkpt lat="49.42426" lon="1.16788">
        <ele>109.4</ele>
        <time>2021-03-21T15:33:32Z</time>
      </trkpt>
      <trkpt lat="49.42424" lon="1.16788">
        <ele>109.7</ele>
        <time>2021-03-21T15:33:34Z</time>
      </trkpt>
      <trkpt lat="49.42423" lon="1.16788">
        <ele>109.9</ele>
        <time>2021-03-21T15:33:35Z</time>
      </trkpt>
      <trkpt lat="49.42422" lon="1.16788">
        <ele>110.1</ele>
        <time>2021-03-21T15:33:36Z</time>
      </trkpt>
      <trkpt lat="49.4242" lon="1.16788">
        <ele>110.4</ele>
        <time>2021-03-21T15:33:38Z</time>
      </trkpt>
      <trkpt lat="49.42418" lon="1.16788">
        <ele>110.8</ele>
        <time>2021-03-21T15:33:39Z</time>
      </trkpt>
      <trkpt lat="49.42416" lon="1.16788">
        <ele>111.2</ele>
        <time>2021-03-21T15:33:41Z</time>
      </trkpt>
      <trkpt lat="49.42413" lon="1.16789">
        <ele>111.7</ele>
        <time>2021-03-21T15:33:42Z</time>
      </trkpt>
      <trkpt lat="49.42412" lon="1.16789">
        <ele>111.9</ele>
        <time>2021-03-21T15:33:44Z</time>
      </trkpt>
      <trkpt lat="49.4241" lon="1.16789">
        <ele>112.2</ele>
        <time>2021-03-21T15:33:46Z</time>
      </trkpt>
      <trkpt lat="49.42409" lon="1.16789">
        <ele>112.4</ele>
        <time>2021-03-21T15:33:47Z</time>
      </trkpt>
      <trkpt lat="49.42406" lon="1.1679">
        <ele>112.9</ele>
        <time>2021-03-21T15:33:49Z</time>
      </trkpt>
      <trkpt lat="49.42405" lon="1.1679">
        <ele>113.1</ele>
        <time>2021-03-21T15:33:50Z</time>
      </trkpt>
      <trkpt lat="49.42403" lon="1.1679">
        <ele>113.4</ele>
        <time>2021-03-21T15:33:51Z</time>
      </trkpt>
      <trkpt lat="49.424" lon="1.16789">
        <ele>113.8</ele>
        <time>2021-03-21T15:33:53Z</time>
      </trkpt>
      <trkpt lat="49.42399" lon="1.16788">
        <ele>114</ele>
        <time>2021-03-21T15:33:54Z</time>
      </trkpt>
      <trkpt lat="49.42397" lon="1.16787">
        <ele>114.3</ele>
        <time>2021-03-21T15:33:56Z</time>
      </trkpt>
      <trkpt lat="49.42397" lon="1.16786">
        <ele>114.5</ele>
        <time>2021-03-21T15:33:58Z</time>
      </trkpt>
      <trkpt lat="49.42395" lon="1.16785">
        <ele>114.7</ele>
        <time>2021-03-21T15:33:59Z</time>
      </trkpt>
      <trkpt lat="49.42394" lon="1.16784">
        <ele>114.9</ele>
        <time>2021-03-21T15:34:01Z</time>
      </trkpt>
      <trkpt lat="49.42393" lon="1.16783">
        <ele>115</ele>
        <time>2021-03-21T15:34:02Z</time>
      </trkpt>
      <trkpt lat="49.42393" lon="1.16782">
        <ele>115.2</ele>
        <time>2021-03-21T15:34:03Z</time>
      </trkpt>
      <trkpt lat="49.42392" lon="1.16781">
        <ele>115.3</ele>
        <time>2021-03-21T15:34:04Z</time>
      </trkpt>
      <trkpt lat="49.4239" lon="1.1678">
        <ele>115.6</ele>
        <time>2021-03-21T15:34:06Z</time>
      </trkpt>
      <trkpt lat="49.42389" lon="1.16779">
        <ele>115.7</ele>
        <time>2021-03-21T15:34:07Z</time>
      </trkpt>
      <trkpt lat="49.42388" lon="1.16778">
        <ele>115.9</ele>
        <time>2021-03-21T15:34:08Z</time>
      </trkpt>
      <trkpt lat="49.42385" lon="1.16776">
        <ele>116.3</ele>
        <time>2021-03-21T15:34:10Z</time>
      </trkpt>
      <trkpt lat="49.42384" lon="1.16776">
        <ele>116.5</ele>
        <time>2021-03-21T15:34:11Z</time>
      </trkpt>
      <trkpt lat="49.42382" lon="1.16775">
        <ele>116.7</ele>
        <time>2021-03-21T15:34:12Z</time>
      </trkpt>
      <trkpt lat="49.42381" lon="1.16774">
        <ele>116.9</ele>
        <time>2021-03-21T15:34:13Z</time>
      </trkpt>
      <trkpt lat="49.42377" lon="1.16773">
        <ele>117.4</ele>
        <time>2021-03-21T15:34:15Z</time>
      </trkpt>
      <trkpt lat="49.42376" lon="1.16773">
        <ele>117.6</ele>
        <time>2021-03-21T15:34:16Z</time>
      </trkpt>
      <trkpt lat="49.42372" lon="1.16773">
        <ele>118</ele>
        <time>2021-03-21T15:34:18Z</time>
      </trkpt>
      <trkpt lat="49.4237" lon="1.16772">
        <ele>118.3</ele>
        <time>2021-03-21T15:34:19Z</time>
      </trkpt>
      <trkpt lat="49.42366" lon="1.16771">
        <ele>118.7</ele>
        <time>2021-03-21T15:34:21Z</time>
      </trkpt>
      <trkpt lat="49.42365" lon="1.16771">
        <ele>118.9</ele>
        <time>2021-03-21T15:34:22Z</time>
      </trkpt>
      <trkpt lat="49.42363" lon="1.16769">
        <ele>119.1</ele>
        <time>2021-03-21T15:34:24Z</time>
      </trkpt>
      <trkpt lat="49.42361" lon="1.16768">
        <ele>119.4</ele>
        <time>2021-03-21T15:34:26Z</time>
      </trkpt>
      <trkpt lat="49.42359" lon="1.16768">
        <ele>119.6</ele>
        <time>2021-03-21T15:34:28Z</time>
      </trkpt>
      <trkpt lat="49.42356" lon="1.16766">
        <ele>119.9</ele>
        <time>2021-03-21T15:34:30Z</time>
      </trkpt>
      <trkpt lat="49.42352" lon="1.16765">
        <ele>120.3</ele>
        <time>2021-03-21T15:34:32Z</time>
      </trkpt>
      <trkpt lat="49.42348" lon="1.16764">
        <ele>120.6</ele>
        <time>2021-03-21T15:34:34Z</time>
      </trkpt>
      <trkpt lat="49.42344" lon="1.16764">
        <ele>121</ele>
        <time>2021-03-21T15:34:36Z</time>
      </trkpt>
      <trkpt lat="49.4234" lon="1.16763">
        <ele>121.3</ele>
        <time>2021-03-21T15:34:38Z</time>
      </trkpt>
      <trkpt lat="49.42336" lon="1.16763">
        <ele>121.6</ele>
        <time>2021-03-21T15:34:40Z</time>
      </trkpt>
      <trkpt lat="49.42335" lon="1.16764">
        <ele>121.7</ele>
        <time>2021-03-21T15:34:41Z</time>
      </trkpt>
      <trkpt lat="49.42333" lon="1.16764">
        <ele>121.8</ele>
        <time>2021-03-21T15:34:42Z</time>
      </trkpt>
      <trkpt lat="49.42331" lon="1.16764">
        <ele>121.9</ele>
        <time>2021-03-21T15:34:43Z</time>
      </trkpt>
      <trkpt lat="49.42328" lon="1.16764">
        <ele>122.1</ele>
        <time>2021-03-21T15:34:45Z</time>
      </trkpt>
      <trkpt lat="49.42323" lon="1.16763">
        <ele>122.4</ele>
        <time>2021-03-21T15:34:47Z</time>
      </trkpt>
      <trkpt lat="49.42322" lon="1.16762">
        <ele>122.4</ele>
        <time>2021-03-21T15:34:48Z</time>
      </trkpt>
      <trkpt lat="49.42321" lon="1.16762">
        <ele>122.5</ele>
        <time>2021-03-21T15:34:49Z</time>
      </trkpt>
      <trkpt lat="49.42318" lon="1.16761">
        <ele>122.7</ele>
        <time>2021-03-21T15:34:51Z</time>
      </trkpt>
      <trkpt lat="49.42317" lon="1.16759">
        <ele>122.7</ele>
        <time>2021-03-21T15:34:52Z</time>
      </trkpt>
      <trkpt lat="49.42316" lon="1.16758">
        <ele>122.8</ele>
        <time>2021-03-21T15:34:53Z</time>
      </trkpt>
      <trkpt lat="49.42313" lon="1.16755">
        <ele>123</ele>
        <time>2021-03-21T15:34:55Z</time>
      </trkpt>
      <trkpt lat="49.42308" lon="1.16752">
        <ele>123.2</ele>
        <time>2021-03-21T15:34:57Z</time>
      </trkpt>
      <trkpt lat="49.42305" lon="1.1675">
        <ele>123.4</ele>
        <time>2021-03-21T15:34:59Z</time>
      </trkpt>
      <trkpt lat="49.42303" lon="1.16749">
        <ele>123.4</ele>
        <time>2021-03-21T15:35:00Z</time>
      </trkpt>
      <trkpt lat="49.42299" lon="1.16747">
        <ele>123.6</ele>
        <time>2021-03-21T15:35:02Z</time>
      </trkpt>
      <trkpt lat="49.42296" lon="1.16745">
        <ele>123.8</ele>
        <time>2021-03-21T15:35:03Z</time>
      </trkpt>
      <trkpt lat="49.42295" lon="1.16745">
        <ele>123.9</ele>
        <time>2021-03-21T15:35:04Z</time>
      </trkpt>
      <trkpt lat="49.4229" lon="1.16743">
        <ele>124.2</ele>
        <time>2021-03-21T15:35:06Z</time>
      </trkpt>
      <trkpt lat="49.42285" lon="1.16741">
        <ele>124.5</ele>
        <time>2021-03-21T15:35:08Z</time>
      </trkpt>
      <trkpt lat="49.42279" lon="1.16736">
        <ele>124.9</ele>
        <time>2021-03-21T15:35:10Z</time>
      </trkpt>
      <trkpt lat="49.42276" lon="1.16733">
        <ele>125.1</ele>
        <time>2021-03-21T15:35:11Z</time>
      </trkpt>
      <trkpt lat="49.42274" lon="1.1673">
        <ele>125.2</ele>
        <time>2021-03-21T15:35:12Z</time>
      </trkpt>
      <trkpt lat="49.42269" lon="1.16724">
        <ele>125.5</ele>
        <time>2021-03-21T15:35:14Z</time>
      </trkpt>
      <trkpt lat="49.42266" lon="1.16721">
        <ele>125.7</ele>
        <time>2021-03-21T15:35:15Z</time>
      </trkpt>
      <trkpt lat="49.42263" lon="1.16718">
        <ele>125.8</ele>
        <time>2021-03-21T15:35:16Z</time>
      </trkpt>
      <trkpt lat="49.42258" lon="1.16712">
        <ele>126</ele>
        <time>2021-03-21T15:35:18Z</time>
      </trkpt>
      <trkpt lat="49.42252" lon="1.16706">
        <ele>126.2</ele>
        <time>2021-03-21T15:35:20Z</time>
      </trkpt>
      <trkpt lat="49.4225" lon="1.16702">
        <ele>126.3</ele>
        <time>2021-03-21T15:35:21Z</time>
      </trkpt>
      <trkpt lat="49.42248" lon="1.16698">
        <ele>126.4</ele>
        <time>2021-03-21T15:35:22Z</time>
      </trkpt>
      <trkpt lat="49.42243" lon="1.16691">
        <ele>126.6</ele>
        <time>2021-03-21T15:35:24Z</time>
      </trkpt>
      <trkpt lat="49.4224" lon="1.16683">
        <ele>126.8</ele>
        <time>2021-03-21T15:35:26Z</time>
      </trkpt>
      <trkpt lat="49.42239" lon="1.1668">
        <ele>126.9</ele>
        <time>2021-03-21T15:35:27Z</time>
      </trkpt>
      <trkpt lat="49.42236" lon="1.16673">
        <ele>127</ele>
        <time>2021-03-21T15:35:29Z</time>
      </trkpt>
      <trkpt lat="49.42232" lon="1.16668">
        <ele>127.2</ele>
        <time>2021-03-21T15:35:31Z</time>
      </trkpt>
      <trkpt lat="49.42228" lon="1.16663">
        <ele>127.3</ele>
        <time>2021-03-21T15:35:33Z</time>
      </trkpt>
      <trkpt lat="49.42226" lon="1.16661">
        <ele>127.4</ele>
        <time>2021-03-21T15:35:35Z</time>
      </trkpt>
      <trkpt lat="49.4222" lon="1.16657">
        <ele>127.6</ele>
        <time>2021-03-21T15:35:37Z</time>
      </trkpt>
      <trkpt lat="49.42217" lon="1.16654">
        <ele>127.7</ele>
        <time>2021-03-21T15:35:38Z</time>
      </trkpt>
      <trkpt lat="49.42212" lon="1.16651">
        <ele>127.9</ele>
        <time>2021-03-21T15:35:40Z</time>
      </trkpt>
      <trkpt lat="49.42212" lon="1.16651">
        <ele>127.9</ele>
        <time>2021-03-21T15:35:42Z</time>
      </trkpt>
      <trkpt lat="49.42212" lon="1.16651">
        <ele>127.9</ele>
        <time>2021-03-21T15:35:44Z</time>
      </trkpt>
      <trkpt lat="49.42212" lon="1.16651">
        <ele>127.9</ele>
        <time>2021-03-21T15:35:45Z</time>
      </trkpt>
      <trkpt lat="49.42212" lon="1.16651">
        <ele>127.9</ele>
        <time>2021-03-21T15:35:47Z</time>
      </trkpt>
      <trkpt lat="49.42199" lon="1.16651">
        <ele>128.3</ele>
        <time>2021-03-21T15:35:49Z</time>
      </trkpt>
      <trkpt lat="49.42183" lon="1.16644">
        <ele>128.8</ele>
        <time>2021-03-21T15:35:58Z</time>
      </trkpt>
      <trkpt lat="49.42175" lon="1.16637">
        <ele>129</ele>
        <time>2021-03-21T15:35:59Z</time>
      </trkpt>
      <trkpt lat="49.42172" lon="1.16633">
        <ele>129.1</ele>
        <time>2021-03-21T15:36:00Z</time>
      </trkpt>
      <trkpt lat="49.42164" lon="1.16626">
        <ele>129.5</ele>
        <time>2021-03-21T15:36:02Z</time>
      </trkpt>
      <trkpt lat="49.42157" lon="1.16621">
        <ele>129.7</ele>
        <time>2021-03-21T15:36:04Z</time>
      </trkpt>
      <trkpt lat="49.42154" lon="1.1662">
        <ele>129.8</ele>
        <time>2021-03-21T15:36:05Z</time>
      </trkpt>
      <trkpt lat="49.42152" lon="1.16618">
        <ele>129.9</ele>
        <time>2021-03-21T15:36:06Z</time>
      </trkpt>
      <trkpt lat="49.42146" lon="1.16615">
        <ele>130.1</ele>
        <time>2021-03-21T15:36:08Z</time>
      </trkpt>
      <trkpt lat="49.42142" lon="1.16612">
        <ele>130.3</ele>
        <time>2021-03-21T15:36:09Z</time>
      </trkpt>
      <trkpt lat="49.42133" lon="1.16607">
        <ele>130.6</ele>
        <time>2021-03-21T15:36:11Z</time>
      </trkpt>
      <trkpt lat="49.4213" lon="1.16604">
        <ele>130.8</ele>
        <time>2021-03-21T15:36:12Z</time>
      </trkpt>
      <trkpt lat="49.42126" lon="1.16602">
        <ele>131</ele>
        <time>2021-03-21T15:36:13Z</time>
      </trkpt>
      <trkpt lat="49.42119" lon="1.166">
        <ele>131.2</ele>
        <time>2021-03-21T15:36:15Z</time>
      </trkpt>
      <trkpt lat="49.42112" lon="1.16598">
        <ele>131.5</ele>
        <time>2021-03-21T15:36:16Z</time>
      </trkpt>
      <trkpt lat="49.42107" lon="1.16597">
        <ele>131.7</ele>
        <time>2021-03-21T15:36:17Z</time>
      </trkpt>
      <trkpt lat="49.421" lon="1.166">
        <ele>132</ele>
        <time>2021-03-21T15:36:19Z</time>
      </trkpt>
      <trkpt lat="49.42097" lon="1.16601">
        <ele>132.1</ele>
        <time>2021-03-21T15:36:20Z</time>
      </trkpt>
      <trkpt lat="49.42091" lon="1.16604">
        <ele>132.4</ele>
        <time>2021-03-21T15:36:22Z</time>
      </trkpt>
      <trkpt lat="49.42085" lon="1.16606">
        <ele>132.7</ele>
        <time>2021-03-21T15:36:24Z</time>
      </trkpt>
      <trkpt lat="49.42083" lon="1.16608">
        <ele>132.8</ele>
        <time>2021-03-21T15:36:25Z</time>
      </trkpt>
      <trkpt lat="49.42079" lon="1.1661">
        <ele>133</ele>
        <time>2021-03-21T15:36:26Z</time>
      </trkpt>
      <trkpt lat="49.42074" lon="1.16613">
        <ele>133.2</ele>
        <time>2021-03-21T15:36:28Z</time>
      </trkpt>
      <trkpt lat="49.42071" lon="1.16617">
        <ele>133.3</ele>
        <time>2021-03-21T15:36:30Z</time>
      </trkpt>
      <trkpt lat="49.4207" lon="1.1662">
        <ele>133.4</ele>
        <time>2021-03-21T15:36:31Z</time>
      </trkpt>
      <trkpt lat="49.42066" lon="1.16627">
        <ele>133.6</ele>
        <time>2021-03-21T15:36:33Z</time>
      </trkpt>
      <trkpt lat="49.42063" lon="1.1663">
        <ele>133.7</ele>
        <time>2021-03-21T15:36:34Z</time>
      </trkpt>
      <trkpt lat="49.42061" lon="1.16632">
        <ele>133.8</ele>
        <time>2021-03-21T15:36:35Z</time>
      </trkpt>
      <trkpt lat="49.42058" lon="1.16635">
        <ele>133.9</ele>
        <time>2021-03-21T15:36:37Z</time>
      </trkpt>
      <trkpt lat="49.4205" lon="1.1664">
        <ele>134.2</ele>
        <time>2021-03-21T15:36:38Z</time>
      </trkpt>
      <trkpt lat="49.42045" lon="1.16643">
        <ele>134.4</ele>
        <time>2021-03-21T15:36:39Z</time>
      </trkpt>
      <trkpt lat="49.42036" lon="1.16644">
        <ele>134.8</ele>
        <time>2021-03-21T15:36:41Z</time>
      </trkpt>
      <trkpt lat="49.42028" lon="1.16646">
        <ele>135.2</ele>
        <time>2021-03-21T15:36:43Z</time>
      </trkpt>
      <trkpt lat="49.4202" lon="1.16647">
        <ele>135.5</ele>
        <time>2021-03-21T15:36:45Z</time>
      </trkpt>
      <trkpt lat="49.42011" lon="1.16647">
        <ele>135.9</ele>
        <time>2021-03-21T15:36:47Z</time>
      </trkpt>
      <trkpt lat="49.42004" lon="1.1665">
        <ele>136.1</ele>
        <time>2021-03-21T15:36:49Z</time>
      </trkpt>
      <trkpt lat="49.42001" lon="1.16652">
        <ele>136.2</ele>
        <time>2021-03-21T15:36:50Z</time>
      </trkpt>
      <trkpt lat="49.41996" lon="1.16656">
        <ele>136.4</ele>
        <time>2021-03-21T15:36:52Z</time>
      </trkpt>
      <trkpt lat="49.41993" lon="1.16658">
        <ele>136.4</ele>
        <time>2021-03-21T15:36:53Z</time>
      </trkpt>
      <trkpt lat="49.41992" lon="1.16658">
        <ele>136.5</ele>
        <time>2021-03-21T15:36:54Z</time>
      </trkpt>
      <trkpt lat="49.41988" lon="1.1666">
        <ele>136.5</ele>
        <time>2021-03-21T15:36:55Z</time>
      </trkpt>
      <trkpt lat="49.41986" lon="1.16661">
        <ele>136.6</ele>
        <time>2021-03-21T15:36:56Z</time>
      </trkpt>
      <trkpt lat="49.4198" lon="1.16661">
        <ele>136.7</ele>
        <time>2021-03-21T15:36:58Z</time>
      </trkpt>
      <trkpt lat="49.41977" lon="1.16661">
        <ele>136.8</ele>
        <time>2021-03-21T15:36:59Z</time>
      </trkpt>
      <trkpt lat="49.4197" lon="1.16661">
        <ele>137</ele>
        <time>2021-03-21T15:37:01Z</time>
      </trkpt>
      <trkpt lat="49.41967" lon="1.16661">
        <ele>137.1</ele>
        <time>2021-03-21T15:37:02Z</time>
      </trkpt>
      <trkpt lat="49.41964" lon="1.1666">
        <ele>137.2</ele>
        <time>2021-03-21T15:37:03Z</time>
      </trkpt>
      <trkpt lat="49.41958" lon="1.1666">
        <ele>137.5</ele>
        <time>2021-03-21T15:37:05Z</time>
      </trkpt>
      <trkpt lat="49.41955" lon="1.16661">
        <ele>137.6</ele>
        <time>2021-03-21T15:37:06Z</time>
      </trkpt>
      <trkpt lat="49.41952" lon="1.16662">
        <ele>137.7</ele>
        <time>2021-03-21T15:37:07Z</time>
      </trkpt>
      <trkpt lat="49.41947" lon="1.16662">
        <ele>137.8</ele>
        <time>2021-03-21T15:37:09Z</time>
      </trkpt>
      <trkpt lat="49.41945" lon="1.16662">
        <ele>137.9</ele>
        <time>2021-03-21T15:37:10Z</time>
      </trkpt>
      <trkpt lat="49.4194" lon="1.16661">
        <ele>138.1</ele>
        <time>2021-03-21T15:37:12Z</time>
      </trkpt>
      <trkpt lat="49.41938" lon="1.16662">
        <ele>138.1</ele>
        <time>2021-03-21T15:37:13Z</time>
      </trkpt>
      <trkpt lat="49.41935" lon="1.16662">
        <ele>138.2</ele>
        <time>2021-03-21T15:37:15Z</time>
      </trkpt>
      <trkpt lat="49.41933" lon="1.16663">
        <ele>138.3</ele>
        <time>2021-03-21T15:37:16Z</time>
      </trkpt>
      <trkpt lat="49.4193" lon="1.16664">
        <ele>138.4</ele>
        <time>2021-03-21T15:37:18Z</time>
      </trkpt>
      <trkpt lat="49.41926" lon="1.16665">
        <ele>138.5</ele>
        <time>2021-03-21T15:37:19Z</time>
      </trkpt>
      <trkpt lat="49.41925" lon="1.16665">
        <ele>138.5</ele>
        <time>2021-03-21T15:37:20Z</time>
      </trkpt>
      <trkpt lat="49.41922" lon="1.16665">
        <ele>138.6</ele>
        <time>2021-03-21T15:37:22Z</time>
      </trkpt>
      <trkpt lat="49.41912" lon="1.16666">
        <ele>138.8</ele>
        <time>2021-03-21T15:37:24Z</time>
      </trkpt>
      <trkpt lat="49.41909" lon="1.16666">
        <ele>138.9</ele>
        <time>2021-03-21T15:37:26Z</time>
      </trkpt>
      <trkpt lat="49.41909" lon="1.16667">
        <ele>138.9</ele>
        <time>2021-03-21T15:37:28Z</time>
      </trkpt>
      <trkpt lat="49.41908" lon="1.16667">
        <ele>138.9</ele>
        <time>2021-03-21T15:37:29Z</time>
      </trkpt>
      <trkpt lat="49.41908" lon="1.16667">
        <ele>138.9</ele>
        <time>2021-03-21T15:37:31Z</time>
      </trkpt>
      <trkpt lat="49.41908" lon="1.16667">
        <ele>138.9</ele>
        <time>2021-03-21T15:37:32Z</time>
      </trkpt>
      <trkpt lat="49.41908" lon="1.16667">
        <ele>138.9</ele>
        <time>2021-03-21T15:37:34Z</time>
      </trkpt>
      <trkpt lat="49.41903" lon="1.16666">
        <ele>139</ele>
        <time>2021-03-21T15:37:45Z</time>
      </trkpt>
      <trkpt lat="49.41901" lon="1.16665">
        <ele>139</ele>
        <time>2021-03-21T15:37:46Z</time>
      </trkpt>
      <trkpt lat="49.419" lon="1.16665">
        <ele>139</ele>
        <time>2021-03-21T15:37:47Z</time>
      </trkpt>
      <trkpt lat="49.41895" lon="1.16662">
        <ele>139.1</ele>
        <time>2021-03-21T15:37:49Z</time>
      </trkpt>
      <trkpt lat="49.41892" lon="1.16661">
        <ele>139.1</ele>
        <time>2021-03-21T15:37:50Z</time>
      </trkpt>
      <trkpt lat="49.41887" lon="1.1666">
        <ele>139.1</ele>
        <time>2021-03-21T15:37:52Z</time>
      </trkpt>
      <trkpt lat="49.41885" lon="1.16659">
        <ele>139.2</ele>
        <time>2021-03-21T15:37:53Z</time>
      </trkpt>
      <trkpt lat="49.41878" lon="1.16659">
        <ele>139.2</ele>
        <time>2021-03-21T15:37:55Z</time>
      </trkpt>
      <trkpt lat="49.4187" lon="1.16657">
        <ele>139.3</ele>
        <time>2021-03-21T15:37:57Z</time>
      </trkpt>
      <trkpt lat="49.41866" lon="1.16654">
        <ele>139.4</ele>
        <time>2021-03-21T15:37:58Z</time>
      </trkpt>
      <trkpt lat="49.41863" lon="1.16649">
        <ele>139.5</ele>
        <time>2021-03-21T15:37:59Z</time>
      </trkpt>
      <trkpt lat="49.4186" lon="1.16645">
        <ele>139.5</ele>
        <time>2021-03-21T15:38:00Z</time>
      </trkpt>
      <trkpt lat="49.41855" lon="1.16635">
        <ele>139.7</ele>
        <time>2021-03-21T15:38:02Z</time>
      </trkpt>
      <trkpt lat="49.4185" lon="1.16624">
        <ele>139.9</ele>
        <time>2021-03-21T15:38:04Z</time>
      </trkpt>
      <trkpt lat="49.41846" lon="1.16615">
        <ele>140.3</ele>
        <time>2021-03-21T15:38:06Z</time>
      </trkpt>
      <trkpt lat="49.41846" lon="1.16614">
        <ele>140.3</ele>
        <time>2021-03-21T15:38:08Z</time>
      </trkpt>
      <trkpt lat="49.41846" lon="1.16614">
        <ele>140.3</ele>
        <time>2021-03-21T15:38:09Z</time>
      </trkpt>
      <trkpt lat="49.41846" lon="1.16614">
        <ele>140.2</ele>
        <time>2021-03-21T15:38:11Z</time>
      </trkpt>
      <trkpt lat="49.41846" lon="1.16614">
        <ele>140.2</ele>
        <time>2021-03-21T15:38:13Z</time>
      </trkpt>
      <trkpt lat="49.41846" lon="1.16614">
        <ele>140.2</ele>
        <time>2021-03-21T15:38:15Z</time>
      </trkpt>
      <trkpt lat="49.4184" lon="1.16621">
        <ele>140.1</ele>
        <time>2021-03-21T15:38:22Z</time>
      </trkpt>
      <trkpt lat="49.41833" lon="1.16632">
        <ele>140</ele>
        <time>2021-03-21T15:38:24Z</time>
      </trkpt>
      <trkpt lat="49.4183" lon="1.16639">
        <ele>140</ele>
        <time>2021-03-21T15:38:26Z</time>
      </trkpt>
      <trkpt lat="49.41827" lon="1.16645">
        <ele>140</ele>
        <time>2021-03-21T15:38:28Z</time>
      </trkpt>
      <trkpt lat="49.41824" lon="1.16652">
        <ele>139.9</ele>
        <time>2021-03-21T15:38:30Z</time>
      </trkpt>
      <trkpt lat="49.41822" lon="1.16658">
        <ele>139.9</ele>
        <time>2021-03-21T15:38:32Z</time>
      </trkpt>
      <trkpt lat="49.41821" lon="1.1666">
        <ele>139.9</ele>
        <time>2021-03-21T15:38:33Z</time>
      </trkpt>
      <trkpt lat="49.41819" lon="1.16666">
        <ele>139.9</ele>
        <time>2021-03-21T15:38:35Z</time>
      </trkpt>
      <trkpt lat="49.41818" lon="1.16669">
        <ele>140</ele>
        <time>2021-03-21T15:38:36Z</time>
      </trkpt>
      <trkpt lat="49.41816" lon="1.16674">
        <ele>140</ele>
        <time>2021-03-21T15:38:38Z</time>
      </trkpt>
      <trkpt lat="49.41814" lon="1.1668">
        <ele>140</ele>
        <time>2021-03-21T15:38:40Z</time>
      </trkpt>
      <trkpt lat="49.41812" lon="1.16687">
        <ele>140</ele>
        <time>2021-03-21T15:38:42Z</time>
      </trkpt>
      <trkpt lat="49.4181" lon="1.16693">
        <ele>140</ele>
        <time>2021-03-21T15:38:44Z</time>
      </trkpt>
      <trkpt lat="49.41808" lon="1.16698">
        <ele>140</ele>
        <time>2021-03-21T15:38:46Z</time>
      </trkpt>
      <trkpt lat="49.41807" lon="1.16703">
        <ele>140</ele>
        <time>2021-03-21T15:38:47Z</time>
      </trkpt>
      <trkpt lat="49.41807" lon="1.16705">
        <ele>140.1</ele>
        <time>2021-03-21T15:38:48Z</time>
      </trkpt>
      <trkpt lat="49.41804" lon="1.16712">
        <ele>140.1</ele>
        <time>2021-03-21T15:38:50Z</time>
      </trkpt>
      <trkpt lat="49.41803" lon="1.16716">
        <ele>140.1</ele>
        <time>2021-03-21T15:38:51Z</time>
      </trkpt>
      <trkpt lat="49.418" lon="1.16724">
        <ele>140.2</ele>
        <time>2021-03-21T15:38:53Z</time>
      </trkpt>
      <trkpt lat="49.41796" lon="1.16733">
        <ele>140.3</ele>
        <time>2021-03-21T15:38:55Z</time>
      </trkpt>
      <trkpt lat="49.41783" lon="1.16772">
        <ele>140.6</ele>
        <time>2021-03-21T15:38:56Z</time>
      </trkpt>
      <trkpt lat="49.41777" lon="1.16787">
        <ele>140.8</ele>
        <time>2021-03-21T15:38:58Z</time>
      </trkpt>
      <trkpt lat="49.4177" lon="1.16803">
        <ele>141</ele>
        <time>2021-03-21T15:39:00Z</time>
      </trkpt>
      <trkpt lat="49.41764" lon="1.16817">
        <ele>141.3</ele>
        <time>2021-03-21T15:39:02Z</time>
      </trkpt>
      <trkpt lat="49.41757" lon="1.16831">
        <ele>141.5</ele>
        <time>2021-03-21T15:39:04Z</time>
      </trkpt>
      <trkpt lat="49.41753" lon="1.16838">
        <ele>141.7</ele>
        <time>2021-03-21T15:39:05Z</time>
      </trkpt>
      <trkpt lat="49.41746" lon="1.16849">
        <ele>141.8</ele>
        <time>2021-03-21T15:39:07Z</time>
      </trkpt>
      <trkpt lat="49.41739" lon="1.16863">
        <ele>141.9</ele>
        <time>2021-03-21T15:39:09Z</time>
      </trkpt>
      <trkpt lat="49.41732" lon="1.16876">
        <ele>141.9</ele>
        <time>2021-03-21T15:39:11Z</time>
      </trkpt>
      <trkpt lat="49.41726" lon="1.1689">
        <ele>141.8</ele>
        <time>2021-03-21T15:39:13Z</time>
      </trkpt>
      <trkpt lat="49.41723" lon="1.16897">
        <ele>141.7</ele>
        <time>2021-03-21T15:39:14Z</time>
      </trkpt>
      <trkpt lat="49.41719" lon="1.16905">
        <ele>141.6</ele>
        <time>2021-03-21T15:39:15Z</time>
      </trkpt>
      <trkpt lat="49.41716" lon="1.16912">
        <ele>141.5</ele>
        <time>2021-03-21T15:39:16Z</time>
      </trkpt>
      <trkpt lat="49.4171" lon="1.16926">
        <ele>141.3</ele>
        <time>2021-03-21T15:39:18Z</time>
      </trkpt>
      <trkpt lat="49.41707" lon="1.16934">
        <ele>141.1</ele>
        <time>2021-03-21T15:39:19Z</time>
      </trkpt>
      <trkpt lat="49.41704" lon="1.16942">
        <ele>141</ele>
        <time>2021-03-21T15:39:20Z</time>
      </trkpt>
      <trkpt lat="49.41697" lon="1.16957">
        <ele>140.6</ele>
        <time>2021-03-21T15:39:22Z</time>
      </trkpt>
      <trkpt lat="49.41691" lon="1.16972">
        <ele>140.3</ele>
        <time>2021-03-21T15:39:24Z</time>
      </trkpt>
      <trkpt lat="49.41688" lon="1.16979">
        <ele>140.1</ele>
        <time>2021-03-21T15:39:25Z</time>
      </trkpt>
      <trkpt lat="49.41682" lon="1.16993">
        <ele>139.8</ele>
        <time>2021-03-21T15:39:27Z</time>
      </trkpt>
      <trkpt lat="49.41676" lon="1.17008">
        <ele>139.5</ele>
        <time>2021-03-21T15:39:29Z</time>
      </trkpt>
      <trkpt lat="49.41667" lon="1.17023">
        <ele>139.1</ele>
        <time>2021-03-21T15:39:31Z</time>
      </trkpt>
      <trkpt lat="49.41663" lon="1.1703">
        <ele>138.9</ele>
        <time>2021-03-21T15:39:32Z</time>
      </trkpt>
      <trkpt lat="49.41653" lon="1.1704">
        <ele>138.6</ele>
        <time>2021-03-21T15:39:34Z</time>
      </trkpt>
      <trkpt lat="49.41647" lon="1.17044">
        <ele>138.4</ele>
        <time>2021-03-21T15:39:35Z</time>
      </trkpt>
      <trkpt lat="49.41634" lon="1.17052">
        <ele>138.2</ele>
        <time>2021-03-21T15:39:37Z</time>
      </trkpt>
      <trkpt lat="49.41628" lon="1.17055">
        <ele>138</ele>
        <time>2021-03-21T15:39:38Z</time>
      </trkpt>
      <trkpt lat="49.41616" lon="1.17062">
        <ele>137.9</ele>
        <time>2021-03-21T15:39:40Z</time>
      </trkpt>
      <trkpt lat="49.41611" lon="1.17065">
        <ele>137.8</ele>
        <time>2021-03-21T15:39:41Z</time>
      </trkpt>
      <trkpt lat="49.41606" lon="1.17069">
        <ele>137.7</ele>
        <time>2021-03-21T15:39:42Z</time>
      </trkpt>
      <trkpt lat="49.41595" lon="1.17073">
        <ele>137.6</ele>
        <time>2021-03-21T15:39:44Z</time>
      </trkpt>
      <trkpt lat="49.4159" lon="1.17076">
        <ele>137.5</ele>
        <time>2021-03-21T15:39:45Z</time>
      </trkpt>
      <trkpt lat="49.41585" lon="1.1708">
        <ele>137.4</ele>
        <time>2021-03-21T15:39:46Z</time>
      </trkpt>
      <trkpt lat="49.41577" lon="1.17089">
        <ele>137.3</ele>
        <time>2021-03-21T15:39:48Z</time>
      </trkpt>
      <trkpt lat="49.41574" lon="1.17093">
        <ele>137.5</ele>
        <time>2021-03-21T15:39:49Z</time>
      </trkpt>
      <trkpt lat="49.41565" lon="1.17102">
        <ele>137.7</ele>
        <time>2021-03-21T15:39:51Z</time>
      </trkpt>
      <trkpt lat="49.41561" lon="1.17106">
        <ele>137.8</ele>
        <time>2021-03-21T15:39:52Z</time>
      </trkpt>
      <trkpt lat="49.41551" lon="1.17114">
        <ele>138</ele>
        <time>2021-03-21T15:39:54Z</time>
      </trkpt>
      <trkpt lat="49.41541" lon="1.17122">
        <ele>138.3</ele>
        <time>2021-03-21T15:39:56Z</time>
      </trkpt>
      <trkpt lat="49.41531" lon="1.17129">
        <ele>138.5</ele>
        <time>2021-03-21T15:39:58Z</time>
      </trkpt>
      <trkpt lat="49.41521" lon="1.17135">
        <ele>138.8</ele>
        <time>2021-03-21T15:40:00Z</time>
      </trkpt>
      <trkpt lat="49.41517" lon="1.17139">
        <ele>138.9</ele>
        <time>2021-03-21T15:40:01Z</time>
      </trkpt>
      <trkpt lat="49.41507" lon="1.17147">
        <ele>139.2</ele>
        <time>2021-03-21T15:40:03Z</time>
      </trkpt>
      <trkpt lat="49.41498" lon="1.17154">
        <ele>139.5</ele>
        <time>2021-03-21T15:40:05Z</time>
      </trkpt>
      <trkpt lat="49.41489" lon="1.17161">
        <ele>139.8</ele>
        <time>2021-03-21T15:40:07Z</time>
      </trkpt>
      <trkpt lat="49.4148" lon="1.17167">
        <ele>140</ele>
        <time>2021-03-21T15:40:09Z</time>
      </trkpt>
      <trkpt lat="49.41475" lon="1.17171">
        <ele>140.2</ele>
        <time>2021-03-21T15:40:10Z</time>
      </trkpt>
      <trkpt lat="49.41466" lon="1.17178">
        <ele>140.4</ele>
        <time>2021-03-21T15:40:12Z</time>
      </trkpt>
      <trkpt lat="49.41461" lon="1.1718">
        <ele>140.6</ele>
        <time>2021-03-21T15:40:13Z</time>
      </trkpt>
      <trkpt lat="49.41457" lon="1.17183">
        <ele>140.7</ele>
        <time>2021-03-21T15:40:14Z</time>
      </trkpt>
      <trkpt lat="49.41445" lon="1.17192">
        <ele>141</ele>
        <time>2021-03-21T15:40:16Z</time>
      </trkpt>
      <trkpt lat="49.41438" lon="1.17198">
        <ele>141.2</ele>
        <time>2021-03-21T15:40:18Z</time>
      </trkpt>
      <trkpt lat="49.41428" lon="1.17206">
        <ele>141.5</ele>
        <time>2021-03-21T15:40:20Z</time>
      </trkpt>
      <trkpt lat="49.41422" lon="1.17211">
        <ele>141.7</ele>
        <time>2021-03-21T15:40:22Z</time>
      </trkpt>
      <trkpt lat="49.41414" lon="1.17216">
        <ele>141.9</ele>
        <time>2021-03-21T15:40:24Z</time>
      </trkpt>
      <trkpt lat="49.4141" lon="1.17219">
        <ele>142</ele>
        <time>2021-03-21T15:40:25Z</time>
      </trkpt>
      <trkpt lat="49.41403" lon="1.17225">
        <ele>142.2</ele>
        <time>2021-03-21T15:40:27Z</time>
      </trkpt>
      <trkpt lat="49.41399" lon="1.17228">
        <ele>142.3</ele>
        <time>2021-03-21T15:40:28Z</time>
      </trkpt>
      <trkpt lat="49.41393" lon="1.17234">
        <ele>142.4</ele>
        <time>2021-03-21T15:40:30Z</time>
      </trkpt>
      <trkpt lat="49.4139" lon="1.17238">
        <ele>142.5</ele>
        <time>2021-03-21T15:40:31Z</time>
      </trkpt>
      <trkpt lat="49.41383" lon="1.17243">
        <ele>142.7</ele>
        <time>2021-03-21T15:40:33Z</time>
      </trkpt>
      <trkpt lat="49.4138" lon="1.17245">
        <ele>142.8</ele>
        <time>2021-03-21T15:40:34Z</time>
      </trkpt>
      <trkpt lat="49.41372" lon="1.1725">
        <ele>143</ele>
        <time>2021-03-21T15:40:36Z</time>
      </trkpt>
      <trkpt lat="49.41368" lon="1.17253">
        <ele>143.1</ele>
        <time>2021-03-21T15:40:37Z</time>
      </trkpt>
      <trkpt lat="49.41364" lon="1.17255">
        <ele>143.3</ele>
        <time>2021-03-21T15:40:38Z</time>
      </trkpt>
      <trkpt lat="49.41357" lon="1.1726">
        <ele>143.5</ele>
        <time>2021-03-21T15:40:40Z</time>
      </trkpt>
      <trkpt lat="49.4135" lon="1.17265">
        <ele>143.7</ele>
        <time>2021-03-21T15:40:42Z</time>
      </trkpt>
      <trkpt lat="49.41347" lon="1.17269">
        <ele>143.8</ele>
        <time>2021-03-21T15:40:43Z</time>
      </trkpt>
      <trkpt lat="49.41344" lon="1.17276">
        <ele>143.9</ele>
        <time>2021-03-21T15:40:45Z</time>
      </trkpt>
      <trkpt lat="49.41342" lon="1.17283">
        <ele>144.1</ele>
        <time>2021-03-21T15:40:46Z</time>
      </trkpt>
      <trkpt lat="49.41341" lon="1.17291">
        <ele>144</ele>
        <time>2021-03-21T15:40:47Z</time>
      </trkpt>
      <trkpt lat="49.41339" lon="1.17307">
        <ele>143.8</ele>
        <time>2021-03-21T15:40:49Z</time>
      </trkpt>
      <trkpt lat="49.41337" lon="1.17321">
        <ele>143.7</ele>
        <time>2021-03-21T15:40:51Z</time>
      </trkpt>
      <trkpt lat="49.41335" lon="1.17333">
        <ele>143.7</ele>
        <time>2021-03-21T15:40:53Z</time>
      </trkpt>
      <trkpt lat="49.41334" lon="1.17339">
        <ele>143.6</ele>
        <time>2021-03-21T15:40:54Z</time>
      </trkpt>
      <trkpt lat="49.41333" lon="1.17348">
        <ele>143.5</ele>
        <time>2021-03-21T15:40:56Z</time>
      </trkpt>
      <trkpt lat="49.41336" lon="1.17356">
        <ele>143.4</ele>
        <time>2021-03-21T15:40:58Z</time>
      </trkpt>
      <trkpt lat="49.41339" lon="1.17359">
        <ele>143.3</ele>
        <time>2021-03-21T15:40:59Z</time>
      </trkpt>
      <trkpt lat="49.41347" lon="1.17363">
        <ele>143</ele>
        <time>2021-03-21T15:41:01Z</time>
      </trkpt>
      <trkpt lat="49.41355" lon="1.17362">
        <ele>142.7</ele>
        <time>2021-03-21T15:41:03Z</time>
      </trkpt>
      <trkpt lat="49.41361" lon="1.17362">
        <ele>142.5</ele>
        <time>2021-03-21T15:41:05Z</time>
      </trkpt>
      <trkpt lat="49.41365" lon="1.17361">
        <ele>142.4</ele>
        <time>2021-03-21T15:41:07Z</time>
      </trkpt>
      <trkpt lat="49.41367" lon="1.1736">
        <ele>142.4</ele>
        <time>2021-03-21T15:41:08Z</time>
      </trkpt>
      <trkpt lat="49.41372" lon="1.1736">
        <ele>142.2</ele>
        <time>2021-03-21T15:41:10Z</time>
      </trkpt>
      <trkpt lat="49.41375" lon="1.1736">
        <ele>142.1</ele>
        <time>2021-03-21T15:41:11Z</time>
      </trkpt>
      <trkpt lat="49.41384" lon="1.17359">
        <ele>141.8</ele>
        <time>2021-03-21T15:41:13Z</time>
      </trkpt>
      <trkpt lat="49.41388" lon="1.1736">
        <ele>141.7</ele>
        <time>2021-03-21T15:41:14Z</time>
      </trkpt>
      <trkpt lat="49.41398" lon="1.1736">
        <ele>141.5</ele>
        <time>2021-03-21T15:41:16Z</time>
      </trkpt>
      <trkpt lat="49.41403" lon="1.1736">
        <ele>141.3</ele>
        <time>2021-03-21T15:41:17Z</time>
      </trkpt>
      <trkpt lat="49.41408" lon="1.17361">
        <ele>141.2</ele>
        <time>2021-03-21T15:41:18Z</time>
      </trkpt>
      <trkpt lat="49.41416" lon="1.17362">
        <ele>141</ele>
        <time>2021-03-21T15:41:20Z</time>
      </trkpt>
      <trkpt lat="49.4142" lon="1.17363">
        <ele>140.9</ele>
        <time>2021-03-21T15:41:21Z</time>
      </trkpt>
      <trkpt lat="49.41424" lon="1.17362">
        <ele>140.8</ele>
        <time>2021-03-21T15:41:22Z</time>
      </trkpt>
      <trkpt lat="49.41432" lon="1.17364">
        <ele>140.7</ele>
        <time>2021-03-21T15:41:24Z</time>
      </trkpt>
      <trkpt lat="49.41436" lon="1.17364">
        <ele>140.6</ele>
        <time>2021-03-21T15:41:25Z</time>
      </trkpt>
      <trkpt lat="49.4144" lon="1.17364">
        <ele>140.5</ele>
        <time>2021-03-21T15:41:26Z</time>
      </trkpt>
      <trkpt lat="49.41449" lon="1.17366">
        <ele>140.4</ele>
        <time>2021-03-21T15:41:28Z</time>
      </trkpt>
      <trkpt lat="49.41453" lon="1.17366">
        <ele>140.3</ele>
        <time>2021-03-21T15:41:29Z</time>
      </trkpt>
      <trkpt lat="49.41461" lon="1.17367">
        <ele>140.1</ele>
        <time>2021-03-21T15:41:31Z</time>
      </trkpt>
      <trkpt lat="49.41467" lon="1.17368">
        <ele>140</ele>
        <time>2021-03-21T15:41:33Z</time>
      </trkpt>
      <trkpt lat="49.41475" lon="1.17369">
        <ele>139.9</ele>
        <time>2021-03-21T15:41:35Z</time>
      </trkpt>
      <trkpt lat="49.41479" lon="1.17369">
        <ele>139.8</ele>
        <time>2021-03-21T15:41:36Z</time>
      </trkpt>
      <trkpt lat="49.41488" lon="1.17371">
        <ele>139.6</ele>
        <time>2021-03-21T15:41:38Z</time>
      </trkpt>
      <trkpt lat="49.41494" lon="1.17372">
        <ele>139.4</ele>
        <time>2021-03-21T15:41:40Z</time>
      </trkpt>
      <trkpt lat="49.41498" lon="1.17372">
        <ele>139.3</ele>
        <time>2021-03-21T15:41:41Z</time>
      </trkpt>
      <trkpt lat="49.41501" lon="1.17372">
        <ele>139.2</ele>
        <time>2021-03-21T15:41:42Z</time>
      </trkpt>
      <trkpt lat="49.41505" lon="1.17373">
        <ele>139.1</ele>
        <time>2021-03-21T15:41:43Z</time>
      </trkpt>
      <trkpt lat="49.41513" lon="1.17377">
        <ele>138.5</ele>
        <time>2021-03-21T15:41:45Z</time>
      </trkpt>
      <trkpt lat="49.41516" lon="1.17378">
        <ele>138.3</ele>
        <time>2021-03-21T15:41:46Z</time>
      </trkpt>
      <trkpt lat="49.41525" lon="1.17381">
        <ele>137.7</ele>
        <time>2021-03-21T15:41:48Z</time>
      </trkpt>
      <trkpt lat="49.41537" lon="1.17384">
        <ele>137.2</ele>
        <time>2021-03-21T15:41:50Z</time>
      </trkpt>
      <trkpt lat="49.41542" lon="1.17386">
        <ele>137</ele>
        <time>2021-03-21T15:41:51Z</time>
      </trkpt>
      <trkpt lat="49.41555" lon="1.17388">
        <ele>136.8</ele>
        <time>2021-03-21T15:41:53Z</time>
      </trkpt>
      <trkpt lat="49.41567" lon="1.17389">
        <ele>136.5</ele>
        <time>2021-03-21T15:41:55Z</time>
      </trkpt>
      <trkpt lat="49.41573" lon="1.17389">
        <ele>136.5</ele>
        <time>2021-03-21T15:41:56Z</time>
      </trkpt>
      <trkpt lat="49.41585" lon="1.17389">
        <ele>136.3</ele>
        <time>2021-03-21T15:41:58Z</time>
      </trkpt>
      <trkpt lat="49.41591" lon="1.17389">
        <ele>136.3</ele>
        <time>2021-03-21T15:41:59Z</time>
      </trkpt>
      <trkpt lat="49.41601" lon="1.17388">
        <ele>136</ele>
        <time>2021-03-21T15:42:01Z</time>
      </trkpt>
      <trkpt lat="49.41606" lon="1.17387">
        <ele>135.8</ele>
        <time>2021-03-21T15:42:02Z</time>
      </trkpt>
      <trkpt lat="49.41615" lon="1.17385">
        <ele>135.5</ele>
        <time>2021-03-21T15:42:04Z</time>
      </trkpt>
      <trkpt lat="49.41623" lon="1.17381">
        <ele>135.1</ele>
        <time>2021-03-21T15:42:06Z</time>
      </trkpt>
      <trkpt lat="49.41631" lon="1.17377">
        <ele>134.6</ele>
        <time>2021-03-21T15:42:08Z</time>
      </trkpt>
      <trkpt lat="49.4164" lon="1.17372">
        <ele>134</ele>
        <time>2021-03-21T15:42:10Z</time>
      </trkpt>
      <trkpt lat="49.41641" lon="1.1737">
        <ele>133.8</ele>
        <time>2021-03-21T15:42:11Z</time>
      </trkpt>
      <trkpt lat="49.41646" lon="1.17366">
        <ele>133.4</ele>
        <time>2021-03-21T15:42:13Z</time>
      </trkpt>
      <trkpt lat="49.41653" lon="1.1736">
        <ele>132.6</ele>
        <time>2021-03-21T15:42:15Z</time>
      </trkpt>
      <trkpt lat="49.41662" lon="1.17353">
        <ele>131.4</ele>
        <time>2021-03-21T15:42:17Z</time>
      </trkpt>
      <trkpt lat="49.41667" lon="1.17348">
        <ele>130.5</ele>
        <time>2021-03-21T15:42:18Z</time>
      </trkpt>
      <trkpt lat="49.41673" lon="1.17346">
        <ele>129.5</ele>
        <time>2021-03-21T15:42:20Z</time>
      </trkpt>
      <trkpt lat="49.41678" lon="1.17344">
        <ele>128.7</ele>
        <time>2021-03-21T15:42:21Z</time>
      </trkpt>
      <trkpt lat="49.41682" lon="1.17343">
        <ele>127.8</ele>
        <time>2021-03-21T15:42:23Z</time>
      </trkpt>
      <trkpt lat="49.41687" lon="1.17341">
        <ele>127</ele>
        <time>2021-03-21T15:42:24Z</time>
      </trkpt>
      <trkpt lat="49.41692" lon="1.1734">
        <ele>126.2</ele>
        <time>2021-03-21T15:42:25Z</time>
      </trkpt>
      <trkpt lat="49.41696" lon="1.17338">
        <ele>125.3</ele>
        <time>2021-03-21T15:42:27Z</time>
      </trkpt>
      <trkpt lat="49.41701" lon="1.17336">
        <ele>124.5</ele>
        <time>2021-03-21T15:43:00Z</time>
      </trkpt>
      <trkpt lat="49.41706" lon="1.17335">
        <ele>123.7</ele>
        <time>2021-03-21T15:43:02Z</time>
      </trkpt>
      <trkpt lat="49.41737" lon="1.17338">
        <ele>118</ele>
        <time>2021-03-21T15:43:04Z</time>
      </trkpt>
      <trkpt lat="49.41773" lon="1.17338">
        <ele>110.3</ele>
        <time>2021-03-21T15:43:06Z</time>
      </trkpt>
      <trkpt lat="49.41784" lon="1.17339">
        <ele>107.9</ele>
        <time>2021-03-21T15:43:07Z</time>
      </trkpt>
      <trkpt lat="49.41806" lon="1.17343">
        <ele>103.2</ele>
        <time>2021-03-21T15:43:09Z</time>
      </trkpt>
      <trkpt lat="49.41827" lon="1.17352">
        <ele>99</ele>
        <time>2021-03-21T15:43:11Z</time>
      </trkpt>
      <trkpt lat="49.41837" lon="1.17358">
        <ele>97</ele>
        <time>2021-03-21T15:43:12Z</time>
      </trkpt>
      <trkpt lat="49.41856" lon="1.17367">
        <ele>93.3</ele>
        <time>2021-03-21T15:43:14Z</time>
      </trkpt>
      <trkpt lat="49.41874" lon="1.17376">
        <ele>89.5</ele>
        <time>2021-03-21T15:43:16Z</time>
      </trkpt>
      <trkpt lat="49.41885" lon="1.1738">
        <ele>87.3</ele>
        <time>2021-03-21T15:43:18Z</time>
      </trkpt>
      <trkpt lat="49.41891" lon="1.1738">
        <ele>86.1</ele>
        <time>2021-03-21T15:43:19Z</time>
      </trkpt>
      <trkpt lat="49.41897" lon="1.17382">
        <ele>84.8</ele>
        <time>2021-03-21T15:43:20Z</time>
      </trkpt>
      <trkpt lat="49.41903" lon="1.17387">
        <ele>83.4</ele>
        <time>2021-03-21T15:43:21Z</time>
      </trkpt>
      <trkpt lat="49.41913" lon="1.17393">
        <ele>81.3</ele>
        <time>2021-03-21T15:43:22Z</time>
      </trkpt>
      <trkpt lat="49.41934" lon="1.17402">
        <ele>76.5</ele>
        <time>2021-03-21T15:43:24Z</time>
      </trkpt>
      <trkpt lat="49.41945" lon="1.17406">
        <ele>74.1</ele>
        <time>2021-03-21T15:43:25Z</time>
      </trkpt>
      <trkpt lat="49.41956" lon="1.17412">
        <ele>72</ele>
        <time>2021-03-21T15:43:26Z</time>
      </trkpt>
      <trkpt lat="49.41961" lon="1.17417">
        <ele>70.9</ele>
        <time>2021-03-21T15:43:27Z</time>
      </trkpt>
      <trkpt lat="49.41966" lon="1.17424">
        <ele>69.7</ele>
        <time>2021-03-21T15:43:29Z</time>
      </trkpt>
      <trkpt lat="49.41969" lon="1.17428">
        <ele>69.3</ele>
        <time>2021-03-21T15:43:30Z</time>
      </trkpt>
      <trkpt lat="49.4197" lon="1.17429">
        <ele>69</ele>
        <time>2021-03-21T15:43:31Z</time>
      </trkpt>
      <trkpt lat="49.41975" lon="1.17429">
        <ele>68.4</ele>
        <time>2021-03-21T15:43:33Z</time>
      </trkpt>
      <trkpt lat="49.41978" lon="1.17432">
        <ele>67.9</ele>
        <time>2021-03-21T15:43:34Z</time>
      </trkpt>
      <trkpt lat="49.41984" lon="1.17437">
        <ele>66.8</ele>
        <time>2021-03-21T15:43:35Z</time>
      </trkpt>
      <trkpt lat="49.41998" lon="1.17453">
        <ele>64.3</ele>
        <time>2021-03-21T15:43:37Z</time>
      </trkpt>
      <trkpt lat="49.42011" lon="1.17471">
        <ele>62.4</ele>
        <time>2021-03-21T15:43:39Z</time>
      </trkpt>
      <trkpt lat="49.42023" lon="1.17491">
        <ele>60.8</ele>
        <time>2021-03-21T15:43:41Z</time>
      </trkpt>
      <trkpt lat="49.42036" lon="1.17512">
        <ele>59.2</ele>
        <time>2021-03-21T15:43:43Z</time>
      </trkpt>
      <trkpt lat="49.42042" lon="1.17522">
        <ele>58.5</ele>
        <time>2021-03-21T15:43:44Z</time>
      </trkpt>
      <trkpt lat="49.42048" lon="1.17532">
        <ele>57.8</ele>
        <time>2021-03-21T15:43:45Z</time>
      </trkpt>
      <trkpt lat="49.4206" lon="1.17552">
        <ele>56.5</ele>
        <time>2021-03-21T15:43:47Z</time>
      </trkpt>
      <trkpt lat="49.42067" lon="1.17564">
        <ele>55.9</ele>
        <time>2021-03-21T15:43:48Z</time>
      </trkpt>
      <trkpt lat="49.42082" lon="1.17581">
        <ele>54.5</ele>
        <time>2021-03-21T15:43:50Z</time>
      </trkpt>
      <trkpt lat="49.42095" lon="1.17595">
        <ele>52.9</ele>
        <time>2021-03-21T15:43:52Z</time>
      </trkpt>
      <trkpt lat="49.42103" lon="1.17599">
        <ele>52.1</ele>
        <time>2021-03-21T15:43:53Z</time>
      </trkpt>
      <trkpt lat="49.4211" lon="1.17604">
        <ele>51.2</ele>
        <time>2021-03-21T15:43:54Z</time>
      </trkpt>
      <trkpt lat="49.42126" lon="1.17613">
        <ele>49.4</ele>
        <time>2021-03-21T15:43:56Z</time>
      </trkpt>
      <trkpt lat="49.42141" lon="1.17629">
        <ele>47.6</ele>
        <time>2021-03-21T15:43:58Z</time>
      </trkpt>
      <trkpt lat="49.4215" lon="1.17649">
        <ele>46.2</ele>
        <time>2021-03-21T15:44:00Z</time>
      </trkpt>
      <trkpt lat="49.42154" lon="1.1766">
        <ele>45.6</ele>
        <time>2021-03-21T15:44:01Z</time>
      </trkpt>
      <trkpt lat="49.4216" lon="1.17683">
        <ele>44.7</ele>
        <time>2021-03-21T15:44:03Z</time>
      </trkpt>
      <trkpt lat="49.42167" lon="1.17705">
        <ele>44.4</ele>
        <time>2021-03-21T15:44:05Z</time>
      </trkpt>
      <trkpt lat="49.42173" lon="1.17718">
        <ele>44.3</ele>
        <time>2021-03-21T15:44:07Z</time>
      </trkpt>
      <trkpt lat="49.42176" lon="1.1772">
        <ele>44.3</ele>
        <time>2021-03-21T15:44:08Z</time>
      </trkpt>
      <trkpt lat="49.42177" lon="1.1772">
        <ele>44</ele>
        <time>2021-03-21T15:44:09Z</time>
      </trkpt>
      <trkpt lat="49.4218" lon="1.17719">
        <ele>44</ele>
        <time>2021-03-21T15:44:11Z</time>
      </trkpt>
      <trkpt lat="49.42181" lon="1.17718">
        <ele>44</ele>
        <time>2021-03-21T15:44:12Z</time>
      </trkpt>
      <trkpt lat="49.42185" lon="1.17715">
        <ele>43.9</ele>
        <time>2021-03-21T15:44:14Z</time>
      </trkpt>
      <trkpt lat="49.42188" lon="1.17709">
        <ele>43.9</ele>
        <time>2021-03-21T15:44:16Z</time>
      </trkpt>
      <trkpt lat="49.42191" lon="1.17705">
        <ele>43.9</ele>
        <time>2021-03-21T15:44:17Z</time>
      </trkpt>
      <trkpt lat="49.42198" lon="1.17697">
        <ele>43.9</ele>
        <time>2021-03-21T15:44:19Z</time>
      </trkpt>
      <trkpt lat="49.42205" lon="1.17689">
        <ele>43.9</ele>
        <time>2021-03-21T15:44:21Z</time>
      </trkpt>
      <trkpt lat="49.42208" lon="1.17686">
        <ele>43.8</ele>
        <time>2021-03-21T15:44:22Z</time>
      </trkpt>
      <trkpt lat="49.42215" lon="1.17679">
        <ele>43.8</ele>
        <time>2021-03-21T15:44:24Z</time>
      </trkpt>
      <trkpt lat="49.4222" lon="1.17673">
        <ele>43.8</ele>
        <time>2021-03-21T15:44:25Z</time>
      </trkpt>
      <trkpt lat="49.42223" lon="1.17669">
        <ele>43.8</ele>
        <time>2021-03-21T15:44:26Z</time>
      </trkpt>
      <trkpt lat="49.4223" lon="1.17661">
        <ele>43.8</ele>
        <time>2021-03-21T15:44:28Z</time>
      </trkpt>
      <trkpt lat="49.42234" lon="1.17657">
        <ele>43.8</ele>
        <time>2021-03-21T15:44:29Z</time>
      </trkpt>
      <trkpt lat="49.42243" lon="1.17652">
        <ele>43.7</ele>
        <time>2021-03-21T15:44:31Z</time>
      </trkpt>
      <trkpt lat="49.42253" lon="1.1765">
        <ele>43.6</ele>
        <time>2021-03-21T15:44:33Z</time>
      </trkpt>
      <trkpt lat="49.42258" lon="1.17649">
        <ele>43.5</ele>
        <time>2021-03-21T15:44:34Z</time>
      </trkpt>
      <trkpt lat="49.42263" lon="1.17647">
        <ele>43.5</ele>
        <time>2021-03-21T15:44:35Z</time>
      </trkpt>
      <trkpt lat="49.42274" lon="1.17644">
        <ele>43.4</ele>
        <time>2021-03-21T15:44:37Z</time>
      </trkpt>
      <trkpt lat="49.42279" lon="1.17642">
        <ele>43.4</ele>
        <time>2021-03-21T15:44:38Z</time>
      </trkpt>
      <trkpt lat="49.42291" lon="1.17638">
        <ele>43.4</ele>
        <time>2021-03-21T15:44:40Z</time>
      </trkpt>
      <trkpt lat="49.42297" lon="1.17635">
        <ele>43.5</ele>
        <time>2021-03-21T15:44:41Z</time>
      </trkpt>
      <trkpt lat="49.42307" lon="1.17625">
        <ele>43.6</ele>
        <time>2021-03-21T15:44:43Z</time>
      </trkpt>
      <trkpt lat="49.42315" lon="1.17614">
        <ele>43.7</ele>
        <time>2021-03-21T15:44:45Z</time>
      </trkpt>
      <trkpt lat="49.42318" lon="1.17608">
        <ele>43.7</ele>
        <time>2021-03-21T15:44:46Z</time>
      </trkpt>
      <trkpt lat="49.42326" lon="1.17596">
        <ele>43.9</ele>
        <time>2021-03-21T15:44:48Z</time>
      </trkpt>
      <trkpt lat="49.4233" lon="1.17591">
        <ele>44</ele>
        <time>2021-03-21T15:44:49Z</time>
      </trkpt>
      <trkpt lat="49.42334" lon="1.17585">
        <ele>44.1</ele>
        <time>2021-03-21T15:44:50Z</time>
      </trkpt>
      <trkpt lat="49.42341" lon="1.17575">
        <ele>44.3</ele>
        <time>2021-03-21T15:44:52Z</time>
      </trkpt>
      <trkpt lat="49.42344" lon="1.17571">
        <ele>44.4</ele>
        <time>2021-03-21T15:44:53Z</time>
      </trkpt>
      <trkpt lat="49.4235" lon="1.17564">
        <ele>44.6</ele>
        <time>2021-03-21T15:44:55Z</time>
      </trkpt>
      <trkpt lat="49.42353" lon="1.1756">
        <ele>44.7</ele>
        <time>2021-03-21T15:44:56Z</time>
      </trkpt>
      <trkpt lat="49.42358" lon="1.17554">
        <ele>44.9</ele>
        <time>2021-03-21T15:44:58Z</time>
      </trkpt>
      <trkpt lat="49.42361" lon="1.17548">
        <ele>45.1</ele>
        <time>2021-03-21T15:45:00Z</time>
      </trkpt>
      <trkpt lat="49.42363" lon="1.17543">
        <ele>45.3</ele>
        <time>2021-03-21T15:45:01Z</time>
      </trkpt>
      <trkpt lat="49.42364" lon="1.17541">
        <ele>45.4</ele>
        <time>2021-03-21T15:45:02Z</time>
      </trkpt>
      <trkpt lat="49.42366" lon="1.17537">
        <ele>45.5</ele>
        <time>2021-03-21T15:45:03Z</time>
      </trkpt>
      <trkpt lat="49.4237" lon="1.17531">
        <ele>45.7</ele>
        <time>2021-03-21T15:45:05Z</time>
      </trkpt>
      <trkpt lat="49.42374" lon="1.17528">
        <ele>45.9</ele>
        <time>2021-03-21T15:45:06Z</time>
      </trkpt>
      <trkpt lat="49.4238" lon="1.17524">
        <ele>46.3</ele>
        <time>2021-03-21T15:45:08Z</time>
      </trkpt>
      <trkpt lat="49.42382" lon="1.17521">
        <ele>46.4</ele>
        <time>2021-03-21T15:45:09Z</time>
      </trkpt>
      <trkpt lat="49.42385" lon="1.17518">
        <ele>46.6</ele>
        <time>2021-03-21T15:45:10Z</time>
      </trkpt>
      <trkpt lat="49.42391" lon="1.17513">
        <ele>47</ele>
        <time>2021-03-21T15:45:12Z</time>
      </trkpt>
      <trkpt lat="49.42397" lon="1.17505">
        <ele>47.4</ele>
        <time>2021-03-21T15:45:14Z</time>
      </trkpt>
      <trkpt lat="49.42404" lon="1.17496">
        <ele>47.9</ele>
        <time>2021-03-21T15:45:16Z</time>
      </trkpt>
      <trkpt lat="49.4241" lon="1.17488">
        <ele>48.3</ele>
        <time>2021-03-21T15:45:18Z</time>
      </trkpt>
      <trkpt lat="49.42413" lon="1.17483">
        <ele>48.5</ele>
        <time>2021-03-21T15:45:19Z</time>
      </trkpt>
      <trkpt lat="49.42415" lon="1.1748">
        <ele>48.7</ele>
        <time>2021-03-21T15:45:20Z</time>
      </trkpt>
      <trkpt lat="49.4242" lon="1.17472">
        <ele>49.1</ele>
        <time>2021-03-21T15:45:22Z</time>
      </trkpt>
      <trkpt lat="49.42423" lon="1.17468">
        <ele>49.2</ele>
        <time>2021-03-21T15:45:23Z</time>
      </trkpt>
      <trkpt lat="49.42429" lon="1.17462">
        <ele>49.6</ele>
        <time>2021-03-21T15:45:25Z</time>
      </trkpt>
      <trkpt lat="49.42434" lon="1.17455">
        <ele>49.9</ele>
        <time>2021-03-21T15:45:27Z</time>
      </trkpt>
      <trkpt lat="49.42438" lon="1.17449">
        <ele>50.2</ele>
        <time>2021-03-21T15:45:28Z</time>
      </trkpt>
      <trkpt lat="49.42445" lon="1.17442">
        <ele>50.7</ele>
        <time>2021-03-21T15:45:30Z</time>
      </trkpt>
      <trkpt lat="49.42451" lon="1.17435">
        <ele>51.1</ele>
        <time>2021-03-21T15:45:32Z</time>
      </trkpt>
      <trkpt lat="49.42455" lon="1.17431">
        <ele>51.4</ele>
        <time>2021-03-21T15:45:34Z</time>
      </trkpt>
      <trkpt lat="49.42459" lon="1.17426">
        <ele>51.7</ele>
        <time>2021-03-21T15:45:35Z</time>
      </trkpt>
      <trkpt lat="49.42461" lon="1.17423">
        <ele>51.8</ele>
        <time>2021-03-21T15:45:36Z</time>
      </trkpt>
      <trkpt lat="49.42466" lon="1.17416">
        <ele>52.2</ele>
        <time>2021-03-21T15:45:38Z</time>
      </trkpt>
      <trkpt lat="49.42469" lon="1.17411">
        <ele>52.4</ele>
        <time>2021-03-21T15:45:39Z</time>
      </trkpt>
      <trkpt lat="49.42474" lon="1.17402">
        <ele>52.8</ele>
        <time>2021-03-21T15:45:41Z</time>
      </trkpt>
      <trkpt lat="49.42476" lon="1.17398">
        <ele>53</ele>
        <time>2021-03-21T15:45:42Z</time>
      </trkpt>
      <trkpt lat="49.42479" lon="1.17391">
        <ele>53.3</ele>
        <time>2021-03-21T15:45:44Z</time>
      </trkpt>
      <trkpt lat="49.42482" lon="1.17383">
        <ele>53.6</ele>
        <time>2021-03-21T15:45:45Z</time>
      </trkpt>
      <trkpt lat="49.42484" lon="1.17379">
        <ele>53.8</ele>
        <time>2021-03-21T15:45:46Z</time>
      </trkpt>
      <trkpt lat="49.42487" lon="1.1737">
        <ele>54.2</ele>
        <time>2021-03-21T15:45:48Z</time>
      </trkpt>
      <trkpt lat="49.42489" lon="1.17365">
        <ele>54.4</ele>
        <time>2021-03-21T15:45:49Z</time>
      </trkpt>
      <trkpt lat="49.42493" lon="1.17356">
        <ele>54.7</ele>
        <time>2021-03-21T15:45:51Z</time>
      </trkpt>
      <trkpt lat="49.42497" lon="1.17347">
        <ele>55.1</ele>
        <time>2021-03-21T15:45:53Z</time>
      </trkpt>
      <trkpt lat="49.425" lon="1.17342">
        <ele>55.4</ele>
        <time>2021-03-21T15:45:54Z</time>
      </trkpt>
      <trkpt lat="49.425" lon="1.17341">
        <ele>55.4</ele>
        <time>2021-03-21T15:45:55Z</time>
      </trkpt>
      <trkpt lat="49.425" lon="1.17341">
        <ele>55.4</ele>
        <time>2021-03-21T15:45:56Z</time>
      </trkpt>
      <trkpt lat="49.42502" lon="1.17336">
        <ele>55.6</ele>
        <time>2021-03-21T15:45:58Z</time>
      </trkpt>
      <trkpt lat="49.4251" lon="1.17318">
        <ele>56.4</ele>
        <time>2021-03-21T15:46:00Z</time>
      </trkpt>
      <trkpt lat="49.42512" lon="1.17312">
        <ele>56.7</ele>
        <time>2021-03-21T15:46:01Z</time>
      </trkpt>
      <trkpt lat="49.42516" lon="1.17303">
        <ele>57.1</ele>
        <time>2021-03-21T15:46:03Z</time>
      </trkpt>
      <trkpt lat="49.42518" lon="1.17299">
        <ele>57.3</ele>
        <time>2021-03-21T15:46:04Z</time>
      </trkpt>
      <trkpt lat="49.42521" lon="1.17295">
        <ele>57.5</ele>
        <time>2021-03-21T15:46:05Z</time>
      </trkpt>
      <trkpt lat="49.42523" lon="1.1729">
        <ele>57.7</ele>
        <time>2021-03-21T15:46:06Z</time>
      </trkpt>
      <trkpt lat="49.42527" lon="1.17282">
        <ele>58</ele>
        <time>2021-03-21T15:46:08Z</time>
      </trkpt>
      <trkpt lat="49.42531" lon="1.17274">
        <ele>58.4</ele>
        <time>2021-03-21T15:46:10Z</time>
      </trkpt>
      <trkpt lat="49.42533" lon="1.1727">
        <ele>58.6</ele>
        <time>2021-03-21T15:46:11Z</time>
      </trkpt>
      <trkpt lat="49.42538" lon="1.17259">
        <ele>59</ele>
        <time>2021-03-21T15:46:13Z</time>
      </trkpt>
      <trkpt lat="49.42542" lon="1.17249">
        <ele>59.5</ele>
        <time>2021-03-21T15:46:15Z</time>
      </trkpt>
      <trkpt lat="49.42544" lon="1.17244">
        <ele>59.7</ele>
        <time>2021-03-21T15:46:16Z</time>
      </trkpt>
      <trkpt lat="49.42549" lon="1.17234">
        <ele>59.7</ele>
        <time>2021-03-21T15:46:18Z</time>
      </trkpt>
      <trkpt lat="49.42551" lon="1.17229">
        <ele>59.7</ele>
        <time>2021-03-21T15:46:19Z</time>
      </trkpt>
      <trkpt lat="49.42551" lon="1.17228">
        <ele>59.7</ele>
        <time>2021-03-21T15:46:20Z</time>
      </trkpt>
      <trkpt lat="49.42552" lon="1.17226">
        <ele>59.7</ele>
        <time>2021-03-21T15:46:22Z</time>
      </trkpt>
      <trkpt lat="49.42554" lon="1.17224">
        <ele>59.6</ele>
        <time>2021-03-21T15:46:23Z</time>
      </trkpt>
      <trkpt lat="49.42555" lon="1.17223">
        <ele>59.6</ele>
        <time>2021-03-21T15:46:25Z</time>
      </trkpt>
      <trkpt lat="49.42556" lon="1.17221">
        <ele>59.5</ele>
        <time>2021-03-21T15:46:27Z</time>
      </trkpt>
      <trkpt lat="49.42558" lon="1.1722">
        <ele>59.4</ele>
        <time>2021-03-21T15:46:28Z</time>
      </trkpt>
      <trkpt lat="49.4257" lon="1.17202">
        <ele>58.3</ele>
        <time>2021-03-21T15:46:30Z</time>
      </trkpt>
      <trkpt lat="49.4257" lon="1.17202">
        <ele>58.3</ele>
        <time>2021-03-21T15:46:30Z</time>
      </trkpt>
      <trkpt lat="49.42587" lon="1.17178">
        <ele>56.7</ele>
        <time>2021-03-21T15:46:32Z</time>
      </trkpt>
      <trkpt lat="49.42595" lon="1.17168">
        <ele>56.1</ele>
        <time>2021-03-21T15:46:33Z</time>
      </trkpt>
      <trkpt lat="49.4261" lon="1.17154">
        <ele>54.9</ele>
        <time>2021-03-21T15:46:35Z</time>
      </trkpt>
      <trkpt lat="49.42617" lon="1.17148">
        <ele>54.3</ele>
        <time>2021-03-21T15:46:36Z</time>
      </trkpt>
      <trkpt lat="49.42631" lon="1.17138">
        <ele>53.4</ele>
        <time>2021-03-21T15:46:38Z</time>
      </trkpt>
      <trkpt lat="49.42644" lon="1.17128">
        <ele>52.7</ele>
        <time>2021-03-21T15:46:40Z</time>
      </trkpt>
      <trkpt lat="49.42657" lon="1.17118">
        <ele>52.1</ele>
        <time>2021-03-21T15:46:42Z</time>
      </trkpt>
      <trkpt lat="49.42669" lon="1.17105">
        <ele>51.5</ele>
        <time>2021-03-21T15:46:44Z</time>
      </trkpt>
      <trkpt lat="49.42679" lon="1.17094">
        <ele>51.1</ele>
        <time>2021-03-21T15:46:46Z</time>
      </trkpt>
      <trkpt lat="49.42689" lon="1.17082">
        <ele>50.8</ele>
        <time>2021-03-21T15:46:48Z</time>
      </trkpt>
      <trkpt lat="49.42693" lon="1.17075">
        <ele>50.6</ele>
        <time>2021-03-21T15:46:49Z</time>
      </trkpt>
      <trkpt lat="49.42704" lon="1.17062">
        <ele>50.1</ele>
        <time>2021-03-21T15:46:51Z</time>
      </trkpt>
      <trkpt lat="49.42713" lon="1.17052">
        <ele>49.8</ele>
        <time>2021-03-21T15:46:53Z</time>
      </trkpt>
      <trkpt lat="49.42722" lon="1.17041">
        <ele>49.4</ele>
        <time>2021-03-21T15:46:55Z</time>
      </trkpt>
      <trkpt lat="49.42726" lon="1.17035">
        <ele>49.2</ele>
        <time>2021-03-21T15:46:56Z</time>
      </trkpt>
      <trkpt lat="49.42731" lon="1.17031">
        <ele>49.1</ele>
        <time>2021-03-21T15:46:57Z</time>
      </trkpt>
      <trkpt lat="49.42739" lon="1.17021">
        <ele>48.8</ele>
        <time>2021-03-21T15:46:59Z</time>
      </trkpt>
      <trkpt lat="49.42744" lon="1.17017">
        <ele>48.7</ele>
        <time>2021-03-21T15:47:00Z</time>
      </trkpt>
      <trkpt lat="49.42755" lon="1.17008">
        <ele>48.3</ele>
        <time>2021-03-21T15:47:02Z</time>
      </trkpt>
      <trkpt lat="49.42761" lon="1.17003">
        <ele>48.2</ele>
        <time>2021-03-21T15:47:03Z</time>
      </trkpt>
      <trkpt lat="49.4277" lon="1.16993">
        <ele>47.9</ele>
        <time>2021-03-21T15:47:05Z</time>
      </trkpt>
      <trkpt lat="49.4278" lon="1.16982">
        <ele>47.7</ele>
        <time>2021-03-21T15:47:07Z</time>
      </trkpt>
      <trkpt lat="49.42784" lon="1.16975">
        <ele>47.5</ele>
        <time>2021-03-21T15:47:08Z</time>
      </trkpt>
      <trkpt lat="49.42794" lon="1.1696">
        <ele>47.1</ele>
        <time>2021-03-21T15:47:10Z</time>
      </trkpt>
      <trkpt lat="49.42803" lon="1.16946">
        <ele>46.7</ele>
        <time>2021-03-21T15:47:12Z</time>
      </trkpt>
      <trkpt lat="49.42812" lon="1.16931">
        <ele>46.4</ele>
        <time>2021-03-21T15:47:14Z</time>
      </trkpt>
      <trkpt lat="49.42819" lon="1.16918">
        <ele>46.1</ele>
        <time>2021-03-21T15:47:16Z</time>
      </trkpt>
      <trkpt lat="49.42828" lon="1.16903">
        <ele>45.8</ele>
        <time>2021-03-21T15:47:18Z</time>
      </trkpt>
      <trkpt lat="49.42835" lon="1.16887">
        <ele>45.6</ele>
        <time>2021-03-21T15:47:20Z</time>
      </trkpt>
      <trkpt lat="49.42841" lon="1.16871">
        <ele>45.5</ele>
        <time>2021-03-21T15:47:22Z</time>
      </trkpt>
      <trkpt lat="49.42844" lon="1.16863">
        <ele>45.4</ele>
        <time>2021-03-21T15:47:23Z</time>
      </trkpt>
      <trkpt lat="49.42847" lon="1.16856">
        <ele>45.4</ele>
        <time>2021-03-21T15:47:24Z</time>
      </trkpt>
      <trkpt lat="49.42852" lon="1.1684">
        <ele>45.3</ele>
        <time>2021-03-21T15:47:26Z</time>
      </trkpt>
      <trkpt lat="49.42856" lon="1.16832">
        <ele>45.3</ele>
        <time>2021-03-21T15:47:27Z</time>
      </trkpt>
      <trkpt lat="49.42861" lon="1.16817">
        <ele>45.5</ele>
        <time>2021-03-21T15:47:29Z</time>
      </trkpt>
      <trkpt lat="49.42864" lon="1.1681">
        <ele>45.6</ele>
        <time>2021-03-21T15:47:30Z</time>
      </trkpt>
      <trkpt lat="49.42867" lon="1.16794">
        <ele>46</ele>
        <time>2021-03-21T15:47:32Z</time>
      </trkpt>
      <trkpt lat="49.4287" lon="1.16779">
        <ele>46.5</ele>
        <time>2021-03-21T15:47:34Z</time>
      </trkpt>
      <trkpt lat="49.42872" lon="1.16773">
        <ele>46.8</ele>
        <time>2021-03-21T15:47:35Z</time>
      </trkpt>
      <trkpt lat="49.42875" lon="1.16759">
        <ele>47.4</ele>
        <time>2021-03-21T15:47:37Z</time>
      </trkpt>
      <trkpt lat="49.42876" lon="1.16746">
        <ele>48</ele>
        <time>2021-03-21T15:47:39Z</time>
      </trkpt>
      <trkpt lat="49.42876" lon="1.16739">
        <ele>48.4</ele>
        <time>2021-03-21T15:47:40Z</time>
      </trkpt>
      <trkpt lat="49.42878" lon="1.16725">
        <ele>49.1</ele>
        <time>2021-03-21T15:47:42Z</time>
      </trkpt>
      <trkpt lat="49.42878" lon="1.16718">
        <ele>49.5</ele>
        <time>2021-03-21T15:47:43Z</time>
      </trkpt>
      <trkpt lat="49.42878" lon="1.16705">
        <ele>50.2</ele>
        <time>2021-03-21T15:47:45Z</time>
      </trkpt>
      <trkpt lat="49.42878" lon="1.16698">
        <ele>50.5</ele>
        <time>2021-03-21T15:47:46Z</time>
      </trkpt>
      <trkpt lat="49.42878" lon="1.16686">
        <ele>51.1</ele>
        <time>2021-03-21T15:47:48Z</time>
      </trkpt>
      <trkpt lat="49.42878" lon="1.1668">
        <ele>51.4</ele>
        <time>2021-03-21T15:47:49Z</time>
      </trkpt>
      <trkpt lat="49.42879" lon="1.16665">
        <ele>52.2</ele>
        <time>2021-03-21T15:47:51Z</time>
      </trkpt>
      <trkpt lat="49.42878" lon="1.1665">
        <ele>52.4</ele>
        <time>2021-03-21T15:47:53Z</time>
      </trkpt>
      <trkpt lat="49.42878" lon="1.16634">
        <ele>52.5</ele>
        <time>2021-03-21T15:47:55Z</time>
      </trkpt>
      <trkpt lat="49.42879" lon="1.16626">
        <ele>52.5</ele>
        <time>2021-03-21T15:47:56Z</time>
      </trkpt>
      <trkpt lat="49.42878" lon="1.16616">
        <ele>52.4</ele>
        <time>2021-03-21T15:47:57Z</time>
      </trkpt>
      <trkpt lat="49.42876" lon="1.16596">
        <ele>52.1</ele>
        <time>2021-03-21T15:47:59Z</time>
      </trkpt>
      <trkpt lat="49.42876" lon="1.16577">
        <ele>51.6</ele>
        <time>2021-03-21T15:48:01Z</time>
      </trkpt>
      <trkpt lat="49.42877" lon="1.1656">
        <ele>50.9</ele>
        <time>2021-03-21T15:48:03Z</time>
      </trkpt>
      <trkpt lat="49.4288" lon="1.16539">
        <ele>50.1</ele>
        <time>2021-03-21T15:48:05Z</time>
      </trkpt>
      <trkpt lat="49.42881" lon="1.16529">
        <ele>49.7</ele>
        <time>2021-03-21T15:48:06Z</time>
      </trkpt>
      <trkpt lat="49.42883" lon="1.16518">
        <ele>49.2</ele>
        <time>2021-03-21T15:48:07Z</time>
      </trkpt>
      <trkpt lat="49.42887" lon="1.16496">
        <ele>48.2</ele>
        <time>2021-03-21T15:48:09Z</time>
      </trkpt>
      <trkpt lat="49.42892" lon="1.16476">
        <ele>47.5</ele>
        <time>2021-03-21T15:48:11Z</time>
      </trkpt>
      <trkpt lat="49.42897" lon="1.16457">
        <ele>46.9</ele>
        <time>2021-03-21T15:48:13Z</time>
      </trkpt>
      <trkpt lat="49.42903" lon="1.16439">
        <ele>46.5</ele>
        <time>2021-03-21T15:48:15Z</time>
      </trkpt>
      <trkpt lat="49.42908" lon="1.16419">
        <ele>46.1</ele>
        <time>2021-03-21T15:48:17Z</time>
      </trkpt>
      <trkpt lat="49.42912" lon="1.164">
        <ele>45.8</ele>
        <time>2021-03-21T15:48:19Z</time>
      </trkpt>
      <trkpt lat="49.42914" lon="1.1639">
        <ele>45.6</ele>
        <time>2021-03-21T15:48:20Z</time>
      </trkpt>
      <trkpt lat="49.42917" lon="1.1637">
        <ele>45.3</ele>
        <time>2021-03-21T15:48:22Z</time>
      </trkpt>
      <trkpt lat="49.4292" lon="1.1635">
        <ele>44.9</ele>
        <time>2021-03-21T15:48:24Z</time>
      </trkpt>
      <trkpt lat="49.42922" lon="1.16339">
        <ele>44.8</ele>
        <time>2021-03-21T15:48:25Z</time>
      </trkpt>
      <trkpt lat="49.42924" lon="1.16328">
        <ele>44.8</ele>
        <time>2021-03-21T15:48:26Z</time>
      </trkpt>
      <trkpt lat="49.42927" lon="1.16308">
        <ele>44.7</ele>
        <time>2021-03-21T15:48:28Z</time>
      </trkpt>
      <trkpt lat="49.42929" lon="1.16288">
        <ele>44.6</ele>
        <time>2021-03-21T15:48:30Z</time>
      </trkpt>
      <trkpt lat="49.4293" lon="1.16278">
        <ele>44.5</ele>
        <time>2021-03-21T15:48:31Z</time>
      </trkpt>
      <trkpt lat="49.42934" lon="1.16258">
        <ele>44.3</ele>
        <time>2021-03-21T15:48:33Z</time>
      </trkpt>
      <trkpt lat="49.42937" lon="1.16238">
        <ele>44.2</ele>
        <time>2021-03-21T15:48:35Z</time>
      </trkpt>
      <trkpt lat="49.4294" lon="1.16219">
        <ele>44.1</ele>
        <time>2021-03-21T15:48:37Z</time>
      </trkpt>
      <trkpt lat="49.42942" lon="1.16199">
        <ele>44</ele>
        <time>2021-03-21T15:48:39Z</time>
      </trkpt>
      <trkpt lat="49.42943" lon="1.16189">
        <ele>43.9</ele>
        <time>2021-03-21T15:48:40Z</time>
      </trkpt>
      <trkpt lat="49.42945" lon="1.16179">
        <ele>43.8</ele>
        <time>2021-03-21T15:48:41Z</time>
      </trkpt>
      <trkpt lat="49.42946" lon="1.1617">
        <ele>43.8</ele>
        <time>2021-03-21T15:48:42Z</time>
      </trkpt>
      <trkpt lat="49.42948" lon="1.16151">
        <ele>43.7</ele>
        <time>2021-03-21T15:48:44Z</time>
      </trkpt>
      <trkpt lat="49.4295" lon="1.16142">
        <ele>43.6</ele>
        <time>2021-03-21T15:48:45Z</time>
      </trkpt>
      <trkpt lat="49.42952" lon="1.16132">
        <ele>43.6</ele>
        <time>2021-03-21T15:48:46Z</time>
      </trkpt>
      <trkpt lat="49.42955" lon="1.16114">
        <ele>43.5</ele>
        <time>2021-03-21T15:48:48Z</time>
      </trkpt>
      <trkpt lat="49.4296" lon="1.16095">
        <ele>43.4</ele>
        <time>2021-03-21T15:48:50Z</time>
      </trkpt>
      <trkpt lat="49.42967" lon="1.16077">
        <ele>43.3</ele>
        <time>2021-03-21T15:48:52Z</time>
      </trkpt>
      <trkpt lat="49.4297" lon="1.16069">
        <ele>43.2</ele>
        <time>2021-03-21T15:48:53Z</time>
      </trkpt>
      <trkpt lat="49.42975" lon="1.1605">
        <ele>43.1</ele>
        <time>2021-03-21T15:48:55Z</time>
      </trkpt>
      <trkpt lat="49.42978" lon="1.16029">
        <ele>42.9</ele>
        <time>2021-03-21T15:48:57Z</time>
      </trkpt>
      <trkpt lat="49.42981" lon="1.16009">
        <ele>42.7</ele>
        <time>2021-03-21T15:48:59Z</time>
      </trkpt>
      <trkpt lat="49.42984" lon="1.16">
        <ele>42.6</ele>
        <time>2021-03-21T15:49:00Z</time>
      </trkpt>
      <trkpt lat="49.42986" lon="1.15991">
        <ele>42.5</ele>
        <time>2021-03-21T15:49:01Z</time>
      </trkpt>
      <trkpt lat="49.42992" lon="1.15972">
        <ele>42.2</ele>
        <time>2021-03-21T15:49:03Z</time>
      </trkpt>
      <trkpt lat="49.42994" lon="1.15962">
        <ele>42</ele>
        <time>2021-03-21T15:49:04Z</time>
      </trkpt>
      <trkpt lat="49.42996" lon="1.15952">
        <ele>41.9</ele>
        <time>2021-03-21T15:49:05Z</time>
      </trkpt>
      <trkpt lat="49.43001" lon="1.15932">
        <ele>41.5</ele>
        <time>2021-03-21T15:49:07Z</time>
      </trkpt>
      <trkpt lat="49.43006" lon="1.15912">
        <ele>41.2</ele>
        <time>2021-03-21T15:49:09Z</time>
      </trkpt>
      <trkpt lat="49.4301" lon="1.15891">
        <ele>40.8</ele>
        <time>2021-03-21T15:49:11Z</time>
      </trkpt>
      <trkpt lat="49.43014" lon="1.15869">
        <ele>40.4</ele>
        <time>2021-03-21T15:49:13Z</time>
      </trkpt>
      <trkpt lat="49.43015" lon="1.15858">
        <ele>40.2</ele>
        <time>2021-03-21T15:49:14Z</time>
      </trkpt>
      <trkpt lat="49.43019" lon="1.15838">
        <ele>39.7</ele>
        <time>2021-03-21T15:49:16Z</time>
      </trkpt>
      <trkpt lat="49.43022" lon="1.15828">
        <ele>39.5</ele>
        <time>2021-03-21T15:49:17Z</time>
      </trkpt>
      <trkpt lat="49.43024" lon="1.15818">
        <ele>39.3</ele>
        <time>2021-03-21T15:49:18Z</time>
      </trkpt>
      <trkpt lat="49.4303" lon="1.15799">
        <ele>38.8</ele>
        <time>2021-03-21T15:49:20Z</time>
      </trkpt>
      <trkpt lat="49.43033" lon="1.15789">
        <ele>38.6</ele>
        <time>2021-03-21T15:49:21Z</time>
      </trkpt>
      <trkpt lat="49.43038" lon="1.1577">
        <ele>38.1</ele>
        <time>2021-03-21T15:49:23Z</time>
      </trkpt>
      <trkpt lat="49.43041" lon="1.1576">
        <ele>37.8</ele>
        <time>2021-03-21T15:49:24Z</time>
      </trkpt>
      <trkpt lat="49.43046" lon="1.1574">
        <ele>37.4</ele>
        <time>2021-03-21T15:49:26Z</time>
      </trkpt>
      <trkpt lat="49.43051" lon="1.1572">
        <ele>37</ele>
        <time>2021-03-21T15:49:28Z</time>
      </trkpt>
      <trkpt lat="49.43054" lon="1.1571">
        <ele>36.9</ele>
        <time>2021-03-21T15:49:29Z</time>
      </trkpt>
      <trkpt lat="49.43059" lon="1.15691">
        <ele>36.6</ele>
        <time>2021-03-21T15:49:31Z</time>
      </trkpt>
      <trkpt lat="49.43065" lon="1.15672">
        <ele>36.5</ele>
        <time>2021-03-21T15:49:33Z</time>
      </trkpt>
      <trkpt lat="49.43072" lon="1.15654">
        <ele>36.3</ele>
        <time>2021-03-21T15:49:35Z</time>
      </trkpt>
      <trkpt lat="49.43079" lon="1.15635">
        <ele>36.2</ele>
        <time>2021-03-21T15:49:37Z</time>
      </trkpt>
      <trkpt lat="49.43082" lon="1.15626">
        <ele>36.2</ele>
        <time>2021-03-21T15:49:38Z</time>
      </trkpt>
      <trkpt lat="49.43088" lon="1.15608">
        <ele>36.1</ele>
        <time>2021-03-21T15:49:40Z</time>
      </trkpt>
      <trkpt lat="49.4309" lon="1.15599">
        <ele>36</ele>
        <time>2021-03-21T15:49:41Z</time>
      </trkpt>
      <trkpt lat="49.43093" lon="1.1559">
        <ele>36</ele>
        <time>2021-03-21T15:49:42Z</time>
      </trkpt>
      <trkpt lat="49.43098" lon="1.15572">
        <ele>35.9</ele>
        <time>2021-03-21T15:49:44Z</time>
      </trkpt>
      <trkpt lat="49.43103" lon="1.15554">
        <ele>35.8</ele>
        <time>2021-03-21T15:49:46Z</time>
      </trkpt>
      <trkpt lat="49.43106" lon="1.15545">
        <ele>35.8</ele>
        <time>2021-03-21T15:49:47Z</time>
      </trkpt>
      <trkpt lat="49.43109" lon="1.15537">
        <ele>35.8</ele>
        <time>2021-03-21T15:49:48Z</time>
      </trkpt>
      <trkpt lat="49.43114" lon="1.1552">
        <ele>35.9</ele>
        <time>2021-03-21T15:49:50Z</time>
      </trkpt>
      <trkpt lat="49.43117" lon="1.15511">
        <ele>35.9</ele>
        <time>2021-03-21T15:49:51Z</time>
      </trkpt>
      <trkpt lat="49.43121" lon="1.15495">
        <ele>36.1</ele>
        <time>2021-03-21T15:49:53Z</time>
      </trkpt>
      <trkpt lat="49.43123" lon="1.15487">
        <ele>36.1</ele>
        <time>2021-03-21T15:49:54Z</time>
      </trkpt>
      <trkpt lat="49.43128" lon="1.15472">
        <ele>36.3</ele>
        <time>2021-03-21T15:49:56Z</time>
      </trkpt>
      <trkpt lat="49.43131" lon="1.15464">
        <ele>36.4</ele>
        <time>2021-03-21T15:49:57Z</time>
      </trkpt>
      <trkpt lat="49.43137" lon="1.1545">
        <ele>36.5</ele>
        <time>2021-03-21T15:49:59Z</time>
      </trkpt>
      <trkpt lat="49.43142" lon="1.15434">
        <ele>36.6</ele>
        <time>2021-03-21T15:50:01Z</time>
      </trkpt>
      <trkpt lat="49.43147" lon="1.15418">
        <ele>36.8</ele>
        <time>2021-03-21T15:50:03Z</time>
      </trkpt>
      <trkpt lat="49.43152" lon="1.15402">
        <ele>36.9</ele>
        <time>2021-03-21T15:50:05Z</time>
      </trkpt>
      <trkpt lat="49.43155" lon="1.15395">
        <ele>37</ele>
        <time>2021-03-21T15:50:06Z</time>
      </trkpt>
      <trkpt lat="49.43157" lon="1.15387">
        <ele>37.1</ele>
        <time>2021-03-21T15:50:07Z</time>
      </trkpt>
      <trkpt lat="49.43159" lon="1.1538">
        <ele>37.1</ele>
        <time>2021-03-21T15:50:08Z</time>
      </trkpt>
      <trkpt lat="49.43165" lon="1.15365">
        <ele>37.3</ele>
        <time>2021-03-21T15:50:10Z</time>
      </trkpt>
      <trkpt lat="49.43169" lon="1.1535">
        <ele>37.4</ele>
        <time>2021-03-21T15:50:12Z</time>
      </trkpt>
      <trkpt lat="49.43174" lon="1.15335">
        <ele>37.6</ele>
        <time>2021-03-21T15:50:14Z</time>
      </trkpt>
      <trkpt lat="49.43176" lon="1.15327">
        <ele>37.7</ele>
        <time>2021-03-21T15:50:15Z</time>
      </trkpt>
      <trkpt lat="49.43178" lon="1.15319">
        <ele>37.7</ele>
        <time>2021-03-21T15:50:16Z</time>
      </trkpt>
      <trkpt lat="49.4318" lon="1.15312">
        <ele>37.8</ele>
        <time>2021-03-21T15:50:17Z</time>
      </trkpt>
      <trkpt lat="49.43185" lon="1.15297">
        <ele>37.9</ele>
        <time>2021-03-21T15:50:19Z</time>
      </trkpt>
      <trkpt lat="49.43188" lon="1.15283">
        <ele>37.9</ele>
        <time>2021-03-21T15:50:21Z</time>
      </trkpt>
      <trkpt lat="49.43193" lon="1.15269">
        <ele>38</ele>
        <time>2021-03-21T15:50:23Z</time>
      </trkpt>
      <trkpt lat="49.43195" lon="1.15261">
        <ele>38.1</ele>
        <time>2021-03-21T15:50:24Z</time>
      </trkpt>
      <trkpt lat="49.432" lon="1.15246">
        <ele>38.1</ele>
        <time>2021-03-21T15:50:26Z</time>
      </trkpt>
      <trkpt lat="49.43206" lon="1.15231">
        <ele>38.1</ele>
        <time>2021-03-21T15:50:28Z</time>
      </trkpt>
      <trkpt lat="49.43208" lon="1.15223">
        <ele>38.1</ele>
        <time>2021-03-21T15:50:29Z</time>
      </trkpt>
      <trkpt lat="49.43211" lon="1.15216">
        <ele>38.1</ele>
        <time>2021-03-21T15:50:30Z</time>
      </trkpt>
      <trkpt lat="49.43214" lon="1.15209">
        <ele>38.1</ele>
        <time>2021-03-21T15:50:31Z</time>
      </trkpt>
      <trkpt lat="49.43221" lon="1.15195">
        <ele>38</ele>
        <time>2021-03-21T15:50:33Z</time>
      </trkpt>
      <trkpt lat="49.43228" lon="1.15183">
        <ele>38</ele>
        <time>2021-03-21T15:50:35Z</time>
      </trkpt>
      <trkpt lat="49.43231" lon="1.15177">
        <ele>38</ele>
        <time>2021-03-21T15:50:36Z</time>
      </trkpt>
      <trkpt lat="49.43234" lon="1.15172">
        <ele>38</ele>
        <time>2021-03-21T15:50:37Z</time>
      </trkpt>
      <trkpt lat="49.43242" lon="1.1516">
        <ele>38</ele>
        <time>2021-03-21T15:50:39Z</time>
      </trkpt>
      <trkpt lat="49.4325" lon="1.15148">
        <ele>38</ele>
        <time>2021-03-21T15:50:41Z</time>
      </trkpt>
      <trkpt lat="49.43258" lon="1.15135">
        <ele>38.2</ele>
        <time>2021-03-21T15:50:43Z</time>
      </trkpt>
      <trkpt lat="49.43262" lon="1.15128">
        <ele>38.2</ele>
        <time>2021-03-21T15:50:44Z</time>
      </trkpt>
      <trkpt lat="49.43266" lon="1.15121">
        <ele>38.3</ele>
        <time>2021-03-21T15:50:45Z</time>
      </trkpt>
      <trkpt lat="49.43273" lon="1.1511">
        <ele>38.5</ele>
        <time>2021-03-21T15:50:47Z</time>
      </trkpt>
      <trkpt lat="49.4328" lon="1.15099">
        <ele>38.7</ele>
        <time>2021-03-21T15:50:49Z</time>
      </trkpt>
      <trkpt lat="49.43287" lon="1.15088">
        <ele>39</ele>
        <time>2021-03-21T15:50:51Z</time>
      </trkpt>
      <trkpt lat="49.43294" lon="1.15076">
        <ele>39.2</ele>
        <time>2021-03-21T15:50:53Z</time>
      </trkpt>
      <trkpt lat="49.43297" lon="1.1507">
        <ele>39.4</ele>
        <time>2021-03-21T15:50:54Z</time>
      </trkpt>
      <trkpt lat="49.433" lon="1.15064">
        <ele>39.5</ele>
        <time>2021-03-21T15:50:55Z</time>
      </trkpt>
      <trkpt lat="49.43309" lon="1.15056">
        <ele>39.8</ele>
        <time>2021-03-21T15:50:57Z</time>
      </trkpt>
      <trkpt lat="49.43313" lon="1.15051">
        <ele>39.9</ele>
        <time>2021-03-21T15:50:58Z</time>
      </trkpt>
      <trkpt lat="49.43322" lon="1.15042">
        <ele>40.1</ele>
        <time>2021-03-21T15:51:00Z</time>
      </trkpt>
      <trkpt lat="49.43327" lon="1.15037">
        <ele>40.3</ele>
        <time>2021-03-21T15:51:01Z</time>
      </trkpt>
      <trkpt lat="49.43331" lon="1.15032">
        <ele>40.4</ele>
        <time>2021-03-21T15:51:02Z</time>
      </trkpt>
      <trkpt lat="49.43335" lon="1.15027">
        <ele>40.5</ele>
        <time>2021-03-21T15:51:03Z</time>
      </trkpt>
      <trkpt lat="49.43342" lon="1.15018">
        <ele>40.8</ele>
        <time>2021-03-21T15:51:05Z</time>
      </trkpt>
      <trkpt lat="49.43347" lon="1.15009">
        <ele>40.8</ele>
        <time>2021-03-21T15:51:07Z</time>
      </trkpt>
      <trkpt lat="49.4335" lon="1.15005">
        <ele>40.7</ele>
        <time>2021-03-21T15:51:08Z</time>
      </trkpt>
      <trkpt lat="49.43356" lon="1.15">
        <ele>40.4</ele>
        <time>2021-03-21T15:51:10Z</time>
      </trkpt>
      <trkpt lat="49.43362" lon="1.14995">
        <ele>40.1</ele>
        <time>2021-03-21T15:51:11Z</time>
      </trkpt>
      <trkpt lat="49.43368" lon="1.14992">
        <ele>39.9</ele>
        <time>2021-03-21T15:51:12Z</time>
      </trkpt>
      <trkpt lat="49.43379" lon="1.14985">
        <ele>39.3</ele>
        <time>2021-03-21T15:51:14Z</time>
      </trkpt>
      <trkpt lat="49.43391" lon="1.14975">
        <ele>38.7</ele>
        <time>2021-03-21T15:51:16Z</time>
      </trkpt>
      <trkpt lat="49.43397" lon="1.14969">
        <ele>38.3</ele>
        <time>2021-03-21T15:51:17Z</time>
      </trkpt>
      <trkpt lat="49.43408" lon="1.14956">
        <ele>37.6</ele>
        <time>2021-03-21T15:51:19Z</time>
      </trkpt>
      <trkpt lat="49.43417" lon="1.14942">
        <ele>36.8</ele>
        <time>2021-03-21T15:51:21Z</time>
      </trkpt>
      <trkpt lat="49.43421" lon="1.14934">
        <ele>36.4</ele>
        <time>2021-03-21T15:51:22Z</time>
      </trkpt>
      <trkpt lat="49.43425" lon="1.14925">
        <ele>35.9</ele>
        <time>2021-03-21T15:51:23Z</time>
      </trkpt>
      <trkpt lat="49.43432" lon="1.14904">
        <ele>34.7</ele>
        <time>2021-03-21T15:51:25Z</time>
      </trkpt>
      <trkpt lat="49.43439" lon="1.14883">
        <ele>33.6</ele>
        <time>2021-03-21T15:51:27Z</time>
      </trkpt>
      <trkpt lat="49.43442" lon="1.14872">
        <ele>33</ele>
        <time>2021-03-21T15:51:28Z</time>
      </trkpt>
      <trkpt lat="49.43449" lon="1.14851">
        <ele>31.9</ele>
        <time>2021-03-21T15:51:30Z</time>
      </trkpt>
      <trkpt lat="49.43457" lon="1.14831">
        <ele>30.8</ele>
        <time>2021-03-21T15:51:32Z</time>
      </trkpt>
      <trkpt lat="49.43461" lon="1.14822">
        <ele>30.4</ele>
        <time>2021-03-21T15:51:33Z</time>
      </trkpt>
      <trkpt lat="49.43464" lon="1.14813">
        <ele>29.9</ele>
        <time>2021-03-21T15:51:34Z</time>
      </trkpt>
      <trkpt lat="49.43472" lon="1.14792">
        <ele>28.9</ele>
        <time>2021-03-21T15:51:36Z</time>
      </trkpt>
      <trkpt lat="49.43479" lon="1.1477">
        <ele>27.9</ele>
        <time>2021-03-21T15:51:38Z</time>
      </trkpt>
      <trkpt lat="49.43483" lon="1.1476">
        <ele>27.4</ele>
        <time>2021-03-21T15:51:39Z</time>
      </trkpt>
      <trkpt lat="49.43486" lon="1.14748">
        <ele>27</ele>
        <time>2021-03-21T15:51:40Z</time>
      </trkpt>
      <trkpt lat="49.4349" lon="1.14737">
        <ele>26.5</ele>
        <time>2021-03-21T15:51:41Z</time>
      </trkpt>
      <trkpt lat="49.43501" lon="1.14722">
        <ele>25.7</ele>
        <time>2021-03-21T15:51:43Z</time>
      </trkpt>
      <trkpt lat="49.43509" lon="1.14719">
        <ele>25.4</ele>
        <time>2021-03-21T15:51:44Z</time>
      </trkpt>
      <trkpt lat="49.43518" lon="1.14716">
        <ele>25.5</ele>
        <time>2021-03-21T15:51:45Z</time>
      </trkpt>
      <trkpt lat="49.43527" lon="1.14699">
        <ele>25.3</ele>
        <time>2021-03-21T15:51:47Z</time>
      </trkpt>
      <trkpt lat="49.43525" lon="1.14678">
        <ele>24.9</ele>
        <time>2021-03-21T15:51:49Z</time>
      </trkpt>
      <trkpt lat="49.43525" lon="1.14666">
        <ele>24.4</ele>
        <time>2021-03-21T15:51:50Z</time>
      </trkpt>
      <trkpt lat="49.43526" lon="1.14653">
        <ele>24.1</ele>
        <time>2021-03-21T15:51:51Z</time>
      </trkpt>
      <trkpt lat="49.43528" lon="1.14641">
        <ele>23.7</ele>
        <time>2021-03-21T15:51:52Z</time>
      </trkpt>
      <trkpt lat="49.43535" lon="1.14617">
        <ele>23.1</ele>
        <time>2021-03-21T15:51:54Z</time>
      </trkpt>
      <trkpt lat="49.43543" lon="1.14596">
        <ele>22.5</ele>
        <time>2021-03-21T15:51:56Z</time>
      </trkpt>
      <trkpt lat="49.43551" lon="1.14575">
        <ele>22</ele>
        <time>2021-03-21T15:51:58Z</time>
      </trkpt>
      <trkpt lat="49.43554" lon="1.14565">
        <ele>21.7</ele>
        <time>2021-03-21T15:51:59Z</time>
      </trkpt>
      <trkpt lat="49.4356" lon="1.14546">
        <ele>21.3</ele>
        <time>2021-03-21T15:52:01Z</time>
      </trkpt>
      <trkpt lat="49.43565" lon="1.14529">
        <ele>20.9</ele>
        <time>2021-03-21T15:52:03Z</time>
      </trkpt>
      <trkpt lat="49.43569" lon="1.14523">
        <ele>20.7</ele>
        <time>2021-03-21T15:52:04Z</time>
      </trkpt>
      <trkpt lat="49.43579" lon="1.14509">
        <ele>20.4</ele>
        <time>2021-03-21T15:52:06Z</time>
      </trkpt>
      <trkpt lat="49.43583" lon="1.14501">
        <ele>20.2</ele>
        <time>2021-03-21T15:52:07Z</time>
      </trkpt>
      <trkpt lat="49.43591" lon="1.14483">
        <ele>19.8</ele>
        <time>2021-03-21T15:52:09Z</time>
      </trkpt>
      <trkpt lat="49.436" lon="1.14462">
        <ele>19.5</ele>
        <time>2021-03-21T15:52:11Z</time>
      </trkpt>
      <trkpt lat="49.43605" lon="1.14452">
        <ele>19.4</ele>
        <time>2021-03-21T15:52:12Z</time>
      </trkpt>
      <trkpt lat="49.43609" lon="1.14442">
        <ele>19.3</ele>
        <time>2021-03-21T15:52:13Z</time>
      </trkpt>
      <trkpt lat="49.43617" lon="1.14423">
        <ele>19.1</ele>
        <time>2021-03-21T15:52:15Z</time>
      </trkpt>
      <trkpt lat="49.43622" lon="1.14414">
        <ele>19</ele>
        <time>2021-03-21T15:52:16Z</time>
      </trkpt>
      <trkpt lat="49.43633" lon="1.14398">
        <ele>18.9</ele>
        <time>2021-03-21T15:52:18Z</time>
      </trkpt>
      <trkpt lat="49.43642" lon="1.14381">
        <ele>18.8</ele>
        <time>2021-03-21T15:52:20Z</time>
      </trkpt>
      <trkpt lat="49.43648" lon="1.14374">
        <ele>18.8</ele>
        <time>2021-03-21T15:52:21Z</time>
      </trkpt>
      <trkpt lat="49.43653" lon="1.14367">
        <ele>18.8</ele>
        <time>2021-03-21T15:52:22Z</time>
      </trkpt>
      <trkpt lat="49.43665" lon="1.1436">
        <ele>18.8</ele>
        <time>2021-03-21T15:52:24Z</time>
      </trkpt>
      <trkpt lat="49.43676" lon="1.14354">
        <ele>18.8</ele>
        <time>2021-03-21T15:52:26Z</time>
      </trkpt>
      <trkpt lat="49.43687" lon="1.14346">
        <ele>18.9</ele>
        <time>2021-03-21T15:52:28Z</time>
      </trkpt>
      <trkpt lat="49.43693" lon="1.14341">
        <ele>18.9</ele>
        <time>2021-03-21T15:52:29Z</time>
      </trkpt>
      <trkpt lat="49.43702" lon="1.14329">
        <ele>19</ele>
        <time>2021-03-21T15:52:31Z</time>
      </trkpt>
      <trkpt lat="49.43706" lon="1.14324">
        <ele>19</ele>
        <time>2021-03-21T15:52:32Z</time>
      </trkpt>
      <trkpt lat="49.43715" lon="1.14315">
        <ele>19.2</ele>
        <time>2021-03-21T15:52:34Z</time>
      </trkpt>
      <trkpt lat="49.43721" lon="1.14305">
        <ele>19.3</ele>
        <time>2021-03-21T15:52:36Z</time>
      </trkpt>
      <trkpt lat="49.43723" lon="1.14302">
        <ele>19.3</ele>
        <time>2021-03-21T15:52:37Z</time>
      </trkpt>
      <trkpt lat="49.43723" lon="1.14299">
        <ele>19.4</ele>
        <time>2021-03-21T15:52:38Z</time>
      </trkpt>
      <trkpt lat="49.43723" lon="1.14299">
        <ele>19.4</ele>
        <time>2021-03-21T15:52:39Z</time>
      </trkpt>
      <trkpt lat="49.43723" lon="1.143">
        <ele>19.4</ele>
        <time>2021-03-21T15:52:41Z</time>
      </trkpt>
      <trkpt lat="49.43723" lon="1.143">
        <ele>19.4</ele>
        <time>2021-03-21T15:52:42Z</time>
      </trkpt>
      <trkpt lat="49.43723" lon="1.143">
        <ele>19.4</ele>
        <time>2021-03-21T15:52:43Z</time>
      </trkpt>
      <trkpt lat="49.43723" lon="1.14301">
        <ele>19.4</ele>
        <time>2021-03-21T15:52:45Z</time>
      </trkpt>
      <trkpt lat="49.43723" lon="1.14301">
        <ele>19.4</ele>
        <time>2021-03-21T15:52:47Z</time>
      </trkpt>
      <trkpt lat="49.43723" lon="1.14301">
        <ele>19.4</ele>
        <time>2021-03-21T15:52:48Z</time>
      </trkpt>
      <trkpt lat="49.43725" lon="1.14297">
        <ele>19.4</ele>
        <time>2021-03-21T15:52:57Z</time>
      </trkpt>
      <trkpt lat="49.43726" lon="1.14295">
        <ele>19.4</ele>
        <time>2021-03-21T15:52:58Z</time>
      </trkpt>
      <trkpt lat="49.43726" lon="1.14292">
        <ele>19.4</ele>
        <time>2021-03-21T15:53:00Z</time>
      </trkpt>
      <trkpt lat="49.43727" lon="1.14287">
        <ele>19.5</ele>
        <time>2021-03-21T15:53:02Z</time>
      </trkpt>
      <trkpt lat="49.43728" lon="1.14281">
        <ele>19.5</ele>
        <time>2021-03-21T15:53:04Z</time>
      </trkpt>
      <trkpt lat="49.43729" lon="1.14268">
        <ele>19.6</ele>
        <time>2021-03-21T15:53:06Z</time>
      </trkpt>
      <trkpt lat="49.43729" lon="1.14263">
        <ele>19.6</ele>
        <time>2021-03-21T15:53:07Z</time>
      </trkpt>
      <trkpt lat="49.4373" lon="1.14257">
        <ele>19.6</ele>
        <time>2021-03-21T15:53:08Z</time>
      </trkpt>
      <trkpt lat="49.4373" lon="1.14251">
        <ele>19.6</ele>
        <time>2021-03-21T15:53:09Z</time>
      </trkpt>
      <trkpt lat="49.43733" lon="1.14237">
        <ele>19.6</ele>
        <time>2021-03-21T15:53:11Z</time>
      </trkpt>
      <trkpt lat="49.43735" lon="1.14222">
        <ele>19.5</ele>
        <time>2021-03-21T15:53:13Z</time>
      </trkpt>
      <trkpt lat="49.43738" lon="1.14205">
        <ele>19.4</ele>
        <time>2021-03-21T15:53:15Z</time>
      </trkpt>
      <trkpt lat="49.43742" lon="1.1419">
        <ele>19.4</ele>
        <time>2021-03-21T15:53:17Z</time>
      </trkpt>
      <trkpt lat="49.43745" lon="1.14173">
        <ele>19.4</ele>
        <time>2021-03-21T15:53:19Z</time>
      </trkpt>
      <trkpt lat="49.43749" lon="1.14154">
        <ele>19.4</ele>
        <time>2021-03-21T15:53:21Z</time>
      </trkpt>
      <trkpt lat="49.4375" lon="1.14145">
        <ele>19.4</ele>
        <time>2021-03-21T15:53:22Z</time>
      </trkpt>
      <trkpt lat="49.43753" lon="1.14129">
        <ele>19.5</ele>
        <time>2021-03-21T15:53:24Z</time>
      </trkpt>
      <trkpt lat="49.43754" lon="1.14122">
        <ele>19.5</ele>
        <time>2021-03-21T15:53:25Z</time>
      </trkpt>
      <trkpt lat="49.43752" lon="1.14116">
        <ele>19.5</ele>
        <time>2021-03-21T15:53:27Z</time>
      </trkpt>
      <trkpt lat="49.43741" lon="1.14112">
        <ele>19.3</ele>
        <time>2021-03-21T15:53:29Z</time>
      </trkpt>
      <trkpt lat="49.43736" lon="1.14112">
        <ele>19.2</ele>
        <time>2021-03-21T15:53:30Z</time>
      </trkpt>
      <trkpt lat="49.43729" lon="1.1411">
        <ele>19</ele>
        <time>2021-03-21T15:53:31Z</time>
      </trkpt>
      <trkpt lat="49.43715" lon="1.1411">
        <ele>18.6</ele>
        <time>2021-03-21T15:53:33Z</time>
      </trkpt>
      <trkpt lat="49.437" lon="1.14109">
        <ele>18.1</ele>
        <time>2021-03-21T15:53:35Z</time>
      </trkpt>
      <trkpt lat="49.43694" lon="1.14108">
        <ele>17.8</ele>
        <time>2021-03-21T15:53:36Z</time>
      </trkpt>
      <trkpt lat="49.4369" lon="1.14108">
        <ele>17.5</ele>
        <time>2021-03-21T15:53:37Z</time>
      </trkpt>
      <trkpt lat="49.43685" lon="1.14089">
        <ele>16.9</ele>
        <time>2021-03-21T15:53:39Z</time>
      </trkpt>
      <trkpt lat="49.43688" lon="1.14066">
        <ele>16.9</ele>
        <time>2021-03-21T15:53:41Z</time>
      </trkpt>
      <trkpt lat="49.43693" lon="1.14048">
        <ele>16.9</ele>
        <time>2021-03-21T15:53:43Z</time>
      </trkpt>
      <trkpt lat="49.43695" lon="1.1404">
        <ele>16.9</ele>
        <time>2021-03-21T15:53:44Z</time>
      </trkpt>
      <trkpt lat="49.43696" lon="1.14025">
        <ele>17</ele>
        <time>2021-03-21T15:53:46Z</time>
      </trkpt>
      <trkpt lat="49.43692" lon="1.14018">
        <ele>16.9</ele>
        <time>2021-03-21T15:53:48Z</time>
      </trkpt>
      <trkpt lat="49.43682" lon="1.14015">
        <ele>16.9</ele>
        <time>2021-03-21T15:53:50Z</time>
      </trkpt>
      <trkpt lat="49.43677" lon="1.14014">
        <ele>16.9</ele>
        <time>2021-03-21T15:53:52Z</time>
      </trkpt>
      <trkpt lat="49.43677" lon="1.14014">
        <ele>16.9</ele>
        <time>2021-03-21T15:53:54Z</time>
      </trkpt>
      <trkpt lat="49.43677" lon="1.14015">
        <ele>16.9</ele>
        <time>2021-03-21T15:53:55Z</time>
      </trkpt>
      <trkpt lat="49.43678" lon="1.14016">
        <ele>16.9</ele>
        <time>2021-03-21T15:53:56Z</time>
      </trkpt>
      <trkpt lat="49.4368" lon="1.14018">
        <ele>16.9</ele>
        <time>2021-03-21T15:53:58Z</time>
      </trkpt>
      <trkpt lat="49.43683" lon="1.14022">
        <ele>16.9</ele>
        <time>2021-03-21T15:54:00Z</time>
      </trkpt>
      <trkpt lat="49.43689" lon="1.14025">
        <ele>16.9</ele>
        <time>2021-03-21T15:54:02Z</time>
      </trkpt>
      <trkpt lat="49.43693" lon="1.1403">
        <ele>16.9</ele>
        <time>2021-03-21T15:54:04Z</time>
      </trkpt>
      <trkpt lat="49.43693" lon="1.14038">
        <ele>16.9</ele>
        <time>2021-03-21T15:54:06Z</time>
      </trkpt>
      <trkpt lat="49.43692" lon="1.14047">
        <ele>16.9</ele>
        <time>2021-03-21T15:54:08Z</time>
      </trkpt>
      <trkpt lat="49.43691" lon="1.14054">
        <ele>16.9</ele>
        <time>2021-03-21T15:54:09Z</time>
      </trkpt>
      <trkpt lat="49.4369" lon="1.14061">
        <ele>16.9</ele>
        <time>2021-03-21T15:54:10Z</time>
      </trkpt>
      <trkpt lat="49.43692" lon="1.1408">
        <ele>16.9</ele>
        <time>2021-03-21T15:54:12Z</time>
      </trkpt>
      <trkpt lat="49.43693" lon="1.14089">
        <ele>16.9</ele>
        <time>2021-03-21T15:54:13Z</time>
      </trkpt>
      <trkpt lat="49.43702" lon="1.14103">
        <ele>18.2</ele>
        <time>2021-03-21T15:54:15Z</time>
      </trkpt>
      <trkpt lat="49.43706" lon="1.14107">
        <ele>18.4</ele>
        <time>2021-03-21T15:54:16Z</time>
      </trkpt>
      <trkpt lat="49.43715" lon="1.14112">
        <ele>18.6</ele>
        <time>2021-03-21T15:54:18Z</time>
      </trkpt>
      <trkpt lat="49.4372" lon="1.14112">
        <ele>18.8</ele>
        <time>2021-03-21T15:54:19Z</time>
      </trkpt>
      <trkpt lat="49.43732" lon="1.1411">
        <ele>19</ele>
        <time>2021-03-21T15:54:21Z</time>
      </trkpt>
      <trkpt lat="49.43742" lon="1.14111">
        <ele>19.3</ele>
        <time>2021-03-21T15:54:23Z</time>
      </trkpt>
      <trkpt lat="49.43747" lon="1.14112">
        <ele>19.4</ele>
        <time>2021-03-21T15:54:24Z</time>
      </trkpt>
      <trkpt lat="49.43752" lon="1.14112">
        <ele>19.5</ele>
        <time>2021-03-21T15:54:25Z</time>
      </trkpt>
      <trkpt lat="49.43757" lon="1.14103">
        <ele>19.6</ele>
        <time>2021-03-21T15:54:27Z</time>
      </trkpt>
      <trkpt lat="49.43758" lon="1.14096">
        <ele>19.7</ele>
        <time>2021-03-21T15:54:28Z</time>
      </trkpt>
      <trkpt lat="49.43762" lon="1.1408">
        <ele>19.9</ele>
        <time>2021-03-21T15:54:30Z</time>
      </trkpt>
      <trkpt lat="49.43764" lon="1.14072">
        <ele>19.9</ele>
        <time>2021-03-21T15:54:31Z</time>
      </trkpt>
      <trkpt lat="49.43767" lon="1.14056">
        <ele>20.1</ele>
        <time>2021-03-21T15:54:33Z</time>
      </trkpt>
      <trkpt lat="49.43772" lon="1.1404">
        <ele>20.2</ele>
        <time>2021-03-21T15:54:35Z</time>
      </trkpt>
      <trkpt lat="49.43776" lon="1.14025">
        <ele>20.3</ele>
        <time>2021-03-21T15:54:37Z</time>
      </trkpt>
      <trkpt lat="49.43777" lon="1.14018">
        <ele>20.4</ele>
        <time>2021-03-21T15:54:38Z</time>
      </trkpt>
      <trkpt lat="49.43782" lon="1.14004">
        <ele>20.5</ele>
        <time>2021-03-21T15:54:40Z</time>
      </trkpt>
      <trkpt lat="49.43781" lon="1.13996">
        <ele>20.3</ele>
        <time>2021-03-21T15:54:42Z</time>
      </trkpt>
      <trkpt lat="49.43777" lon="1.13996">
        <ele>20.2</ele>
        <time>2021-03-21T15:54:43Z</time>
      </trkpt>
      <trkpt lat="49.4377" lon="1.13992">
        <ele>20</ele>
        <time>2021-03-21T15:54:44Z</time>
      </trkpt>
      <trkpt lat="49.43764" lon="1.13987">
        <ele>19.7</ele>
        <time>2021-03-21T15:54:45Z</time>
      </trkpt>
      <trkpt lat="49.43751" lon="1.13975">
        <ele>19.2</ele>
        <time>2021-03-21T15:54:47Z</time>
      </trkpt>
      <trkpt lat="49.43742" lon="1.1396">
        <ele>18.7</ele>
        <time>2021-03-21T15:54:49Z</time>
      </trkpt>
      <trkpt lat="49.43732" lon="1.13944">
        <ele>18.4</ele>
        <time>2021-03-21T15:54:51Z</time>
      </trkpt>
      <trkpt lat="49.43728" lon="1.13935">
        <ele>18.3</ele>
        <time>2021-03-21T15:54:52Z</time>
      </trkpt>
      <trkpt lat="49.43721" lon="1.13917">
        <ele>18.2</ele>
        <time>2021-03-21T15:54:54Z</time>
      </trkpt>
      <trkpt lat="49.43718" lon="1.13899">
        <ele>18.2</ele>
        <time>2021-03-21T15:54:56Z</time>
      </trkpt>
      <trkpt lat="49.43719" lon="1.1389">
        <ele>18.2</ele>
        <time>2021-03-21T15:54:57Z</time>
      </trkpt>
      <trkpt lat="49.43723" lon="1.13871">
        <ele>18.1</ele>
        <time>2021-03-21T15:54:59Z</time>
      </trkpt>
      <trkpt lat="49.43725" lon="1.13863">
        <ele>18.1</ele>
        <time>2021-03-21T15:55:00Z</time>
      </trkpt>
      <trkpt lat="49.43731" lon="1.13846">
        <ele>18</ele>
        <time>2021-03-21T15:55:02Z</time>
      </trkpt>
      <trkpt lat="49.43734" lon="1.13837">
        <ele>17.9</ele>
        <time>2021-03-21T15:55:03Z</time>
      </trkpt>
      <trkpt lat="49.43739" lon="1.1382">
        <ele>17.9</ele>
        <time>2021-03-21T15:55:05Z</time>
      </trkpt>
      <trkpt lat="49.43741" lon="1.1381">
        <ele>17.9</ele>
        <time>2021-03-21T15:55:06Z</time>
      </trkpt>
      <trkpt lat="49.43744" lon="1.13791">
        <ele>17.9</ele>
        <time>2021-03-21T15:55:08Z</time>
      </trkpt>
      <trkpt lat="49.43747" lon="1.13775">
        <ele>17.8</ele>
        <time>2021-03-21T15:55:10Z</time>
      </trkpt>
      <trkpt lat="49.43749" lon="1.13758">
        <ele>17.9</ele>
        <time>2021-03-21T15:55:12Z</time>
      </trkpt>
      <trkpt lat="49.4375" lon="1.1375">
        <ele>17.9</ele>
        <time>2021-03-21T15:55:13Z</time>
      </trkpt>
      <trkpt lat="49.43753" lon="1.13734">
        <ele>17.9</ele>
        <time>2021-03-21T15:55:15Z</time>
      </trkpt>
      <trkpt lat="49.43755" lon="1.13726">
        <ele>17.9</ele>
        <time>2021-03-21T15:55:16Z</time>
      </trkpt>
      <trkpt lat="49.43759" lon="1.13711">
        <ele>18</ele>
        <time>2021-03-21T15:55:18Z</time>
      </trkpt>
      <trkpt lat="49.43762" lon="1.13696">
        <ele>18</ele>
        <time>2021-03-21T15:55:20Z</time>
      </trkpt>
      <trkpt lat="49.43765" lon="1.13681">
        <ele>18</ele>
        <time>2021-03-21T15:55:22Z</time>
      </trkpt>
      <trkpt lat="49.43767" lon="1.13673">
        <ele>18</ele>
        <time>2021-03-21T15:55:23Z</time>
      </trkpt>
      <trkpt lat="49.43772" lon="1.13657">
        <ele>18</ele>
        <time>2021-03-21T15:55:25Z</time>
      </trkpt>
      <trkpt lat="49.43777" lon="1.1364">
        <ele>18</ele>
        <time>2021-03-21T15:55:27Z</time>
      </trkpt>
      <trkpt lat="49.43779" lon="1.13632">
        <ele>18</ele>
        <time>2021-03-21T15:55:28Z</time>
      </trkpt>
      <trkpt lat="49.43784" lon="1.13615">
        <ele>17.9</ele>
        <time>2021-03-21T15:55:30Z</time>
      </trkpt>
      <trkpt lat="49.43785" lon="1.13607">
        <ele>17.9</ele>
        <time>2021-03-21T15:55:31Z</time>
      </trkpt>
      <trkpt lat="49.4379" lon="1.13592">
        <ele>18</ele>
        <time>2021-03-21T15:55:33Z</time>
      </trkpt>
      <trkpt lat="49.43796" lon="1.13574">
        <ele>18</ele>
        <time>2021-03-21T15:55:35Z</time>
      </trkpt>
      <trkpt lat="49.43799" lon="1.13564">
        <ele>18</ele>
        <time>2021-03-21T15:55:36Z</time>
      </trkpt>
      <trkpt lat="49.43805" lon="1.13548">
        <ele>18.1</ele>
        <time>2021-03-21T15:55:38Z</time>
      </trkpt>
      <trkpt lat="49.4381" lon="1.13534">
        <ele>18.1</ele>
        <time>2021-03-21T15:55:40Z</time>
      </trkpt>
      <trkpt lat="49.43813" lon="1.13528">
        <ele>18.1</ele>
        <time>2021-03-21T15:55:41Z</time>
      </trkpt>
      <trkpt lat="49.43817" lon="1.13522">
        <ele>18.2</ele>
        <time>2021-03-21T15:55:42Z</time>
      </trkpt>
      <trkpt lat="49.43826" lon="1.13508">
        <ele>18.2</ele>
        <time>2021-03-21T15:55:44Z</time>
      </trkpt>
      <trkpt lat="49.43835" lon="1.13491">
        <ele>18.1</ele>
        <time>2021-03-21T15:55:46Z</time>
      </trkpt>
      <trkpt lat="49.43838" lon="1.13482">
        <ele>18.1</ele>
        <time>2021-03-21T15:55:47Z</time>
      </trkpt>
      <trkpt lat="49.43841" lon="1.13466">
        <ele>18.1</ele>
        <time>2021-03-21T15:55:49Z</time>
      </trkpt>
      <trkpt lat="49.43846" lon="1.13452">
        <ele>18.1</ele>
        <time>2021-03-21T15:55:51Z</time>
      </trkpt>
      <trkpt lat="49.43849" lon="1.13444">
        <ele>18.1</ele>
        <time>2021-03-21T15:55:52Z</time>
      </trkpt>
      <trkpt lat="49.43851" lon="1.13437">
        <ele>18.2</ele>
        <time>2021-03-21T15:55:53Z</time>
      </trkpt>
      <trkpt lat="49.4385" lon="1.13422">
        <ele>18.2</ele>
        <time>2021-03-21T15:55:55Z</time>
      </trkpt>
      <trkpt lat="49.43849" lon="1.13405">
        <ele>17.9</ele>
        <time>2021-03-21T15:55:57Z</time>
      </trkpt>
      <trkpt lat="49.43851" lon="1.13396">
        <ele>17.9</ele>
        <time>2021-03-21T15:55:58Z</time>
      </trkpt>
      <trkpt lat="49.43856" lon="1.13377">
        <ele>17.7</ele>
        <time>2021-03-21T15:56:00Z</time>
      </trkpt>
      <trkpt lat="49.43861" lon="1.13357">
        <ele>17.6</ele>
        <time>2021-03-21T15:56:02Z</time>
      </trkpt>
      <trkpt lat="49.43866" lon="1.13338">
        <ele>17.6</ele>
        <time>2021-03-21T15:56:04Z</time>
      </trkpt>
      <trkpt lat="49.43867" lon="1.13328">
        <ele>17.5</ele>
        <time>2021-03-21T15:56:05Z</time>
      </trkpt>
      <trkpt lat="49.43872" lon="1.13311">
        <ele>17.5</ele>
        <time>2021-03-21T15:56:07Z</time>
      </trkpt>
      <trkpt lat="49.43879" lon="1.13297">
        <ele>17.5</ele>
        <time>2021-03-21T15:56:09Z</time>
      </trkpt>
      <trkpt lat="49.43885" lon="1.13281">
        <ele>17.5</ele>
        <time>2021-03-21T15:56:11Z</time>
      </trkpt>
      <trkpt lat="49.43888" lon="1.13275">
        <ele>17.5</ele>
        <time>2021-03-21T15:56:12Z</time>
      </trkpt>
      <trkpt lat="49.43896" lon="1.13261">
        <ele>17.5</ele>
        <time>2021-03-21T15:56:14Z</time>
      </trkpt>
      <trkpt lat="49.439" lon="1.13254">
        <ele>17.5</ele>
        <time>2021-03-21T15:56:15Z</time>
      </trkpt>
      <trkpt lat="49.43903" lon="1.13247">
        <ele>17.4</ele>
        <time>2021-03-21T15:56:16Z</time>
      </trkpt>
      <trkpt lat="49.43909" lon="1.1323">
        <ele>17.4</ele>
        <time>2021-03-21T15:56:18Z</time>
      </trkpt>
      <trkpt lat="49.43913" lon="1.13221">
        <ele>17.4</ele>
        <time>2021-03-21T15:56:19Z</time>
      </trkpt>
      <trkpt lat="49.4392" lon="1.13203">
        <ele>17.3</ele>
        <time>2021-03-21T15:56:21Z</time>
      </trkpt>
      <trkpt lat="49.43923" lon="1.13194">
        <ele>17.3</ele>
        <time>2021-03-21T15:56:22Z</time>
      </trkpt>
      <trkpt lat="49.43926" lon="1.13185">
        <ele>17.3</ele>
        <time>2021-03-21T15:56:23Z</time>
      </trkpt>
      <trkpt lat="49.43931" lon="1.13164">
        <ele>17.2</ele>
        <time>2021-03-21T15:56:25Z</time>
      </trkpt>
      <trkpt lat="49.43934" lon="1.13154">
        <ele>17.2</ele>
        <time>2021-03-21T15:56:26Z</time>
      </trkpt>
      <trkpt lat="49.43941" lon="1.13138">
        <ele>17.2</ele>
        <time>2021-03-21T15:56:28Z</time>
      </trkpt>
      <trkpt lat="49.43946" lon="1.13121">
        <ele>17.2</ele>
        <time>2021-03-21T15:56:30Z</time>
      </trkpt>
      <trkpt lat="49.43947" lon="1.13114">
        <ele>17.2</ele>
        <time>2021-03-21T15:56:31Z</time>
      </trkpt>
      <trkpt lat="49.43948" lon="1.13105">
        <ele>17.2</ele>
        <time>2021-03-21T15:56:32Z</time>
      </trkpt>
      <trkpt lat="49.4395" lon="1.13089">
        <ele>17.2</ele>
        <time>2021-03-21T15:56:34Z</time>
      </trkpt>
      <trkpt lat="49.43951" lon="1.1308">
        <ele>17.2</ele>
        <time>2021-03-21T15:56:35Z</time>
      </trkpt>
      <trkpt lat="49.43954" lon="1.1307">
        <ele>17.2</ele>
        <time>2021-03-21T15:56:37Z</time>
      </trkpt>
      <trkpt lat="49.43957" lon="1.13057">
        <ele>17.2</ele>
        <time>2021-03-21T15:56:39Z</time>
      </trkpt>
      <trkpt lat="49.43957" lon="1.13051">
        <ele>17.2</ele>
        <time>2021-03-21T15:56:40Z</time>
      </trkpt>
      <trkpt lat="49.43958" lon="1.13037">
        <ele>17.1</ele>
        <time>2021-03-21T15:56:42Z</time>
      </trkpt>
      <trkpt lat="49.43959" lon="1.13022">
        <ele>17.1</ele>
        <time>2021-03-21T15:56:44Z</time>
      </trkpt>
      <trkpt lat="49.43959" lon="1.13005">
        <ele>17</ele>
        <time>2021-03-21T15:56:46Z</time>
      </trkpt>
      <trkpt lat="49.43955" lon="1.12987">
        <ele>17</ele>
        <time>2021-03-21T15:56:48Z</time>
      </trkpt>
      <trkpt lat="49.43948" lon="1.12972">
        <ele>16.9</ele>
        <time>2021-03-21T15:56:50Z</time>
      </trkpt>
      <trkpt lat="49.43944" lon="1.12965">
        <ele>16.8</ele>
        <time>2021-03-21T15:56:51Z</time>
      </trkpt>
      <trkpt lat="49.43932" lon="1.12956">
        <ele>16.7</ele>
        <time>2021-03-21T15:56:53Z</time>
      </trkpt>
      <trkpt lat="49.43922" lon="1.12945">
        <ele>16.5</ele>
        <time>2021-03-21T15:56:55Z</time>
      </trkpt>
      <trkpt lat="49.43914" lon="1.12935">
        <ele>16.3</ele>
        <time>2021-03-21T15:56:57Z</time>
      </trkpt>
      <trkpt lat="49.43909" lon="1.12931">
        <ele>16.1</ele>
        <time>2021-03-21T15:56:58Z</time>
      </trkpt>
      <trkpt lat="49.43902" lon="1.12926">
        <ele>15.8</ele>
        <time>2021-03-21T15:56:59Z</time>
      </trkpt>
      <trkpt lat="49.43891" lon="1.12905">
        <ele>15.3</ele>
        <time>2021-03-21T15:57:01Z</time>
      </trkpt>
      <trkpt lat="49.43887" lon="1.12893">
        <ele>15.1</ele>
        <time>2021-03-21T15:57:02Z</time>
      </trkpt>
      <trkpt lat="49.43882" lon="1.1287">
        <ele>14.7</ele>
        <time>2021-03-21T15:57:04Z</time>
      </trkpt>
      <trkpt lat="49.43876" lon="1.1285">
        <ele>14.5</ele>
        <time>2021-03-21T15:57:06Z</time>
      </trkpt>
      <trkpt lat="49.43872" lon="1.12828">
        <ele>14.4</ele>
        <time>2021-03-21T15:57:08Z</time>
      </trkpt>
      <trkpt lat="49.43875" lon="1.12818">
        <ele>14.4</ele>
        <time>2021-03-21T15:57:09Z</time>
      </trkpt>
      <trkpt lat="49.43883" lon="1.12799">
        <ele>14.6</ele>
        <time>2021-03-21T15:57:11Z</time>
      </trkpt>
      <trkpt lat="49.43888" lon="1.12782">
        <ele>14.9</ele>
        <time>2021-03-21T15:57:13Z</time>
      </trkpt>
      <trkpt lat="49.43889" lon="1.12775">
        <ele>15.1</ele>
        <time>2021-03-21T15:57:14Z</time>
      </trkpt>
      <trkpt lat="49.43893" lon="1.12765">
        <ele>15.4</ele>
        <time>2021-03-21T15:57:16Z</time>
      </trkpt>
      <trkpt lat="49.43895" lon="1.12762">
        <ele>15.5</ele>
        <time>2021-03-21T15:57:17Z</time>
      </trkpt>
      <trkpt lat="49.43898" lon="1.12753">
        <ele>15.8</ele>
        <time>2021-03-21T15:57:19Z</time>
      </trkpt>
      <trkpt lat="49.43899" lon="1.12744">
        <ele>16</ele>
        <time>2021-03-21T15:57:21Z</time>
      </trkpt>
      <trkpt lat="49.43903" lon="1.12734">
        <ele>16.2</ele>
        <time>2021-03-21T15:57:23Z</time>
      </trkpt>
      <trkpt lat="49.43908" lon="1.12722">
        <ele>16.3</ele>
        <time>2021-03-21T15:57:25Z</time>
      </trkpt>
      <trkpt lat="49.4391" lon="1.12716">
        <ele>16.3</ele>
        <time>2021-03-21T15:57:26Z</time>
      </trkpt>
      <trkpt lat="49.43912" lon="1.12709">
        <ele>16.3</ele>
        <time>2021-03-21T15:57:27Z</time>
      </trkpt>
      <trkpt lat="49.43914" lon="1.12702">
        <ele>16.3</ele>
        <time>2021-03-21T15:57:28Z</time>
      </trkpt>
      <trkpt lat="49.43918" lon="1.12696">
        <ele>16.3</ele>
        <time>2021-03-21T15:57:29Z</time>
      </trkpt>
      <trkpt lat="49.43926" lon="1.12686">
        <ele>16.2</ele>
        <time>2021-03-21T15:57:31Z</time>
      </trkpt>
      <trkpt lat="49.4393" lon="1.12679">
        <ele>16.2</ele>
        <time>2021-03-21T15:57:32Z</time>
      </trkpt>
      <trkpt lat="49.43938" lon="1.12661">
        <ele>16.1</ele>
        <time>2021-03-21T15:57:34Z</time>
      </trkpt>
      <trkpt lat="49.43942" lon="1.12654">
        <ele>16.1</ele>
        <time>2021-03-21T15:57:35Z</time>
      </trkpt>
      <trkpt lat="49.4395" lon="1.12638">
        <ele>16.1</ele>
        <time>2021-03-21T15:57:37Z</time>
      </trkpt>
      <trkpt lat="49.43954" lon="1.1263">
        <ele>16</ele>
        <time>2021-03-21T15:57:38Z</time>
      </trkpt>
      <trkpt lat="49.43961" lon="1.12612">
        <ele>16</ele>
        <time>2021-03-21T15:57:40Z</time>
      </trkpt>
      <trkpt lat="49.43968" lon="1.12592">
        <ele>16</ele>
        <time>2021-03-21T15:57:42Z</time>
      </trkpt>
      <trkpt lat="49.43972" lon="1.12583">
        <ele>16</ele>
        <time>2021-03-21T15:57:43Z</time>
      </trkpt>
      <trkpt lat="49.43977" lon="1.12567">
        <ele>16</ele>
        <time>2021-03-21T15:57:45Z</time>
      </trkpt>
      <trkpt lat="49.4398" lon="1.12549">
        <ele>16</ele>
        <time>2021-03-21T15:57:47Z</time>
      </trkpt>
      <trkpt lat="49.43985" lon="1.12531">
        <ele>16.1</ele>
        <time>2021-03-21T15:57:49Z</time>
      </trkpt>
      <trkpt lat="49.43989" lon="1.12521">
        <ele>16.1</ele>
        <time>2021-03-21T15:57:50Z</time>
      </trkpt>
      <trkpt lat="49.43992" lon="1.12501">
        <ele>16.2</ele>
        <time>2021-03-21T15:57:52Z</time>
      </trkpt>
      <trkpt lat="49.43993" lon="1.12489">
        <ele>16.2</ele>
        <time>2021-03-21T15:57:53Z</time>
      </trkpt>
      <trkpt lat="49.43994" lon="1.12479">
        <ele>16.2</ele>
        <time>2021-03-21T15:57:54Z</time>
      </trkpt>
      <trkpt lat="49.43995" lon="1.12458">
        <ele>16.1</ele>
        <time>2021-03-21T15:57:56Z</time>
      </trkpt>
      <trkpt lat="49.43997" lon="1.1245">
        <ele>16</ele>
        <time>2021-03-21T15:57:57Z</time>
      </trkpt>
      <trkpt lat="49.44" lon="1.1243">
        <ele>16</ele>
        <time>2021-03-21T15:57:59Z</time>
      </trkpt>
      <trkpt lat="49.44002" lon="1.1242">
        <ele>15.9</ele>
        <time>2021-03-21T15:58:00Z</time>
      </trkpt>
      <trkpt lat="49.44006" lon="1.12401">
        <ele>15.8</ele>
        <time>2021-03-21T15:58:02Z</time>
      </trkpt>
      <trkpt lat="49.4401" lon="1.12378">
        <ele>15.7</ele>
        <time>2021-03-21T15:58:04Z</time>
      </trkpt>
      <trkpt lat="49.44013" lon="1.12357">
        <ele>15.6</ele>
        <time>2021-03-21T15:58:06Z</time>
      </trkpt>
      <trkpt lat="49.44016" lon="1.12335">
        <ele>15.7</ele>
        <time>2021-03-21T15:58:08Z</time>
      </trkpt>
      <trkpt lat="49.44017" lon="1.12324">
        <ele>15.8</ele>
        <time>2021-03-21T15:58:09Z</time>
      </trkpt>
      <trkpt lat="49.44021" lon="1.12305">
        <ele>15.9</ele>
        <time>2021-03-21T15:58:11Z</time>
      </trkpt>
      <trkpt lat="49.44025" lon="1.12286">
        <ele>16</ele>
        <time>2021-03-21T15:58:13Z</time>
      </trkpt>
      <trkpt lat="49.44028" lon="1.12276">
        <ele>16.1</ele>
        <time>2021-03-21T15:58:14Z</time>
      </trkpt>
      <trkpt lat="49.4403" lon="1.12258">
        <ele>16.2</ele>
        <time>2021-03-21T15:58:16Z</time>
      </trkpt>
      <trkpt lat="49.44031" lon="1.12249">
        <ele>16.2</ele>
        <time>2021-03-21T15:58:17Z</time>
      </trkpt>
      <trkpt lat="49.44033" lon="1.12242">
        <ele>16.2</ele>
        <time>2021-03-21T15:58:18Z</time>
      </trkpt>
      <trkpt lat="49.44035" lon="1.12228">
        <ele>16.2</ele>
        <time>2021-03-21T15:58:20Z</time>
      </trkpt>
      <trkpt lat="49.44039" lon="1.1221">
        <ele>16.2</ele>
        <time>2021-03-21T15:58:22Z</time>
      </trkpt>
      <trkpt lat="49.44044" lon="1.12192">
        <ele>16.1</ele>
        <time>2021-03-21T15:58:24Z</time>
      </trkpt>
      <trkpt lat="49.44046" lon="1.12182">
        <ele>16.1</ele>
        <time>2021-03-21T15:58:25Z</time>
      </trkpt>
      <trkpt lat="49.44048" lon="1.12172">
        <ele>16.1</ele>
        <time>2021-03-21T15:58:26Z</time>
      </trkpt>
      <trkpt lat="49.44049" lon="1.12162">
        <ele>16.1</ele>
        <time>2021-03-21T15:58:27Z</time>
      </trkpt>
      <trkpt lat="49.44053" lon="1.12145">
        <ele>16.1</ele>
        <time>2021-03-21T15:58:29Z</time>
      </trkpt>
      <trkpt lat="49.44056" lon="1.12136">
        <ele>16</ele>
        <time>2021-03-21T15:58:30Z</time>
      </trkpt>
      <trkpt lat="49.44062" lon="1.12119">
        <ele>16</ele>
        <time>2021-03-21T15:58:32Z</time>
      </trkpt>
      <trkpt lat="49.44064" lon="1.1211">
        <ele>16</ele>
        <time>2021-03-21T15:58:33Z</time>
      </trkpt>
      <trkpt lat="49.44069" lon="1.12095">
        <ele>16</ele>
        <time>2021-03-21T15:58:35Z</time>
      </trkpt>
      <trkpt lat="49.44072" lon="1.12086">
        <ele>15.9</ele>
        <time>2021-03-21T15:58:36Z</time>
      </trkpt>
      <trkpt lat="49.44077" lon="1.1207">
        <ele>15.9</ele>
        <time>2021-03-21T15:58:38Z</time>
      </trkpt>
      <trkpt lat="49.44082" lon="1.12058">
        <ele>15.9</ele>
        <time>2021-03-21T15:58:40Z</time>
      </trkpt>
      <trkpt lat="49.44084" lon="1.12051">
        <ele>15.8</ele>
        <time>2021-03-21T15:58:41Z</time>
      </trkpt>
      <trkpt lat="49.44086" lon="1.12041">
        <ele>15.8</ele>
        <time>2021-03-21T15:58:42Z</time>
      </trkpt>
      <trkpt lat="49.44088" lon="1.12031">
        <ele>15.8</ele>
        <time>2021-03-21T15:58:43Z</time>
      </trkpt>
      <trkpt lat="49.44093" lon="1.12011">
        <ele>15.6</ele>
        <time>2021-03-21T15:58:45Z</time>
      </trkpt>
      <trkpt lat="49.44097" lon="1.12002">
        <ele>15.5</ele>
        <time>2021-03-21T15:58:46Z</time>
      </trkpt>
      <trkpt lat="49.44102" lon="1.11991">
        <ele>15.4</ele>
        <time>2021-03-21T15:58:49Z</time>
      </trkpt>
      <trkpt lat="49.44106" lon="1.11978">
        <ele>15.4</ele>
        <time>2021-03-21T15:58:50Z</time>
      </trkpt>
      <trkpt lat="49.4411" lon="1.11965">
        <ele>15.4</ele>
        <time>2021-03-21T15:58:51Z</time>
      </trkpt>
      <trkpt lat="49.44113" lon="1.11939">
        <ele>15.4</ele>
        <time>2021-03-21T15:58:53Z</time>
      </trkpt>
      <trkpt lat="49.44117" lon="1.11915">
        <ele>15.4</ele>
        <time>2021-03-21T15:58:55Z</time>
      </trkpt>
      <trkpt lat="49.44119" lon="1.11905">
        <ele>15.4</ele>
        <time>2021-03-21T15:58:56Z</time>
      </trkpt>
      <trkpt lat="49.44122" lon="1.11895">
        <ele>15.4</ele>
        <time>2021-03-21T15:58:57Z</time>
      </trkpt>
      <trkpt lat="49.44126" lon="1.11878">
        <ele>15.4</ele>
        <time>2021-03-21T15:58:59Z</time>
      </trkpt>
      <trkpt lat="49.4413" lon="1.11861">
        <ele>15.5</ele>
        <time>2021-03-21T15:59:01Z</time>
      </trkpt>
      <trkpt lat="49.44131" lon="1.11852">
        <ele>15.5</ele>
        <time>2021-03-21T15:59:02Z</time>
      </trkpt>
      <trkpt lat="49.44133" lon="1.11836">
        <ele>15.6</ele>
        <time>2021-03-21T15:59:04Z</time>
      </trkpt>
      <trkpt lat="49.44133" lon="1.11828">
        <ele>15.6</ele>
        <time>2021-03-21T15:59:05Z</time>
      </trkpt>
      <trkpt lat="49.44134" lon="1.11819">
        <ele>15.7</ele>
        <time>2021-03-21T15:59:06Z</time>
      </trkpt>
      <trkpt lat="49.44137" lon="1.11805">
        <ele>15.7</ele>
        <time>2021-03-21T15:59:08Z</time>
      </trkpt>
      <trkpt lat="49.44139" lon="1.11799">
        <ele>15.8</ele>
        <time>2021-03-21T15:59:09Z</time>
      </trkpt>
      <trkpt lat="49.44141" lon="1.11794">
        <ele>15.8</ele>
        <time>2021-03-21T15:59:10Z</time>
      </trkpt>
      <trkpt lat="49.44142" lon="1.11788">
        <ele>15.8</ele>
        <time>2021-03-21T15:59:11Z</time>
      </trkpt>
      <trkpt lat="49.44147" lon="1.11774">
        <ele>15.8</ele>
        <time>2021-03-21T15:59:13Z</time>
      </trkpt>
      <trkpt lat="49.44153" lon="1.1176">
        <ele>15.8</ele>
        <time>2021-03-21T15:59:15Z</time>
      </trkpt>
      <trkpt lat="49.44159" lon="1.11747">
        <ele>15.8</ele>
        <time>2021-03-21T15:59:17Z</time>
      </trkpt>
      <trkpt lat="49.44161" lon="1.11739">
        <ele>15.8</ele>
        <time>2021-03-21T15:59:18Z</time>
      </trkpt>
      <trkpt lat="49.44166" lon="1.11724">
        <ele>15.8</ele>
        <time>2021-03-21T15:59:20Z</time>
      </trkpt>
      <trkpt lat="49.44168" lon="1.11715">
        <ele>15.8</ele>
        <time>2021-03-21T15:59:21Z</time>
      </trkpt>
      <trkpt lat="49.44168" lon="1.11697">
        <ele>15.8</ele>
        <time>2021-03-21T15:59:23Z</time>
      </trkpt>
      <trkpt lat="49.44169" lon="1.11687">
        <ele>15.8</ele>
        <time>2021-03-21T15:59:24Z</time>
      </trkpt>
      <trkpt lat="49.4417" lon="1.11675">
        <ele>15.8</ele>
        <time>2021-03-21T15:59:25Z</time>
      </trkpt>
      <trkpt lat="49.4417" lon="1.11649">
        <ele>15.8</ele>
        <time>2021-03-21T15:59:27Z</time>
      </trkpt>
      <trkpt lat="49.4417" lon="1.11638">
        <ele>15.7</ele>
        <time>2021-03-21T15:59:28Z</time>
      </trkpt>
      <trkpt lat="49.44168" lon="1.11618">
        <ele>15.7</ele>
        <time>2021-03-21T15:59:30Z</time>
      </trkpt>
      <trkpt lat="49.44166" lon="1.11607">
        <ele>15.7</ele>
        <time>2021-03-21T15:59:31Z</time>
      </trkpt>
      <trkpt lat="49.44162" lon="1.11588">
        <ele>15.6</ele>
        <time>2021-03-21T15:59:33Z</time>
      </trkpt>
      <trkpt lat="49.44159" lon="1.11579">
        <ele>15.6</ele>
        <time>2021-03-21T15:59:34Z</time>
      </trkpt>
      <trkpt lat="49.44157" lon="1.1157">
        <ele>15.5</ele>
        <time>2021-03-21T15:59:35Z</time>
      </trkpt>
      <trkpt lat="49.44154" lon="1.11554">
        <ele>15.5</ele>
        <time>2021-03-21T15:59:37Z</time>
      </trkpt>
      <trkpt lat="49.44152" lon="1.11546">
        <ele>15.5</ele>
        <time>2021-03-21T15:59:38Z</time>
      </trkpt>
      <trkpt lat="49.44148" lon="1.11532">
        <ele>15.4</ele>
        <time>2021-03-21T15:59:40Z</time>
      </trkpt>
      <trkpt lat="49.44148" lon="1.11519">
        <ele>15.8</ele>
        <time>2021-03-21T15:59:42Z</time>
      </trkpt>
      <trkpt lat="49.4415" lon="1.11519">
        <ele>16.1</ele>
        <time>2021-03-21T15:59:43Z</time>
      </trkpt>
      <trkpt lat="49.44156" lon="1.11518">
        <ele>16.7</ele>
        <time>2021-03-21T15:59:45Z</time>
      </trkpt>
      <trkpt lat="49.44162" lon="1.11514">
        <ele>17.4</ele>
        <time>2021-03-21T15:59:47Z</time>
      </trkpt>
      <trkpt lat="49.44171" lon="1.11509">
        <ele>18.2</ele>
        <time>2021-03-21T15:59:49Z</time>
      </trkpt>
      <trkpt lat="49.44185" lon="1.115">
        <ele>19.1</ele>
        <time>2021-03-21T15:59:51Z</time>
      </trkpt>
      <trkpt lat="49.44188" lon="1.11498">
        <ele>19.3</ele>
        <time>2021-03-21T15:59:52Z</time>
      </trkpt>
      <trkpt lat="49.44194" lon="1.11496">
        <ele>19.7</ele>
        <time>2021-03-21T15:59:54Z</time>
      </trkpt>
      <trkpt lat="49.44198" lon="1.11495">
        <ele>19.9</ele>
        <time>2021-03-21T15:59:55Z</time>
      </trkpt>
      <trkpt lat="49.44206" lon="1.11488">
        <ele>20.4</ele>
        <time>2021-03-21T15:59:57Z</time>
      </trkpt>
      <trkpt lat="49.44209" lon="1.11476">
        <ele>20.4</ele>
        <time>2021-03-21T15:59:59Z</time>
      </trkpt>
      <trkpt lat="49.44214" lon="1.1146">
        <ele>20.5</ele>
        <time>2021-03-21T16:00:01Z</time>
      </trkpt>
      <trkpt lat="49.44216" lon="1.1145">
        <ele>20.5</ele>
        <time>2021-03-21T16:00:02Z</time>
      </trkpt>
      <trkpt lat="49.44219" lon="1.11438">
        <ele>20.6</ele>
        <time>2021-03-21T16:00:04Z</time>
      </trkpt>
      <trkpt lat="49.4422" lon="1.11432">
        <ele>20.6</ele>
        <time>2021-03-21T16:00:05Z</time>
      </trkpt>
      <trkpt lat="49.44221" lon="1.11425">
        <ele>20.6</ele>
        <time>2021-03-21T16:00:06Z</time>
      </trkpt>
      <trkpt lat="49.44223" lon="1.11409">
        <ele>20.6</ele>
        <time>2021-03-21T16:00:08Z</time>
      </trkpt>
      <trkpt lat="49.44224" lon="1.11402">
        <ele>20.6</ele>
        <time>2021-03-21T16:00:09Z</time>
      </trkpt>
      <trkpt lat="49.44224" lon="1.11393">
        <ele>20.7</ele>
        <time>2021-03-21T16:00:10Z</time>
      </trkpt>
      <trkpt lat="49.44226" lon="1.11376">
        <ele>20.7</ele>
        <time>2021-03-21T16:00:12Z</time>
      </trkpt>
      <trkpt lat="49.44227" lon="1.11367">
        <ele>20.8</ele>
        <time>2021-03-21T16:00:13Z</time>
      </trkpt>
      <trkpt lat="49.44227" lon="1.1136">
        <ele>20.8</ele>
        <time>2021-03-21T16:00:14Z</time>
      </trkpt>
      <trkpt lat="49.44227" lon="1.11353">
        <ele>20.8</ele>
        <time>2021-03-21T16:00:15Z</time>
      </trkpt>
      <trkpt lat="49.44228" lon="1.1134">
        <ele>20.9</ele>
        <time>2021-03-21T16:00:17Z</time>
      </trkpt>
      <trkpt lat="49.44224" lon="1.11332">
        <ele>21</ele>
        <time>2021-03-21T16:00:19Z</time>
      </trkpt>
      <trkpt lat="49.44222" lon="1.11326">
        <ele>21.1</ele>
        <time>2021-03-21T16:00:20Z</time>
      </trkpt>
      <trkpt lat="49.44222" lon="1.11324">
        <ele>21.1</ele>
        <time>2021-03-21T16:00:21Z</time>
      </trkpt>
      <trkpt lat="49.4422" lon="1.11317">
        <ele>21</ele>
        <time>2021-03-21T16:00:23Z</time>
      </trkpt>
      <trkpt lat="49.44221" lon="1.11309">
        <ele>21</ele>
        <time>2021-03-21T16:00:25Z</time>
      </trkpt>
      <trkpt lat="49.44224" lon="1.11305">
        <ele>21</ele>
        <time>2021-03-21T16:00:26Z</time>
      </trkpt>
      <trkpt lat="49.4423" lon="1.11297">
        <ele>21.3</ele>
        <time>2021-03-21T16:00:28Z</time>
      </trkpt>
      <trkpt lat="49.44236" lon="1.11291">
        <ele>21.6</ele>
        <time>2021-03-21T16:00:30Z</time>
      </trkpt>
      <trkpt lat="49.44244" lon="1.11289">
        <ele>22.2</ele>
        <time>2021-03-21T16:00:32Z</time>
      </trkpt>
      <trkpt lat="49.44257" lon="1.1129">
        <ele>23</ele>
        <time>2021-03-21T16:00:34Z</time>
      </trkpt>
      <trkpt lat="49.44263" lon="1.1129">
        <ele>23.3</ele>
        <time>2021-03-21T16:00:35Z</time>
      </trkpt>
      <trkpt lat="49.4427" lon="1.11289">
        <ele>23.7</ele>
        <time>2021-03-21T16:00:36Z</time>
      </trkpt>
      <trkpt lat="49.44282" lon="1.11288">
        <ele>24.5</ele>
        <time>2021-03-21T16:00:38Z</time>
      </trkpt>
      <trkpt lat="49.44282" lon="1.11287">
        <ele>24.5</ele>
        <time>2021-03-21T16:00:39Z</time>
      </trkpt>
      <trkpt lat="49.44287" lon="1.11287">
        <ele>24.8</ele>
        <time>2021-03-21T16:00:41Z</time>
      </trkpt>
      <trkpt lat="49.44293" lon="1.11288">
        <ele>25.2</ele>
        <time>2021-03-21T16:00:42Z</time>
      </trkpt>
      <trkpt lat="49.44308" lon="1.11291">
        <ele>26.2</ele>
        <time>2021-03-21T16:00:44Z</time>
      </trkpt>
      <trkpt lat="49.44321" lon="1.11293">
        <ele>27.1</ele>
        <time>2021-03-21T16:00:46Z</time>
      </trkpt>
      <trkpt lat="49.44327" lon="1.11294">
        <ele>27.5</ele>
        <time>2021-03-21T16:00:47Z</time>
      </trkpt>
      <trkpt lat="49.44337" lon="1.11296">
        <ele>28.2</ele>
        <time>2021-03-21T16:00:49Z</time>
      </trkpt>
      <trkpt lat="49.44344" lon="1.11298">
        <ele>28.8</ele>
        <time>2021-03-21T16:00:51Z</time>
      </trkpt>
      <trkpt lat="49.44348" lon="1.11297">
        <ele>29.1</ele>
        <time>2021-03-21T16:00:52Z</time>
      </trkpt>
      <trkpt lat="49.44353" lon="1.11297">
        <ele>29.4</ele>
        <time>2021-03-21T16:00:54Z</time>
      </trkpt>
      <trkpt lat="49.44356" lon="1.11296">
        <ele>29.6</ele>
        <time>2021-03-21T16:00:55Z</time>
      </trkpt>
      <trkpt lat="49.4436" lon="1.11295">
        <ele>29.8</ele>
        <time>2021-03-21T16:00:57Z</time>
      </trkpt>
      <trkpt lat="49.44363" lon="1.11294">
        <ele>30</ele>
        <time>2021-03-21T16:00:58Z</time>
      </trkpt>
      <trkpt lat="49.44368" lon="1.11292">
        <ele>30.3</ele>
        <time>2021-03-21T16:01:00Z</time>
      </trkpt>
      <trkpt lat="49.44374" lon="1.11289">
        <ele>30.7</ele>
        <time>2021-03-21T16:01:02Z</time>
      </trkpt>
      <trkpt lat="49.44381" lon="1.11285">
        <ele>31.2</ele>
        <time>2021-03-21T16:01:04Z</time>
      </trkpt>
      <trkpt lat="49.44383" lon="1.11284">
        <ele>31.3</ele>
        <time>2021-03-21T16:01:06Z</time>
      </trkpt>
      <trkpt lat="49.44389" lon="1.11282">
        <ele>31.7</ele>
        <time>2021-03-21T16:01:08Z</time>
      </trkpt>
      <trkpt lat="49.44391" lon="1.11281">
        <ele>31.8</ele>
        <time>2021-03-21T16:01:09Z</time>
      </trkpt>
      <trkpt lat="49.44395" lon="1.11279">
        <ele>32</ele>
        <time>2021-03-21T16:01:11Z</time>
      </trkpt>
      <trkpt lat="49.44398" lon="1.11277">
        <ele>32.2</ele>
        <time>2021-03-21T16:01:12Z</time>
      </trkpt>
      <trkpt lat="49.44403" lon="1.11272">
        <ele>32.5</ele>
        <time>2021-03-21T16:01:14Z</time>
      </trkpt>
      <trkpt lat="49.44408" lon="1.11267">
        <ele>32.9</ele>
        <time>2021-03-21T16:01:16Z</time>
      </trkpt>
      <trkpt lat="49.4441" lon="1.11264">
        <ele>33</ele>
        <time>2021-03-21T16:01:17Z</time>
      </trkpt>
      <trkpt lat="49.44415" lon="1.11259">
        <ele>33.3</ele>
        <time>2021-03-21T16:01:19Z</time>
      </trkpt>
      <trkpt lat="49.4442" lon="1.11252">
        <ele>33.7</ele>
        <time>2021-03-21T16:01:21Z</time>
      </trkpt>
      <trkpt lat="49.44426" lon="1.11246">
        <ele>34</ele>
        <time>2021-03-21T16:01:23Z</time>
      </trkpt>
      <trkpt lat="49.44429" lon="1.11242">
        <ele>34.2</ele>
        <time>2021-03-21T16:01:25Z</time>
      </trkpt>
      <trkpt lat="49.44433" lon="1.11236">
        <ele>34.5</ele>
        <time>2021-03-21T16:01:27Z</time>
      </trkpt>
      <trkpt lat="49.44437" lon="1.1123">
        <ele>34.8</ele>
        <time>2021-03-21T16:01:29Z</time>
      </trkpt>
      <trkpt lat="49.4444" lon="1.11224">
        <ele>35</ele>
        <time>2021-03-21T16:01:31Z</time>
      </trkpt>
      <trkpt lat="49.44442" lon="1.11221">
        <ele>35.2</ele>
        <time>2021-03-21T16:01:32Z</time>
      </trkpt>
      <trkpt lat="49.44447" lon="1.11213">
        <ele>35.5</ele>
        <time>2021-03-21T16:01:34Z</time>
      </trkpt>
      <trkpt lat="49.4445" lon="1.11206">
        <ele>35.8</ele>
        <time>2021-03-21T16:01:36Z</time>
      </trkpt>
      <trkpt lat="49.44454" lon="1.11198">
        <ele>36.1</ele>
        <time>2021-03-21T16:01:38Z</time>
      </trkpt>
      <trkpt lat="49.44456" lon="1.11191">
        <ele>36.4</ele>
        <time>2021-03-21T16:01:40Z</time>
      </trkpt>
      <trkpt lat="49.44458" lon="1.11187">
        <ele>36.5</ele>
        <time>2021-03-21T16:01:41Z</time>
      </trkpt>
      <trkpt lat="49.44461" lon="1.11177">
        <ele>36.9</ele>
        <time>2021-03-21T16:01:43Z</time>
      </trkpt>
      <trkpt lat="49.44464" lon="1.1117">
        <ele>37.1</ele>
        <time>2021-03-21T16:01:45Z</time>
      </trkpt>
      <trkpt lat="49.44466" lon="1.11166">
        <ele>37.3</ele>
        <time>2021-03-21T16:01:46Z</time>
      </trkpt>
      <trkpt lat="49.4447" lon="1.11155">
        <ele>37.6</ele>
        <time>2021-03-21T16:01:48Z</time>
      </trkpt>
      <trkpt lat="49.44473" lon="1.11146">
        <ele>37.9</ele>
        <time>2021-03-21T16:01:50Z</time>
      </trkpt>
      <trkpt lat="49.44475" lon="1.11138">
        <ele>38.1</ele>
        <time>2021-03-21T16:01:52Z</time>
      </trkpt>
      <trkpt lat="49.44478" lon="1.1113">
        <ele>38.4</ele>
        <time>2021-03-21T16:01:54Z</time>
      </trkpt>
      <trkpt lat="49.4448" lon="1.11125">
        <ele>38.5</ele>
        <time>2021-03-21T16:01:55Z</time>
      </trkpt>
      <trkpt lat="49.4448" lon="1.11123">
        <ele>38.6</ele>
        <time>2021-03-21T16:01:56Z</time>
      </trkpt>
      <trkpt lat="49.44482" lon="1.11119">
        <ele>38.7</ele>
        <time>2021-03-21T16:01:57Z</time>
      </trkpt>
      <trkpt lat="49.44483" lon="1.11114">
        <ele>38.8</ele>
        <time>2021-03-21T16:01:58Z</time>
      </trkpt>
      <trkpt lat="49.44487" lon="1.11102">
        <ele>39.2</ele>
        <time>2021-03-21T16:02:00Z</time>
      </trkpt>
      <trkpt lat="49.4449" lon="1.11094">
        <ele>39.4</ele>
        <time>2021-03-21T16:02:02Z</time>
      </trkpt>
      <trkpt lat="49.44491" lon="1.1109">
        <ele>39.6</ele>
        <time>2021-03-21T16:02:03Z</time>
      </trkpt>
      <trkpt lat="49.44493" lon="1.11083">
        <ele>39.7</ele>
        <time>2021-03-21T16:02:04Z</time>
      </trkpt>
      <trkpt lat="49.44495" lon="1.11076">
        <ele>39.9</ele>
        <time>2021-03-21T16:02:06Z</time>
      </trkpt>
      <trkpt lat="49.44498" lon="1.11067">
        <ele>40.1</ele>
        <time>2021-03-21T16:02:08Z</time>
      </trkpt>
      <trkpt lat="49.44501" lon="1.11057">
        <ele>40.4</ele>
        <time>2021-03-21T16:02:10Z</time>
      </trkpt>
      <trkpt lat="49.44505" lon="1.11049">
        <ele>40.5</ele>
        <time>2021-03-21T16:02:12Z</time>
      </trkpt>
      <trkpt lat="49.4451" lon="1.11038">
        <ele>40.8</ele>
        <time>2021-03-21T16:02:14Z</time>
      </trkpt>
      <trkpt lat="49.44511" lon="1.11034">
        <ele>40.8</ele>
        <time>2021-03-21T16:02:15Z</time>
      </trkpt>
      <trkpt lat="49.44513" lon="1.11028">
        <ele>41</ele>
        <time>2021-03-21T16:02:17Z</time>
      </trkpt>
      <trkpt lat="49.44515" lon="1.11024">
        <ele>41</ele>
        <time>2021-03-21T16:02:18Z</time>
      </trkpt>
      <trkpt lat="49.44518" lon="1.11015">
        <ele>41.2</ele>
        <time>2021-03-21T16:02:20Z</time>
      </trkpt>
      <trkpt lat="49.4452" lon="1.11011">
        <ele>41.2</ele>
        <time>2021-03-21T16:02:21Z</time>
      </trkpt>
      <trkpt lat="49.44523" lon="1.11002">
        <ele>41.4</ele>
        <time>2021-03-21T16:02:23Z</time>
      </trkpt>
      <trkpt lat="49.44526" lon="1.10992">
        <ele>41.5</ele>
        <time>2021-03-21T16:02:25Z</time>
      </trkpt>
      <trkpt lat="49.44529" lon="1.10985">
        <ele>41.7</ele>
        <time>2021-03-21T16:02:27Z</time>
      </trkpt>
      <trkpt lat="49.44549" lon="1.10932">
        <ele>42.2</ele>
        <time>2021-03-21T16:02:29Z</time>
      </trkpt>
      <trkpt lat="49.44553" lon="1.1092">
        <ele>42.3</ele>
        <time>2021-03-21T16:02:31Z</time>
      </trkpt>
      <trkpt lat="49.44555" lon="1.10914">
        <ele>42.4</ele>
        <time>2021-03-21T16:02:32Z</time>
      </trkpt>
      <trkpt lat="49.4456" lon="1.109">
        <ele>42.5</ele>
        <time>2021-03-21T16:02:34Z</time>
      </trkpt>
      <trkpt lat="49.44563" lon="1.10894">
        <ele>42.5</ele>
        <time>2021-03-21T16:02:35Z</time>
      </trkpt>
      <trkpt lat="49.44566" lon="1.10882">
        <ele>42.6</ele>
        <time>2021-03-21T16:02:37Z</time>
      </trkpt>
      <trkpt lat="49.44569" lon="1.10874">
        <ele>42.6</ele>
        <time>2021-03-21T16:02:38Z</time>
      </trkpt>
      <trkpt lat="49.44574" lon="1.10859">
        <ele>42.8</ele>
        <time>2021-03-21T16:02:40Z</time>
      </trkpt>
      <trkpt lat="49.44578" lon="1.10847">
        <ele>42.8</ele>
        <time>2021-03-21T16:02:42Z</time>
      </trkpt>
      <trkpt lat="49.44583" lon="1.10834">
        <ele>42.9</ele>
        <time>2021-03-21T16:02:44Z</time>
      </trkpt>
      <trkpt lat="49.44585" lon="1.10827">
        <ele>42.9</ele>
        <time>2021-03-21T16:02:45Z</time>
      </trkpt>
      <trkpt lat="49.44587" lon="1.10822">
        <ele>43</ele>
        <time>2021-03-21T16:02:46Z</time>
      </trkpt>
      <trkpt lat="49.44589" lon="1.10815">
        <ele>43.1</ele>
        <time>2021-03-21T16:02:47Z</time>
      </trkpt>
      <trkpt lat="49.44593" lon="1.108">
        <ele>43.2</ele>
        <time>2021-03-21T16:02:49Z</time>
      </trkpt>
      <trkpt lat="49.44595" lon="1.10793">
        <ele>43.3</ele>
        <time>2021-03-21T16:02:50Z</time>
      </trkpt>
      <trkpt lat="49.44598" lon="1.1078">
        <ele>43.5</ele>
        <time>2021-03-21T16:02:52Z</time>
      </trkpt>
      <trkpt lat="49.446" lon="1.10774">
        <ele>43.6</ele>
        <time>2021-03-21T16:02:53Z</time>
      </trkpt>
      <trkpt lat="49.44602" lon="1.10769">
        <ele>43.7</ele>
        <time>2021-03-21T16:02:54Z</time>
      </trkpt>
      <trkpt lat="49.44606" lon="1.10759">
        <ele>43.8</ele>
        <time>2021-03-21T16:02:56Z</time>
      </trkpt>
      <trkpt lat="49.44609" lon="1.1075">
        <ele>43.9</ele>
        <time>2021-03-21T16:02:58Z</time>
      </trkpt>
      <trkpt lat="49.44614" lon="1.10737">
        <ele>44.1</ele>
        <time>2021-03-21T16:03:00Z</time>
      </trkpt>
      <trkpt lat="49.44617" lon="1.10727">
        <ele>44.3</ele>
        <time>2021-03-21T16:03:01Z</time>
      </trkpt>
      <trkpt lat="49.44621" lon="1.10715">
        <ele>44.5</ele>
        <time>2021-03-21T16:03:03Z</time>
      </trkpt>
      <trkpt lat="49.44626" lon="1.10703">
        <ele>44.7</ele>
        <time>2021-03-21T16:03:05Z</time>
      </trkpt>
      <trkpt lat="49.44628" lon="1.10696">
        <ele>44.9</ele>
        <time>2021-03-21T16:03:06Z</time>
      </trkpt>
      <trkpt lat="49.44632" lon="1.10684">
        <ele>44.9</ele>
        <time>2021-03-21T16:03:08Z</time>
      </trkpt>
      <trkpt lat="49.44635" lon="1.10677">
        <ele>45</ele>
        <time>2021-03-21T16:03:09Z</time>
      </trkpt>
      <trkpt lat="49.44639" lon="1.10663">
        <ele>45.1</ele>
        <time>2021-03-21T16:03:11Z</time>
      </trkpt>
      <trkpt lat="49.44643" lon="1.1065">
        <ele>45.2</ele>
        <time>2021-03-21T16:03:13Z</time>
      </trkpt>
      <trkpt lat="49.44646" lon="1.10642">
        <ele>45.3</ele>
        <time>2021-03-21T16:03:14Z</time>
      </trkpt>
      <trkpt lat="49.44652" lon="1.10626">
        <ele>45.6</ele>
        <time>2021-03-21T16:03:16Z</time>
      </trkpt>
      <trkpt lat="49.44655" lon="1.10618">
        <ele>45.7</ele>
        <time>2021-03-21T16:03:17Z</time>
      </trkpt>
      <trkpt lat="49.44657" lon="1.1061">
        <ele>45.7</ele>
        <time>2021-03-21T16:03:18Z</time>
      </trkpt>
      <trkpt lat="49.44663" lon="1.10594">
        <ele>45.9</ele>
        <time>2021-03-21T16:03:20Z</time>
      </trkpt>
      <trkpt lat="49.44666" lon="1.10586">
        <ele>45.9</ele>
        <time>2021-03-21T16:03:21Z</time>
      </trkpt>
      <trkpt lat="49.44669" lon="1.10577">
        <ele>46</ele>
        <time>2021-03-21T16:03:22Z</time>
      </trkpt>
      <trkpt lat="49.44671" lon="1.1057">
        <ele>46.1</ele>
        <time>2021-03-21T16:03:23Z</time>
      </trkpt>
      <trkpt lat="49.44673" lon="1.10563">
        <ele>46.1</ele>
        <time>2021-03-21T16:03:24Z</time>
      </trkpt>
      <trkpt lat="49.44676" lon="1.10557">
        <ele>46.2</ele>
        <time>2021-03-21T16:03:25Z</time>
      </trkpt>
      <trkpt lat="49.44681" lon="1.10545">
        <ele>46.2</ele>
        <time>2021-03-21T16:03:27Z</time>
      </trkpt>
      <trkpt lat="49.44683" lon="1.10539">
        <ele>46.2</ele>
        <time>2021-03-21T16:03:28Z</time>
      </trkpt>
      <trkpt lat="49.44685" lon="1.10533">
        <ele>46.3</ele>
        <time>2021-03-21T16:03:29Z</time>
      </trkpt>
      <trkpt lat="49.44688" lon="1.1052">
        <ele>46.4</ele>
        <time>2021-03-21T16:03:31Z</time>
      </trkpt>
      <trkpt lat="49.44694" lon="1.10503">
        <ele>46.6</ele>
        <time>2021-03-21T16:03:33Z</time>
      </trkpt>
      <trkpt lat="49.44696" lon="1.10495">
        <ele>46.7</ele>
        <time>2021-03-21T16:03:34Z</time>
      </trkpt>
      <trkpt lat="49.44699" lon="1.10488">
        <ele>46.7</ele>
        <time>2021-03-21T16:03:35Z</time>
      </trkpt>
      <trkpt lat="49.447" lon="1.10482">
        <ele>46.8</ele>
        <time>2021-03-21T16:03:36Z</time>
      </trkpt>
      <trkpt lat="49.44704" lon="1.10471">
        <ele>46.9</ele>
        <time>2021-03-21T16:03:38Z</time>
      </trkpt>
      <trkpt lat="49.44708" lon="1.10457">
        <ele>47</ele>
        <time>2021-03-21T16:03:40Z</time>
      </trkpt>
      <trkpt lat="49.4471" lon="1.1045">
        <ele>47</ele>
        <time>2021-03-21T16:03:41Z</time>
      </trkpt>
      <trkpt lat="49.44716" lon="1.10434">
        <ele>47.2</ele>
        <time>2021-03-21T16:03:43Z</time>
      </trkpt>
      <trkpt lat="49.44721" lon="1.10418">
        <ele>47.4</ele>
        <time>2021-03-21T16:03:45Z</time>
      </trkpt>
      <trkpt lat="49.44728" lon="1.10402">
        <ele>47.5</ele>
        <time>2021-03-21T16:03:47Z</time>
      </trkpt>
      <trkpt lat="49.44733" lon="1.10387">
        <ele>47.7</ele>
        <time>2021-03-21T16:03:49Z</time>
      </trkpt>
      <trkpt lat="49.44738" lon="1.10372">
        <ele>47.9</ele>
        <time>2021-03-21T16:03:51Z</time>
      </trkpt>
      <trkpt lat="49.44743" lon="1.10358">
        <ele>48</ele>
        <time>2021-03-21T16:03:53Z</time>
      </trkpt>
      <trkpt lat="49.44746" lon="1.10352">
        <ele>48.1</ele>
        <time>2021-03-21T16:03:54Z</time>
      </trkpt>
      <trkpt lat="49.44749" lon="1.10344">
        <ele>48.2</ele>
        <time>2021-03-21T16:03:55Z</time>
      </trkpt>
      <trkpt lat="49.44756" lon="1.10327">
        <ele>48.5</ele>
        <time>2021-03-21T16:03:57Z</time>
      </trkpt>
      <trkpt lat="49.44759" lon="1.10318">
        <ele>48.6</ele>
        <time>2021-03-21T16:03:58Z</time>
      </trkpt>
      <trkpt lat="49.44766" lon="1.10302">
        <ele>48.8</ele>
        <time>2021-03-21T16:04:00Z</time>
      </trkpt>
      <trkpt lat="49.44772" lon="1.10286">
        <ele>49</ele>
        <time>2021-03-21T16:04:02Z</time>
      </trkpt>
      <trkpt lat="49.44775" lon="1.10279">
        <ele>49.1</ele>
        <time>2021-03-21T16:04:03Z</time>
      </trkpt>
      <trkpt lat="49.4478" lon="1.10265">
        <ele>49.3</ele>
        <time>2021-03-21T16:04:05Z</time>
      </trkpt>
      <trkpt lat="49.44784" lon="1.10254">
        <ele>49.4</ele>
        <time>2021-03-21T16:04:07Z</time>
      </trkpt>
      <trkpt lat="49.44785" lon="1.10248">
        <ele>49.5</ele>
        <time>2021-03-21T16:04:08Z</time>
      </trkpt>
      <trkpt lat="49.44787" lon="1.10242">
        <ele>49.6</ele>
        <time>2021-03-21T16:04:09Z</time>
      </trkpt>
      <trkpt lat="49.44791" lon="1.10227">
        <ele>49.7</ele>
        <time>2021-03-21T16:04:11Z</time>
      </trkpt>
      <trkpt lat="49.44793" lon="1.10219">
        <ele>49.7</ele>
        <time>2021-03-21T16:04:12Z</time>
      </trkpt>
      <trkpt lat="49.44795" lon="1.10211">
        <ele>49.7</ele>
        <time>2021-03-21T16:04:13Z</time>
      </trkpt>
      <trkpt lat="49.44797" lon="1.10203">
        <ele>49.7</ele>
        <time>2021-03-21T16:04:14Z</time>
      </trkpt>
      <trkpt lat="49.44799" lon="1.10196">
        <ele>49.8</ele>
        <time>2021-03-21T16:04:15Z</time>
      </trkpt>
      <trkpt lat="49.44802" lon="1.10188">
        <ele>49.8</ele>
        <time>2021-03-21T16:04:16Z</time>
      </trkpt>
      <trkpt lat="49.44807" lon="1.10173">
        <ele>49.9</ele>
        <time>2021-03-21T16:04:18Z</time>
      </trkpt>
      <trkpt lat="49.44811" lon="1.1016">
        <ele>49.9</ele>
        <time>2021-03-21T16:04:20Z</time>
      </trkpt>
      <trkpt lat="49.44813" lon="1.10153">
        <ele>50</ele>
        <time>2021-03-21T16:04:21Z</time>
      </trkpt>
      <trkpt lat="49.44816" lon="1.10144">
        <ele>50</ele>
        <time>2021-03-21T16:04:22Z</time>
      </trkpt>
      <trkpt lat="49.44821" lon="1.1013">
        <ele>50.2</ele>
        <time>2021-03-21T16:04:24Z</time>
      </trkpt>
      <trkpt lat="49.44824" lon="1.10123">
        <ele>50.2</ele>
        <time>2021-03-21T16:04:25Z</time>
      </trkpt>
      <trkpt lat="49.4483" lon="1.10109">
        <ele>50.3</ele>
        <time>2021-03-21T16:04:27Z</time>
      </trkpt>
      <trkpt lat="49.44835" lon="1.10095">
        <ele>50.4</ele>
        <time>2021-03-21T16:04:29Z</time>
      </trkpt>
      <trkpt lat="49.44841" lon="1.10081">
        <ele>50.3</ele>
        <time>2021-03-21T16:04:31Z</time>
      </trkpt>
      <trkpt lat="49.44843" lon="1.10073">
        <ele>50.2</ele>
        <time>2021-03-21T16:04:32Z</time>
      </trkpt>
      <trkpt lat="49.44849" lon="1.10058">
        <ele>50</ele>
        <time>2021-03-21T16:04:34Z</time>
      </trkpt>
      <trkpt lat="49.44851" lon="1.1005">
        <ele>49.8</ele>
        <time>2021-03-21T16:04:35Z</time>
      </trkpt>
      <trkpt lat="49.44853" lon="1.10042">
        <ele>49.7</ele>
        <time>2021-03-21T16:04:36Z</time>
      </trkpt>
      <trkpt lat="49.44855" lon="1.10033">
        <ele>49.6</ele>
        <time>2021-03-21T16:04:37Z</time>
      </trkpt>
      <trkpt lat="49.44857" lon="1.10025">
        <ele>49.5</ele>
        <time>2021-03-21T16:04:38Z</time>
      </trkpt>
      <trkpt lat="49.44861" lon="1.10008">
        <ele>49.2</ele>
        <time>2021-03-21T16:04:40Z</time>
      </trkpt>
      <trkpt lat="49.44865" lon="1.09992">
        <ele>49</ele>
        <time>2021-03-21T16:04:42Z</time>
      </trkpt>
      <trkpt lat="49.44866" lon="1.09976">
        <ele>48.7</ele>
        <time>2021-03-21T16:04:44Z</time>
      </trkpt>
      <trkpt lat="49.44865" lon="1.09962">
        <ele>48.7</ele>
        <time>2021-03-21T16:04:46Z</time>
      </trkpt>
      <trkpt lat="49.44859" lon="1.09946">
        <ele>48.6</ele>
        <time>2021-03-21T16:04:48Z</time>
      </trkpt>
      <trkpt lat="49.44852" lon="1.0993">
        <ele>48.2</ele>
        <time>2021-03-21T16:04:50Z</time>
      </trkpt>
      <trkpt lat="49.44849" lon="1.09922">
        <ele>47.9</ele>
        <time>2021-03-21T16:04:51Z</time>
      </trkpt>
      <trkpt lat="49.44845" lon="1.09913">
        <ele>47.7</ele>
        <time>2021-03-21T16:04:52Z</time>
      </trkpt>
      <trkpt lat="49.44842" lon="1.09905">
        <ele>47.5</ele>
        <time>2021-03-21T16:04:53Z</time>
      </trkpt>
      <trkpt lat="49.44835" lon="1.09888">
        <ele>47.1</ele>
        <time>2021-03-21T16:04:55Z</time>
      </trkpt>
      <trkpt lat="49.44831" lon="1.0988">
        <ele>46.9</ele>
        <time>2021-03-21T16:04:56Z</time>
      </trkpt>
      <trkpt lat="49.44827" lon="1.09871">
        <ele>46.7</ele>
        <time>2021-03-21T16:04:57Z</time>
      </trkpt>
      <trkpt lat="49.44818" lon="1.09854">
        <ele>46.3</ele>
        <time>2021-03-21T16:04:59Z</time>
      </trkpt>
      <trkpt lat="49.44814" lon="1.09846">
        <ele>46.1</ele>
        <time>2021-03-21T16:05:00Z</time>
      </trkpt>
      <trkpt lat="49.4481" lon="1.09839">
        <ele>45.9</ele>
        <time>2021-03-21T16:05:01Z</time>
      </trkpt>
      <trkpt lat="49.44801" lon="1.09824">
        <ele>45.5</ele>
        <time>2021-03-21T16:05:03Z</time>
      </trkpt>
      <trkpt lat="49.44793" lon="1.09809">
        <ele>45.1</ele>
        <time>2021-03-21T16:05:05Z</time>
      </trkpt>
      <trkpt lat="49.44788" lon="1.09803">
        <ele>44.9</ele>
        <time>2021-03-21T16:05:06Z</time>
      </trkpt>
      <trkpt lat="49.4478" lon="1.09788">
        <ele>44.5</ele>
        <time>2021-03-21T16:05:08Z</time>
      </trkpt>
      <trkpt lat="49.44773" lon="1.09771">
        <ele>44</ele>
        <time>2021-03-21T16:05:10Z</time>
      </trkpt>
      <trkpt lat="49.44769" lon="1.09762">
        <ele>43.8</ele>
        <time>2021-03-21T16:05:11Z</time>
      </trkpt>
      <trkpt lat="49.44766" lon="1.09754">
        <ele>43.5</ele>
        <time>2021-03-21T16:05:12Z</time>
      </trkpt>
      <trkpt lat="49.44759" lon="1.09737">
        <ele>43</ele>
        <time>2021-03-21T16:05:14Z</time>
      </trkpt>
      <trkpt lat="49.44752" lon="1.09721">
        <ele>42.5</ele>
        <time>2021-03-21T16:05:16Z</time>
      </trkpt>
      <trkpt lat="49.44745" lon="1.09703">
        <ele>42.1</ele>
        <time>2021-03-21T16:05:18Z</time>
      </trkpt>
      <trkpt lat="49.44742" lon="1.09695">
        <ele>41.8</ele>
        <time>2021-03-21T16:05:19Z</time>
      </trkpt>
      <trkpt lat="49.44738" lon="1.09686">
        <ele>41.6</ele>
        <time>2021-03-21T16:05:20Z</time>
      </trkpt>
      <trkpt lat="49.44731" lon="1.09669">
        <ele>41.3</ele>
        <time>2021-03-21T16:05:22Z</time>
      </trkpt>
      <trkpt lat="49.44725" lon="1.09653">
        <ele>40.8</ele>
        <time>2021-03-21T16:05:24Z</time>
      </trkpt>
      <trkpt lat="49.44722" lon="1.09635">
        <ele>40.5</ele>
        <time>2021-03-21T16:05:26Z</time>
      </trkpt>
      <trkpt lat="49.44721" lon="1.09617">
        <ele>40.1</ele>
        <time>2021-03-21T16:05:28Z</time>
      </trkpt>
      <trkpt lat="49.44724" lon="1.09609">
        <ele>39.9</ele>
        <time>2021-03-21T16:05:29Z</time>
      </trkpt>
      <trkpt lat="49.44729" lon="1.0959">
        <ele>39.5</ele>
        <time>2021-03-21T16:05:31Z</time>
      </trkpt>
      <trkpt lat="49.44731" lon="1.09572">
        <ele>39.2</ele>
        <time>2021-03-21T16:05:33Z</time>
      </trkpt>
      <trkpt lat="49.44731" lon="1.09562">
        <ele>39</ele>
        <time>2021-03-21T16:05:34Z</time>
      </trkpt>
      <trkpt lat="49.44736" lon="1.09546">
        <ele>38.6</ele>
        <time>2021-03-21T16:05:36Z</time>
      </trkpt>
      <trkpt lat="49.4474" lon="1.09541">
        <ele>38.4</ele>
        <time>2021-03-21T16:05:37Z</time>
      </trkpt>
      <trkpt lat="49.44747" lon="1.09542">
        <ele>38.5</ele>
        <time>2021-03-21T16:05:39Z</time>
      </trkpt>
      <trkpt lat="49.44752" lon="1.09542">
        <ele>38.6</ele>
        <time>2021-03-21T16:05:41Z</time>
      </trkpt>
      <trkpt lat="49.44755" lon="1.09542">
        <ele>38.7</ele>
        <time>2021-03-21T16:05:42Z</time>
      </trkpt>
      <trkpt lat="49.44763" lon="1.09541">
        <ele>38.8</ele>
        <time>2021-03-21T16:05:44Z</time>
      </trkpt>
      <trkpt lat="49.44769" lon="1.0954">
        <ele>39</ele>
        <time>2021-03-21T16:05:46Z</time>
      </trkpt>
      <trkpt lat="49.44775" lon="1.09542">
        <ele>39.2</ele>
        <time>2021-03-21T16:05:48Z</time>
      </trkpt>
      <trkpt lat="49.44778" lon="1.09543">
        <ele>39.3</ele>
        <time>2021-03-21T16:05:49Z</time>
      </trkpt>
      <trkpt lat="49.44783" lon="1.09544">
        <ele>39.5</ele>
        <time>2021-03-21T16:05:51Z</time>
      </trkpt>
      <trkpt lat="49.44786" lon="1.09545">
        <ele>39.6</ele>
        <time>2021-03-21T16:05:52Z</time>
      </trkpt>
      <trkpt lat="49.44789" lon="1.09547">
        <ele>39.7</ele>
        <time>2021-03-21T16:05:53Z</time>
      </trkpt>
      <trkpt lat="49.44794" lon="1.09549">
        <ele>39.8</ele>
        <time>2021-03-21T16:05:55Z</time>
      </trkpt>
      <trkpt lat="49.44801" lon="1.09551">
        <ele>40.1</ele>
        <time>2021-03-21T16:05:57Z</time>
      </trkpt>
      <trkpt lat="49.44815" lon="1.09551">
        <ele>40.4</ele>
        <time>2021-03-21T16:05:59Z</time>
      </trkpt>
      <trkpt lat="49.44818" lon="1.09552">
        <ele>40.5</ele>
        <time>2021-03-21T16:06:00Z</time>
      </trkpt>
      <trkpt lat="49.44821" lon="1.09555">
        <ele>40.6</ele>
        <time>2021-03-21T16:06:01Z</time>
      </trkpt>
      <trkpt lat="49.44828" lon="1.09558">
        <ele>40.7</ele>
        <time>2021-03-21T16:06:03Z</time>
      </trkpt>
      <trkpt lat="49.44833" lon="1.0956">
        <ele>40.9</ele>
        <time>2021-03-21T16:06:04Z</time>
      </trkpt>
    </trkseg>
  </trk>
</gpx>